<?xml version="1.0" encoding="UTF-8" standalone="no" ?>
<gpx xmlns="http://www.topografix.com/GPX/1/1" xmlns:xsi="http://www.w3.org/2001/XMLSchema-instance" xsi:schemaLocation="http://www.topografix.com/GPX/1/1 http://www.topografix.com/GPX/1/1/gpx.xsd" version="1.1" creator="VisuGPX - https://www.visugpx.com">
  <metadata>
    <name>Jour 04 - Le Chemin Sauvage</name>
  </metadata>
  <trk>
    <name><![CDATA[2026-05-05 16:04:13]]></name>
    <trkseg>
      <trkpt lat="45.96479" lon="1.74192">
        <ele>388.03</ele>
        <time>2026-05-05T05:07:15Z</time>
      </trkpt>
      <trkpt lat="45.96479" lon="1.74192">
        <ele>389.47</ele>
        <time>2026-05-05T05:07:16Z</time>
      </trkpt>
      <trkpt lat="45.96485" lon="1.74192">
        <ele>389.47</ele>
        <time>2026-05-05T05:07:20Z</time>
      </trkpt>
      <trkpt lat="45.96486" lon="1.74192">
        <ele>388.51</ele>
        <time>2026-05-05T05:07:24Z</time>
      </trkpt>
      <trkpt lat="45.96489" lon="1.74205">
        <ele>388.99</ele>
        <time>2026-05-05T05:07:48Z</time>
      </trkpt>
      <trkpt lat="45.96484" lon="1.74208">
        <ele>388.03</ele>
        <time>2026-05-05T05:08:04Z</time>
      </trkpt>
      <trkpt lat="45.96484" lon="1.74209">
        <ele>388.03</ele>
        <time>2026-05-05T05:08:35Z</time>
      </trkpt>
      <trkpt lat="45.96484" lon="1.74206">
        <ele>389.47</ele>
        <time>2026-05-05T05:08:39Z</time>
      </trkpt>
      <trkpt lat="45.96483" lon="1.74202">
        <ele>388.03</ele>
        <time>2026-05-05T05:08:47Z</time>
      </trkpt>
      <trkpt lat="45.96481" lon="1.742">
        <ele>388.03</ele>
        <time>2026-05-05T05:08:52Z</time>
      </trkpt>
      <trkpt lat="45.96475" lon="1.74198">
        <ele>388.03</ele>
        <time>2026-05-05T05:08:56Z</time>
      </trkpt>
      <trkpt lat="45.96463" lon="1.74204">
        <ele>388.03</ele>
        <time>2026-05-05T05:09:09Z</time>
      </trkpt>
      <trkpt lat="45.96449" lon="1.74224">
        <ele>388.03</ele>
        <time>2026-05-05T05:09:26Z</time>
      </trkpt>
      <trkpt lat="45.96443" lon="1.74244">
        <ele>389.47</ele>
        <time>2026-05-05T05:09:41Z</time>
      </trkpt>
      <trkpt lat="45.96441" lon="1.74249">
        <ele>389.47</ele>
        <time>2026-05-05T05:09:44Z</time>
      </trkpt>
      <trkpt lat="45.96434" lon="1.74273">
        <ele>390.43</ele>
        <time>2026-05-05T05:09:59Z</time>
      </trkpt>
      <trkpt lat="45.96414" lon="1.74273">
        <ele>393.32</ele>
        <time>2026-05-05T05:10:20Z</time>
      </trkpt>
      <trkpt lat="45.96401" lon="1.74274">
        <ele>395.24</ele>
        <time>2026-05-05T05:10:32Z</time>
      </trkpt>
      <trkpt lat="45.96383" lon="1.7428">
        <ele>397.16</ele>
        <time>2026-05-05T05:10:50Z</time>
      </trkpt>
      <trkpt lat="45.96366" lon="1.74294">
        <ele>399.08</ele>
        <time>2026-05-05T05:11:08Z</time>
      </trkpt>
      <trkpt lat="45.9635" lon="1.74315">
        <ele>400.53</ele>
        <time>2026-05-05T05:11:26Z</time>
      </trkpt>
      <trkpt lat="45.96337" lon="1.74332">
        <ele>402.45</ele>
        <time>2026-05-05T05:11:41Z</time>
      </trkpt>
      <trkpt lat="45.96326" lon="1.74352">
        <ele>403.89</ele>
        <time>2026-05-05T05:11:55Z</time>
      </trkpt>
      <trkpt lat="45.96315" lon="1.7437">
        <ele>404.85</ele>
        <time>2026-05-05T05:12:10Z</time>
      </trkpt>
      <trkpt lat="45.96314" lon="1.74374">
        <ele>404.85</ele>
        <time>2026-05-05T05:12:12Z</time>
      </trkpt>
      <trkpt lat="45.96305" lon="1.74398">
        <ele>405.81</ele>
        <time>2026-05-05T05:12:27Z</time>
      </trkpt>
      <trkpt lat="45.96305" lon="1.74399">
        <ele>405.81</ele>
        <time>2026-05-05T05:12:28Z</time>
      </trkpt>
      <trkpt lat="45.96294" lon="1.74418">
        <ele>407.26</ele>
        <time>2026-05-05T05:12:44Z</time>
      </trkpt>
      <trkpt lat="45.96274" lon="1.7444">
        <ele>409.66</ele>
        <time>2026-05-05T05:13:02Z</time>
      </trkpt>
      <trkpt lat="45.96254" lon="1.74452">
        <ele>412.06</ele>
        <time>2026-05-05T05:13:24Z</time>
      </trkpt>
      <trkpt lat="45.96249" lon="1.74455">
        <ele>412.06</ele>
        <time>2026-05-05T05:13:28Z</time>
      </trkpt>
      <trkpt lat="45.96238" lon="1.74463">
        <ele>413.5</ele>
        <time>2026-05-05T05:13:38Z</time>
      </trkpt>
      <trkpt lat="45.96217" lon="1.74473">
        <ele>413.98</ele>
        <time>2026-05-05T05:13:55Z</time>
      </trkpt>
      <trkpt lat="45.9621" lon="1.74474">
        <ele>414.95</ele>
        <time>2026-05-05T05:14:00Z</time>
      </trkpt>
      <trkpt lat="45.96204" lon="1.74477">
        <ele>414.95</ele>
        <time>2026-05-05T05:14:05Z</time>
      </trkpt>
      <trkpt lat="45.96181" lon="1.74483">
        <ele>415.91</ele>
        <time>2026-05-05T05:14:22Z</time>
      </trkpt>
      <trkpt lat="45.96159" lon="1.74489">
        <ele>417.35</ele>
        <time>2026-05-05T05:14:39Z</time>
      </trkpt>
      <trkpt lat="45.96147" lon="1.74494">
        <ele>418.31</ele>
        <time>2026-05-05T05:14:49Z</time>
      </trkpt>
      <trkpt lat="45.96126" lon="1.745">
        <ele>419.27</ele>
        <time>2026-05-05T05:15:04Z</time>
      </trkpt>
      <trkpt lat="45.96103" lon="1.74508">
        <ele>421.19</ele>
        <time>2026-05-05T05:15:21Z</time>
      </trkpt>
      <trkpt lat="45.96087" lon="1.74512">
        <ele>422.16</ele>
        <time>2026-05-05T05:15:36Z</time>
      </trkpt>
      <trkpt lat="45.96061" lon="1.74515">
        <ele>423.6</ele>
        <time>2026-05-05T05:15:54Z</time>
      </trkpt>
      <trkpt lat="45.96042" lon="1.74516">
        <ele>425.52</ele>
        <time>2026-05-05T05:16:10Z</time>
      </trkpt>
      <trkpt lat="45.96017" lon="1.74516">
        <ele>427.44</ele>
        <time>2026-05-05T05:16:28Z</time>
      </trkpt>
      <trkpt lat="45.96" lon="1.74517">
        <ele>427.44</ele>
        <time>2026-05-05T05:16:41Z</time>
      </trkpt>
      <trkpt lat="45.95996" lon="1.74518">
        <ele>427.92</ele>
        <time>2026-05-05T05:16:45Z</time>
      </trkpt>
      <trkpt lat="45.95978" lon="1.74527">
        <ele>428.89</ele>
        <time>2026-05-05T05:17:00Z</time>
      </trkpt>
      <trkpt lat="45.95958" lon="1.74534">
        <ele>429.85</ele>
        <time>2026-05-05T05:17:15Z</time>
      </trkpt>
      <trkpt lat="45.95943" lon="1.74541">
        <ele>430.33</ele>
        <time>2026-05-05T05:17:28Z</time>
      </trkpt>
      <trkpt lat="45.95928" lon="1.74547">
        <ele>431.77</ele>
        <time>2026-05-05T05:17:41Z</time>
      </trkpt>
      <trkpt lat="45.95912" lon="1.74559">
        <ele>433.21</ele>
        <time>2026-05-05T05:17:55Z</time>
      </trkpt>
      <trkpt lat="45.95897" lon="1.74569">
        <ele>434.65</ele>
        <time>2026-05-05T05:18:08Z</time>
      </trkpt>
      <trkpt lat="45.95896" lon="1.74571">
        <ele>435.13</ele>
        <time>2026-05-05T05:18:10Z</time>
      </trkpt>
      <trkpt lat="45.95879" lon="1.74582">
        <ele>437.06</ele>
        <time>2026-05-05T05:18:25Z</time>
      </trkpt>
      <trkpt lat="45.9587" lon="1.74588">
        <ele>438.5</ele>
        <time>2026-05-05T05:18:34Z</time>
      </trkpt>
      <trkpt lat="45.95863" lon="1.74597">
        <ele>439.46</ele>
        <time>2026-05-05T05:18:42Z</time>
      </trkpt>
      <trkpt lat="45.95856" lon="1.74604">
        <ele>439.94</ele>
        <time>2026-05-05T05:18:49Z</time>
      </trkpt>
      <trkpt lat="45.95852" lon="1.7461">
        <ele>439.94</ele>
        <time>2026-05-05T05:18:53Z</time>
      </trkpt>
      <trkpt lat="45.95847" lon="1.74613">
        <ele>440.42</ele>
        <time>2026-05-05T05:18:58Z</time>
      </trkpt>
      <trkpt lat="45.95839" lon="1.74619">
        <ele>440.9</ele>
        <time>2026-05-05T05:19:06Z</time>
      </trkpt>
      <trkpt lat="45.9583" lon="1.74626">
        <ele>441.86</ele>
        <time>2026-05-05T05:19:15Z</time>
      </trkpt>
      <trkpt lat="45.95822" lon="1.74634">
        <ele>442.82</ele>
        <time>2026-05-05T05:19:23Z</time>
      </trkpt>
      <trkpt lat="45.95805" lon="1.74657">
        <ele>444.27</ele>
        <time>2026-05-05T05:19:37Z</time>
      </trkpt>
      <trkpt lat="45.95792" lon="1.74672">
        <ele>445.23</ele>
        <time>2026-05-05T05:19:49Z</time>
      </trkpt>
      <trkpt lat="45.95783" lon="1.74686">
        <ele>446.19</ele>
        <time>2026-05-05T05:19:59Z</time>
      </trkpt>
      <trkpt lat="45.9578" lon="1.74689">
        <ele>446.19</ele>
        <time>2026-05-05T05:20:02Z</time>
      </trkpt>
      <trkpt lat="45.95773" lon="1.74701">
        <ele>447.15</ele>
        <time>2026-05-05T05:20:10Z</time>
      </trkpt>
      <trkpt lat="45.95758" lon="1.74722">
        <ele>447.63</ele>
        <time>2026-05-05T05:20:25Z</time>
      </trkpt>
      <trkpt lat="45.95753" lon="1.74728">
        <ele>448.11</ele>
        <time>2026-05-05T05:20:30Z</time>
      </trkpt>
      <trkpt lat="45.95748" lon="1.74735">
        <ele>448.11</ele>
        <time>2026-05-05T05:20:35Z</time>
      </trkpt>
      <trkpt lat="45.95731" lon="1.74756">
        <ele>448.11</ele>
        <time>2026-05-05T05:20:50Z</time>
      </trkpt>
      <trkpt lat="45.95721" lon="1.74778">
        <ele>448.11</ele>
        <time>2026-05-05T05:21:02Z</time>
      </trkpt>
      <trkpt lat="45.95713" lon="1.74802">
        <ele>448.59</ele>
        <time>2026-05-05T05:21:15Z</time>
      </trkpt>
      <trkpt lat="45.95711" lon="1.74808">
        <ele>448.59</ele>
        <time>2026-05-05T05:21:18Z</time>
      </trkpt>
      <trkpt lat="45.95698" lon="1.74828">
        <ele>449.07</ele>
        <time>2026-05-05T05:21:32Z</time>
      </trkpt>
      <trkpt lat="45.95687" lon="1.7485">
        <ele>449.55</ele>
        <time>2026-05-05T05:21:47Z</time>
      </trkpt>
      <trkpt lat="45.95684" lon="1.74857">
        <ele>449.55</ele>
        <time>2026-05-05T05:21:51Z</time>
      </trkpt>
      <trkpt lat="45.95672" lon="1.74884">
        <ele>450.03</ele>
        <time>2026-05-05T05:22:04Z</time>
      </trkpt>
      <trkpt lat="45.95664" lon="1.74906">
        <ele>450.52</ele>
        <time>2026-05-05T05:22:16Z</time>
      </trkpt>
      <trkpt lat="45.95652" lon="1.74926">
        <ele>450.52</ele>
        <time>2026-05-05T05:22:29Z</time>
      </trkpt>
      <trkpt lat="45.95638" lon="1.74945">
        <ele>451</ele>
        <time>2026-05-05T05:22:43Z</time>
      </trkpt>
      <trkpt lat="45.95627" lon="1.74959">
        <ele>451.48</ele>
        <time>2026-05-05T05:22:56Z</time>
      </trkpt>
      <trkpt lat="45.95611" lon="1.74975">
        <ele>452.44</ele>
        <time>2026-05-05T05:23:11Z</time>
      </trkpt>
      <trkpt lat="45.95595" lon="1.74986">
        <ele>453.4</ele>
        <time>2026-05-05T05:23:24Z</time>
      </trkpt>
      <trkpt lat="45.95594" lon="1.74986">
        <ele>453.88</ele>
        <time>2026-05-05T05:23:25Z</time>
      </trkpt>
      <trkpt lat="45.95574" lon="1.74994">
        <ele>454.84</ele>
        <time>2026-05-05T05:23:40Z</time>
      </trkpt>
      <trkpt lat="45.95557" lon="1.75006">
        <ele>455.8</ele>
        <time>2026-05-05T05:23:53Z</time>
      </trkpt>
      <trkpt lat="45.95541" lon="1.75022">
        <ele>456.28</ele>
        <time>2026-05-05T05:24:07Z</time>
      </trkpt>
      <trkpt lat="45.95525" lon="1.75032">
        <ele>456.76</ele>
        <time>2026-05-05T05:24:19Z</time>
      </trkpt>
      <trkpt lat="45.95508" lon="1.75042">
        <ele>456.76</ele>
        <time>2026-05-05T05:24:32Z</time>
      </trkpt>
      <trkpt lat="45.95494" lon="1.75052">
        <ele>457.24</ele>
        <time>2026-05-05T05:24:44Z</time>
      </trkpt>
      <trkpt lat="45.9548" lon="1.75072">
        <ele>457.24</ele>
        <time>2026-05-05T05:24:57Z</time>
      </trkpt>
      <trkpt lat="45.95469" lon="1.75093">
        <ele>457.72</ele>
        <time>2026-05-05T05:25:10Z</time>
      </trkpt>
      <trkpt lat="45.95468" lon="1.75095">
        <ele>457.72</ele>
        <time>2026-05-05T05:25:11Z</time>
      </trkpt>
      <trkpt lat="45.95464" lon="1.75102">
        <ele>457.72</ele>
        <time>2026-05-05T05:25:17Z</time>
      </trkpt>
      <trkpt lat="45.95463" lon="1.75104">
        <ele>457.72</ele>
        <time>2026-05-05T05:25:18Z</time>
      </trkpt>
      <trkpt lat="45.95462" lon="1.75105">
        <ele>457.72</ele>
        <time>2026-05-05T05:25:19Z</time>
      </trkpt>
      <trkpt lat="45.95461" lon="1.75107">
        <ele>457.72</ele>
        <time>2026-05-05T05:25:20Z</time>
      </trkpt>
      <trkpt lat="45.9546" lon="1.75109">
        <ele>457.72</ele>
        <time>2026-05-05T05:25:21Z</time>
      </trkpt>
      <trkpt lat="45.95459" lon="1.75111">
        <ele>457.72</ele>
        <time>2026-05-05T05:25:22Z</time>
      </trkpt>
      <trkpt lat="45.95458" lon="1.75112">
        <ele>457.72</ele>
        <time>2026-05-05T05:25:23Z</time>
      </trkpt>
      <trkpt lat="45.95457" lon="1.75114">
        <ele>457.72</ele>
        <time>2026-05-05T05:25:24Z</time>
      </trkpt>
      <trkpt lat="45.95456" lon="1.75114">
        <ele>457.72</ele>
        <time>2026-05-05T05:25:25Z</time>
      </trkpt>
      <trkpt lat="45.95441" lon="1.75121">
        <ele>457.72</ele>
        <time>2026-05-05T05:25:37Z</time>
      </trkpt>
      <trkpt lat="45.95437" lon="1.75121">
        <ele>456.76</ele>
        <time>2026-05-05T05:25:41Z</time>
      </trkpt>
      <trkpt lat="45.95421" lon="1.75128">
        <ele>455.8</ele>
        <time>2026-05-05T05:25:54Z</time>
      </trkpt>
      <trkpt lat="45.95405" lon="1.75136">
        <ele>454.84</ele>
        <time>2026-05-05T05:26:07Z</time>
      </trkpt>
      <trkpt lat="45.95385" lon="1.7514">
        <ele>453.88</ele>
        <time>2026-05-05T05:26:20Z</time>
      </trkpt>
      <trkpt lat="45.95365" lon="1.75148">
        <ele>451.96</ele>
        <time>2026-05-05T05:26:37Z</time>
      </trkpt>
      <trkpt lat="45.95364" lon="1.75155">
        <ele>452.44</ele>
        <time>2026-05-05T05:26:53Z</time>
      </trkpt>
      <trkpt lat="45.95357" lon="1.75159">
        <ele>451</ele>
        <time>2026-05-05T05:27:11Z</time>
      </trkpt>
      <trkpt lat="45.95354" lon="1.7517">
        <ele>451</ele>
        <time>2026-05-05T05:27:17Z</time>
      </trkpt>
      <trkpt lat="45.95356" lon="1.7521">
        <ele>449.55</ele>
        <time>2026-05-05T05:27:36Z</time>
      </trkpt>
      <trkpt lat="45.95355" lon="1.7524">
        <ele>448.11</ele>
        <time>2026-05-05T05:27:51Z</time>
      </trkpt>
      <trkpt lat="45.95349" lon="1.75248">
        <ele>448.11</ele>
        <time>2026-05-05T05:28:05Z</time>
      </trkpt>
      <trkpt lat="45.95352" lon="1.75245">
        <ele>447.63</ele>
        <time>2026-05-05T05:28:16Z</time>
      </trkpt>
      <trkpt lat="45.95355" lon="1.75253">
        <ele>447.63</ele>
        <time>2026-05-05T05:28:20Z</time>
      </trkpt>
      <trkpt lat="45.95359" lon="1.75289">
        <ele>446.19</ele>
        <time>2026-05-05T05:28:38Z</time>
      </trkpt>
      <trkpt lat="45.9536" lon="1.75303">
        <ele>445.23</ele>
        <time>2026-05-05T05:28:46Z</time>
      </trkpt>
      <trkpt lat="45.95362" lon="1.75316">
        <ele>445.23</ele>
        <time>2026-05-05T05:28:54Z</time>
      </trkpt>
      <trkpt lat="45.95354" lon="1.75348">
        <ele>444.27</ele>
        <time>2026-05-05T05:29:07Z</time>
      </trkpt>
      <trkpt lat="45.95355" lon="1.75361">
        <ele>443.79</ele>
        <time>2026-05-05T05:29:20Z</time>
      </trkpt>
      <trkpt lat="45.95353" lon="1.75366">
        <ele>444.27</ele>
        <time>2026-05-05T05:29:42Z</time>
      </trkpt>
      <trkpt lat="45.95354" lon="1.7537">
        <ele>444.27</ele>
        <time>2026-05-05T05:29:54Z</time>
      </trkpt>
      <trkpt lat="45.95357" lon="1.75369">
        <ele>441.86</ele>
        <time>2026-05-05T05:30:03Z</time>
      </trkpt>
      <trkpt lat="45.95356" lon="1.75362">
        <ele>443.79</ele>
        <time>2026-05-05T05:31:10Z</time>
      </trkpt>
      <trkpt lat="45.95353" lon="1.75357">
        <ele>443.79</ele>
        <time>2026-05-05T05:31:22Z</time>
      </trkpt>
      <trkpt lat="45.95356" lon="1.75364">
        <ele>442.82</ele>
        <time>2026-05-05T05:45:07Z</time>
      </trkpt>
      <trkpt lat="45.95356" lon="1.75363">
        <ele>442.82</ele>
        <time>2026-05-05T05:45:31Z</time>
      </trkpt>
      <trkpt lat="45.9536" lon="1.75376">
        <ele>442.34</ele>
        <time>2026-05-05T05:45:49Z</time>
      </trkpt>
      <trkpt lat="45.95358" lon="1.75381">
        <ele>442.34</ele>
        <time>2026-05-05T05:46:13Z</time>
      </trkpt>
      <trkpt lat="45.95359" lon="1.75385">
        <ele>442.34</ele>
        <time>2026-05-05T05:46:16Z</time>
      </trkpt>
      <trkpt lat="45.9536" lon="1.75392">
        <ele>442.34</ele>
        <time>2026-05-05T05:46:20Z</time>
      </trkpt>
      <trkpt lat="45.95361" lon="1.75429">
        <ele>442.34</ele>
        <time>2026-05-05T05:46:40Z</time>
      </trkpt>
      <trkpt lat="45.9536" lon="1.7546">
        <ele>443.79</ele>
        <time>2026-05-05T05:46:58Z</time>
      </trkpt>
      <trkpt lat="45.95361" lon="1.7549">
        <ele>444.75</ele>
        <time>2026-05-05T05:47:15Z</time>
      </trkpt>
      <trkpt lat="45.95362" lon="1.75511">
        <ele>445.23</ele>
        <time>2026-05-05T05:47:34Z</time>
      </trkpt>
      <trkpt lat="45.9536" lon="1.75539">
        <ele>445.71</ele>
        <time>2026-05-05T05:47:50Z</time>
      </trkpt>
      <trkpt lat="45.95358" lon="1.75573">
        <ele>446.19</ele>
        <time>2026-05-05T05:48:09Z</time>
      </trkpt>
      <trkpt lat="45.9536" lon="1.75584">
        <ele>447.15</ele>
        <time>2026-05-05T05:48:19Z</time>
      </trkpt>
      <trkpt lat="45.95368" lon="1.75592">
        <ele>447.63</ele>
        <time>2026-05-05T05:48:28Z</time>
      </trkpt>
      <trkpt lat="45.95372" lon="1.75601">
        <ele>447.63</ele>
        <time>2026-05-05T05:48:44Z</time>
      </trkpt>
      <trkpt lat="45.95373" lon="1.75597">
        <ele>447.63</ele>
        <time>2026-05-05T05:48:50Z</time>
      </trkpt>
      <trkpt lat="45.95372" lon="1.75595">
        <ele>447.63</ele>
        <time>2026-05-05T05:48:52Z</time>
      </trkpt>
      <trkpt lat="45.9537" lon="1.75581">
        <ele>448.11</ele>
        <time>2026-05-05T05:49:06Z</time>
      </trkpt>
      <trkpt lat="45.95368" lon="1.75579">
        <ele>448.11</ele>
        <time>2026-05-05T05:49:13Z</time>
      </trkpt>
      <trkpt lat="45.95365" lon="1.75579">
        <ele>448.11</ele>
        <time>2026-05-05T05:49:16Z</time>
      </trkpt>
      <trkpt lat="45.95353" lon="1.75574">
        <ele>448.59</ele>
        <time>2026-05-05T05:49:32Z</time>
      </trkpt>
      <trkpt lat="45.95345" lon="1.75568">
        <ele>449.07</ele>
        <time>2026-05-05T05:50:04Z</time>
      </trkpt>
      <trkpt lat="45.95346" lon="1.75571">
        <ele>449.55</ele>
        <time>2026-05-05T05:50:23Z</time>
      </trkpt>
      <trkpt lat="45.95344" lon="1.75576">
        <ele>449.55</ele>
        <time>2026-05-05T05:50:28Z</time>
      </trkpt>
      <trkpt lat="45.95342" lon="1.75606">
        <ele>450.03</ele>
        <time>2026-05-05T05:50:36Z</time>
      </trkpt>
      <trkpt lat="45.9535" lon="1.75638">
        <ele>450.52</ele>
        <time>2026-05-05T05:50:43Z</time>
      </trkpt>
      <trkpt lat="45.95356" lon="1.75654">
        <ele>451.48</ele>
        <time>2026-05-05T05:50:49Z</time>
      </trkpt>
      <trkpt lat="45.95356" lon="1.7566">
        <ele>451.48</ele>
        <time>2026-05-05T05:50:52Z</time>
      </trkpt>
      <trkpt lat="45.95358" lon="1.75665">
        <ele>451.48</ele>
        <time>2026-05-05T05:50:56Z</time>
      </trkpt>
      <trkpt lat="45.9536" lon="1.75668">
        <ele>451.48</ele>
        <time>2026-05-05T05:50:58Z</time>
      </trkpt>
      <trkpt lat="45.95358" lon="1.75689">
        <ele>451.48</ele>
        <time>2026-05-05T05:51:10Z</time>
      </trkpt>
      <trkpt lat="45.95359" lon="1.75703">
        <ele>452.44</ele>
        <time>2026-05-05T05:51:22Z</time>
      </trkpt>
      <trkpt lat="45.95356" lon="1.75706">
        <ele>452.44</ele>
        <time>2026-05-05T05:51:27Z</time>
      </trkpt>
      <trkpt lat="45.95353" lon="1.75706">
        <ele>452.44</ele>
        <time>2026-05-05T05:51:30Z</time>
      </trkpt>
      <trkpt lat="45.9535" lon="1.75714">
        <ele>452.92</ele>
        <time>2026-05-05T05:51:50Z</time>
      </trkpt>
      <trkpt lat="45.95349" lon="1.75716">
        <ele>452.92</ele>
        <time>2026-05-05T05:52:09Z</time>
      </trkpt>
      <trkpt lat="45.95317" lon="1.75704">
        <ele>453.4</ele>
        <time>2026-05-05T05:52:24Z</time>
      </trkpt>
      <trkpt lat="45.95309" lon="1.75707">
        <ele>453.4</ele>
        <time>2026-05-05T05:52:36Z</time>
      </trkpt>
      <trkpt lat="45.95286" lon="1.75701">
        <ele>453.4</ele>
        <time>2026-05-05T05:52:51Z</time>
      </trkpt>
      <trkpt lat="45.95281" lon="1.75698">
        <ele>452.44</ele>
        <time>2026-05-05T05:52:56Z</time>
      </trkpt>
      <trkpt lat="45.95267" lon="1.75696">
        <ele>452.44</ele>
        <time>2026-05-05T05:53:07Z</time>
      </trkpt>
      <trkpt lat="45.95262" lon="1.75696">
        <ele>452.44</ele>
        <time>2026-05-05T05:53:12Z</time>
      </trkpt>
      <trkpt lat="45.95241" lon="1.757">
        <ele>451.96</ele>
        <time>2026-05-05T05:53:25Z</time>
      </trkpt>
      <trkpt lat="45.95239" lon="1.75701">
        <ele>451.96</ele>
        <time>2026-05-05T05:53:49Z</time>
      </trkpt>
      <trkpt lat="45.95239" lon="1.75701">
        <ele>451.96</ele>
        <time>2026-05-05T05:53:50Z</time>
      </trkpt>
      <trkpt lat="45.95236" lon="1.75707">
        <ele>451.96</ele>
        <time>2026-05-05T05:54:02Z</time>
      </trkpt>
      <trkpt lat="45.95232" lon="1.7571">
        <ele>451.96</ele>
        <time>2026-05-05T05:54:07Z</time>
      </trkpt>
      <trkpt lat="45.95216" lon="1.75719">
        <ele>453.4</ele>
        <time>2026-05-05T05:54:19Z</time>
      </trkpt>
      <trkpt lat="45.95211" lon="1.75722">
        <ele>452.92</ele>
        <time>2026-05-05T05:54:25Z</time>
      </trkpt>
      <trkpt lat="45.95209" lon="1.75723">
        <ele>452.92</ele>
        <time>2026-05-05T05:54:26Z</time>
      </trkpt>
      <trkpt lat="45.95209" lon="1.75724">
        <ele>453.4</ele>
        <time>2026-05-05T05:54:27Z</time>
      </trkpt>
      <trkpt lat="45.95206" lon="1.75727">
        <ele>453.4</ele>
        <time>2026-05-05T05:54:29Z</time>
      </trkpt>
      <trkpt lat="45.95205" lon="1.75728">
        <ele>452.92</ele>
        <time>2026-05-05T05:54:30Z</time>
      </trkpt>
      <trkpt lat="45.95201" lon="1.75729">
        <ele>452.92</ele>
        <time>2026-05-05T05:54:34Z</time>
      </trkpt>
      <trkpt lat="45.952" lon="1.7573">
        <ele>452.92</ele>
        <time>2026-05-05T05:54:35Z</time>
      </trkpt>
      <trkpt lat="45.95187" lon="1.75729">
        <ele>453.4</ele>
        <time>2026-05-05T05:54:44Z</time>
      </trkpt>
      <trkpt lat="45.95186" lon="1.75731">
        <ele>453.4</ele>
        <time>2026-05-05T05:54:45Z</time>
      </trkpt>
      <trkpt lat="45.95185" lon="1.75733">
        <ele>453.4</ele>
        <time>2026-05-05T05:54:46Z</time>
      </trkpt>
      <trkpt lat="45.95172" lon="1.75754">
        <ele>454.36</ele>
        <time>2026-05-05T05:55:00Z</time>
      </trkpt>
      <trkpt lat="45.95161" lon="1.75773">
        <ele>454.84</ele>
        <time>2026-05-05T05:55:14Z</time>
      </trkpt>
      <trkpt lat="45.95155" lon="1.75782">
        <ele>454.84</ele>
        <time>2026-05-05T05:55:19Z</time>
      </trkpt>
      <trkpt lat="45.95154" lon="1.75786">
        <ele>454.84</ele>
        <time>2026-05-05T05:55:23Z</time>
      </trkpt>
      <trkpt lat="45.95153" lon="1.75788">
        <ele>454.84</ele>
        <time>2026-05-05T05:55:24Z</time>
      </trkpt>
      <trkpt lat="45.95152" lon="1.75789">
        <ele>454.84</ele>
        <time>2026-05-05T05:55:25Z</time>
      </trkpt>
      <trkpt lat="45.95143" lon="1.75809">
        <ele>455.8</ele>
        <time>2026-05-05T05:55:37Z</time>
      </trkpt>
      <trkpt lat="45.95141" lon="1.75818">
        <ele>455.8</ele>
        <time>2026-05-05T05:55:42Z</time>
      </trkpt>
      <trkpt lat="45.9514" lon="1.7582">
        <ele>455.8</ele>
        <time>2026-05-05T05:55:43Z</time>
      </trkpt>
      <trkpt lat="45.95131" lon="1.75837">
        <ele>455.8</ele>
        <time>2026-05-05T05:55:55Z</time>
      </trkpt>
      <trkpt lat="45.95127" lon="1.75844">
        <ele>456.28</ele>
        <time>2026-05-05T05:56:02Z</time>
      </trkpt>
      <trkpt lat="45.95126" lon="1.75844">
        <ele>456.28</ele>
        <time>2026-05-05T05:56:03Z</time>
      </trkpt>
      <trkpt lat="45.95124" lon="1.75844">
        <ele>456.28</ele>
        <time>2026-05-05T05:56:04Z</time>
      </trkpt>
      <trkpt lat="45.95122" lon="1.75843">
        <ele>456.28</ele>
        <time>2026-05-05T05:56:05Z</time>
      </trkpt>
      <trkpt lat="45.9512" lon="1.75843">
        <ele>456.28</ele>
        <time>2026-05-05T05:56:06Z</time>
      </trkpt>
      <trkpt lat="45.951" lon="1.75834">
        <ele>457.24</ele>
        <time>2026-05-05T05:56:21Z</time>
      </trkpt>
      <trkpt lat="45.95085" lon="1.75833">
        <ele>457.24</ele>
        <time>2026-05-05T05:56:33Z</time>
      </trkpt>
      <trkpt lat="45.95081" lon="1.75834">
        <ele>457.24</ele>
        <time>2026-05-05T05:56:37Z</time>
      </trkpt>
      <trkpt lat="45.95067" lon="1.75835">
        <ele>457.72</ele>
        <time>2026-05-05T05:56:48Z</time>
      </trkpt>
      <trkpt lat="45.95066" lon="1.75835">
        <ele>457.72</ele>
        <time>2026-05-05T05:56:49Z</time>
      </trkpt>
      <trkpt lat="45.95059" lon="1.75838">
        <ele>457.72</ele>
        <time>2026-05-05T05:56:54Z</time>
      </trkpt>
      <trkpt lat="45.95039" lon="1.75849">
        <ele>457.24</ele>
        <time>2026-05-05T05:57:10Z</time>
      </trkpt>
      <trkpt lat="45.95035" lon="1.75851">
        <ele>456.28</ele>
        <time>2026-05-05T05:57:13Z</time>
      </trkpt>
      <trkpt lat="45.95024" lon="1.75866">
        <ele>454.84</ele>
        <time>2026-05-05T05:57:25Z</time>
      </trkpt>
      <trkpt lat="45.9501" lon="1.75887">
        <ele>453.88</ele>
        <time>2026-05-05T05:57:39Z</time>
      </trkpt>
      <trkpt lat="45.95009" lon="1.7589">
        <ele>453.88</ele>
        <time>2026-05-05T05:57:40Z</time>
      </trkpt>
      <trkpt lat="45.95009" lon="1.75892">
        <ele>453.88</ele>
        <time>2026-05-05T05:57:41Z</time>
      </trkpt>
      <trkpt lat="45.95008" lon="1.75894">
        <ele>453.88</ele>
        <time>2026-05-05T05:57:42Z</time>
      </trkpt>
      <trkpt lat="45.95007" lon="1.75896">
        <ele>453.4</ele>
        <time>2026-05-05T05:57:43Z</time>
      </trkpt>
      <trkpt lat="45.94998" lon="1.75919">
        <ele>453.4</ele>
        <time>2026-05-05T05:57:57Z</time>
      </trkpt>
      <trkpt lat="45.94989" lon="1.75942">
        <ele>452.92</ele>
        <time>2026-05-05T05:58:12Z</time>
      </trkpt>
      <trkpt lat="45.9498" lon="1.75959">
        <ele>452.92</ele>
        <time>2026-05-05T05:58:23Z</time>
      </trkpt>
      <trkpt lat="45.94979" lon="1.75961">
        <ele>452.92</ele>
        <time>2026-05-05T05:58:24Z</time>
      </trkpt>
      <trkpt lat="45.94975" lon="1.75972">
        <ele>453.4</ele>
        <time>2026-05-05T05:58:32Z</time>
      </trkpt>
      <trkpt lat="45.94974" lon="1.75974">
        <ele>453.4</ele>
        <time>2026-05-05T05:58:33Z</time>
      </trkpt>
      <trkpt lat="45.94972" lon="1.7598">
        <ele>453.4</ele>
        <time>2026-05-05T05:58:36Z</time>
      </trkpt>
      <trkpt lat="45.94971" lon="1.75982">
        <ele>453.4</ele>
        <time>2026-05-05T05:58:37Z</time>
      </trkpt>
      <trkpt lat="45.9497" lon="1.75984">
        <ele>453.4</ele>
        <time>2026-05-05T05:58:38Z</time>
      </trkpt>
      <trkpt lat="45.94966" lon="1.75994">
        <ele>453.4</ele>
        <time>2026-05-05T05:58:46Z</time>
      </trkpt>
      <trkpt lat="45.94965" lon="1.75996">
        <ele>453.4</ele>
        <time>2026-05-05T05:58:47Z</time>
      </trkpt>
      <trkpt lat="45.94964" lon="1.75998">
        <ele>453.4</ele>
        <time>2026-05-05T05:58:48Z</time>
      </trkpt>
      <trkpt lat="45.94957" lon="1.76021">
        <ele>453.4</ele>
        <time>2026-05-05T05:59:00Z</time>
      </trkpt>
      <trkpt lat="45.94956" lon="1.76023">
        <ele>454.36</ele>
        <time>2026-05-05T05:59:03Z</time>
      </trkpt>
      <trkpt lat="45.94948" lon="1.76049">
        <ele>454.36</ele>
        <time>2026-05-05T05:59:18Z</time>
      </trkpt>
      <trkpt lat="45.94946" lon="1.76053">
        <ele>454.36</ele>
        <time>2026-05-05T05:59:20Z</time>
      </trkpt>
      <trkpt lat="45.94945" lon="1.76055">
        <ele>454.36</ele>
        <time>2026-05-05T05:59:21Z</time>
      </trkpt>
      <trkpt lat="45.94943" lon="1.76061">
        <ele>454.84</ele>
        <time>2026-05-05T05:59:25Z</time>
      </trkpt>
      <trkpt lat="45.94936" lon="1.76087">
        <ele>454.84</ele>
        <time>2026-05-05T05:59:38Z</time>
      </trkpt>
      <trkpt lat="45.9493" lon="1.76105">
        <ele>455.32</ele>
        <time>2026-05-05T05:59:49Z</time>
      </trkpt>
      <trkpt lat="45.94928" lon="1.76117">
        <ele>455.8</ele>
        <time>2026-05-05T05:59:56Z</time>
      </trkpt>
      <trkpt lat="45.94927" lon="1.76119">
        <ele>455.8</ele>
        <time>2026-05-05T05:59:57Z</time>
      </trkpt>
      <trkpt lat="45.94927" lon="1.76122">
        <ele>455.8</ele>
        <time>2026-05-05T05:59:58Z</time>
      </trkpt>
      <trkpt lat="45.94927" lon="1.76124">
        <ele>455.8</ele>
        <time>2026-05-05T05:59:59Z</time>
      </trkpt>
      <trkpt lat="45.94926" lon="1.76126">
        <ele>455.8</ele>
        <time>2026-05-05T06:00:00Z</time>
      </trkpt>
      <trkpt lat="45.94926" lon="1.76128">
        <ele>455.8</ele>
        <time>2026-05-05T06:00:01Z</time>
      </trkpt>
      <trkpt lat="45.94917" lon="1.76148">
        <ele>455.8</ele>
        <time>2026-05-05T06:00:15Z</time>
      </trkpt>
      <trkpt lat="45.94906" lon="1.76173">
        <ele>456.28</ele>
        <time>2026-05-05T06:00:29Z</time>
      </trkpt>
      <trkpt lat="45.94905" lon="1.76175">
        <ele>456.28</ele>
        <time>2026-05-05T06:00:30Z</time>
      </trkpt>
      <trkpt lat="45.94896" lon="1.76206">
        <ele>456.76</ele>
        <time>2026-05-05T06:00:45Z</time>
      </trkpt>
      <trkpt lat="45.94884" lon="1.76228">
        <ele>456.28</ele>
        <time>2026-05-05T06:01:01Z</time>
      </trkpt>
      <trkpt lat="45.94871" lon="1.76249">
        <ele>457.24</ele>
        <time>2026-05-05T06:01:17Z</time>
      </trkpt>
      <trkpt lat="45.94855" lon="1.76259">
        <ele>457.24</ele>
        <time>2026-05-05T06:01:32Z</time>
      </trkpt>
      <trkpt lat="45.94845" lon="1.76262">
        <ele>457.24</ele>
        <time>2026-05-05T06:01:38Z</time>
      </trkpt>
      <trkpt lat="45.94825" lon="1.76269">
        <ele>457.24</ele>
        <time>2026-05-05T06:01:54Z</time>
      </trkpt>
      <trkpt lat="45.94812" lon="1.76282">
        <ele>455.8</ele>
        <time>2026-05-05T06:02:10Z</time>
      </trkpt>
      <trkpt lat="45.94801" lon="1.76305">
        <ele>455.8</ele>
        <time>2026-05-05T06:02:21Z</time>
      </trkpt>
      <trkpt lat="45.94784" lon="1.7632">
        <ele>455.32</ele>
        <time>2026-05-05T06:02:32Z</time>
      </trkpt>
      <trkpt lat="45.94773" lon="1.76344">
        <ele>455.32</ele>
        <time>2026-05-05T06:02:45Z</time>
      </trkpt>
      <trkpt lat="45.94765" lon="1.76362">
        <ele>454.36</ele>
        <time>2026-05-05T06:02:58Z</time>
      </trkpt>
      <trkpt lat="45.94764" lon="1.76364">
        <ele>454.36</ele>
        <time>2026-05-05T06:02:59Z</time>
      </trkpt>
      <trkpt lat="45.94759" lon="1.76368">
        <ele>453.88</ele>
        <time>2026-05-05T06:03:04Z</time>
      </trkpt>
      <trkpt lat="45.94758" lon="1.76369">
        <ele>453.88</ele>
        <time>2026-05-05T06:03:05Z</time>
      </trkpt>
      <trkpt lat="45.94757" lon="1.76372">
        <ele>453.4</ele>
        <time>2026-05-05T06:03:07Z</time>
      </trkpt>
      <trkpt lat="45.94754" lon="1.76377">
        <ele>453.4</ele>
        <time>2026-05-05T06:03:10Z</time>
      </trkpt>
      <trkpt lat="45.94753" lon="1.76378">
        <ele>453.4</ele>
        <time>2026-05-05T06:03:11Z</time>
      </trkpt>
      <trkpt lat="45.94752" lon="1.7638">
        <ele>453.4</ele>
        <time>2026-05-05T06:03:12Z</time>
      </trkpt>
      <trkpt lat="45.9475" lon="1.76385">
        <ele>453.4</ele>
        <time>2026-05-05T06:03:14Z</time>
      </trkpt>
      <trkpt lat="45.9475" lon="1.76387">
        <ele>452.92</ele>
        <time>2026-05-05T06:03:15Z</time>
      </trkpt>
      <trkpt lat="45.94745" lon="1.76416">
        <ele>451.48</ele>
        <time>2026-05-05T06:03:31Z</time>
      </trkpt>
      <trkpt lat="45.94745" lon="1.76419">
        <ele>450.52</ele>
        <time>2026-05-05T06:03:32Z</time>
      </trkpt>
      <trkpt lat="45.94742" lon="1.76444">
        <ele>450.52</ele>
        <time>2026-05-05T06:03:46Z</time>
      </trkpt>
      <trkpt lat="45.94732" lon="1.76473">
        <ele>451.96</ele>
        <time>2026-05-05T06:04:00Z</time>
      </trkpt>
      <trkpt lat="45.94729" lon="1.765">
        <ele>451.96</ele>
        <time>2026-05-05T06:04:15Z</time>
      </trkpt>
      <trkpt lat="45.9473" lon="1.76501">
        <ele>451.96</ele>
        <time>2026-05-05T06:04:16Z</time>
      </trkpt>
      <trkpt lat="45.94737" lon="1.76551">
        <ele>452.92</ele>
        <time>2026-05-05T06:04:33Z</time>
      </trkpt>
      <trkpt lat="45.94739" lon="1.7657">
        <ele>453.88</ele>
        <time>2026-05-05T06:04:48Z</time>
      </trkpt>
      <trkpt lat="45.94743" lon="1.76591">
        <ele>455.32</ele>
        <time>2026-05-05T06:05:04Z</time>
      </trkpt>
      <trkpt lat="45.94754" lon="1.7662">
        <ele>456.76</ele>
        <time>2026-05-05T06:05:22Z</time>
      </trkpt>
      <trkpt lat="45.94759" lon="1.76635">
        <ele>456.76</ele>
        <time>2026-05-05T06:05:30Z</time>
      </trkpt>
      <trkpt lat="45.94768" lon="1.7665">
        <ele>457.24</ele>
        <time>2026-05-05T06:05:39Z</time>
      </trkpt>
      <trkpt lat="45.94786" lon="1.76677">
        <ele>458.21</ele>
        <time>2026-05-05T06:05:56Z</time>
      </trkpt>
      <trkpt lat="45.94794" lon="1.76686">
        <ele>458.69</ele>
        <time>2026-05-05T06:06:03Z</time>
      </trkpt>
      <trkpt lat="45.94794" lon="1.76689">
        <ele>458.69</ele>
        <time>2026-05-05T06:06:04Z</time>
      </trkpt>
      <trkpt lat="45.94801" lon="1.76705">
        <ele>460.13</ele>
        <time>2026-05-05T06:06:20Z</time>
      </trkpt>
      <trkpt lat="45.94804" lon="1.76732">
        <ele>460.61</ele>
        <time>2026-05-05T06:06:38Z</time>
      </trkpt>
      <trkpt lat="45.94817" lon="1.76756">
        <ele>462.53</ele>
        <time>2026-05-05T06:06:53Z</time>
      </trkpt>
      <trkpt lat="45.94828" lon="1.76778">
        <ele>463.49</ele>
        <time>2026-05-05T06:07:10Z</time>
      </trkpt>
      <trkpt lat="45.9483" lon="1.76813">
        <ele>466.38</ele>
        <time>2026-05-05T06:07:29Z</time>
      </trkpt>
      <trkpt lat="45.94865" lon="1.76824">
        <ele>467.34</ele>
        <time>2026-05-05T06:07:51Z</time>
      </trkpt>
      <trkpt lat="45.94867" lon="1.76823">
        <ele>467.34</ele>
        <time>2026-05-05T06:08:09Z</time>
      </trkpt>
      <trkpt lat="45.94852" lon="1.76849">
        <ele>470.22</ele>
        <time>2026-05-05T06:08:22Z</time>
      </trkpt>
      <trkpt lat="45.94852" lon="1.76849">
        <ele>470.22</ele>
        <time>2026-05-05T06:08:23Z</time>
      </trkpt>
      <trkpt lat="45.94852" lon="1.76846">
        <ele>471.18</ele>
        <time>2026-05-05T06:08:26Z</time>
      </trkpt>
      <trkpt lat="45.94855" lon="1.7683">
        <ele>471.18</ele>
        <time>2026-05-05T06:08:33Z</time>
      </trkpt>
      <trkpt lat="45.94861" lon="1.76798">
        <ele>472.63</ele>
        <time>2026-05-05T06:08:52Z</time>
      </trkpt>
      <trkpt lat="45.94855" lon="1.76796">
        <ele>475.03</ele>
        <time>2026-05-05T06:09:07Z</time>
      </trkpt>
      <trkpt lat="45.94857" lon="1.76797">
        <ele>475.03</ele>
        <time>2026-05-05T06:09:12Z</time>
      </trkpt>
      <trkpt lat="45.94857" lon="1.76798">
        <ele>475.03</ele>
        <time>2026-05-05T06:09:13Z</time>
      </trkpt>
      <trkpt lat="45.94861" lon="1.76817">
        <ele>476.47</ele>
        <time>2026-05-05T06:09:28Z</time>
      </trkpt>
      <trkpt lat="45.94867" lon="1.76843">
        <ele>478.39</ele>
        <time>2026-05-05T06:09:46Z</time>
      </trkpt>
      <trkpt lat="45.94874" lon="1.76819">
        <ele>480.32</ele>
        <time>2026-05-05T06:10:04Z</time>
      </trkpt>
      <trkpt lat="45.94885" lon="1.76787">
        <ele>482.24</ele>
        <time>2026-05-05T06:10:23Z</time>
      </trkpt>
      <trkpt lat="45.94876" lon="1.76753">
        <ele>483.68</ele>
        <time>2026-05-05T06:10:43Z</time>
      </trkpt>
      <trkpt lat="45.94873" lon="1.76726">
        <ele>485.12</ele>
        <time>2026-05-05T06:11:01Z</time>
      </trkpt>
      <trkpt lat="45.94872" lon="1.76704">
        <ele>488.49</ele>
        <time>2026-05-05T06:11:18Z</time>
      </trkpt>
      <trkpt lat="45.94872" lon="1.76697">
        <ele>489.93</ele>
        <time>2026-05-05T06:11:23Z</time>
      </trkpt>
      <trkpt lat="45.9487" lon="1.76682">
        <ele>490.89</ele>
        <time>2026-05-05T06:11:33Z</time>
      </trkpt>
      <trkpt lat="45.94864" lon="1.76657">
        <ele>490.89</ele>
        <time>2026-05-05T06:11:49Z</time>
      </trkpt>
      <trkpt lat="45.94857" lon="1.76642">
        <ele>491.85</ele>
        <time>2026-05-05T06:11:59Z</time>
      </trkpt>
      <trkpt lat="45.94848" lon="1.76631">
        <ele>491.85</ele>
        <time>2026-05-05T06:12:07Z</time>
      </trkpt>
      <trkpt lat="45.94838" lon="1.76607">
        <ele>492.33</ele>
        <time>2026-05-05T06:12:24Z</time>
      </trkpt>
      <trkpt lat="45.94844" lon="1.7658">
        <ele>494.26</ele>
        <time>2026-05-05T06:12:41Z</time>
      </trkpt>
      <trkpt lat="45.94845" lon="1.76578">
        <ele>494.74</ele>
        <time>2026-05-05T06:12:43Z</time>
      </trkpt>
      <trkpt lat="45.9485" lon="1.76575">
        <ele>497.62</ele>
        <time>2026-05-05T06:12:57Z</time>
      </trkpt>
      <trkpt lat="45.94851" lon="1.76583">
        <ele>498.58</ele>
        <time>2026-05-05T06:13:03Z</time>
      </trkpt>
      <trkpt lat="45.94859" lon="1.76593">
        <ele>500.5</ele>
        <time>2026-05-05T06:13:20Z</time>
      </trkpt>
      <trkpt lat="45.94866" lon="1.76593">
        <ele>502.43</ele>
        <time>2026-05-05T06:13:37Z</time>
      </trkpt>
      <trkpt lat="45.94868" lon="1.76609">
        <ele>504.83</ele>
        <time>2026-05-05T06:13:53Z</time>
      </trkpt>
      <trkpt lat="45.94869" lon="1.76613">
        <ele>505.31</ele>
        <time>2026-05-05T06:13:56Z</time>
      </trkpt>
      <trkpt lat="45.94875" lon="1.76625">
        <ele>506.27</ele>
        <time>2026-05-05T06:14:07Z</time>
      </trkpt>
      <trkpt lat="45.94886" lon="1.7663">
        <ele>508.19</ele>
        <time>2026-05-05T06:14:23Z</time>
      </trkpt>
      <trkpt lat="45.94893" lon="1.76644">
        <ele>509.16</ele>
        <time>2026-05-05T06:14:36Z</time>
      </trkpt>
      <trkpt lat="45.94893" lon="1.76652">
        <ele>509.16</ele>
        <time>2026-05-05T06:14:41Z</time>
      </trkpt>
      <trkpt lat="45.94897" lon="1.76665">
        <ele>509.64</ele>
        <time>2026-05-05T06:14:48Z</time>
      </trkpt>
      <trkpt lat="45.949" lon="1.76682">
        <ele>510.12</ele>
        <time>2026-05-05T06:15:00Z</time>
      </trkpt>
      <trkpt lat="45.94904" lon="1.76704">
        <ele>510.6</ele>
        <time>2026-05-05T06:15:14Z</time>
      </trkpt>
      <trkpt lat="45.94909" lon="1.76729">
        <ele>510.6</ele>
        <time>2026-05-05T06:15:28Z</time>
      </trkpt>
      <trkpt lat="45.94912" lon="1.7674">
        <ele>510.6</ele>
        <time>2026-05-05T06:15:33Z</time>
      </trkpt>
      <trkpt lat="45.94921" lon="1.76762">
        <ele>510.6</ele>
        <time>2026-05-05T06:15:46Z</time>
      </trkpt>
      <trkpt lat="45.94925" lon="1.7677">
        <ele>511.08</ele>
        <time>2026-05-05T06:15:54Z</time>
      </trkpt>
      <trkpt lat="45.94937" lon="1.76797">
        <ele>512.52</ele>
        <time>2026-05-05T06:16:09Z</time>
      </trkpt>
      <trkpt lat="45.94944" lon="1.76814">
        <ele>512.52</ele>
        <time>2026-05-05T06:16:21Z</time>
      </trkpt>
      <trkpt lat="45.94964" lon="1.76829">
        <ele>512.52</ele>
        <time>2026-05-05T06:16:41Z</time>
      </trkpt>
      <trkpt lat="45.94967" lon="1.76829">
        <ele>511.08</ele>
        <time>2026-05-05T06:16:44Z</time>
      </trkpt>
      <trkpt lat="45.94984" lon="1.7684">
        <ele>508.19</ele>
        <time>2026-05-05T06:17:00Z</time>
      </trkpt>
      <trkpt lat="45.95002" lon="1.76852">
        <ele>504.83</ele>
        <time>2026-05-05T06:17:15Z</time>
      </trkpt>
      <trkpt lat="45.95014" lon="1.76863">
        <ele>502.91</ele>
        <time>2026-05-05T06:17:27Z</time>
      </trkpt>
      <trkpt lat="45.95031" lon="1.76874">
        <ele>500.98</ele>
        <time>2026-05-05T06:17:45Z</time>
      </trkpt>
      <trkpt lat="45.95046" lon="1.76891">
        <ele>498.1</ele>
        <time>2026-05-05T06:18:02Z</time>
      </trkpt>
      <trkpt lat="45.95058" lon="1.76908">
        <ele>495.22</ele>
        <time>2026-05-05T06:18:18Z</time>
      </trkpt>
      <trkpt lat="45.9507" lon="1.76927">
        <ele>491.85</ele>
        <time>2026-05-05T06:18:32Z</time>
      </trkpt>
      <trkpt lat="45.95086" lon="1.7695">
        <ele>488.49</ele>
        <time>2026-05-05T06:18:49Z</time>
      </trkpt>
      <trkpt lat="45.95099" lon="1.76977">
        <ele>486.08</ele>
        <time>2026-05-05T06:19:08Z</time>
      </trkpt>
      <trkpt lat="45.95099" lon="1.76978">
        <ele>486.08</ele>
        <time>2026-05-05T06:19:09Z</time>
      </trkpt>
      <trkpt lat="45.95101" lon="1.76988">
        <ele>485.6</ele>
        <time>2026-05-05T06:19:13Z</time>
      </trkpt>
      <trkpt lat="45.95104" lon="1.77007">
        <ele>484.16</ele>
        <time>2026-05-05T06:19:22Z</time>
      </trkpt>
      <trkpt lat="45.95112" lon="1.77024">
        <ele>483.2</ele>
        <time>2026-05-05T06:19:33Z</time>
      </trkpt>
      <trkpt lat="45.95137" lon="1.77052">
        <ele>482.72</ele>
        <time>2026-05-05T06:19:53Z</time>
      </trkpt>
      <trkpt lat="45.95157" lon="1.77068">
        <ele>483.2</ele>
        <time>2026-05-05T06:20:11Z</time>
      </trkpt>
      <trkpt lat="45.95164" lon="1.77086">
        <ele>483.2</ele>
        <time>2026-05-05T06:20:22Z</time>
      </trkpt>
      <trkpt lat="45.95163" lon="1.7709">
        <ele>483.2</ele>
        <time>2026-05-05T06:20:25Z</time>
      </trkpt>
      <trkpt lat="45.95158" lon="1.77116">
        <ele>483.2</ele>
        <time>2026-05-05T06:20:42Z</time>
      </trkpt>
      <trkpt lat="45.9518" lon="1.77121">
        <ele>484.64</ele>
        <time>2026-05-05T06:20:50Z</time>
      </trkpt>
      <trkpt lat="45.95178" lon="1.77124">
        <ele>485.6</ele>
        <time>2026-05-05T06:21:10Z</time>
      </trkpt>
      <trkpt lat="45.95173" lon="1.7711">
        <ele>485.6</ele>
        <time>2026-05-05T06:21:42Z</time>
      </trkpt>
      <trkpt lat="45.95178" lon="1.77119">
        <ele>486.56</ele>
        <time>2026-05-05T06:22:01Z</time>
      </trkpt>
      <trkpt lat="45.95188" lon="1.77124">
        <ele>486.56</ele>
        <time>2026-05-05T06:22:30Z</time>
      </trkpt>
      <trkpt lat="45.9519" lon="1.7713">
        <ele>486.56</ele>
        <time>2026-05-05T06:22:56Z</time>
      </trkpt>
      <trkpt lat="45.95182" lon="1.77125">
        <ele>486.56</ele>
        <time>2026-05-05T06:23:29Z</time>
      </trkpt>
      <trkpt lat="45.95183" lon="1.77124">
        <ele>486.56</ele>
        <time>2026-05-05T06:23:55Z</time>
      </trkpt>
      <trkpt lat="45.95181" lon="1.77123">
        <ele>486.56</ele>
        <time>2026-05-05T06:24:05Z</time>
      </trkpt>
      <trkpt lat="45.95171" lon="1.77116">
        <ele>488.49</ele>
        <time>2026-05-05T06:24:20Z</time>
      </trkpt>
      <trkpt lat="45.95149" lon="1.77105">
        <ele>491.85</ele>
        <time>2026-05-05T06:24:38Z</time>
      </trkpt>
      <trkpt lat="45.95129" lon="1.77101">
        <ele>494.74</ele>
        <time>2026-05-05T06:24:58Z</time>
      </trkpt>
      <trkpt lat="45.95122" lon="1.77119">
        <ele>498.1</ele>
        <time>2026-05-05T06:25:15Z</time>
      </trkpt>
      <trkpt lat="45.95118" lon="1.77127">
        <ele>501.46</ele>
        <time>2026-05-05T06:25:32Z</time>
      </trkpt>
      <trkpt lat="45.95124" lon="1.77153">
        <ele>504.35</ele>
        <time>2026-05-05T06:25:53Z</time>
      </trkpt>
      <trkpt lat="45.95135" lon="1.77183">
        <ele>505.31</ele>
        <time>2026-05-05T06:26:16Z</time>
      </trkpt>
      <trkpt lat="45.95137" lon="1.77212">
        <ele>506.75</ele>
        <time>2026-05-05T06:26:35Z</time>
      </trkpt>
      <trkpt lat="45.95146" lon="1.77239">
        <ele>508.19</ele>
        <time>2026-05-05T06:26:53Z</time>
      </trkpt>
      <trkpt lat="45.95153" lon="1.77264">
        <ele>510.12</ele>
        <time>2026-05-05T06:27:10Z</time>
      </trkpt>
      <trkpt lat="45.95149" lon="1.77293">
        <ele>512.52</ele>
        <time>2026-05-05T06:27:29Z</time>
      </trkpt>
      <trkpt lat="45.95149" lon="1.77298">
        <ele>513</ele>
        <time>2026-05-05T06:27:32Z</time>
      </trkpt>
      <trkpt lat="45.95151" lon="1.7732">
        <ele>516.37</ele>
        <time>2026-05-05T06:27:54Z</time>
      </trkpt>
      <trkpt lat="45.95145" lon="1.77348">
        <ele>519.25</ele>
        <time>2026-05-05T06:28:12Z</time>
      </trkpt>
      <trkpt lat="45.95139" lon="1.7737">
        <ele>522.13</ele>
        <time>2026-05-05T06:28:31Z</time>
      </trkpt>
      <trkpt lat="45.95137" lon="1.77379">
        <ele>524.06</ele>
        <time>2026-05-05T06:28:42Z</time>
      </trkpt>
      <trkpt lat="45.9513" lon="1.77401">
        <ele>525.5</ele>
        <time>2026-05-05T06:28:54Z</time>
      </trkpt>
      <trkpt lat="45.95122" lon="1.77426">
        <ele>527.9</ele>
        <time>2026-05-05T06:29:09Z</time>
      </trkpt>
      <trkpt lat="45.95113" lon="1.77447">
        <ele>530.3</ele>
        <time>2026-05-05T06:29:24Z</time>
      </trkpt>
      <trkpt lat="45.95106" lon="1.77458">
        <ele>530.79</ele>
        <time>2026-05-05T06:29:33Z</time>
      </trkpt>
      <trkpt lat="45.95096" lon="1.77466">
        <ele>531.27</ele>
        <time>2026-05-05T06:29:42Z</time>
      </trkpt>
      <trkpt lat="45.95081" lon="1.77476">
        <ele>532.23</ele>
        <time>2026-05-05T06:29:55Z</time>
      </trkpt>
      <trkpt lat="45.95068" lon="1.77489">
        <ele>534.15</ele>
        <time>2026-05-05T06:30:10Z</time>
      </trkpt>
      <trkpt lat="45.95054" lon="1.77495">
        <ele>535.59</ele>
        <time>2026-05-05T06:30:24Z</time>
      </trkpt>
      <trkpt lat="45.95038" lon="1.77503">
        <ele>536.07</ele>
        <time>2026-05-05T06:30:40Z</time>
      </trkpt>
      <trkpt lat="45.95022" lon="1.77504">
        <ele>537.51</ele>
        <time>2026-05-05T06:30:57Z</time>
      </trkpt>
      <trkpt lat="45.95001" lon="1.77506">
        <ele>539.44</ele>
        <time>2026-05-05T06:31:14Z</time>
      </trkpt>
      <trkpt lat="45.94982" lon="1.77517">
        <ele>540.4</ele>
        <time>2026-05-05T06:31:31Z</time>
      </trkpt>
      <trkpt lat="45.94973" lon="1.77521">
        <ele>542.32</ele>
        <time>2026-05-05T06:31:47Z</time>
      </trkpt>
      <trkpt lat="45.94957" lon="1.77528">
        <ele>543.28</ele>
        <time>2026-05-05T06:32:04Z</time>
      </trkpt>
      <trkpt lat="45.94938" lon="1.77528">
        <ele>543.76</ele>
        <time>2026-05-05T06:32:19Z</time>
      </trkpt>
      <trkpt lat="45.9492" lon="1.7754">
        <ele>544.24</ele>
        <time>2026-05-05T06:32:31Z</time>
      </trkpt>
      <trkpt lat="45.949" lon="1.77558">
        <ele>544.72</ele>
        <time>2026-05-05T06:32:49Z</time>
      </trkpt>
      <trkpt lat="45.94878" lon="1.77571">
        <ele>546.17</ele>
        <time>2026-05-05T06:33:08Z</time>
      </trkpt>
      <trkpt lat="45.94857" lon="1.77578">
        <ele>549.05</ele>
        <time>2026-05-05T06:33:27Z</time>
      </trkpt>
      <trkpt lat="45.94828" lon="1.77591">
        <ele>549.53</ele>
        <time>2026-05-05T06:33:44Z</time>
      </trkpt>
      <trkpt lat="45.94807" lon="1.77605">
        <ele>549.53</ele>
        <time>2026-05-05T06:34:00Z</time>
      </trkpt>
      <trkpt lat="45.94789" lon="1.77637">
        <ele>550.49</ele>
        <time>2026-05-05T06:34:22Z</time>
      </trkpt>
      <trkpt lat="45.94777" lon="1.77658">
        <ele>550.97</ele>
        <time>2026-05-05T06:34:37Z</time>
      </trkpt>
      <trkpt lat="45.94773" lon="1.77667">
        <ele>551.45</ele>
        <time>2026-05-05T06:35:03Z</time>
      </trkpt>
      <trkpt lat="45.94758" lon="1.77685">
        <ele>552.41</ele>
        <time>2026-05-05T06:35:17Z</time>
      </trkpt>
      <trkpt lat="45.94756" lon="1.77688">
        <ele>552.9</ele>
        <time>2026-05-05T06:35:19Z</time>
      </trkpt>
      <trkpt lat="45.94738" lon="1.7771">
        <ele>553.38</ele>
        <time>2026-05-05T06:35:35Z</time>
      </trkpt>
      <trkpt lat="45.94725" lon="1.77721">
        <ele>553.86</ele>
        <time>2026-05-05T06:35:48Z</time>
      </trkpt>
      <trkpt lat="45.94708" lon="1.77731">
        <ele>555.3</ele>
        <time>2026-05-05T06:36:03Z</time>
      </trkpt>
      <trkpt lat="45.94697" lon="1.77751">
        <ele>556.74</ele>
        <time>2026-05-05T06:36:19Z</time>
      </trkpt>
      <trkpt lat="45.94697" lon="1.77752">
        <ele>556.74</ele>
        <time>2026-05-05T06:36:20Z</time>
      </trkpt>
      <trkpt lat="45.94696" lon="1.77753">
        <ele>556.74</ele>
        <time>2026-05-05T06:36:21Z</time>
      </trkpt>
      <trkpt lat="45.94693" lon="1.77754">
        <ele>556.74</ele>
        <time>2026-05-05T06:36:23Z</time>
      </trkpt>
      <trkpt lat="45.94687" lon="1.77751">
        <ele>557.7</ele>
        <time>2026-05-05T06:36:32Z</time>
      </trkpt>
      <trkpt lat="45.94686" lon="1.77751">
        <ele>558.66</ele>
        <time>2026-05-05T06:36:33Z</time>
      </trkpt>
      <trkpt lat="45.94672" lon="1.77737">
        <ele>560.59</ele>
        <time>2026-05-05T06:36:52Z</time>
      </trkpt>
      <trkpt lat="45.94671" lon="1.77736">
        <ele>560.59</ele>
        <time>2026-05-05T06:36:53Z</time>
      </trkpt>
      <trkpt lat="45.94671" lon="1.77735">
        <ele>561.07</ele>
        <time>2026-05-05T06:36:54Z</time>
      </trkpt>
      <trkpt lat="45.94664" lon="1.77729">
        <ele>562.03</ele>
        <time>2026-05-05T06:37:00Z</time>
      </trkpt>
      <trkpt lat="45.94654" lon="1.77722">
        <ele>563.47</ele>
        <time>2026-05-05T06:37:18Z</time>
      </trkpt>
      <trkpt lat="45.94648" lon="1.77713">
        <ele>563.95</ele>
        <time>2026-05-05T06:37:40Z</time>
      </trkpt>
      <trkpt lat="45.94643" lon="1.77709">
        <ele>564.91</ele>
        <time>2026-05-05T06:37:57Z</time>
      </trkpt>
      <trkpt lat="45.94643" lon="1.77712">
        <ele>564.91</ele>
        <time>2026-05-05T06:38:11Z</time>
      </trkpt>
      <trkpt lat="45.94638" lon="1.77709">
        <ele>567.8</ele>
        <time>2026-05-05T06:38:25Z</time>
      </trkpt>
      <trkpt lat="45.94632" lon="1.7771">
        <ele>567.8</ele>
        <time>2026-05-05T06:38:40Z</time>
      </trkpt>
      <trkpt lat="45.94625" lon="1.7771">
        <ele>569.72</ele>
        <time>2026-05-05T06:39:03Z</time>
      </trkpt>
      <trkpt lat="45.94617" lon="1.77721">
        <ele>570.68</ele>
        <time>2026-05-05T06:39:14Z</time>
      </trkpt>
      <trkpt lat="45.94619" lon="1.77732">
        <ele>570.68</ele>
        <time>2026-05-05T06:39:19Z</time>
      </trkpt>
      <trkpt lat="45.94619" lon="1.77734">
        <ele>570.68</ele>
        <time>2026-05-05T06:39:20Z</time>
      </trkpt>
      <trkpt lat="45.94622" lon="1.77752">
        <ele>569.24</ele>
        <time>2026-05-05T06:39:29Z</time>
      </trkpt>
      <trkpt lat="45.94622" lon="1.7776">
        <ele>568.28</ele>
        <time>2026-05-05T06:39:34Z</time>
      </trkpt>
      <trkpt lat="45.94622" lon="1.77762">
        <ele>568.28</ele>
        <time>2026-05-05T06:39:35Z</time>
      </trkpt>
      <trkpt lat="45.94622" lon="1.77763">
        <ele>568.28</ele>
        <time>2026-05-05T06:39:36Z</time>
      </trkpt>
      <trkpt lat="45.94623" lon="1.77769">
        <ele>569.24</ele>
        <time>2026-05-05T06:39:40Z</time>
      </trkpt>
      <trkpt lat="45.94623" lon="1.77775">
        <ele>568.28</ele>
        <time>2026-05-05T06:39:44Z</time>
      </trkpt>
      <trkpt lat="45.94623" lon="1.77783">
        <ele>567.32</ele>
        <time>2026-05-05T06:39:48Z</time>
      </trkpt>
      <trkpt lat="45.94626" lon="1.7781">
        <ele>565.87</ele>
        <time>2026-05-05T06:40:02Z</time>
      </trkpt>
      <trkpt lat="45.94628" lon="1.77832">
        <ele>564.91</ele>
        <time>2026-05-05T06:40:14Z</time>
      </trkpt>
      <trkpt lat="45.9463" lon="1.77855">
        <ele>562.99</ele>
        <time>2026-05-05T06:40:26Z</time>
      </trkpt>
      <trkpt lat="45.94629" lon="1.77858">
        <ele>562.99</ele>
        <time>2026-05-05T06:40:28Z</time>
      </trkpt>
      <trkpt lat="45.94629" lon="1.7786">
        <ele>562.99</ele>
        <time>2026-05-05T06:40:29Z</time>
      </trkpt>
      <trkpt lat="45.94625" lon="1.77885">
        <ele>561.55</ele>
        <time>2026-05-05T06:40:42Z</time>
      </trkpt>
      <trkpt lat="45.94615" lon="1.77905">
        <ele>559.62</ele>
        <time>2026-05-05T06:40:56Z</time>
      </trkpt>
      <trkpt lat="45.94601" lon="1.77919">
        <ele>557.7</ele>
        <time>2026-05-05T06:41:11Z</time>
      </trkpt>
      <trkpt lat="45.94581" lon="1.77947">
        <ele>556.26</ele>
        <time>2026-05-05T06:41:30Z</time>
      </trkpt>
      <trkpt lat="45.94579" lon="1.77973">
        <ele>555.3</ele>
        <time>2026-05-05T06:41:43Z</time>
      </trkpt>
      <trkpt lat="45.94587" lon="1.77997">
        <ele>553.86</ele>
        <time>2026-05-05T06:41:56Z</time>
      </trkpt>
      <trkpt lat="45.94588" lon="1.77999">
        <ele>553.86</ele>
        <time>2026-05-05T06:41:58Z</time>
      </trkpt>
      <trkpt lat="45.94588" lon="1.78001">
        <ele>553.86</ele>
        <time>2026-05-05T06:41:59Z</time>
      </trkpt>
      <trkpt lat="45.9459" lon="1.78003">
        <ele>553.86</ele>
        <time>2026-05-05T06:42:00Z</time>
      </trkpt>
      <trkpt lat="45.94594" lon="1.78009">
        <ele>553.38</ele>
        <time>2026-05-05T06:42:04Z</time>
      </trkpt>
      <trkpt lat="45.94595" lon="1.78011">
        <ele>553.38</ele>
        <time>2026-05-05T06:42:05Z</time>
      </trkpt>
      <trkpt lat="45.94596" lon="1.78013">
        <ele>553.38</ele>
        <time>2026-05-05T06:42:06Z</time>
      </trkpt>
      <trkpt lat="45.946" lon="1.78018">
        <ele>552.9</ele>
        <time>2026-05-05T06:42:21Z</time>
      </trkpt>
      <trkpt lat="45.94601" lon="1.7802">
        <ele>552.9</ele>
        <time>2026-05-05T06:42:26Z</time>
      </trkpt>
      <trkpt lat="45.94602" lon="1.78021">
        <ele>552.9</ele>
        <time>2026-05-05T06:42:27Z</time>
      </trkpt>
      <trkpt lat="45.94614" lon="1.78053">
        <ele>551.93</ele>
        <time>2026-05-05T06:42:45Z</time>
      </trkpt>
      <trkpt lat="45.94626" lon="1.78078">
        <ele>550.49</ele>
        <time>2026-05-05T06:43:00Z</time>
      </trkpt>
      <trkpt lat="45.94637" lon="1.78103">
        <ele>549.05</ele>
        <time>2026-05-05T06:43:16Z</time>
      </trkpt>
      <trkpt lat="45.94648" lon="1.7813">
        <ele>548.09</ele>
        <time>2026-05-05T06:43:31Z</time>
      </trkpt>
      <trkpt lat="45.94658" lon="1.78154">
        <ele>547.61</ele>
        <time>2026-05-05T06:43:45Z</time>
      </trkpt>
      <trkpt lat="45.94658" lon="1.78155">
        <ele>547.61</ele>
        <time>2026-05-05T06:43:46Z</time>
      </trkpt>
      <trkpt lat="45.94659" lon="1.78157">
        <ele>547.61</ele>
        <time>2026-05-05T06:43:47Z</time>
      </trkpt>
      <trkpt lat="45.9466" lon="1.78159">
        <ele>547.61</ele>
        <time>2026-05-05T06:43:48Z</time>
      </trkpt>
      <trkpt lat="45.94668" lon="1.78181">
        <ele>546.65</ele>
        <time>2026-05-05T06:44:01Z</time>
      </trkpt>
      <trkpt lat="45.94676" lon="1.78209">
        <ele>545.69</ele>
        <time>2026-05-05T06:44:16Z</time>
      </trkpt>
      <trkpt lat="45.94678" lon="1.78238">
        <ele>545.69</ele>
        <time>2026-05-05T06:44:31Z</time>
      </trkpt>
      <trkpt lat="45.94679" lon="1.78243">
        <ele>544.24</ele>
        <time>2026-05-05T06:44:34Z</time>
      </trkpt>
      <trkpt lat="45.94681" lon="1.78243">
        <ele>543.76</ele>
        <time>2026-05-05T06:44:45Z</time>
      </trkpt>
      <trkpt lat="45.94679" lon="1.78246">
        <ele>543.76</ele>
        <time>2026-05-05T06:45:00Z</time>
      </trkpt>
      <trkpt lat="45.94679" lon="1.78249">
        <ele>543.76</ele>
        <time>2026-05-05T06:45:01Z</time>
      </trkpt>
      <trkpt lat="45.94679" lon="1.78251">
        <ele>543.76</ele>
        <time>2026-05-05T06:45:02Z</time>
      </trkpt>
      <trkpt lat="45.94678" lon="1.78276">
        <ele>542.32</ele>
        <time>2026-05-05T06:45:16Z</time>
      </trkpt>
      <trkpt lat="45.94678" lon="1.78293">
        <ele>543.28</ele>
        <time>2026-05-05T06:45:24Z</time>
      </trkpt>
      <trkpt lat="45.94678" lon="1.78295">
        <ele>543.28</ele>
        <time>2026-05-05T06:45:25Z</time>
      </trkpt>
      <trkpt lat="45.94679" lon="1.78297">
        <ele>541.84</ele>
        <time>2026-05-05T06:45:26Z</time>
      </trkpt>
      <trkpt lat="45.94679" lon="1.78299">
        <ele>541.84</ele>
        <time>2026-05-05T06:45:27Z</time>
      </trkpt>
      <trkpt lat="45.94679" lon="1.78309">
        <ele>542.8</ele>
        <time>2026-05-05T06:45:32Z</time>
      </trkpt>
      <trkpt lat="45.94678" lon="1.78311">
        <ele>541.36</ele>
        <time>2026-05-05T06:45:33Z</time>
      </trkpt>
      <trkpt lat="45.94677" lon="1.78313">
        <ele>540.88</ele>
        <time>2026-05-05T06:45:34Z</time>
      </trkpt>
      <trkpt lat="45.94677" lon="1.78314">
        <ele>540.88</ele>
        <time>2026-05-05T06:45:35Z</time>
      </trkpt>
      <trkpt lat="45.94668" lon="1.78333">
        <ele>539.44</ele>
        <time>2026-05-05T06:45:49Z</time>
      </trkpt>
      <trkpt lat="45.94657" lon="1.78353">
        <ele>537.99</ele>
        <time>2026-05-05T06:46:02Z</time>
      </trkpt>
      <trkpt lat="45.94657" lon="1.78356">
        <ele>537.99</ele>
        <time>2026-05-05T06:46:04Z</time>
      </trkpt>
      <trkpt lat="45.94656" lon="1.78358">
        <ele>537.99</ele>
        <time>2026-05-05T06:46:05Z</time>
      </trkpt>
      <trkpt lat="45.94658" lon="1.78361">
        <ele>537.99</ele>
        <time>2026-05-05T06:46:06Z</time>
      </trkpt>
      <trkpt lat="45.9466" lon="1.78363">
        <ele>537.99</ele>
        <time>2026-05-05T06:46:07Z</time>
      </trkpt>
      <trkpt lat="45.94663" lon="1.78364">
        <ele>537.99</ele>
        <time>2026-05-05T06:46:08Z</time>
      </trkpt>
      <trkpt lat="45.9467" lon="1.78367">
        <ele>536.55</ele>
        <time>2026-05-05T06:46:15Z</time>
      </trkpt>
      <trkpt lat="45.9467" lon="1.78369">
        <ele>536.55</ele>
        <time>2026-05-05T06:46:16Z</time>
      </trkpt>
      <trkpt lat="45.94669" lon="1.7837">
        <ele>536.07</ele>
        <time>2026-05-05T06:46:17Z</time>
      </trkpt>
      <trkpt lat="45.94668" lon="1.78371">
        <ele>536.07</ele>
        <time>2026-05-05T06:46:18Z</time>
      </trkpt>
      <trkpt lat="45.94667" lon="1.78372">
        <ele>536.07</ele>
        <time>2026-05-05T06:46:19Z</time>
      </trkpt>
      <trkpt lat="45.94664" lon="1.78376">
        <ele>535.11</ele>
        <time>2026-05-05T06:46:23Z</time>
      </trkpt>
      <trkpt lat="45.94663" lon="1.78379">
        <ele>535.11</ele>
        <time>2026-05-05T06:46:25Z</time>
      </trkpt>
      <trkpt lat="45.94662" lon="1.78381">
        <ele>535.11</ele>
        <time>2026-05-05T06:46:26Z</time>
      </trkpt>
      <trkpt lat="45.94661" lon="1.78383">
        <ele>534.63</ele>
        <time>2026-05-05T06:46:27Z</time>
      </trkpt>
      <trkpt lat="45.9466" lon="1.78385">
        <ele>534.63</ele>
        <time>2026-05-05T06:46:28Z</time>
      </trkpt>
      <trkpt lat="45.94659" lon="1.78386">
        <ele>534.63</ele>
        <time>2026-05-05T06:46:29Z</time>
      </trkpt>
      <trkpt lat="45.94656" lon="1.78402">
        <ele>532.71</ele>
        <time>2026-05-05T06:46:38Z</time>
      </trkpt>
      <trkpt lat="45.94653" lon="1.78409">
        <ele>532.23</ele>
        <time>2026-05-05T06:46:43Z</time>
      </trkpt>
      <trkpt lat="45.94653" lon="1.78412">
        <ele>532.23</ele>
        <time>2026-05-05T06:46:44Z</time>
      </trkpt>
      <trkpt lat="45.94653" lon="1.78414">
        <ele>531.75</ele>
        <time>2026-05-05T06:46:45Z</time>
      </trkpt>
      <trkpt lat="45.94649" lon="1.78435">
        <ele>530.79</ele>
        <time>2026-05-05T06:46:57Z</time>
      </trkpt>
      <trkpt lat="45.94648" lon="1.7846">
        <ele>529.34</ele>
        <time>2026-05-05T06:47:10Z</time>
      </trkpt>
      <trkpt lat="45.94646" lon="1.7849">
        <ele>527.9</ele>
        <time>2026-05-05T06:47:25Z</time>
      </trkpt>
      <trkpt lat="45.94644" lon="1.78517">
        <ele>527.42</ele>
        <time>2026-05-05T06:47:38Z</time>
      </trkpt>
      <trkpt lat="45.94638" lon="1.78543">
        <ele>526.46</ele>
        <time>2026-05-05T06:47:52Z</time>
      </trkpt>
      <trkpt lat="45.94627" lon="1.7857">
        <ele>525.98</ele>
        <time>2026-05-05T06:48:07Z</time>
      </trkpt>
      <trkpt lat="45.94617" lon="1.78591">
        <ele>525.5</ele>
        <time>2026-05-05T06:48:20Z</time>
      </trkpt>
      <trkpt lat="45.94609" lon="1.78616">
        <ele>524.54</ele>
        <time>2026-05-05T06:48:35Z</time>
      </trkpt>
      <trkpt lat="45.94608" lon="1.78618">
        <ele>524.54</ele>
        <time>2026-05-05T06:48:36Z</time>
      </trkpt>
      <trkpt lat="45.94608" lon="1.7862">
        <ele>524.54</ele>
        <time>2026-05-05T06:48:37Z</time>
      </trkpt>
      <trkpt lat="45.94607" lon="1.78628">
        <ele>524.54</ele>
        <time>2026-05-05T06:48:42Z</time>
      </trkpt>
      <trkpt lat="45.94605" lon="1.7865">
        <ele>524.54</ele>
        <time>2026-05-05T06:48:54Z</time>
      </trkpt>
      <trkpt lat="45.94603" lon="1.78672">
        <ele>524.06</ele>
        <time>2026-05-05T06:49:05Z</time>
      </trkpt>
      <trkpt lat="45.94603" lon="1.78677">
        <ele>524.06</ele>
        <time>2026-05-05T06:49:07Z</time>
      </trkpt>
      <trkpt lat="45.94603" lon="1.78679">
        <ele>524.06</ele>
        <time>2026-05-05T06:49:08Z</time>
      </trkpt>
      <trkpt lat="45.94607" lon="1.78689">
        <ele>524.06</ele>
        <time>2026-05-05T06:49:15Z</time>
      </trkpt>
      <trkpt lat="45.94608" lon="1.78691">
        <ele>524.06</ele>
        <time>2026-05-05T06:49:16Z</time>
      </trkpt>
      <trkpt lat="45.94618" lon="1.78706">
        <ele>525.5</ele>
        <time>2026-05-05T06:49:26Z</time>
      </trkpt>
      <trkpt lat="45.94636" lon="1.78719">
        <ele>525.5</ele>
        <time>2026-05-05T06:49:40Z</time>
      </trkpt>
      <trkpt lat="45.94655" lon="1.78726">
        <ele>526.94</ele>
        <time>2026-05-05T06:49:58Z</time>
      </trkpt>
      <trkpt lat="45.94664" lon="1.78739">
        <ele>528.86</ele>
        <time>2026-05-05T06:50:09Z</time>
      </trkpt>
      <trkpt lat="45.94676" lon="1.78761">
        <ele>530.3</ele>
        <time>2026-05-05T06:50:25Z</time>
      </trkpt>
      <trkpt lat="45.94685" lon="1.78777">
        <ele>530.79</ele>
        <time>2026-05-05T06:50:39Z</time>
      </trkpt>
      <trkpt lat="45.94685" lon="1.78779">
        <ele>530.79</ele>
        <time>2026-05-05T06:50:40Z</time>
      </trkpt>
      <trkpt lat="45.94686" lon="1.78781">
        <ele>530.79</ele>
        <time>2026-05-05T06:50:41Z</time>
      </trkpt>
      <trkpt lat="45.94687" lon="1.78785">
        <ele>531.27</ele>
        <time>2026-05-05T06:50:43Z</time>
      </trkpt>
      <trkpt lat="45.94691" lon="1.78796">
        <ele>531.27</ele>
        <time>2026-05-05T06:50:50Z</time>
      </trkpt>
      <trkpt lat="45.94692" lon="1.78797">
        <ele>531.27</ele>
        <time>2026-05-05T06:50:51Z</time>
      </trkpt>
      <trkpt lat="45.94701" lon="1.78809">
        <ele>532.23</ele>
        <time>2026-05-05T06:51:05Z</time>
      </trkpt>
      <trkpt lat="45.94708" lon="1.78827">
        <ele>532.23</ele>
        <time>2026-05-05T06:51:17Z</time>
      </trkpt>
      <trkpt lat="45.94711" lon="1.78849">
        <ele>532.23</ele>
        <time>2026-05-05T06:51:29Z</time>
      </trkpt>
      <trkpt lat="45.94711" lon="1.78852">
        <ele>532.23</ele>
        <time>2026-05-05T06:51:30Z</time>
      </trkpt>
      <trkpt lat="45.94712" lon="1.78854">
        <ele>532.23</ele>
        <time>2026-05-05T06:51:31Z</time>
      </trkpt>
      <trkpt lat="45.94715" lon="1.78863">
        <ele>532.23</ele>
        <time>2026-05-05T06:51:37Z</time>
      </trkpt>
      <trkpt lat="45.94716" lon="1.78865">
        <ele>532.23</ele>
        <time>2026-05-05T06:51:38Z</time>
      </trkpt>
      <trkpt lat="45.94728" lon="1.78884">
        <ele>532.23</ele>
        <time>2026-05-05T06:51:50Z</time>
      </trkpt>
      <trkpt lat="45.94741" lon="1.789">
        <ele>533.19</ele>
        <time>2026-05-05T06:52:02Z</time>
      </trkpt>
      <trkpt lat="45.94742" lon="1.78901">
        <ele>533.19</ele>
        <time>2026-05-05T06:52:03Z</time>
      </trkpt>
      <trkpt lat="45.94744" lon="1.78902">
        <ele>533.19</ele>
        <time>2026-05-05T06:52:04Z</time>
      </trkpt>
      <trkpt lat="45.94745" lon="1.78904">
        <ele>533.19</ele>
        <time>2026-05-05T06:52:05Z</time>
      </trkpt>
      <trkpt lat="45.94746" lon="1.78906">
        <ele>532.71</ele>
        <time>2026-05-05T06:52:06Z</time>
      </trkpt>
      <trkpt lat="45.94747" lon="1.78908">
        <ele>532.71</ele>
        <time>2026-05-05T06:52:07Z</time>
      </trkpt>
      <trkpt lat="45.94749" lon="1.7891">
        <ele>532.71</ele>
        <time>2026-05-05T06:52:08Z</time>
      </trkpt>
      <trkpt lat="45.94762" lon="1.78926">
        <ele>535.11</ele>
        <time>2026-05-05T06:52:21Z</time>
      </trkpt>
      <trkpt lat="45.94773" lon="1.78941">
        <ele>535.59</ele>
        <time>2026-05-05T06:52:33Z</time>
      </trkpt>
      <trkpt lat="45.94781" lon="1.78953">
        <ele>536.55</ele>
        <time>2026-05-05T06:52:46Z</time>
      </trkpt>
      <trkpt lat="45.94782" lon="1.78955">
        <ele>536.07</ele>
        <time>2026-05-05T06:52:47Z</time>
      </trkpt>
      <trkpt lat="45.94783" lon="1.78956">
        <ele>536.55</ele>
        <time>2026-05-05T06:52:48Z</time>
      </trkpt>
      <trkpt lat="45.9479" lon="1.78972">
        <ele>537.03</ele>
        <time>2026-05-05T06:53:00Z</time>
      </trkpt>
      <trkpt lat="45.9479" lon="1.78975">
        <ele>537.03</ele>
        <time>2026-05-05T06:53:01Z</time>
      </trkpt>
      <trkpt lat="45.948" lon="1.78998">
        <ele>537.03</ele>
        <time>2026-05-05T06:53:14Z</time>
      </trkpt>
      <trkpt lat="45.94806" lon="1.79015">
        <ele>537.03</ele>
        <time>2026-05-05T06:53:25Z</time>
      </trkpt>
      <trkpt lat="45.94811" lon="1.79036">
        <ele>536.55</ele>
        <time>2026-05-05T06:53:37Z</time>
      </trkpt>
      <trkpt lat="45.94814" lon="1.79052">
        <ele>536.55</ele>
        <time>2026-05-05T06:53:47Z</time>
      </trkpt>
      <trkpt lat="45.94815" lon="1.79054">
        <ele>536.55</ele>
        <time>2026-05-05T06:53:48Z</time>
      </trkpt>
      <trkpt lat="45.94816" lon="1.79057">
        <ele>536.55</ele>
        <time>2026-05-05T06:53:49Z</time>
      </trkpt>
      <trkpt lat="45.94816" lon="1.79059">
        <ele>536.55</ele>
        <time>2026-05-05T06:53:50Z</time>
      </trkpt>
      <trkpt lat="45.94817" lon="1.79062">
        <ele>536.55</ele>
        <time>2026-05-05T06:53:51Z</time>
      </trkpt>
      <trkpt lat="45.94825" lon="1.79084">
        <ele>536.55</ele>
        <time>2026-05-05T06:54:03Z</time>
      </trkpt>
      <trkpt lat="45.94828" lon="1.79092">
        <ele>537.03</ele>
        <time>2026-05-05T06:54:08Z</time>
      </trkpt>
      <trkpt lat="45.9483" lon="1.79096">
        <ele>537.03</ele>
        <time>2026-05-05T06:54:11Z</time>
      </trkpt>
      <trkpt lat="45.94831" lon="1.79098">
        <ele>537.51</ele>
        <time>2026-05-05T06:54:12Z</time>
      </trkpt>
      <trkpt lat="45.94832" lon="1.79101">
        <ele>537.51</ele>
        <time>2026-05-05T06:54:13Z</time>
      </trkpt>
      <trkpt lat="45.94832" lon="1.79103">
        <ele>537.51</ele>
        <time>2026-05-05T06:54:14Z</time>
      </trkpt>
      <trkpt lat="45.94833" lon="1.79105">
        <ele>537.51</ele>
        <time>2026-05-05T06:54:15Z</time>
      </trkpt>
      <trkpt lat="45.94833" lon="1.79107">
        <ele>537.99</ele>
        <time>2026-05-05T06:54:16Z</time>
      </trkpt>
      <trkpt lat="45.94834" lon="1.79109">
        <ele>537.99</ele>
        <time>2026-05-05T06:54:17Z</time>
      </trkpt>
      <trkpt lat="45.9484" lon="1.79135">
        <ele>539.44</ele>
        <time>2026-05-05T06:54:29Z</time>
      </trkpt>
      <trkpt lat="45.94845" lon="1.79149">
        <ele>539.92</ele>
        <time>2026-05-05T06:54:37Z</time>
      </trkpt>
      <trkpt lat="45.94858" lon="1.79168">
        <ele>541.36</ele>
        <time>2026-05-05T06:54:50Z</time>
      </trkpt>
      <trkpt lat="45.9486" lon="1.79168">
        <ele>541.36</ele>
        <time>2026-05-05T06:54:51Z</time>
      </trkpt>
      <trkpt lat="45.94861" lon="1.7917">
        <ele>541.36</ele>
        <time>2026-05-05T06:54:52Z</time>
      </trkpt>
      <trkpt lat="45.94866" lon="1.79176">
        <ele>541.36</ele>
        <time>2026-05-05T06:54:56Z</time>
      </trkpt>
      <trkpt lat="45.94871" lon="1.79184">
        <ele>542.32</ele>
        <time>2026-05-05T06:55:02Z</time>
      </trkpt>
      <trkpt lat="45.94874" lon="1.79188">
        <ele>541.84</ele>
        <time>2026-05-05T06:55:05Z</time>
      </trkpt>
      <trkpt lat="45.94875" lon="1.79188">
        <ele>541.84</ele>
        <time>2026-05-05T06:55:06Z</time>
      </trkpt>
      <trkpt lat="45.94878" lon="1.79191">
        <ele>541.84</ele>
        <time>2026-05-05T06:55:08Z</time>
      </trkpt>
      <trkpt lat="45.94879" lon="1.79192">
        <ele>541.84</ele>
        <time>2026-05-05T06:55:09Z</time>
      </trkpt>
      <trkpt lat="45.94891" lon="1.79206">
        <ele>541.84</ele>
        <time>2026-05-05T06:55:20Z</time>
      </trkpt>
      <trkpt lat="45.94897" lon="1.7922">
        <ele>539.92</ele>
        <time>2026-05-05T06:55:30Z</time>
      </trkpt>
      <trkpt lat="45.94896" lon="1.79222">
        <ele>539.92</ele>
        <time>2026-05-05T06:55:31Z</time>
      </trkpt>
      <trkpt lat="45.94895" lon="1.79231">
        <ele>539.44</ele>
        <time>2026-05-05T06:55:38Z</time>
      </trkpt>
      <trkpt lat="45.94879" lon="1.79244">
        <ele>537.99</ele>
        <time>2026-05-05T06:55:53Z</time>
      </trkpt>
      <trkpt lat="45.94866" lon="1.79261">
        <ele>537.03</ele>
        <time>2026-05-05T06:56:07Z</time>
      </trkpt>
      <trkpt lat="45.9486" lon="1.79271">
        <ele>536.55</ele>
        <time>2026-05-05T06:56:15Z</time>
      </trkpt>
      <trkpt lat="45.94856" lon="1.79275">
        <ele>536.07</ele>
        <time>2026-05-05T06:56:18Z</time>
      </trkpt>
      <trkpt lat="45.94851" lon="1.79279">
        <ele>536.07</ele>
        <time>2026-05-05T06:56:23Z</time>
      </trkpt>
      <trkpt lat="45.94849" lon="1.79279">
        <ele>536.07</ele>
        <time>2026-05-05T06:56:24Z</time>
      </trkpt>
      <trkpt lat="45.94832" lon="1.79283">
        <ele>534.63</ele>
        <time>2026-05-05T06:56:38Z</time>
      </trkpt>
      <trkpt lat="45.94814" lon="1.79284">
        <ele>532.23</ele>
        <time>2026-05-05T06:56:52Z</time>
      </trkpt>
      <trkpt lat="45.94796" lon="1.79294">
        <ele>530.3</ele>
        <time>2026-05-05T06:57:05Z</time>
      </trkpt>
      <trkpt lat="45.94795" lon="1.79296">
        <ele>529.82</ele>
        <time>2026-05-05T06:57:06Z</time>
      </trkpt>
      <trkpt lat="45.94785" lon="1.79308">
        <ele>529.34</ele>
        <time>2026-05-05T06:57:16Z</time>
      </trkpt>
      <trkpt lat="45.94768" lon="1.79313">
        <ele>527.9</ele>
        <time>2026-05-05T06:57:30Z</time>
      </trkpt>
      <trkpt lat="45.94762" lon="1.79313">
        <ele>527.9</ele>
        <time>2026-05-05T06:57:37Z</time>
      </trkpt>
      <trkpt lat="45.94761" lon="1.79314">
        <ele>527.9</ele>
        <time>2026-05-05T06:57:38Z</time>
      </trkpt>
      <trkpt lat="45.94759" lon="1.79314">
        <ele>527.42</ele>
        <time>2026-05-05T06:57:39Z</time>
      </trkpt>
      <trkpt lat="45.94758" lon="1.79314">
        <ele>527.42</ele>
        <time>2026-05-05T06:57:40Z</time>
      </trkpt>
      <trkpt lat="45.94756" lon="1.79315">
        <ele>527.42</ele>
        <time>2026-05-05T06:57:41Z</time>
      </trkpt>
      <trkpt lat="45.94753" lon="1.79314">
        <ele>527.42</ele>
        <time>2026-05-05T06:57:43Z</time>
      </trkpt>
      <trkpt lat="45.94736" lon="1.79318">
        <ele>526.94</ele>
        <time>2026-05-05T06:57:56Z</time>
      </trkpt>
      <trkpt lat="45.94718" lon="1.79324">
        <ele>526.94</ele>
        <time>2026-05-05T06:58:09Z</time>
      </trkpt>
      <trkpt lat="45.947" lon="1.79337">
        <ele>526.94</ele>
        <time>2026-05-05T06:58:22Z</time>
      </trkpt>
      <trkpt lat="45.94695" lon="1.79341">
        <ele>526.94</ele>
        <time>2026-05-05T06:58:27Z</time>
      </trkpt>
      <trkpt lat="45.94694" lon="1.79343">
        <ele>526.94</ele>
        <time>2026-05-05T06:58:28Z</time>
      </trkpt>
      <trkpt lat="45.94676" lon="1.79354">
        <ele>527.9</ele>
        <time>2026-05-05T06:58:41Z</time>
      </trkpt>
      <trkpt lat="45.94664" lon="1.79362">
        <ele>528.38</ele>
        <time>2026-05-05T06:58:53Z</time>
      </trkpt>
      <trkpt lat="45.94663" lon="1.79363">
        <ele>528.38</ele>
        <time>2026-05-05T06:58:54Z</time>
      </trkpt>
      <trkpt lat="45.94647" lon="1.79373">
        <ele>528.86</ele>
        <time>2026-05-05T06:59:03Z</time>
      </trkpt>
      <trkpt lat="45.94645" lon="1.79374">
        <ele>528.86</ele>
        <time>2026-05-05T06:59:04Z</time>
      </trkpt>
      <trkpt lat="45.94628" lon="1.7939">
        <ele>530.3</ele>
        <time>2026-05-05T06:59:18Z</time>
      </trkpt>
      <trkpt lat="45.94615" lon="1.79397">
        <ele>529.82</ele>
        <time>2026-05-05T06:59:29Z</time>
      </trkpt>
      <trkpt lat="45.94614" lon="1.79399">
        <ele>529.82</ele>
        <time>2026-05-05T06:59:30Z</time>
      </trkpt>
      <trkpt lat="45.94613" lon="1.794">
        <ele>529.82</ele>
        <time>2026-05-05T06:59:31Z</time>
      </trkpt>
      <trkpt lat="45.94599" lon="1.79412">
        <ele>529.82</ele>
        <time>2026-05-05T06:59:42Z</time>
      </trkpt>
      <trkpt lat="45.94597" lon="1.79416">
        <ele>529.82</ele>
        <time>2026-05-05T06:59:45Z</time>
      </trkpt>
      <trkpt lat="45.94596" lon="1.79418">
        <ele>529.82</ele>
        <time>2026-05-05T06:59:46Z</time>
      </trkpt>
      <trkpt lat="45.94583" lon="1.79436">
        <ele>529.82</ele>
        <time>2026-05-05T06:59:58Z</time>
      </trkpt>
      <trkpt lat="45.94569" lon="1.79453">
        <ele>530.3</ele>
        <time>2026-05-05T07:00:11Z</time>
      </trkpt>
      <trkpt lat="45.94556" lon="1.79467">
        <ele>530.3</ele>
        <time>2026-05-05T07:00:23Z</time>
      </trkpt>
      <trkpt lat="45.94539" lon="1.79479">
        <ele>530.3</ele>
        <time>2026-05-05T07:00:35Z</time>
      </trkpt>
      <trkpt lat="45.94528" lon="1.79489">
        <ele>530.3</ele>
        <time>2026-05-05T07:00:47Z</time>
      </trkpt>
      <trkpt lat="45.94523" lon="1.79496">
        <ele>530.3</ele>
        <time>2026-05-05T07:00:54Z</time>
      </trkpt>
      <trkpt lat="45.94522" lon="1.79497">
        <ele>530.3</ele>
        <time>2026-05-05T07:00:55Z</time>
      </trkpt>
      <trkpt lat="45.94521" lon="1.79499">
        <ele>530.3</ele>
        <time>2026-05-05T07:00:56Z</time>
      </trkpt>
      <trkpt lat="45.94519" lon="1.79501">
        <ele>530.3</ele>
        <time>2026-05-05T07:00:57Z</time>
      </trkpt>
      <trkpt lat="45.94518" lon="1.79503">
        <ele>530.3</ele>
        <time>2026-05-05T07:00:58Z</time>
      </trkpt>
      <trkpt lat="45.94503" lon="1.79522">
        <ele>530.3</ele>
        <time>2026-05-05T07:01:10Z</time>
      </trkpt>
      <trkpt lat="45.94498" lon="1.7953">
        <ele>530.3</ele>
        <time>2026-05-05T07:01:14Z</time>
      </trkpt>
      <trkpt lat="45.94497" lon="1.79532">
        <ele>530.3</ele>
        <time>2026-05-05T07:01:15Z</time>
      </trkpt>
      <trkpt lat="45.94489" lon="1.79549">
        <ele>530.3</ele>
        <time>2026-05-05T07:01:26Z</time>
      </trkpt>
      <trkpt lat="45.94486" lon="1.79561">
        <ele>530.3</ele>
        <time>2026-05-05T07:01:31Z</time>
      </trkpt>
      <trkpt lat="45.94486" lon="1.79563">
        <ele>530.3</ele>
        <time>2026-05-05T07:01:32Z</time>
      </trkpt>
      <trkpt lat="45.94486" lon="1.79573">
        <ele>530.3</ele>
        <time>2026-05-05T07:01:39Z</time>
      </trkpt>
      <trkpt lat="45.94487" lon="1.79575">
        <ele>530.3</ele>
        <time>2026-05-05T07:01:40Z</time>
      </trkpt>
      <trkpt lat="45.94487" lon="1.79577">
        <ele>530.3</ele>
        <time>2026-05-05T07:01:41Z</time>
      </trkpt>
      <trkpt lat="45.94488" lon="1.79579">
        <ele>530.3</ele>
        <time>2026-05-05T07:01:42Z</time>
      </trkpt>
      <trkpt lat="45.94488" lon="1.79581">
        <ele>530.3</ele>
        <time>2026-05-05T07:01:43Z</time>
      </trkpt>
      <trkpt lat="45.94489" lon="1.79583">
        <ele>530.3</ele>
        <time>2026-05-05T07:01:44Z</time>
      </trkpt>
      <trkpt lat="45.9449" lon="1.79591">
        <ele>531.27</ele>
        <time>2026-05-05T07:01:50Z</time>
      </trkpt>
      <trkpt lat="45.9449" lon="1.79593">
        <ele>531.75</ele>
        <time>2026-05-05T07:01:51Z</time>
      </trkpt>
      <trkpt lat="45.94491" lon="1.79596">
        <ele>531.75</ele>
        <time>2026-05-05T07:01:53Z</time>
      </trkpt>
      <trkpt lat="45.94491" lon="1.79599">
        <ele>531.75</ele>
        <time>2026-05-05T07:01:54Z</time>
      </trkpt>
      <trkpt lat="45.9449" lon="1.79607">
        <ele>532.71</ele>
        <time>2026-05-05T07:01:59Z</time>
      </trkpt>
      <trkpt lat="45.9449" lon="1.7961">
        <ele>533.19</ele>
        <time>2026-05-05T07:02:00Z</time>
      </trkpt>
      <trkpt lat="45.94483" lon="1.7963">
        <ele>534.63</ele>
        <time>2026-05-05T07:02:12Z</time>
      </trkpt>
      <trkpt lat="45.94478" lon="1.79648">
        <ele>536.55</ele>
        <time>2026-05-05T07:02:24Z</time>
      </trkpt>
      <trkpt lat="45.94478" lon="1.7965">
        <ele>536.55</ele>
        <time>2026-05-05T07:02:25Z</time>
      </trkpt>
      <trkpt lat="45.94477" lon="1.79653">
        <ele>536.07</ele>
        <time>2026-05-05T07:02:26Z</time>
      </trkpt>
      <trkpt lat="45.94477" lon="1.79656">
        <ele>536.07</ele>
        <time>2026-05-05T07:02:27Z</time>
      </trkpt>
      <trkpt lat="45.94477" lon="1.79658">
        <ele>536.07</ele>
        <time>2026-05-05T07:02:28Z</time>
      </trkpt>
      <trkpt lat="45.94476" lon="1.79663">
        <ele>536.55</ele>
        <time>2026-05-05T07:02:32Z</time>
      </trkpt>
      <trkpt lat="45.94475" lon="1.79665">
        <ele>536.55</ele>
        <time>2026-05-05T07:02:33Z</time>
      </trkpt>
      <trkpt lat="45.94474" lon="1.79667">
        <ele>536.55</ele>
        <time>2026-05-05T07:02:34Z</time>
      </trkpt>
      <trkpt lat="45.94473" lon="1.79669">
        <ele>536.55</ele>
        <time>2026-05-05T07:02:35Z</time>
      </trkpt>
      <trkpt lat="45.94473" lon="1.79672">
        <ele>536.55</ele>
        <time>2026-05-05T07:02:36Z</time>
      </trkpt>
      <trkpt lat="45.94472" lon="1.79674">
        <ele>536.55</ele>
        <time>2026-05-05T07:02:37Z</time>
      </trkpt>
      <trkpt lat="45.94472" lon="1.7968">
        <ele>537.03</ele>
        <time>2026-05-05T07:02:41Z</time>
      </trkpt>
      <trkpt lat="45.94472" lon="1.79682">
        <ele>537.03</ele>
        <time>2026-05-05T07:02:42Z</time>
      </trkpt>
      <trkpt lat="45.94472" lon="1.79684">
        <ele>537.03</ele>
        <time>2026-05-05T07:02:43Z</time>
      </trkpt>
      <trkpt lat="45.94472" lon="1.79687">
        <ele>537.03</ele>
        <time>2026-05-05T07:02:44Z</time>
      </trkpt>
      <trkpt lat="45.9447" lon="1.79693">
        <ele>537.03</ele>
        <time>2026-05-05T07:02:49Z</time>
      </trkpt>
      <trkpt lat="45.9447" lon="1.79695">
        <ele>537.03</ele>
        <time>2026-05-05T07:02:50Z</time>
      </trkpt>
      <trkpt lat="45.94469" lon="1.79697">
        <ele>537.51</ele>
        <time>2026-05-05T07:02:51Z</time>
      </trkpt>
      <trkpt lat="45.94469" lon="1.797">
        <ele>537.51</ele>
        <time>2026-05-05T07:02:52Z</time>
      </trkpt>
      <trkpt lat="45.94468" lon="1.79702">
        <ele>537.51</ele>
        <time>2026-05-05T07:02:53Z</time>
      </trkpt>
      <trkpt lat="45.94468" lon="1.79704">
        <ele>537.51</ele>
        <time>2026-05-05T07:02:54Z</time>
      </trkpt>
      <trkpt lat="45.94461" lon="1.7972">
        <ele>537.51</ele>
        <time>2026-05-05T07:03:05Z</time>
      </trkpt>
      <trkpt lat="45.94455" lon="1.79737">
        <ele>537.51</ele>
        <time>2026-05-05T07:03:16Z</time>
      </trkpt>
      <trkpt lat="45.94447" lon="1.79759">
        <ele>537.51</ele>
        <time>2026-05-05T07:03:28Z</time>
      </trkpt>
      <trkpt lat="45.94439" lon="1.79781">
        <ele>537.51</ele>
        <time>2026-05-05T07:03:41Z</time>
      </trkpt>
      <trkpt lat="45.94434" lon="1.79801">
        <ele>537.51</ele>
        <time>2026-05-05T07:03:52Z</time>
      </trkpt>
      <trkpt lat="45.94433" lon="1.79806">
        <ele>536.07</ele>
        <time>2026-05-05T07:03:54Z</time>
      </trkpt>
      <trkpt lat="45.9443" lon="1.7983">
        <ele>535.11</ele>
        <time>2026-05-05T07:04:05Z</time>
      </trkpt>
      <trkpt lat="45.94426" lon="1.79842">
        <ele>534.15</ele>
        <time>2026-05-05T07:04:12Z</time>
      </trkpt>
      <trkpt lat="45.94425" lon="1.79844">
        <ele>534.15</ele>
        <time>2026-05-05T07:04:13Z</time>
      </trkpt>
      <trkpt lat="45.94424" lon="1.79872">
        <ele>533.19</ele>
        <time>2026-05-05T07:04:26Z</time>
      </trkpt>
      <trkpt lat="45.94426" lon="1.79887">
        <ele>533.19</ele>
        <time>2026-05-05T07:04:35Z</time>
      </trkpt>
      <trkpt lat="45.94432" lon="1.79907">
        <ele>533.19</ele>
        <time>2026-05-05T07:04:46Z</time>
      </trkpt>
      <trkpt lat="45.94433" lon="1.79909">
        <ele>533.19</ele>
        <time>2026-05-05T07:04:47Z</time>
      </trkpt>
      <trkpt lat="45.94434" lon="1.79911">
        <ele>533.19</ele>
        <time>2026-05-05T07:04:48Z</time>
      </trkpt>
      <trkpt lat="45.94435" lon="1.79913">
        <ele>533.19</ele>
        <time>2026-05-05T07:04:49Z</time>
      </trkpt>
      <trkpt lat="45.94436" lon="1.79914">
        <ele>533.19</ele>
        <time>2026-05-05T07:04:50Z</time>
      </trkpt>
      <trkpt lat="45.94437" lon="1.79916">
        <ele>533.19</ele>
        <time>2026-05-05T07:04:51Z</time>
      </trkpt>
      <trkpt lat="45.94438" lon="1.79918">
        <ele>533.19</ele>
        <time>2026-05-05T07:04:52Z</time>
      </trkpt>
      <trkpt lat="45.94445" lon="1.7994">
        <ele>532.71</ele>
        <time>2026-05-05T07:05:04Z</time>
      </trkpt>
      <trkpt lat="45.94445" lon="1.79951">
        <ele>532.23</ele>
        <time>2026-05-05T07:05:16Z</time>
      </trkpt>
      <trkpt lat="45.94445" lon="1.79958">
        <ele>532.23</ele>
        <time>2026-05-05T07:05:35Z</time>
      </trkpt>
      <trkpt lat="45.94444" lon="1.7996">
        <ele>532.23</ele>
        <time>2026-05-05T07:05:36Z</time>
      </trkpt>
      <trkpt lat="45.94443" lon="1.79961">
        <ele>532.23</ele>
        <time>2026-05-05T07:05:37Z</time>
      </trkpt>
      <trkpt lat="45.94431" lon="1.79977">
        <ele>532.23</ele>
        <time>2026-05-05T07:05:49Z</time>
      </trkpt>
      <trkpt lat="45.94429" lon="1.7998">
        <ele>533.67</ele>
        <time>2026-05-05T07:05:53Z</time>
      </trkpt>
      <trkpt lat="45.94428" lon="1.79982">
        <ele>533.67</ele>
        <time>2026-05-05T07:05:54Z</time>
      </trkpt>
      <trkpt lat="45.94427" lon="1.79983">
        <ele>533.67</ele>
        <time>2026-05-05T07:05:55Z</time>
      </trkpt>
      <trkpt lat="45.94427" lon="1.79987">
        <ele>534.15</ele>
        <time>2026-05-05T07:06:12Z</time>
      </trkpt>
      <trkpt lat="45.94425" lon="1.79988">
        <ele>534.15</ele>
        <time>2026-05-05T07:06:42Z</time>
      </trkpt>
      <trkpt lat="45.94424" lon="1.7999">
        <ele>534.15</ele>
        <time>2026-05-05T07:06:43Z</time>
      </trkpt>
      <trkpt lat="45.9442" lon="1.79992">
        <ele>534.15</ele>
        <time>2026-05-05T07:06:47Z</time>
      </trkpt>
      <trkpt lat="45.94419" lon="1.79993">
        <ele>534.15</ele>
        <time>2026-05-05T07:06:48Z</time>
      </trkpt>
      <trkpt lat="45.94417" lon="1.79994">
        <ele>534.63</ele>
        <time>2026-05-05T07:06:49Z</time>
      </trkpt>
      <trkpt lat="45.94415" lon="1.79994">
        <ele>534.63</ele>
        <time>2026-05-05T07:06:50Z</time>
      </trkpt>
      <trkpt lat="45.94414" lon="1.79995">
        <ele>534.63</ele>
        <time>2026-05-05T07:06:51Z</time>
      </trkpt>
      <trkpt lat="45.94402" lon="1.80002">
        <ele>535.11</ele>
        <time>2026-05-05T07:07:03Z</time>
      </trkpt>
      <trkpt lat="45.94389" lon="1.80009">
        <ele>535.59</ele>
        <time>2026-05-05T07:07:13Z</time>
      </trkpt>
      <trkpt lat="45.94388" lon="1.80011">
        <ele>535.59</ele>
        <time>2026-05-05T07:07:14Z</time>
      </trkpt>
      <trkpt lat="45.9438" lon="1.80021">
        <ele>535.59</ele>
        <time>2026-05-05T07:07:22Z</time>
      </trkpt>
      <trkpt lat="45.94379" lon="1.80023">
        <ele>535.59</ele>
        <time>2026-05-05T07:07:23Z</time>
      </trkpt>
      <trkpt lat="45.94378" lon="1.80024">
        <ele>535.59</ele>
        <time>2026-05-05T07:07:24Z</time>
      </trkpt>
      <trkpt lat="45.94377" lon="1.80026">
        <ele>535.59</ele>
        <time>2026-05-05T07:07:25Z</time>
      </trkpt>
      <trkpt lat="45.94376" lon="1.80028">
        <ele>535.59</ele>
        <time>2026-05-05T07:07:26Z</time>
      </trkpt>
      <trkpt lat="45.94375" lon="1.8003">
        <ele>535.59</ele>
        <time>2026-05-05T07:07:27Z</time>
      </trkpt>
      <trkpt lat="45.94374" lon="1.80032">
        <ele>536.07</ele>
        <time>2026-05-05T07:07:28Z</time>
      </trkpt>
      <trkpt lat="45.94372" lon="1.80036">
        <ele>536.55</ele>
        <time>2026-05-05T07:07:32Z</time>
      </trkpt>
      <trkpt lat="45.94372" lon="1.80037">
        <ele>536.55</ele>
        <time>2026-05-05T07:07:33Z</time>
      </trkpt>
      <trkpt lat="45.94372" lon="1.80039">
        <ele>536.55</ele>
        <time>2026-05-05T07:07:34Z</time>
      </trkpt>
      <trkpt lat="45.9436" lon="1.80051">
        <ele>537.51</ele>
        <time>2026-05-05T07:07:46Z</time>
      </trkpt>
      <trkpt lat="45.94356" lon="1.80054">
        <ele>537.51</ele>
        <time>2026-05-05T07:07:49Z</time>
      </trkpt>
      <trkpt lat="45.94355" lon="1.80056">
        <ele>537.51</ele>
        <time>2026-05-05T07:07:50Z</time>
      </trkpt>
      <trkpt lat="45.94341" lon="1.80065">
        <ele>538.96</ele>
        <time>2026-05-05T07:08:02Z</time>
      </trkpt>
      <trkpt lat="45.94337" lon="1.80069">
        <ele>539.44</ele>
        <time>2026-05-05T07:08:07Z</time>
      </trkpt>
      <trkpt lat="45.94337" lon="1.8007">
        <ele>539.44</ele>
        <time>2026-05-05T07:08:08Z</time>
      </trkpt>
      <trkpt lat="45.94336" lon="1.80072">
        <ele>539.92</ele>
        <time>2026-05-05T07:08:09Z</time>
      </trkpt>
      <trkpt lat="45.94328" lon="1.80084">
        <ele>540.88</ele>
        <time>2026-05-05T07:08:17Z</time>
      </trkpt>
      <trkpt lat="45.94327" lon="1.80086">
        <ele>540.88</ele>
        <time>2026-05-05T07:08:18Z</time>
      </trkpt>
      <trkpt lat="45.94326" lon="1.80088">
        <ele>540.88</ele>
        <time>2026-05-05T07:08:19Z</time>
      </trkpt>
      <trkpt lat="45.94325" lon="1.8009">
        <ele>541.36</ele>
        <time>2026-05-05T07:08:20Z</time>
      </trkpt>
      <trkpt lat="45.94323" lon="1.80092">
        <ele>541.36</ele>
        <time>2026-05-05T07:08:21Z</time>
      </trkpt>
      <trkpt lat="45.94323" lon="1.80094">
        <ele>541.36</ele>
        <time>2026-05-05T07:08:22Z</time>
      </trkpt>
      <trkpt lat="45.94317" lon="1.801">
        <ele>542.8</ele>
        <time>2026-05-05T07:08:30Z</time>
      </trkpt>
      <trkpt lat="45.94316" lon="1.80101">
        <ele>542.8</ele>
        <time>2026-05-05T07:08:31Z</time>
      </trkpt>
      <trkpt lat="45.94314" lon="1.80102">
        <ele>542.8</ele>
        <time>2026-05-05T07:08:32Z</time>
      </trkpt>
      <trkpt lat="45.94313" lon="1.80103">
        <ele>542.8</ele>
        <time>2026-05-05T07:08:33Z</time>
      </trkpt>
      <trkpt lat="45.94303" lon="1.80114">
        <ele>545.2</ele>
        <time>2026-05-05T07:08:43Z</time>
      </trkpt>
      <trkpt lat="45.94298" lon="1.80123">
        <ele>546.17</ele>
        <time>2026-05-05T07:08:50Z</time>
      </trkpt>
      <trkpt lat="45.94297" lon="1.80124">
        <ele>546.17</ele>
        <time>2026-05-05T07:08:51Z</time>
      </trkpt>
      <trkpt lat="45.94283" lon="1.80139">
        <ele>548.09</ele>
        <time>2026-05-05T07:09:05Z</time>
      </trkpt>
      <trkpt lat="45.94273" lon="1.8015">
        <ele>549.53</ele>
        <time>2026-05-05T07:09:17Z</time>
      </trkpt>
      <trkpt lat="45.94263" lon="1.80166">
        <ele>550.97</ele>
        <time>2026-05-05T07:09:30Z</time>
      </trkpt>
      <trkpt lat="45.94253" lon="1.80181">
        <ele>551.93</ele>
        <time>2026-05-05T07:09:42Z</time>
      </trkpt>
      <trkpt lat="45.94253" lon="1.80183">
        <ele>551.93</ele>
        <time>2026-05-05T07:09:43Z</time>
      </trkpt>
      <trkpt lat="45.94245" lon="1.80192">
        <ele>552.41</ele>
        <time>2026-05-05T07:09:51Z</time>
      </trkpt>
      <trkpt lat="45.94245" lon="1.80195">
        <ele>552.41</ele>
        <time>2026-05-05T07:09:52Z</time>
      </trkpt>
      <trkpt lat="45.94243" lon="1.80196">
        <ele>552.41</ele>
        <time>2026-05-05T07:09:53Z</time>
      </trkpt>
      <trkpt lat="45.94231" lon="1.80213">
        <ele>552.9</ele>
        <time>2026-05-05T07:10:05Z</time>
      </trkpt>
      <trkpt lat="45.94222" lon="1.80227">
        <ele>552.9</ele>
        <time>2026-05-05T07:10:14Z</time>
      </trkpt>
      <trkpt lat="45.94221" lon="1.8023">
        <ele>552.9</ele>
        <time>2026-05-05T07:10:15Z</time>
      </trkpt>
      <trkpt lat="45.94213" lon="1.80238">
        <ele>553.86</ele>
        <time>2026-05-05T07:10:24Z</time>
      </trkpt>
      <trkpt lat="45.94212" lon="1.8024">
        <ele>553.86</ele>
        <time>2026-05-05T07:10:25Z</time>
      </trkpt>
      <trkpt lat="45.9421" lon="1.80242">
        <ele>553.86</ele>
        <time>2026-05-05T07:10:26Z</time>
      </trkpt>
      <trkpt lat="45.94202" lon="1.80253">
        <ele>554.34</ele>
        <time>2026-05-05T07:10:33Z</time>
      </trkpt>
      <trkpt lat="45.94201" lon="1.80256">
        <ele>554.34</ele>
        <time>2026-05-05T07:10:35Z</time>
      </trkpt>
      <trkpt lat="45.942" lon="1.80258">
        <ele>554.34</ele>
        <time>2026-05-05T07:10:36Z</time>
      </trkpt>
      <trkpt lat="45.942" lon="1.8026">
        <ele>554.34</ele>
        <time>2026-05-05T07:10:37Z</time>
      </trkpt>
      <trkpt lat="45.94194" lon="1.80268">
        <ele>554.34</ele>
        <time>2026-05-05T07:10:47Z</time>
      </trkpt>
      <trkpt lat="45.94191" lon="1.80273">
        <ele>554.34</ele>
        <time>2026-05-05T07:11:18Z</time>
      </trkpt>
      <trkpt lat="45.94178" lon="1.80266">
        <ele>554.82</ele>
        <time>2026-05-05T07:11:55Z</time>
      </trkpt>
      <trkpt lat="45.94168" lon="1.80265">
        <ele>554.82</ele>
        <time>2026-05-05T07:12:26Z</time>
      </trkpt>
      <trkpt lat="45.94175" lon="1.80271">
        <ele>554.82</ele>
        <time>2026-05-05T07:12:41Z</time>
      </trkpt>
      <trkpt lat="45.94175" lon="1.80273">
        <ele>554.82</ele>
        <time>2026-05-05T07:12:42Z</time>
      </trkpt>
      <trkpt lat="45.94175" lon="1.80275">
        <ele>554.82</ele>
        <time>2026-05-05T07:12:43Z</time>
      </trkpt>
      <trkpt lat="45.94175" lon="1.80277">
        <ele>554.82</ele>
        <time>2026-05-05T07:12:44Z</time>
      </trkpt>
      <trkpt lat="45.94175" lon="1.80278">
        <ele>554.82</ele>
        <time>2026-05-05T07:12:45Z</time>
      </trkpt>
      <trkpt lat="45.94171" lon="1.80292">
        <ele>554.82</ele>
        <time>2026-05-05T07:12:55Z</time>
      </trkpt>
      <trkpt lat="45.94172" lon="1.80298">
        <ele>555.3</ele>
        <time>2026-05-05T07:12:59Z</time>
      </trkpt>
      <trkpt lat="45.94172" lon="1.803">
        <ele>555.3</ele>
        <time>2026-05-05T07:13:00Z</time>
      </trkpt>
      <trkpt lat="45.94172" lon="1.80323">
        <ele>555.78</ele>
        <time>2026-05-05T07:13:10Z</time>
      </trkpt>
      <trkpt lat="45.94173" lon="1.80326">
        <ele>556.26</ele>
        <time>2026-05-05T07:13:11Z</time>
      </trkpt>
      <trkpt lat="45.94173" lon="1.80328">
        <ele>556.26</ele>
        <time>2026-05-05T07:13:12Z</time>
      </trkpt>
      <trkpt lat="45.94173" lon="1.8033">
        <ele>556.26</ele>
        <time>2026-05-05T07:13:13Z</time>
      </trkpt>
      <trkpt lat="45.94173" lon="1.80332">
        <ele>556.26</ele>
        <time>2026-05-05T07:13:14Z</time>
      </trkpt>
      <trkpt lat="45.94173" lon="1.80335">
        <ele>556.74</ele>
        <time>2026-05-05T07:13:15Z</time>
      </trkpt>
      <trkpt lat="45.94172" lon="1.80337">
        <ele>556.74</ele>
        <time>2026-05-05T07:13:16Z</time>
      </trkpt>
      <trkpt lat="45.9417" lon="1.80346">
        <ele>557.22</ele>
        <time>2026-05-05T07:13:24Z</time>
      </trkpt>
      <trkpt lat="45.9417" lon="1.80348">
        <ele>557.7</ele>
        <time>2026-05-05T07:13:25Z</time>
      </trkpt>
      <trkpt lat="45.9417" lon="1.8035">
        <ele>557.7</ele>
        <time>2026-05-05T07:13:26Z</time>
      </trkpt>
      <trkpt lat="45.94169" lon="1.80353">
        <ele>557.7</ele>
        <time>2026-05-05T07:13:27Z</time>
      </trkpt>
      <trkpt lat="45.94169" lon="1.80355">
        <ele>557.7</ele>
        <time>2026-05-05T07:13:28Z</time>
      </trkpt>
      <trkpt lat="45.94169" lon="1.80357">
        <ele>558.18</ele>
        <time>2026-05-05T07:13:29Z</time>
      </trkpt>
      <trkpt lat="45.94169" lon="1.80359">
        <ele>558.18</ele>
        <time>2026-05-05T07:13:30Z</time>
      </trkpt>
      <trkpt lat="45.94168" lon="1.80367">
        <ele>559.14</ele>
        <time>2026-05-05T07:13:37Z</time>
      </trkpt>
      <trkpt lat="45.94168" lon="1.80369">
        <ele>559.14</ele>
        <time>2026-05-05T07:13:38Z</time>
      </trkpt>
      <trkpt lat="45.9417" lon="1.80374">
        <ele>559.62</ele>
        <time>2026-05-05T07:13:41Z</time>
      </trkpt>
      <trkpt lat="45.94172" lon="1.80383">
        <ele>560.11</ele>
        <time>2026-05-05T07:13:48Z</time>
      </trkpt>
      <trkpt lat="45.94172" lon="1.80385">
        <ele>560.11</ele>
        <time>2026-05-05T07:13:49Z</time>
      </trkpt>
      <trkpt lat="45.94173" lon="1.80387">
        <ele>560.11</ele>
        <time>2026-05-05T07:13:50Z</time>
      </trkpt>
      <trkpt lat="45.94168" lon="1.80405">
        <ele>562.03</ele>
        <time>2026-05-05T07:14:01Z</time>
      </trkpt>
      <trkpt lat="45.94159" lon="1.80419">
        <ele>562.99</ele>
        <time>2026-05-05T07:14:13Z</time>
      </trkpt>
      <trkpt lat="45.94151" lon="1.80436">
        <ele>564.43</ele>
        <time>2026-05-05T07:14:24Z</time>
      </trkpt>
      <trkpt lat="45.94151" lon="1.80439">
        <ele>565.39</ele>
        <time>2026-05-05T07:14:26Z</time>
      </trkpt>
      <trkpt lat="45.94151" lon="1.8044">
        <ele>564.91</ele>
        <time>2026-05-05T07:14:27Z</time>
      </trkpt>
      <trkpt lat="45.94151" lon="1.80442">
        <ele>564.91</ele>
        <time>2026-05-05T07:14:28Z</time>
      </trkpt>
      <trkpt lat="45.9415" lon="1.80443">
        <ele>564.91</ele>
        <time>2026-05-05T07:14:29Z</time>
      </trkpt>
      <trkpt lat="45.94149" lon="1.80445">
        <ele>564.91</ele>
        <time>2026-05-05T07:14:30Z</time>
      </trkpt>
      <trkpt lat="45.94148" lon="1.80453">
        <ele>566.35</ele>
        <time>2026-05-05T07:14:36Z</time>
      </trkpt>
      <trkpt lat="45.94147" lon="1.8047">
        <ele>568.28</ele>
        <time>2026-05-05T07:14:48Z</time>
      </trkpt>
      <trkpt lat="45.94144" lon="1.80487">
        <ele>570.68</ele>
        <time>2026-05-05T07:15:02Z</time>
      </trkpt>
      <trkpt lat="45.94141" lon="1.80501">
        <ele>572.6</ele>
        <time>2026-05-05T07:15:13Z</time>
      </trkpt>
      <trkpt lat="45.94136" lon="1.80522">
        <ele>574.04</ele>
        <time>2026-05-05T07:15:24Z</time>
      </trkpt>
      <trkpt lat="45.94133" lon="1.80541">
        <ele>575.01</ele>
        <time>2026-05-05T07:15:37Z</time>
      </trkpt>
      <trkpt lat="45.94133" lon="1.80547">
        <ele>575.01</ele>
        <time>2026-05-05T07:15:41Z</time>
      </trkpt>
      <trkpt lat="45.94134" lon="1.80552">
        <ele>575.01</ele>
        <time>2026-05-05T07:15:55Z</time>
      </trkpt>
      <trkpt lat="45.94135" lon="1.80549">
        <ele>574.53</ele>
        <time>2026-05-05T07:16:22Z</time>
      </trkpt>
      <trkpt lat="45.94132" lon="1.80554">
        <ele>573.56</ele>
        <time>2026-05-05T07:16:51Z</time>
      </trkpt>
      <trkpt lat="45.94133" lon="1.80552">
        <ele>573.08</ele>
        <time>2026-05-05T07:17:20Z</time>
      </trkpt>
      <trkpt lat="45.94128" lon="1.80568">
        <ele>572.6</ele>
        <time>2026-05-05T07:17:57Z</time>
      </trkpt>
      <trkpt lat="45.94128" lon="1.80566">
        <ele>572.12</ele>
        <time>2026-05-05T07:18:23Z</time>
      </trkpt>
      <trkpt lat="45.94127" lon="1.8057">
        <ele>572.12</ele>
        <time>2026-05-05T07:18:48Z</time>
      </trkpt>
      <trkpt lat="45.94127" lon="1.80572">
        <ele>572.12</ele>
        <time>2026-05-05T07:18:49Z</time>
      </trkpt>
      <trkpt lat="45.94127" lon="1.80574">
        <ele>572.12</ele>
        <time>2026-05-05T07:18:50Z</time>
      </trkpt>
      <trkpt lat="45.94126" lon="1.80575">
        <ele>572.12</ele>
        <time>2026-05-05T07:18:51Z</time>
      </trkpt>
      <trkpt lat="45.94127" lon="1.80582">
        <ele>572.6</ele>
        <time>2026-05-05T07:18:56Z</time>
      </trkpt>
      <trkpt lat="45.94128" lon="1.80584">
        <ele>573.08</ele>
        <time>2026-05-05T07:18:57Z</time>
      </trkpt>
      <trkpt lat="45.94133" lon="1.80609">
        <ele>573.08</ele>
        <time>2026-05-05T07:19:09Z</time>
      </trkpt>
      <trkpt lat="45.94128" lon="1.80631">
        <ele>573.08</ele>
        <time>2026-05-05T07:19:20Z</time>
      </trkpt>
      <trkpt lat="45.9412" lon="1.80655">
        <ele>573.08</ele>
        <time>2026-05-05T07:19:33Z</time>
      </trkpt>
      <trkpt lat="45.94112" lon="1.80679">
        <ele>573.08</ele>
        <time>2026-05-05T07:19:46Z</time>
      </trkpt>
      <trkpt lat="45.94103" lon="1.80694">
        <ele>573.08</ele>
        <time>2026-05-05T07:19:57Z</time>
      </trkpt>
      <trkpt lat="45.94102" lon="1.80708">
        <ele>573.08</ele>
        <time>2026-05-05T07:20:05Z</time>
      </trkpt>
      <trkpt lat="45.94103" lon="1.80709">
        <ele>572.12</ele>
        <time>2026-05-05T07:20:06Z</time>
      </trkpt>
      <trkpt lat="45.94118" lon="1.80717">
        <ele>570.68</ele>
        <time>2026-05-05T07:20:18Z</time>
      </trkpt>
      <trkpt lat="45.94136" lon="1.8073">
        <ele>569.72</ele>
        <time>2026-05-05T07:20:32Z</time>
      </trkpt>
      <trkpt lat="45.94149" lon="1.80748">
        <ele>569.24</ele>
        <time>2026-05-05T07:20:45Z</time>
      </trkpt>
      <trkpt lat="45.9416" lon="1.80763">
        <ele>568.76</ele>
        <time>2026-05-05T07:20:57Z</time>
      </trkpt>
      <trkpt lat="45.94175" lon="1.80784">
        <ele>567.8</ele>
        <time>2026-05-05T07:21:12Z</time>
      </trkpt>
      <trkpt lat="45.94189" lon="1.80801">
        <ele>566.83</ele>
        <time>2026-05-05T07:21:25Z</time>
      </trkpt>
      <trkpt lat="45.94201" lon="1.80818">
        <ele>566.35</ele>
        <time>2026-05-05T07:21:38Z</time>
      </trkpt>
      <trkpt lat="45.94214" lon="1.80835">
        <ele>565.87</ele>
        <time>2026-05-05T07:21:50Z</time>
      </trkpt>
      <trkpt lat="45.94215" lon="1.80836">
        <ele>565.87</ele>
        <time>2026-05-05T07:21:51Z</time>
      </trkpt>
      <trkpt lat="45.94216" lon="1.80838">
        <ele>565.87</ele>
        <time>2026-05-05T07:21:52Z</time>
      </trkpt>
      <trkpt lat="45.94218" lon="1.80839">
        <ele>565.87</ele>
        <time>2026-05-05T07:21:53Z</time>
      </trkpt>
      <trkpt lat="45.94219" lon="1.8084">
        <ele>565.87</ele>
        <time>2026-05-05T07:21:54Z</time>
      </trkpt>
      <trkpt lat="45.9422" lon="1.80842">
        <ele>565.87</ele>
        <time>2026-05-05T07:21:55Z</time>
      </trkpt>
      <trkpt lat="45.94234" lon="1.8086">
        <ele>563.95</ele>
        <time>2026-05-05T07:22:08Z</time>
      </trkpt>
      <trkpt lat="45.94237" lon="1.80865">
        <ele>563.95</ele>
        <time>2026-05-05T07:22:11Z</time>
      </trkpt>
      <trkpt lat="45.94249" lon="1.80882">
        <ele>562.99</ele>
        <time>2026-05-05T07:22:24Z</time>
      </trkpt>
      <trkpt lat="45.94255" lon="1.80893">
        <ele>562.03</ele>
        <time>2026-05-05T07:22:32Z</time>
      </trkpt>
      <trkpt lat="45.94255" lon="1.80895">
        <ele>562.03</ele>
        <time>2026-05-05T07:22:33Z</time>
      </trkpt>
      <trkpt lat="45.94256" lon="1.80898">
        <ele>561.55</ele>
        <time>2026-05-05T07:22:35Z</time>
      </trkpt>
      <trkpt lat="45.94258" lon="1.80901">
        <ele>561.55</ele>
        <time>2026-05-05T07:22:39Z</time>
      </trkpt>
      <trkpt lat="45.94259" lon="1.80905">
        <ele>561.55</ele>
        <time>2026-05-05T07:22:41Z</time>
      </trkpt>
      <trkpt lat="45.9426" lon="1.80908">
        <ele>561.07</ele>
        <time>2026-05-05T07:22:42Z</time>
      </trkpt>
      <trkpt lat="45.94261" lon="1.8091">
        <ele>561.07</ele>
        <time>2026-05-05T07:22:43Z</time>
      </trkpt>
      <trkpt lat="45.94261" lon="1.80913">
        <ele>561.07</ele>
        <time>2026-05-05T07:22:44Z</time>
      </trkpt>
      <trkpt lat="45.94265" lon="1.80933">
        <ele>560.59</ele>
        <time>2026-05-05T07:22:54Z</time>
      </trkpt>
      <trkpt lat="45.94268" lon="1.80947">
        <ele>560.11</ele>
        <time>2026-05-05T07:23:01Z</time>
      </trkpt>
      <trkpt lat="45.9427" lon="1.80956">
        <ele>559.14</ele>
        <time>2026-05-05T07:23:08Z</time>
      </trkpt>
      <trkpt lat="45.94271" lon="1.80958">
        <ele>559.14</ele>
        <time>2026-05-05T07:23:09Z</time>
      </trkpt>
      <trkpt lat="45.94272" lon="1.80959">
        <ele>559.14</ele>
        <time>2026-05-05T07:23:10Z</time>
      </trkpt>
      <trkpt lat="45.94273" lon="1.80961">
        <ele>559.14</ele>
        <time>2026-05-05T07:23:11Z</time>
      </trkpt>
      <trkpt lat="45.94274" lon="1.80963">
        <ele>559.14</ele>
        <time>2026-05-05T07:23:12Z</time>
      </trkpt>
      <trkpt lat="45.94274" lon="1.80964">
        <ele>559.14</ele>
        <time>2026-05-05T07:23:13Z</time>
      </trkpt>
      <trkpt lat="45.94283" lon="1.80979">
        <ele>558.18</ele>
        <time>2026-05-05T07:23:24Z</time>
      </trkpt>
      <trkpt lat="45.94285" lon="1.80985">
        <ele>557.7</ele>
        <time>2026-05-05T07:23:27Z</time>
      </trkpt>
      <trkpt lat="45.94291" lon="1.80993">
        <ele>557.22</ele>
        <time>2026-05-05T07:23:34Z</time>
      </trkpt>
      <trkpt lat="45.94292" lon="1.80995">
        <ele>557.22</ele>
        <time>2026-05-05T07:23:35Z</time>
      </trkpt>
      <trkpt lat="45.94293" lon="1.80996">
        <ele>557.22</ele>
        <time>2026-05-05T07:23:36Z</time>
      </trkpt>
      <trkpt lat="45.94294" lon="1.80998">
        <ele>557.22</ele>
        <time>2026-05-05T07:23:37Z</time>
      </trkpt>
      <trkpt lat="45.94295" lon="1.80999">
        <ele>557.22</ele>
        <time>2026-05-05T07:23:38Z</time>
      </trkpt>
      <trkpt lat="45.94296" lon="1.81001">
        <ele>557.22</ele>
        <time>2026-05-05T07:23:39Z</time>
      </trkpt>
      <trkpt lat="45.94296" lon="1.81003">
        <ele>556.26</ele>
        <time>2026-05-05T07:23:40Z</time>
      </trkpt>
      <trkpt lat="45.94297" lon="1.81005">
        <ele>556.26</ele>
        <time>2026-05-05T07:23:41Z</time>
      </trkpt>
      <trkpt lat="45.94298" lon="1.81007">
        <ele>556.26</ele>
        <time>2026-05-05T07:23:42Z</time>
      </trkpt>
      <trkpt lat="45.94305" lon="1.81026">
        <ele>555.78</ele>
        <time>2026-05-05T07:23:52Z</time>
      </trkpt>
      <trkpt lat="45.94306" lon="1.81028">
        <ele>555.78</ele>
        <time>2026-05-05T07:23:53Z</time>
      </trkpt>
      <trkpt lat="45.9431" lon="1.81038">
        <ele>555.3</ele>
        <time>2026-05-05T07:24:03Z</time>
      </trkpt>
      <trkpt lat="45.9431" lon="1.8104">
        <ele>555.3</ele>
        <time>2026-05-05T07:24:04Z</time>
      </trkpt>
      <trkpt lat="45.94319" lon="1.8105">
        <ele>555.3</ele>
        <time>2026-05-05T07:24:13Z</time>
      </trkpt>
      <trkpt lat="45.94321" lon="1.81051">
        <ele>555.3</ele>
        <time>2026-05-05T07:24:14Z</time>
      </trkpt>
      <trkpt lat="45.94322" lon="1.81053">
        <ele>555.3</ele>
        <time>2026-05-05T07:24:15Z</time>
      </trkpt>
      <trkpt lat="45.94336" lon="1.81071">
        <ele>556.26</ele>
        <time>2026-05-05T07:24:26Z</time>
      </trkpt>
      <trkpt lat="45.94337" lon="1.81071">
        <ele>556.26</ele>
        <time>2026-05-05T07:24:27Z</time>
      </trkpt>
      <trkpt lat="45.94346" lon="1.81076">
        <ele>557.7</ele>
        <time>2026-05-05T07:24:35Z</time>
      </trkpt>
      <trkpt lat="45.94347" lon="1.81078">
        <ele>557.7</ele>
        <time>2026-05-05T07:24:36Z</time>
      </trkpt>
      <trkpt lat="45.94348" lon="1.81079">
        <ele>558.18</ele>
        <time>2026-05-05T07:24:37Z</time>
      </trkpt>
      <trkpt lat="45.9436" lon="1.8109">
        <ele>560.11</ele>
        <time>2026-05-05T07:24:50Z</time>
      </trkpt>
      <trkpt lat="45.9438" lon="1.81102">
        <ele>561.07</ele>
        <time>2026-05-05T07:25:03Z</time>
      </trkpt>
      <trkpt lat="45.9439" lon="1.8111">
        <ele>561.55</ele>
        <time>2026-05-05T07:25:10Z</time>
      </trkpt>
      <trkpt lat="45.94404" lon="1.8112">
        <ele>562.99</ele>
        <time>2026-05-05T07:25:23Z</time>
      </trkpt>
      <trkpt lat="45.94419" lon="1.81132">
        <ele>564.43</ele>
        <time>2026-05-05T07:25:36Z</time>
      </trkpt>
      <trkpt lat="45.94432" lon="1.81142">
        <ele>565.87</ele>
        <time>2026-05-05T07:25:48Z</time>
      </trkpt>
      <trkpt lat="45.9445" lon="1.81155">
        <ele>566.83</ele>
        <time>2026-05-05T07:26:03Z</time>
      </trkpt>
      <trkpt lat="45.94462" lon="1.81166">
        <ele>568.76</ele>
        <time>2026-05-05T07:26:15Z</time>
      </trkpt>
      <trkpt lat="45.94475" lon="1.81176">
        <ele>569.72</ele>
        <time>2026-05-05T07:26:26Z</time>
      </trkpt>
      <trkpt lat="45.94487" lon="1.81187">
        <ele>570.68</ele>
        <time>2026-05-05T07:26:37Z</time>
      </trkpt>
      <trkpt lat="45.945" lon="1.81199">
        <ele>571.64</ele>
        <time>2026-05-05T07:26:49Z</time>
      </trkpt>
      <trkpt lat="45.94515" lon="1.81213">
        <ele>572.12</ele>
        <time>2026-05-05T07:27:02Z</time>
      </trkpt>
      <trkpt lat="45.94531" lon="1.81227">
        <ele>572.6</ele>
        <time>2026-05-05T07:27:15Z</time>
      </trkpt>
      <trkpt lat="45.94546" lon="1.81237">
        <ele>572.6</ele>
        <time>2026-05-05T07:27:27Z</time>
      </trkpt>
      <trkpt lat="45.94561" lon="1.81248">
        <ele>572.6</ele>
        <time>2026-05-05T07:27:41Z</time>
      </trkpt>
      <trkpt lat="45.94572" lon="1.81253">
        <ele>572.6</ele>
        <time>2026-05-05T07:27:49Z</time>
      </trkpt>
      <trkpt lat="45.94573" lon="1.81254">
        <ele>572.6</ele>
        <time>2026-05-05T07:27:50Z</time>
      </trkpt>
      <trkpt lat="45.94577" lon="1.81255">
        <ele>571.16</ele>
        <time>2026-05-05T07:27:53Z</time>
      </trkpt>
      <trkpt lat="45.94586" lon="1.81259">
        <ele>570.68</ele>
        <time>2026-05-05T07:27:59Z</time>
      </trkpt>
      <trkpt lat="45.94587" lon="1.8126">
        <ele>570.68</ele>
        <time>2026-05-05T07:28:00Z</time>
      </trkpt>
      <trkpt lat="45.94588" lon="1.81261">
        <ele>570.2</ele>
        <time>2026-05-05T07:28:01Z</time>
      </trkpt>
      <trkpt lat="45.94606" lon="1.81267">
        <ele>569.72</ele>
        <time>2026-05-05T07:28:14Z</time>
      </trkpt>
      <trkpt lat="45.94624" lon="1.81266">
        <ele>569.24</ele>
        <time>2026-05-05T07:28:28Z</time>
      </trkpt>
      <trkpt lat="45.94627" lon="1.81266">
        <ele>569.24</ele>
        <time>2026-05-05T07:28:30Z</time>
      </trkpt>
      <trkpt lat="45.94638" lon="1.81267">
        <ele>569.24</ele>
        <time>2026-05-05T07:28:38Z</time>
      </trkpt>
      <trkpt lat="45.94655" lon="1.81269">
        <ele>569.24</ele>
        <time>2026-05-05T07:28:51Z</time>
      </trkpt>
      <trkpt lat="45.9466" lon="1.81268">
        <ele>569.24</ele>
        <time>2026-05-05T07:28:57Z</time>
      </trkpt>
      <trkpt lat="45.94664" lon="1.8127">
        <ele>570.2</ele>
        <time>2026-05-05T07:29:00Z</time>
      </trkpt>
      <trkpt lat="45.94666" lon="1.8127">
        <ele>570.68</ele>
        <time>2026-05-05T07:29:01Z</time>
      </trkpt>
      <trkpt lat="45.94684" lon="1.81278">
        <ele>570.68</ele>
        <time>2026-05-05T07:29:14Z</time>
      </trkpt>
      <trkpt lat="45.94702" lon="1.81278">
        <ele>571.64</ele>
        <time>2026-05-05T07:29:27Z</time>
      </trkpt>
      <trkpt lat="45.94708" lon="1.81269">
        <ele>572.12</ele>
        <time>2026-05-05T07:29:39Z</time>
      </trkpt>
      <trkpt lat="45.9471" lon="1.81262">
        <ele>572.12</ele>
        <time>2026-05-05T07:30:10Z</time>
      </trkpt>
      <trkpt lat="45.94715" lon="1.81268">
        <ele>573.08</ele>
        <time>2026-05-05T07:30:14Z</time>
      </trkpt>
      <trkpt lat="45.94717" lon="1.81271">
        <ele>573.08</ele>
        <time>2026-05-05T07:30:15Z</time>
      </trkpt>
      <trkpt lat="45.94719" lon="1.81273">
        <ele>573.08</ele>
        <time>2026-05-05T07:30:16Z</time>
      </trkpt>
      <trkpt lat="45.9472" lon="1.81274">
        <ele>573.08</ele>
        <time>2026-05-05T07:30:17Z</time>
      </trkpt>
      <trkpt lat="45.94721" lon="1.81277">
        <ele>573.08</ele>
        <time>2026-05-05T07:30:18Z</time>
      </trkpt>
      <trkpt lat="45.94722" lon="1.81279">
        <ele>573.08</ele>
        <time>2026-05-05T07:30:19Z</time>
      </trkpt>
      <trkpt lat="45.94717" lon="1.81301">
        <ele>574.04</ele>
        <time>2026-05-05T07:30:33Z</time>
      </trkpt>
      <trkpt lat="45.94706" lon="1.81319">
        <ele>575.01</ele>
        <time>2026-05-05T07:30:47Z</time>
      </trkpt>
      <trkpt lat="45.94695" lon="1.81332">
        <ele>576.45</ele>
        <time>2026-05-05T07:30:59Z</time>
      </trkpt>
      <trkpt lat="45.94677" lon="1.8135">
        <ele>577.41</ele>
        <time>2026-05-05T07:31:14Z</time>
      </trkpt>
      <trkpt lat="45.94672" lon="1.81356">
        <ele>578.37</ele>
        <time>2026-05-05T07:31:20Z</time>
      </trkpt>
      <trkpt lat="45.94658" lon="1.81372">
        <ele>578.85</ele>
        <time>2026-05-05T07:31:33Z</time>
      </trkpt>
      <trkpt lat="45.94645" lon="1.81393">
        <ele>580.29</ele>
        <time>2026-05-05T07:31:47Z</time>
      </trkpt>
      <trkpt lat="45.94632" lon="1.81412">
        <ele>581.25</ele>
        <time>2026-05-05T07:32:01Z</time>
      </trkpt>
      <trkpt lat="45.94628" lon="1.81415">
        <ele>581.73</ele>
        <time>2026-05-05T07:32:05Z</time>
      </trkpt>
      <trkpt lat="45.94624" lon="1.81425">
        <ele>582.22</ele>
        <time>2026-05-05T07:32:12Z</time>
      </trkpt>
      <trkpt lat="45.94623" lon="1.81427">
        <ele>582.22</ele>
        <time>2026-05-05T07:32:13Z</time>
      </trkpt>
      <trkpt lat="45.94611" lon="1.81453">
        <ele>583.66</ele>
        <time>2026-05-05T07:32:29Z</time>
      </trkpt>
      <trkpt lat="45.94609" lon="1.81463">
        <ele>584.62</ele>
        <time>2026-05-05T07:32:41Z</time>
      </trkpt>
      <trkpt lat="45.94606" lon="1.81482">
        <ele>585.58</ele>
        <time>2026-05-05T07:32:57Z</time>
      </trkpt>
      <trkpt lat="45.94605" lon="1.81483">
        <ele>585.58</ele>
        <time>2026-05-05T07:32:58Z</time>
      </trkpt>
      <trkpt lat="45.94605" lon="1.81485">
        <ele>585.58</ele>
        <time>2026-05-05T07:32:59Z</time>
      </trkpt>
      <trkpt lat="45.94605" lon="1.81515">
        <ele>587.02</ele>
        <time>2026-05-05T07:33:15Z</time>
      </trkpt>
      <trkpt lat="45.94607" lon="1.81546">
        <ele>588.46</ele>
        <time>2026-05-05T07:33:30Z</time>
      </trkpt>
      <trkpt lat="45.9461" lon="1.8157">
        <ele>589.91</ele>
        <time>2026-05-05T07:33:43Z</time>
      </trkpt>
      <trkpt lat="45.94614" lon="1.81595">
        <ele>590.87</ele>
        <time>2026-05-05T07:33:57Z</time>
      </trkpt>
      <trkpt lat="45.94623" lon="1.81615">
        <ele>592.31</ele>
        <time>2026-05-05T07:34:10Z</time>
      </trkpt>
      <trkpt lat="45.94638" lon="1.81633">
        <ele>593.27</ele>
        <time>2026-05-05T07:34:24Z</time>
      </trkpt>
      <trkpt lat="45.9465" lon="1.81655">
        <ele>594.71</ele>
        <time>2026-05-05T07:34:38Z</time>
      </trkpt>
      <trkpt lat="45.94659" lon="1.81678">
        <ele>595.67</ele>
        <time>2026-05-05T07:34:52Z</time>
      </trkpt>
      <trkpt lat="45.94665" lon="1.81702">
        <ele>596.64</ele>
        <time>2026-05-05T07:35:06Z</time>
      </trkpt>
      <trkpt lat="45.94671" lon="1.81727">
        <ele>598.08</ele>
        <time>2026-05-05T07:35:19Z</time>
      </trkpt>
      <trkpt lat="45.94677" lon="1.8175">
        <ele>599.52</ele>
        <time>2026-05-05T07:35:32Z</time>
      </trkpt>
      <trkpt lat="45.94682" lon="1.81772">
        <ele>600.48</ele>
        <time>2026-05-05T07:35:45Z</time>
      </trkpt>
      <trkpt lat="45.94682" lon="1.8178">
        <ele>600.96</ele>
        <time>2026-05-05T07:35:48Z</time>
      </trkpt>
      <trkpt lat="45.94688" lon="1.81799">
        <ele>601.44</ele>
        <time>2026-05-05T07:36:00Z</time>
      </trkpt>
      <trkpt lat="45.94687" lon="1.81822">
        <ele>602.88</ele>
        <time>2026-05-05T07:36:13Z</time>
      </trkpt>
      <trkpt lat="45.94678" lon="1.81845">
        <ele>604.33</ele>
        <time>2026-05-05T07:36:28Z</time>
      </trkpt>
      <trkpt lat="45.94675" lon="1.81848">
        <ele>604.81</ele>
        <time>2026-05-05T07:36:32Z</time>
      </trkpt>
      <trkpt lat="45.94675" lon="1.81849">
        <ele>604.81</ele>
        <time>2026-05-05T07:36:33Z</time>
      </trkpt>
      <trkpt lat="45.94674" lon="1.8185">
        <ele>604.81</ele>
        <time>2026-05-05T07:36:34Z</time>
      </trkpt>
      <trkpt lat="45.94674" lon="1.81857">
        <ele>605.29</ele>
        <time>2026-05-05T07:36:45Z</time>
      </trkpt>
      <trkpt lat="45.94674" lon="1.8186">
        <ele>605.77</ele>
        <time>2026-05-05T07:36:56Z</time>
      </trkpt>
      <trkpt lat="45.94687" lon="1.81873">
        <ele>607.69</ele>
        <time>2026-05-05T07:37:13Z</time>
      </trkpt>
      <trkpt lat="45.9469" lon="1.81876">
        <ele>608.17</ele>
        <time>2026-05-05T07:37:15Z</time>
      </trkpt>
      <trkpt lat="45.94699" lon="1.81887">
        <ele>608.17</ele>
        <time>2026-05-05T07:37:23Z</time>
      </trkpt>
      <trkpt lat="45.94701" lon="1.81888">
        <ele>608.65</ele>
        <time>2026-05-05T07:37:24Z</time>
      </trkpt>
      <trkpt lat="45.94718" lon="1.81903">
        <ele>609.61</ele>
        <time>2026-05-05T07:37:38Z</time>
      </trkpt>
      <trkpt lat="45.94718" lon="1.81904">
        <ele>609.61</ele>
        <time>2026-05-05T07:37:39Z</time>
      </trkpt>
      <trkpt lat="45.94719" lon="1.81906">
        <ele>610.09</ele>
        <time>2026-05-05T07:37:40Z</time>
      </trkpt>
      <trkpt lat="45.9472" lon="1.81908">
        <ele>610.09</ele>
        <time>2026-05-05T07:37:41Z</time>
      </trkpt>
      <trkpt lat="45.94721" lon="1.81909">
        <ele>610.09</ele>
        <time>2026-05-05T07:37:42Z</time>
      </trkpt>
      <trkpt lat="45.94729" lon="1.81919">
        <ele>611.54</ele>
        <time>2026-05-05T07:37:50Z</time>
      </trkpt>
      <trkpt lat="45.94735" lon="1.81927">
        <ele>612.02</ele>
        <time>2026-05-05T07:37:58Z</time>
      </trkpt>
      <trkpt lat="45.94736" lon="1.81928">
        <ele>612.02</ele>
        <time>2026-05-05T07:37:59Z</time>
      </trkpt>
      <trkpt lat="45.94737" lon="1.81929">
        <ele>612.5</ele>
        <time>2026-05-05T07:38:00Z</time>
      </trkpt>
      <trkpt lat="45.94738" lon="1.8193">
        <ele>612.5</ele>
        <time>2026-05-05T07:38:01Z</time>
      </trkpt>
      <trkpt lat="45.94738" lon="1.81932">
        <ele>612.5</ele>
        <time>2026-05-05T07:38:02Z</time>
      </trkpt>
      <trkpt lat="45.94739" lon="1.81933">
        <ele>612.5</ele>
        <time>2026-05-05T07:38:03Z</time>
      </trkpt>
      <trkpt lat="45.9474" lon="1.81934">
        <ele>612.5</ele>
        <time>2026-05-05T07:38:04Z</time>
      </trkpt>
      <trkpt lat="45.94743" lon="1.81936">
        <ele>612.98</ele>
        <time>2026-05-05T07:38:06Z</time>
      </trkpt>
      <trkpt lat="45.94748" lon="1.81939">
        <ele>613.94</ele>
        <time>2026-05-05T07:38:11Z</time>
      </trkpt>
      <trkpt lat="45.94749" lon="1.8194">
        <ele>613.94</ele>
        <time>2026-05-05T07:38:12Z</time>
      </trkpt>
      <trkpt lat="45.9475" lon="1.81942">
        <ele>613.94</ele>
        <time>2026-05-05T07:38:13Z</time>
      </trkpt>
      <trkpt lat="45.94757" lon="1.81959">
        <ele>615.38</ele>
        <time>2026-05-05T07:38:26Z</time>
      </trkpt>
      <trkpt lat="45.94762" lon="1.81981">
        <ele>616.82</ele>
        <time>2026-05-05T07:38:38Z</time>
      </trkpt>
      <trkpt lat="45.94773" lon="1.81995">
        <ele>618.75</ele>
        <time>2026-05-05T07:38:52Z</time>
      </trkpt>
      <trkpt lat="45.94776" lon="1.82">
        <ele>618.75</ele>
        <time>2026-05-05T07:38:55Z</time>
      </trkpt>
      <trkpt lat="45.94786" lon="1.82016">
        <ele>620.67</ele>
        <time>2026-05-05T07:39:10Z</time>
      </trkpt>
      <trkpt lat="45.94788" lon="1.82018">
        <ele>620.67</ele>
        <time>2026-05-05T07:39:11Z</time>
      </trkpt>
      <trkpt lat="45.94798" lon="1.82036">
        <ele>622.11</ele>
        <time>2026-05-05T07:39:25Z</time>
      </trkpt>
      <trkpt lat="45.94814" lon="1.82055">
        <ele>623.55</ele>
        <time>2026-05-05T07:39:39Z</time>
      </trkpt>
      <trkpt lat="45.94823" lon="1.82071">
        <ele>624.99</ele>
        <time>2026-05-05T07:39:54Z</time>
      </trkpt>
      <trkpt lat="45.94826" lon="1.82083">
        <ele>625.47</ele>
        <time>2026-05-05T07:40:18Z</time>
      </trkpt>
      <trkpt lat="45.94836" lon="1.8209">
        <ele>626.44</ele>
        <time>2026-05-05T07:40:33Z</time>
      </trkpt>
      <trkpt lat="45.94837" lon="1.82091">
        <ele>626.44</ele>
        <time>2026-05-05T07:40:34Z</time>
      </trkpt>
      <trkpt lat="45.94838" lon="1.82091">
        <ele>626.44</ele>
        <time>2026-05-05T07:40:35Z</time>
      </trkpt>
      <trkpt lat="45.94846" lon="1.82101">
        <ele>628.84</ele>
        <time>2026-05-05T07:40:49Z</time>
      </trkpt>
      <trkpt lat="45.94848" lon="1.82104">
        <ele>628.84</ele>
        <time>2026-05-05T07:40:52Z</time>
      </trkpt>
      <trkpt lat="45.94848" lon="1.82106">
        <ele>629.32</ele>
        <time>2026-05-05T07:40:53Z</time>
      </trkpt>
      <trkpt lat="45.94849" lon="1.82108">
        <ele>629.32</ele>
        <time>2026-05-05T07:40:54Z</time>
      </trkpt>
      <trkpt lat="45.94852" lon="1.82114">
        <ele>630.28</ele>
        <time>2026-05-05T07:41:00Z</time>
      </trkpt>
      <trkpt lat="45.94853" lon="1.82115">
        <ele>630.28</ele>
        <time>2026-05-05T07:41:01Z</time>
      </trkpt>
      <trkpt lat="45.94853" lon="1.82117">
        <ele>630.76</ele>
        <time>2026-05-05T07:41:02Z</time>
      </trkpt>
      <trkpt lat="45.94853" lon="1.82119">
        <ele>630.76</ele>
        <time>2026-05-05T07:41:03Z</time>
      </trkpt>
      <trkpt lat="45.94854" lon="1.82121">
        <ele>630.76</ele>
        <time>2026-05-05T07:41:04Z</time>
      </trkpt>
      <trkpt lat="45.94857" lon="1.82127">
        <ele>631.24</ele>
        <time>2026-05-05T07:41:09Z</time>
      </trkpt>
      <trkpt lat="45.94857" lon="1.82128">
        <ele>631.72</ele>
        <time>2026-05-05T07:41:10Z</time>
      </trkpt>
      <trkpt lat="45.94858" lon="1.8213">
        <ele>631.72</ele>
        <time>2026-05-05T07:41:11Z</time>
      </trkpt>
      <trkpt lat="45.94859" lon="1.82132">
        <ele>631.72</ele>
        <time>2026-05-05T07:41:12Z</time>
      </trkpt>
      <trkpt lat="45.9486" lon="1.82134">
        <ele>631.72</ele>
        <time>2026-05-05T07:41:13Z</time>
      </trkpt>
      <trkpt lat="45.94872" lon="1.82149">
        <ele>633.65</ele>
        <time>2026-05-05T07:41:25Z</time>
      </trkpt>
      <trkpt lat="45.94884" lon="1.82168">
        <ele>635.09</ele>
        <time>2026-05-05T07:41:39Z</time>
      </trkpt>
      <trkpt lat="45.94889" lon="1.82189">
        <ele>637.01</ele>
        <time>2026-05-05T07:41:50Z</time>
      </trkpt>
      <trkpt lat="45.9489" lon="1.82191">
        <ele>637.01</ele>
        <time>2026-05-05T07:41:51Z</time>
      </trkpt>
      <trkpt lat="45.949" lon="1.82211">
        <ele>638.93</ele>
        <time>2026-05-05T07:42:06Z</time>
      </trkpt>
      <trkpt lat="45.94904" lon="1.82217">
        <ele>639.41</ele>
        <time>2026-05-05T07:42:12Z</time>
      </trkpt>
      <trkpt lat="45.94915" lon="1.82239">
        <ele>641.82</ele>
        <time>2026-05-05T07:42:27Z</time>
      </trkpt>
      <trkpt lat="45.94924" lon="1.82258">
        <ele>642.78</ele>
        <time>2026-05-05T07:42:41Z</time>
      </trkpt>
      <trkpt lat="45.94926" lon="1.82268">
        <ele>643.74</ele>
        <time>2026-05-05T07:42:47Z</time>
      </trkpt>
      <trkpt lat="45.94926" lon="1.8227">
        <ele>643.74</ele>
        <time>2026-05-05T07:42:48Z</time>
      </trkpt>
      <trkpt lat="45.94927" lon="1.82273">
        <ele>643.74</ele>
        <time>2026-05-05T07:42:49Z</time>
      </trkpt>
      <trkpt lat="45.94928" lon="1.82275">
        <ele>643.74</ele>
        <time>2026-05-05T07:42:50Z</time>
      </trkpt>
      <trkpt lat="45.94929" lon="1.82277">
        <ele>643.74</ele>
        <time>2026-05-05T07:42:51Z</time>
      </trkpt>
      <trkpt lat="45.94931" lon="1.82286">
        <ele>644.7</ele>
        <time>2026-05-05T07:42:57Z</time>
      </trkpt>
      <trkpt lat="45.94932" lon="1.82288">
        <ele>644.7</ele>
        <time>2026-05-05T07:42:58Z</time>
      </trkpt>
      <trkpt lat="45.94933" lon="1.8229">
        <ele>644.7</ele>
        <time>2026-05-05T07:42:59Z</time>
      </trkpt>
      <trkpt lat="45.9494" lon="1.82315">
        <ele>646.14</ele>
        <time>2026-05-05T07:43:12Z</time>
      </trkpt>
      <trkpt lat="45.94941" lon="1.82316">
        <ele>646.14</ele>
        <time>2026-05-05T07:43:13Z</time>
      </trkpt>
      <trkpt lat="45.94948" lon="1.82334">
        <ele>647.1</ele>
        <time>2026-05-05T07:43:25Z</time>
      </trkpt>
      <trkpt lat="45.94949" lon="1.82337">
        <ele>647.1</ele>
        <time>2026-05-05T07:43:28Z</time>
      </trkpt>
      <trkpt lat="45.9495" lon="1.82338">
        <ele>647.1</ele>
        <time>2026-05-05T07:43:29Z</time>
      </trkpt>
      <trkpt lat="45.94952" lon="1.82348">
        <ele>647.59</ele>
        <time>2026-05-05T07:43:34Z</time>
      </trkpt>
      <trkpt lat="45.94953" lon="1.8235">
        <ele>647.59</ele>
        <time>2026-05-05T07:43:35Z</time>
      </trkpt>
      <trkpt lat="45.94955" lon="1.82355">
        <ele>647.59</ele>
        <time>2026-05-05T07:43:40Z</time>
      </trkpt>
      <trkpt lat="45.94955" lon="1.82357">
        <ele>648.07</ele>
        <time>2026-05-05T07:43:41Z</time>
      </trkpt>
      <trkpt lat="45.94954" lon="1.8236">
        <ele>648.07</ele>
        <time>2026-05-05T07:43:42Z</time>
      </trkpt>
      <trkpt lat="45.94954" lon="1.82363">
        <ele>648.07</ele>
        <time>2026-05-05T07:43:44Z</time>
      </trkpt>
      <trkpt lat="45.94959" lon="1.82368">
        <ele>648.07</ele>
        <time>2026-05-05T07:43:51Z</time>
      </trkpt>
      <trkpt lat="45.9496" lon="1.82375">
        <ele>648.07</ele>
        <time>2026-05-05T07:43:55Z</time>
      </trkpt>
      <trkpt lat="45.94964" lon="1.82402">
        <ele>649.03</ele>
        <time>2026-05-05T07:44:10Z</time>
      </trkpt>
      <trkpt lat="45.94962" lon="1.82421">
        <ele>649.51</ele>
        <time>2026-05-05T07:44:17Z</time>
      </trkpt>
      <trkpt lat="45.94964" lon="1.82439">
        <ele>649.99</ele>
        <time>2026-05-05T07:44:28Z</time>
      </trkpt>
      <trkpt lat="45.94968" lon="1.82457">
        <ele>651.91</ele>
        <time>2026-05-05T07:44:41Z</time>
      </trkpt>
      <trkpt lat="45.94974" lon="1.82479">
        <ele>652.39</ele>
        <time>2026-05-05T07:44:52Z</time>
      </trkpt>
      <trkpt lat="45.94981" lon="1.825">
        <ele>654.31</ele>
        <time>2026-05-05T07:45:06Z</time>
      </trkpt>
      <trkpt lat="45.94986" lon="1.82524">
        <ele>655.28</ele>
        <time>2026-05-05T07:45:20Z</time>
      </trkpt>
      <trkpt lat="45.94988" lon="1.82535">
        <ele>655.76</ele>
        <time>2026-05-05T07:45:26Z</time>
      </trkpt>
      <trkpt lat="45.9499" lon="1.82541">
        <ele>656.24</ele>
        <time>2026-05-05T07:45:29Z</time>
      </trkpt>
      <trkpt lat="45.94991" lon="1.82543">
        <ele>656.24</ele>
        <time>2026-05-05T07:45:30Z</time>
      </trkpt>
      <trkpt lat="45.94999" lon="1.82566">
        <ele>657.2</ele>
        <time>2026-05-05T07:45:42Z</time>
      </trkpt>
      <trkpt lat="45.95" lon="1.82573">
        <ele>657.68</ele>
        <time>2026-05-05T07:45:46Z</time>
      </trkpt>
      <trkpt lat="45.95001" lon="1.82581">
        <ele>658.64</ele>
        <time>2026-05-05T07:45:52Z</time>
      </trkpt>
      <trkpt lat="45.95007" lon="1.826">
        <ele>660.08</ele>
        <time>2026-05-05T07:46:05Z</time>
      </trkpt>
      <trkpt lat="45.95011" lon="1.82618">
        <ele>661.52</ele>
        <time>2026-05-05T07:46:18Z</time>
      </trkpt>
      <trkpt lat="45.95013" lon="1.82626">
        <ele>662.01</ele>
        <time>2026-05-05T07:46:24Z</time>
      </trkpt>
      <trkpt lat="45.95018" lon="1.82638">
        <ele>662.97</ele>
        <time>2026-05-05T07:46:32Z</time>
      </trkpt>
      <trkpt lat="45.95019" lon="1.82641">
        <ele>662.97</ele>
        <time>2026-05-05T07:46:33Z</time>
      </trkpt>
      <trkpt lat="45.95024" lon="1.82653">
        <ele>663.45</ele>
        <time>2026-05-05T07:46:41Z</time>
      </trkpt>
      <trkpt lat="45.95026" lon="1.8266">
        <ele>663.93</ele>
        <time>2026-05-05T07:46:45Z</time>
      </trkpt>
      <trkpt lat="45.95034" lon="1.82676">
        <ele>664.89</ele>
        <time>2026-05-05T07:46:54Z</time>
      </trkpt>
      <trkpt lat="45.95036" lon="1.82677">
        <ele>664.89</ele>
        <time>2026-05-05T07:46:55Z</time>
      </trkpt>
      <trkpt lat="45.9505" lon="1.82696">
        <ele>665.85</ele>
        <time>2026-05-05T07:47:10Z</time>
      </trkpt>
      <trkpt lat="45.95053" lon="1.82704">
        <ele>666.81</ele>
        <time>2026-05-05T07:47:16Z</time>
      </trkpt>
      <trkpt lat="45.95057" lon="1.82709">
        <ele>666.81</ele>
        <time>2026-05-05T07:47:22Z</time>
      </trkpt>
      <trkpt lat="45.95067" lon="1.82722">
        <ele>667.77</ele>
        <time>2026-05-05T07:47:32Z</time>
      </trkpt>
      <trkpt lat="45.95068" lon="1.82723">
        <ele>667.77</ele>
        <time>2026-05-05T07:47:33Z</time>
      </trkpt>
      <trkpt lat="45.95069" lon="1.82724">
        <ele>667.77</ele>
        <time>2026-05-05T07:47:34Z</time>
      </trkpt>
      <trkpt lat="45.95071" lon="1.82725">
        <ele>667.77</ele>
        <time>2026-05-05T07:47:35Z</time>
      </trkpt>
      <trkpt lat="45.95072" lon="1.82727">
        <ele>667.77</ele>
        <time>2026-05-05T07:47:36Z</time>
      </trkpt>
      <trkpt lat="45.95074" lon="1.82729">
        <ele>667.77</ele>
        <time>2026-05-05T07:47:37Z</time>
      </trkpt>
      <trkpt lat="45.95076" lon="1.8273">
        <ele>667.77</ele>
        <time>2026-05-05T07:47:38Z</time>
      </trkpt>
      <trkpt lat="45.95084" lon="1.82736">
        <ele>668.25</ele>
        <time>2026-05-05T07:47:45Z</time>
      </trkpt>
      <trkpt lat="45.95086" lon="1.82737">
        <ele>668.25</ele>
        <time>2026-05-05T07:47:46Z</time>
      </trkpt>
      <trkpt lat="45.95092" lon="1.82743">
        <ele>668.25</ele>
        <time>2026-05-05T07:47:50Z</time>
      </trkpt>
      <trkpt lat="45.95099" lon="1.82748">
        <ele>668.73</ele>
        <time>2026-05-05T07:47:57Z</time>
      </trkpt>
      <trkpt lat="45.951" lon="1.82749">
        <ele>668.73</ele>
        <time>2026-05-05T07:47:58Z</time>
      </trkpt>
      <trkpt lat="45.95101" lon="1.8275">
        <ele>668.73</ele>
        <time>2026-05-05T07:47:59Z</time>
      </trkpt>
      <trkpt lat="45.95117" lon="1.82761">
        <ele>669.22</ele>
        <time>2026-05-05T07:48:13Z</time>
      </trkpt>
      <trkpt lat="45.9512" lon="1.82757">
        <ele>670.18</ele>
        <time>2026-05-05T07:48:29Z</time>
      </trkpt>
      <trkpt lat="45.9512" lon="1.82757">
        <ele>670.18</ele>
        <time>2026-05-05T07:48:42Z</time>
      </trkpt>
      <trkpt lat="45.95118" lon="1.82756">
        <ele>670.18</ele>
        <time>2026-05-05T07:48:44Z</time>
      </trkpt>
      <trkpt lat="45.95106" lon="1.82747">
        <ele>670.18</ele>
        <time>2026-05-05T07:48:54Z</time>
      </trkpt>
      <trkpt lat="45.95083" lon="1.82734">
        <ele>668.73</ele>
        <time>2026-05-05T07:49:12Z</time>
      </trkpt>
      <trkpt lat="45.95068" lon="1.82721">
        <ele>667.77</ele>
        <time>2026-05-05T07:49:28Z</time>
      </trkpt>
      <trkpt lat="45.95061" lon="1.82712">
        <ele>666.81</ele>
        <time>2026-05-05T07:49:37Z</time>
      </trkpt>
      <trkpt lat="45.95057" lon="1.827">
        <ele>666.81</ele>
        <time>2026-05-05T07:49:43Z</time>
      </trkpt>
      <trkpt lat="45.95045" lon="1.82672">
        <ele>665.37</ele>
        <time>2026-05-05T07:49:59Z</time>
      </trkpt>
      <trkpt lat="45.95036" lon="1.82651">
        <ele>664.41</ele>
        <time>2026-05-05T07:50:11Z</time>
      </trkpt>
      <trkpt lat="45.95021" lon="1.82622">
        <ele>662.01</ele>
        <time>2026-05-05T07:50:30Z</time>
      </trkpt>
      <trkpt lat="45.95015" lon="1.82586">
        <ele>659.12</ele>
        <time>2026-05-05T07:50:51Z</time>
      </trkpt>
      <trkpt lat="45.95004" lon="1.82554">
        <ele>656.72</ele>
        <time>2026-05-05T07:51:10Z</time>
      </trkpt>
      <trkpt lat="45.94996" lon="1.82515">
        <ele>655.76</ele>
        <time>2026-05-05T07:51:29Z</time>
      </trkpt>
      <trkpt lat="45.94989" lon="1.82488">
        <ele>653.83</ele>
        <time>2026-05-05T07:51:43Z</time>
      </trkpt>
      <trkpt lat="45.94986" lon="1.82472">
        <ele>652.87</ele>
        <time>2026-05-05T07:51:51Z</time>
      </trkpt>
      <trkpt lat="45.94976" lon="1.82435">
        <ele>650.47</ele>
        <time>2026-05-05T07:52:11Z</time>
      </trkpt>
      <trkpt lat="45.94971" lon="1.82402">
        <ele>649.51</ele>
        <time>2026-05-05T07:52:29Z</time>
      </trkpt>
      <trkpt lat="45.94958" lon="1.82367">
        <ele>647.59</ele>
        <time>2026-05-05T07:52:47Z</time>
      </trkpt>
      <trkpt lat="45.9495" lon="1.82344">
        <ele>647.59</ele>
        <time>2026-05-05T07:52:58Z</time>
      </trkpt>
      <trkpt lat="45.94939" lon="1.82319">
        <ele>647.59</ele>
        <time>2026-05-05T07:53:13Z</time>
      </trkpt>
      <trkpt lat="45.94935" lon="1.82292">
        <ele>645.66</ele>
        <time>2026-05-05T07:53:28Z</time>
      </trkpt>
      <trkpt lat="45.94928" lon="1.82261">
        <ele>643.74</ele>
        <time>2026-05-05T07:53:45Z</time>
      </trkpt>
      <trkpt lat="45.9492" lon="1.82234">
        <ele>641.82</ele>
        <time>2026-05-05T07:54:01Z</time>
      </trkpt>
      <trkpt lat="45.94911" lon="1.82206">
        <ele>639.41</ele>
        <time>2026-05-05T07:54:16Z</time>
      </trkpt>
      <trkpt lat="45.94896" lon="1.82175">
        <ele>637.01</ele>
        <time>2026-05-05T07:54:33Z</time>
      </trkpt>
      <trkpt lat="45.94887" lon="1.82154">
        <ele>634.13</ele>
        <time>2026-05-05T07:54:47Z</time>
      </trkpt>
      <trkpt lat="45.94875" lon="1.82125">
        <ele>632.68</ele>
        <time>2026-05-05T07:55:03Z</time>
      </trkpt>
      <trkpt lat="45.94858" lon="1.8209">
        <ele>628.84</ele>
        <time>2026-05-05T07:55:22Z</time>
      </trkpt>
      <trkpt lat="45.94843" lon="1.82062">
        <ele>626.44</ele>
        <time>2026-05-05T07:55:38Z</time>
      </trkpt>
      <trkpt lat="45.94826" lon="1.8204">
        <ele>624.03</ele>
        <time>2026-05-05T07:55:56Z</time>
      </trkpt>
      <trkpt lat="45.94805" lon="1.82014">
        <ele>622.11</ele>
        <time>2026-05-05T07:56:15Z</time>
      </trkpt>
      <trkpt lat="45.94784" lon="1.8199">
        <ele>619.71</ele>
        <time>2026-05-05T07:56:33Z</time>
      </trkpt>
      <trkpt lat="45.94765" lon="1.81966">
        <ele>617.78</ele>
        <time>2026-05-05T07:56:51Z</time>
      </trkpt>
      <trkpt lat="45.94748" lon="1.81944">
        <ele>614.9</ele>
        <time>2026-05-05T07:57:07Z</time>
      </trkpt>
      <trkpt lat="45.94735" lon="1.81924">
        <ele>612.98</ele>
        <time>2026-05-05T07:57:20Z</time>
      </trkpt>
      <trkpt lat="45.94723" lon="1.81906">
        <ele>611.54</ele>
        <time>2026-05-05T07:57:33Z</time>
      </trkpt>
      <trkpt lat="45.94709" lon="1.81892">
        <ele>610.09</ele>
        <time>2026-05-05T07:57:46Z</time>
      </trkpt>
      <trkpt lat="45.94692" lon="1.81876">
        <ele>608.65</ele>
        <time>2026-05-05T07:58:00Z</time>
      </trkpt>
      <trkpt lat="45.94678" lon="1.81866">
        <ele>606.73</ele>
        <time>2026-05-05T07:58:12Z</time>
      </trkpt>
      <trkpt lat="45.94675" lon="1.81863">
        <ele>606.73</ele>
        <time>2026-05-05T07:58:16Z</time>
      </trkpt>
      <trkpt lat="45.94666" lon="1.8186">
        <ele>603.36</ele>
        <time>2026-05-05T07:58:28Z</time>
      </trkpt>
      <trkpt lat="45.94666" lon="1.8186">
        <ele>599.52</ele>
        <time>2026-05-05T07:58:30Z</time>
      </trkpt>
      <trkpt lat="45.94666" lon="1.81858">
        <ele>613.94</ele>
        <time>2026-05-05T07:58:31Z</time>
      </trkpt>
      <trkpt lat="45.94667" lon="1.81858">
        <ele>608.65</ele>
        <time>2026-05-05T07:58:32Z</time>
      </trkpt>
      <trkpt lat="45.94666" lon="1.81856">
        <ele>607.21</ele>
        <time>2026-05-05T07:58:34Z</time>
      </trkpt>
      <trkpt lat="45.94663" lon="1.81855">
        <ele>606.25</ele>
        <time>2026-05-05T07:58:52Z</time>
      </trkpt>
      <trkpt lat="45.94659" lon="1.81858">
        <ele>607.69</ele>
        <time>2026-05-05T07:58:56Z</time>
      </trkpt>
      <trkpt lat="45.94636" lon="1.81873">
        <ele>608.65</ele>
        <time>2026-05-05T07:59:15Z</time>
      </trkpt>
      <trkpt lat="45.94621" lon="1.81886">
        <ele>609.61</ele>
        <time>2026-05-05T07:59:28Z</time>
      </trkpt>
      <trkpt lat="45.94602" lon="1.81901">
        <ele>611.06</ele>
        <time>2026-05-05T07:59:43Z</time>
      </trkpt>
      <trkpt lat="45.94585" lon="1.81915">
        <ele>612.98</ele>
        <time>2026-05-05T07:59:58Z</time>
      </trkpt>
      <trkpt lat="45.94578" lon="1.8192">
        <ele>612.98</ele>
        <time>2026-05-05T08:00:03Z</time>
      </trkpt>
      <trkpt lat="45.94572" lon="1.81927">
        <ele>613.94</ele>
        <time>2026-05-05T08:00:11Z</time>
      </trkpt>
      <trkpt lat="45.94553" lon="1.8194">
        <ele>614.9</ele>
        <time>2026-05-05T08:00:26Z</time>
      </trkpt>
      <trkpt lat="45.94532" lon="1.81956">
        <ele>616.34</ele>
        <time>2026-05-05T08:00:42Z</time>
      </trkpt>
      <trkpt lat="45.94532" lon="1.81964">
        <ele>616.34</ele>
        <time>2026-05-05T08:00:50Z</time>
      </trkpt>
      <trkpt lat="45.94525" lon="1.81975">
        <ele>616.34</ele>
        <time>2026-05-05T08:01:05Z</time>
      </trkpt>
      <trkpt lat="45.94504" lon="1.81998">
        <ele>615.86</ele>
        <time>2026-05-05T08:01:24Z</time>
      </trkpt>
      <trkpt lat="45.94497" lon="1.8201">
        <ele>615.38</ele>
        <time>2026-05-05T08:01:33Z</time>
      </trkpt>
      <trkpt lat="45.94494" lon="1.82042">
        <ele>613.94</ele>
        <time>2026-05-05T08:01:49Z</time>
      </trkpt>
      <trkpt lat="45.94494" lon="1.82063">
        <ele>613.46</ele>
        <time>2026-05-05T08:02:01Z</time>
      </trkpt>
      <trkpt lat="45.94491" lon="1.82079">
        <ele>612.5</ele>
        <time>2026-05-05T08:02:10Z</time>
      </trkpt>
      <trkpt lat="45.94475" lon="1.82095">
        <ele>611.54</ele>
        <time>2026-05-05T08:02:24Z</time>
      </trkpt>
      <trkpt lat="45.94473" lon="1.82096">
        <ele>611.54</ele>
        <time>2026-05-05T08:02:26Z</time>
      </trkpt>
      <trkpt lat="45.94465" lon="1.82095">
        <ele>611.54</ele>
        <time>2026-05-05T08:02:33Z</time>
      </trkpt>
      <trkpt lat="45.94458" lon="1.82092">
        <ele>611.06</ele>
        <time>2026-05-05T08:02:38Z</time>
      </trkpt>
      <trkpt lat="45.94443" lon="1.82078">
        <ele>610.09</ele>
        <time>2026-05-05T08:02:51Z</time>
      </trkpt>
      <trkpt lat="45.94431" lon="1.82064">
        <ele>609.13</ele>
        <time>2026-05-05T08:03:04Z</time>
      </trkpt>
      <trkpt lat="45.94429" lon="1.82063">
        <ele>609.13</ele>
        <time>2026-05-05T08:03:06Z</time>
      </trkpt>
      <trkpt lat="45.94426" lon="1.82059">
        <ele>608.65</ele>
        <time>2026-05-05T08:03:08Z</time>
      </trkpt>
      <trkpt lat="45.94408" lon="1.82035">
        <ele>607.69</ele>
        <time>2026-05-05T08:03:24Z</time>
      </trkpt>
      <trkpt lat="45.94406" lon="1.82033">
        <ele>607.69</ele>
        <time>2026-05-05T08:03:25Z</time>
      </trkpt>
      <trkpt lat="45.944" lon="1.82027">
        <ele>606.73</ele>
        <time>2026-05-05T08:03:31Z</time>
      </trkpt>
      <trkpt lat="45.94397" lon="1.82024">
        <ele>606.73</ele>
        <time>2026-05-05T08:03:33Z</time>
      </trkpt>
      <trkpt lat="45.94383" lon="1.82006">
        <ele>605.77</ele>
        <time>2026-05-05T08:03:47Z</time>
      </trkpt>
      <trkpt lat="45.94375" lon="1.81998">
        <ele>605.29</ele>
        <time>2026-05-05T08:03:54Z</time>
      </trkpt>
      <trkpt lat="45.94355" lon="1.81984">
        <ele>604.81</ele>
        <time>2026-05-05T08:04:09Z</time>
      </trkpt>
      <trkpt lat="45.94342" lon="1.81976">
        <ele>604.33</ele>
        <time>2026-05-05T08:04:20Z</time>
      </trkpt>
      <trkpt lat="45.94339" lon="1.81977">
        <ele>604.33</ele>
        <time>2026-05-05T08:04:23Z</time>
      </trkpt>
      <trkpt lat="45.94316" lon="1.81968">
        <ele>603.85</ele>
        <time>2026-05-05T08:04:43Z</time>
      </trkpt>
      <trkpt lat="45.94308" lon="1.81963">
        <ele>603.36</ele>
        <time>2026-05-05T08:05:07Z</time>
      </trkpt>
      <trkpt lat="45.94292" lon="1.81966">
        <ele>604.81</ele>
        <time>2026-05-05T08:05:16Z</time>
      </trkpt>
      <trkpt lat="45.94286" lon="1.81968">
        <ele>604.81</ele>
        <time>2026-05-05T08:05:22Z</time>
      </trkpt>
      <trkpt lat="45.94265" lon="1.81977">
        <ele>604.81</ele>
        <time>2026-05-05T08:05:36Z</time>
      </trkpt>
      <trkpt lat="45.94251" lon="1.8199">
        <ele>604.81</ele>
        <time>2026-05-05T08:05:48Z</time>
      </trkpt>
      <trkpt lat="45.94238" lon="1.82009">
        <ele>605.29</ele>
        <time>2026-05-05T08:06:01Z</time>
      </trkpt>
      <trkpt lat="45.94225" lon="1.82029">
        <ele>605.29</ele>
        <time>2026-05-05T08:06:14Z</time>
      </trkpt>
      <trkpt lat="45.94212" lon="1.82051">
        <ele>605.77</ele>
        <time>2026-05-05T08:06:28Z</time>
      </trkpt>
      <trkpt lat="45.94199" lon="1.82072">
        <ele>606.25</ele>
        <time>2026-05-05T08:06:43Z</time>
      </trkpt>
      <trkpt lat="45.94185" lon="1.82087">
        <ele>606.73</ele>
        <time>2026-05-05T08:06:57Z</time>
      </trkpt>
      <trkpt lat="45.94182" lon="1.82089">
        <ele>606.73</ele>
        <time>2026-05-05T08:06:59Z</time>
      </trkpt>
      <trkpt lat="45.94178" lon="1.82095">
        <ele>607.21</ele>
        <time>2026-05-05T08:07:04Z</time>
      </trkpt>
      <trkpt lat="45.94175" lon="1.82098">
        <ele>607.21</ele>
        <time>2026-05-05T08:07:07Z</time>
      </trkpt>
      <trkpt lat="45.94162" lon="1.82119">
        <ele>607.69</ele>
        <time>2026-05-05T08:07:20Z</time>
      </trkpt>
      <trkpt lat="45.94159" lon="1.82122">
        <ele>608.17</ele>
        <time>2026-05-05T08:07:25Z</time>
      </trkpt>
      <trkpt lat="45.94153" lon="1.82131">
        <ele>608.65</ele>
        <time>2026-05-05T08:07:31Z</time>
      </trkpt>
      <trkpt lat="45.94143" lon="1.82146">
        <ele>608.65</ele>
        <time>2026-05-05T08:07:44Z</time>
      </trkpt>
      <trkpt lat="45.94132" lon="1.82158">
        <ele>609.13</ele>
        <time>2026-05-05T08:07:55Z</time>
      </trkpt>
      <trkpt lat="45.94125" lon="1.82166">
        <ele>609.61</ele>
        <time>2026-05-05T08:08:01Z</time>
      </trkpt>
      <trkpt lat="45.94119" lon="1.82176">
        <ele>609.61</ele>
        <time>2026-05-05T08:08:09Z</time>
      </trkpt>
      <trkpt lat="45.94101" lon="1.82197">
        <ele>610.57</ele>
        <time>2026-05-05T08:08:24Z</time>
      </trkpt>
      <trkpt lat="45.94088" lon="1.82213">
        <ele>610.57</ele>
        <time>2026-05-05T08:08:37Z</time>
      </trkpt>
      <trkpt lat="45.94087" lon="1.82214">
        <ele>611.54</ele>
        <time>2026-05-05T08:08:38Z</time>
      </trkpt>
      <trkpt lat="45.94078" lon="1.82234">
        <ele>611.54</ele>
        <time>2026-05-05T08:08:52Z</time>
      </trkpt>
      <trkpt lat="45.94071" lon="1.82251">
        <ele>612.02</ele>
        <time>2026-05-05T08:09:04Z</time>
      </trkpt>
      <trkpt lat="45.94062" lon="1.82269">
        <ele>612.02</ele>
        <time>2026-05-05T08:09:15Z</time>
      </trkpt>
      <trkpt lat="45.9405" lon="1.82296">
        <ele>612.5</ele>
        <time>2026-05-05T08:09:26Z</time>
      </trkpt>
      <trkpt lat="45.94047" lon="1.82303">
        <ele>612.5</ele>
        <time>2026-05-05T08:09:31Z</time>
      </trkpt>
      <trkpt lat="45.94046" lon="1.82308">
        <ele>612.5</ele>
        <time>2026-05-05T08:09:34Z</time>
      </trkpt>
      <trkpt lat="45.94038" lon="1.82319">
        <ele>612.5</ele>
        <time>2026-05-05T08:09:43Z</time>
      </trkpt>
      <trkpt lat="45.94033" lon="1.82328">
        <ele>612.5</ele>
        <time>2026-05-05T08:09:48Z</time>
      </trkpt>
      <trkpt lat="45.94022" lon="1.82347">
        <ele>612.98</ele>
        <time>2026-05-05T08:09:58Z</time>
      </trkpt>
      <trkpt lat="45.94018" lon="1.82355">
        <ele>612.98</ele>
        <time>2026-05-05T08:10:01Z</time>
      </trkpt>
      <trkpt lat="45.94016" lon="1.82359">
        <ele>612.98</ele>
        <time>2026-05-05T08:10:03Z</time>
      </trkpt>
      <trkpt lat="45.94009" lon="1.82371">
        <ele>612.98</ele>
        <time>2026-05-05T08:10:12Z</time>
      </trkpt>
      <trkpt lat="45.94004" lon="1.82381">
        <ele>613.46</ele>
        <time>2026-05-05T08:10:18Z</time>
      </trkpt>
      <trkpt lat="45.93999" lon="1.82388">
        <ele>613.46</ele>
        <time>2026-05-05T08:10:24Z</time>
      </trkpt>
      <trkpt lat="45.93996" lon="1.82401">
        <ele>613.94</ele>
        <time>2026-05-05T08:10:32Z</time>
      </trkpt>
      <trkpt lat="45.93992" lon="1.82404">
        <ele>613.94</ele>
        <time>2026-05-05T08:10:36Z</time>
      </trkpt>
      <trkpt lat="45.93987" lon="1.82407">
        <ele>613.94</ele>
        <time>2026-05-05T08:10:41Z</time>
      </trkpt>
      <trkpt lat="45.93969" lon="1.82424">
        <ele>613.94</ele>
        <time>2026-05-05T08:10:56Z</time>
      </trkpt>
      <trkpt lat="45.93962" lon="1.82434">
        <ele>614.42</ele>
        <time>2026-05-05T08:11:04Z</time>
      </trkpt>
      <trkpt lat="45.93953" lon="1.8247">
        <ele>611.06</ele>
        <time>2026-05-05T08:11:22Z</time>
      </trkpt>
      <trkpt lat="45.93953" lon="1.82487">
        <ele>610.57</ele>
        <time>2026-05-05T08:11:30Z</time>
      </trkpt>
      <trkpt lat="45.93945" lon="1.82516">
        <ele>609.61</ele>
        <time>2026-05-05T08:11:48Z</time>
      </trkpt>
      <trkpt lat="45.93925" lon="1.8253">
        <ele>609.61</ele>
        <time>2026-05-05T08:12:08Z</time>
      </trkpt>
      <trkpt lat="45.93922" lon="1.82531">
        <ele>610.09</ele>
        <time>2026-05-05T08:12:10Z</time>
      </trkpt>
      <trkpt lat="45.93912" lon="1.82537">
        <ele>609.13</ele>
        <time>2026-05-05T08:12:17Z</time>
      </trkpt>
      <trkpt lat="45.93899" lon="1.82542">
        <ele>610.57</ele>
        <time>2026-05-05T08:12:27Z</time>
      </trkpt>
      <trkpt lat="45.93894" lon="1.82552">
        <ele>610.57</ele>
        <time>2026-05-05T08:12:43Z</time>
      </trkpt>
      <trkpt lat="45.93883" lon="1.82548">
        <ele>611.54</ele>
        <time>2026-05-05T08:13:01Z</time>
      </trkpt>
      <trkpt lat="45.9386" lon="1.8254">
        <ele>613.94</ele>
        <time>2026-05-05T08:13:22Z</time>
      </trkpt>
      <trkpt lat="45.93853" lon="1.82541">
        <ele>614.42</ele>
        <time>2026-05-05T08:13:27Z</time>
      </trkpt>
      <trkpt lat="45.93851" lon="1.82519">
        <ele>616.82</ele>
        <time>2026-05-05T08:13:45Z</time>
      </trkpt>
      <trkpt lat="45.93855" lon="1.82497">
        <ele>616.82</ele>
        <time>2026-05-05T08:13:58Z</time>
      </trkpt>
      <trkpt lat="45.93857" lon="1.82468">
        <ele>617.3</ele>
        <time>2026-05-05T08:14:16Z</time>
      </trkpt>
      <trkpt lat="45.9387" lon="1.82431">
        <ele>617.78</ele>
        <time>2026-05-05T08:14:33Z</time>
      </trkpt>
      <trkpt lat="45.93882" lon="1.82401">
        <ele>617.78</ele>
        <time>2026-05-05T08:14:50Z</time>
      </trkpt>
      <trkpt lat="45.93894" lon="1.82371">
        <ele>618.26</ele>
        <time>2026-05-05T08:15:08Z</time>
      </trkpt>
      <trkpt lat="45.93887" lon="1.82374">
        <ele>618.75</ele>
        <time>2026-05-05T08:15:37Z</time>
      </trkpt>
      <trkpt lat="45.93898" lon="1.82377">
        <ele>619.23</ele>
        <time>2026-05-05T08:16:11Z</time>
      </trkpt>
      <trkpt lat="45.93899" lon="1.8236">
        <ele>619.71</ele>
        <time>2026-05-05T08:16:26Z</time>
      </trkpt>
      <trkpt lat="45.93904" lon="1.82317">
        <ele>618.75</ele>
        <time>2026-05-05T08:16:47Z</time>
      </trkpt>
      <trkpt lat="45.93911" lon="1.82288">
        <ele>619.23</ele>
        <time>2026-05-05T08:17:05Z</time>
      </trkpt>
      <trkpt lat="45.93915" lon="1.82267">
        <ele>620.67</ele>
        <time>2026-05-05T08:17:22Z</time>
      </trkpt>
      <trkpt lat="45.93935" lon="1.82228">
        <ele>622.11</ele>
        <time>2026-05-05T08:17:44Z</time>
      </trkpt>
      <trkpt lat="45.93954" lon="1.82194">
        <ele>622.59</ele>
        <time>2026-05-05T08:18:02Z</time>
      </trkpt>
      <trkpt lat="45.9396" lon="1.82153">
        <ele>623.07</ele>
        <time>2026-05-05T08:18:21Z</time>
      </trkpt>
      <trkpt lat="45.9396" lon="1.82136">
        <ele>623.55</ele>
        <time>2026-05-05T08:18:30Z</time>
      </trkpt>
      <trkpt lat="45.9396" lon="1.8213">
        <ele>623.55</ele>
        <time>2026-05-05T08:18:34Z</time>
      </trkpt>
      <trkpt lat="45.93964" lon="1.82129">
        <ele>622.11</ele>
        <time>2026-05-05T08:18:38Z</time>
      </trkpt>
      <trkpt lat="45.93967" lon="1.82127">
        <ele>622.11</ele>
        <time>2026-05-05T08:18:41Z</time>
      </trkpt>
      <trkpt lat="45.93974" lon="1.82115">
        <ele>621.15</ele>
        <time>2026-05-05T08:18:57Z</time>
      </trkpt>
      <trkpt lat="45.93968" lon="1.82111">
        <ele>621.15</ele>
        <time>2026-05-05T08:19:15Z</time>
      </trkpt>
      <trkpt lat="45.93965" lon="1.8211">
        <ele>621.15</ele>
        <time>2026-05-05T08:19:18Z</time>
      </trkpt>
      <trkpt lat="45.93961" lon="1.82109">
        <ele>622.59</ele>
        <time>2026-05-05T08:19:23Z</time>
      </trkpt>
      <trkpt lat="45.9396" lon="1.82109">
        <ele>622.59</ele>
        <time>2026-05-05T08:19:25Z</time>
      </trkpt>
      <trkpt lat="45.93954" lon="1.82107">
        <ele>622.59</ele>
        <time>2026-05-05T08:19:30Z</time>
      </trkpt>
      <trkpt lat="45.93949" lon="1.82084">
        <ele>623.07</ele>
        <time>2026-05-05T08:19:43Z</time>
      </trkpt>
      <trkpt lat="45.93948" lon="1.82083">
        <ele>623.07</ele>
        <time>2026-05-05T08:19:44Z</time>
      </trkpt>
      <trkpt lat="45.93941" lon="1.82073">
        <ele>621.63</ele>
        <time>2026-05-05T08:19:51Z</time>
      </trkpt>
      <trkpt lat="45.93933" lon="1.82056">
        <ele>619.71</ele>
        <time>2026-05-05T08:20:02Z</time>
      </trkpt>
      <trkpt lat="45.93929" lon="1.82051">
        <ele>619.23</ele>
        <time>2026-05-05T08:20:06Z</time>
      </trkpt>
      <trkpt lat="45.93915" lon="1.82034">
        <ele>618.75</ele>
        <time>2026-05-05T08:20:19Z</time>
      </trkpt>
      <trkpt lat="45.939" lon="1.82017">
        <ele>616.82</ele>
        <time>2026-05-05T08:20:32Z</time>
      </trkpt>
      <trkpt lat="45.93891" lon="1.82002">
        <ele>615.38</ele>
        <time>2026-05-05T08:20:41Z</time>
      </trkpt>
      <trkpt lat="45.93876" lon="1.81992">
        <ele>613.94</ele>
        <time>2026-05-05T08:20:53Z</time>
      </trkpt>
      <trkpt lat="45.93865" lon="1.81984">
        <ele>612.98</ele>
        <time>2026-05-05T08:21:02Z</time>
      </trkpt>
      <trkpt lat="45.93851" lon="1.81974">
        <ele>612.5</ele>
        <time>2026-05-05T08:21:15Z</time>
      </trkpt>
      <trkpt lat="45.93849" lon="1.81972">
        <ele>609.13</ele>
        <time>2026-05-05T08:21:21Z</time>
      </trkpt>
      <trkpt lat="45.93848" lon="1.81972">
        <ele>613.94</ele>
        <time>2026-05-05T08:21:22Z</time>
      </trkpt>
      <trkpt lat="45.93837" lon="1.81962">
        <ele>612.02</ele>
        <time>2026-05-05T08:21:34Z</time>
      </trkpt>
      <trkpt lat="45.93824" lon="1.81953">
        <ele>611.54</ele>
        <time>2026-05-05T08:21:47Z</time>
      </trkpt>
      <trkpt lat="45.93815" lon="1.81945">
        <ele>611.06</ele>
        <time>2026-05-05T08:21:57Z</time>
      </trkpt>
      <trkpt lat="45.93814" lon="1.81943">
        <ele>611.06</ele>
        <time>2026-05-05T08:21:58Z</time>
      </trkpt>
      <trkpt lat="45.93797" lon="1.81921">
        <ele>609.61</ele>
        <time>2026-05-05T08:22:12Z</time>
      </trkpt>
      <trkpt lat="45.93798" lon="1.81918">
        <ele>609.61</ele>
        <time>2026-05-05T08:22:13Z</time>
      </trkpt>
      <trkpt lat="45.93798" lon="1.81916">
        <ele>609.61</ele>
        <time>2026-05-05T08:22:14Z</time>
      </trkpt>
      <trkpt lat="45.93797" lon="1.81886">
        <ele>609.13</ele>
        <time>2026-05-05T08:22:30Z</time>
      </trkpt>
      <trkpt lat="45.93802" lon="1.81859">
        <ele>608.65</ele>
        <time>2026-05-05T08:22:47Z</time>
      </trkpt>
      <trkpt lat="45.93815" lon="1.81825">
        <ele>610.57</ele>
        <time>2026-05-05T08:23:05Z</time>
      </trkpt>
      <trkpt lat="45.93813" lon="1.81806">
        <ele>611.06</ele>
        <time>2026-05-05T08:23:15Z</time>
      </trkpt>
      <trkpt lat="45.93808" lon="1.81762">
        <ele>611.54</ele>
        <time>2026-05-05T08:23:32Z</time>
      </trkpt>
      <trkpt lat="45.93806" lon="1.81754">
        <ele>612.5</ele>
        <time>2026-05-05T08:23:38Z</time>
      </trkpt>
      <trkpt lat="45.93806" lon="1.81752">
        <ele>612.5</ele>
        <time>2026-05-05T08:23:39Z</time>
      </trkpt>
      <trkpt lat="45.93809" lon="1.81731">
        <ele>612.98</ele>
        <time>2026-05-05T08:23:54Z</time>
      </trkpt>
      <trkpt lat="45.93817" lon="1.81713">
        <ele>614.42</ele>
        <time>2026-05-05T08:24:08Z</time>
      </trkpt>
      <trkpt lat="45.93831" lon="1.817">
        <ele>616.34</ele>
        <time>2026-05-05T08:24:24Z</time>
      </trkpt>
      <trkpt lat="45.93848" lon="1.81688">
        <ele>617.78</ele>
        <time>2026-05-05T08:24:38Z</time>
      </trkpt>
      <trkpt lat="45.9385" lon="1.81684">
        <ele>617.78</ele>
        <time>2026-05-05T08:24:39Z</time>
      </trkpt>
      <trkpt lat="45.9386" lon="1.81648">
        <ele>619.23</ele>
        <time>2026-05-05T08:24:53Z</time>
      </trkpt>
      <trkpt lat="45.9386" lon="1.81646">
        <ele>619.23</ele>
        <time>2026-05-05T08:24:54Z</time>
      </trkpt>
      <trkpt lat="45.93859" lon="1.81644">
        <ele>619.23</ele>
        <time>2026-05-05T08:24:55Z</time>
      </trkpt>
      <trkpt lat="45.93858" lon="1.81641">
        <ele>619.23</ele>
        <time>2026-05-05T08:24:56Z</time>
      </trkpt>
      <trkpt lat="45.93857" lon="1.81638">
        <ele>619.23</ele>
        <time>2026-05-05T08:24:57Z</time>
      </trkpt>
      <trkpt lat="45.93856" lon="1.81636">
        <ele>619.23</ele>
        <time>2026-05-05T08:24:58Z</time>
      </trkpt>
      <trkpt lat="45.93846" lon="1.81616">
        <ele>619.71</ele>
        <time>2026-05-05T08:25:09Z</time>
      </trkpt>
      <trkpt lat="45.93845" lon="1.81615">
        <ele>620.19</ele>
        <time>2026-05-05T08:25:10Z</time>
      </trkpt>
      <trkpt lat="45.93845" lon="1.81613">
        <ele>620.19</ele>
        <time>2026-05-05T08:25:11Z</time>
      </trkpt>
      <trkpt lat="45.9384" lon="1.81599">
        <ele>620.67</ele>
        <time>2026-05-05T08:25:23Z</time>
      </trkpt>
      <trkpt lat="45.93838" lon="1.81596">
        <ele>619.23</ele>
        <time>2026-05-05T08:25:27Z</time>
      </trkpt>
      <trkpt lat="45.93837" lon="1.81595">
        <ele>620.67</ele>
        <time>2026-05-05T08:25:29Z</time>
      </trkpt>
      <trkpt lat="45.93831" lon="1.81587">
        <ele>618.75</ele>
        <time>2026-05-05T08:25:42Z</time>
      </trkpt>
      <trkpt lat="45.93829" lon="1.81582">
        <ele>620.67</ele>
        <time>2026-05-05T08:25:45Z</time>
      </trkpt>
      <trkpt lat="45.93818" lon="1.81558">
        <ele>620.67</ele>
        <time>2026-05-05T08:25:59Z</time>
      </trkpt>
      <trkpt lat="45.93816" lon="1.81555">
        <ele>619.23</ele>
        <time>2026-05-05T08:26:01Z</time>
      </trkpt>
      <trkpt lat="45.93805" lon="1.81535">
        <ele>618.75</ele>
        <time>2026-05-05T08:26:13Z</time>
      </trkpt>
      <trkpt lat="45.93795" lon="1.81513">
        <ele>617.78</ele>
        <time>2026-05-05T08:26:25Z</time>
      </trkpt>
      <trkpt lat="45.93784" lon="1.81495">
        <ele>617.3</ele>
        <time>2026-05-05T08:26:37Z</time>
      </trkpt>
      <trkpt lat="45.93773" lon="1.81478">
        <ele>616.34</ele>
        <time>2026-05-05T08:26:49Z</time>
      </trkpt>
      <trkpt lat="45.93762" lon="1.81464">
        <ele>616.34</ele>
        <time>2026-05-05T08:26:59Z</time>
      </trkpt>
      <trkpt lat="45.93761" lon="1.81462">
        <ele>615.86</ele>
        <time>2026-05-05T08:27:00Z</time>
      </trkpt>
      <trkpt lat="45.9376" lon="1.81461">
        <ele>615.86</ele>
        <time>2026-05-05T08:27:01Z</time>
      </trkpt>
      <trkpt lat="45.93758" lon="1.81459">
        <ele>615.86</ele>
        <time>2026-05-05T08:27:02Z</time>
      </trkpt>
      <trkpt lat="45.93757" lon="1.81457">
        <ele>615.86</ele>
        <time>2026-05-05T08:27:03Z</time>
      </trkpt>
      <trkpt lat="45.93749" lon="1.81442">
        <ele>615.38</ele>
        <time>2026-05-05T08:27:12Z</time>
      </trkpt>
      <trkpt lat="45.93748" lon="1.81441">
        <ele>615.38</ele>
        <time>2026-05-05T08:27:13Z</time>
      </trkpt>
      <trkpt lat="45.93737" lon="1.81419">
        <ele>614.42</ele>
        <time>2026-05-05T08:27:26Z</time>
      </trkpt>
      <trkpt lat="45.93724" lon="1.81399">
        <ele>613.94</ele>
        <time>2026-05-05T08:27:39Z</time>
      </trkpt>
      <trkpt lat="45.93711" lon="1.8138">
        <ele>613.46</ele>
        <time>2026-05-05T08:27:51Z</time>
      </trkpt>
      <trkpt lat="45.9371" lon="1.81379">
        <ele>613.46</ele>
        <time>2026-05-05T08:27:52Z</time>
      </trkpt>
      <trkpt lat="45.9371" lon="1.81377">
        <ele>612.98</ele>
        <time>2026-05-05T08:27:53Z</time>
      </trkpt>
      <trkpt lat="45.93698" lon="1.81359">
        <ele>612.5</ele>
        <time>2026-05-05T08:28:06Z</time>
      </trkpt>
      <trkpt lat="45.93697" lon="1.81358">
        <ele>612.5</ele>
        <time>2026-05-05T08:28:07Z</time>
      </trkpt>
      <trkpt lat="45.93683" lon="1.81348">
        <ele>612.02</ele>
        <time>2026-05-05T08:28:19Z</time>
      </trkpt>
      <trkpt lat="45.9368" lon="1.81339">
        <ele>612.02</ele>
        <time>2026-05-05T08:28:25Z</time>
      </trkpt>
      <trkpt lat="45.93677" lon="1.81335">
        <ele>611.54</ele>
        <time>2026-05-05T08:28:29Z</time>
      </trkpt>
      <trkpt lat="45.93665" lon="1.81318">
        <ele>611.06</ele>
        <time>2026-05-05T08:28:41Z</time>
      </trkpt>
      <trkpt lat="45.93649" lon="1.81303">
        <ele>610.57</ele>
        <time>2026-05-05T08:28:52Z</time>
      </trkpt>
      <trkpt lat="45.93631" lon="1.81297">
        <ele>610.57</ele>
        <time>2026-05-05T08:29:04Z</time>
      </trkpt>
      <trkpt lat="45.93626" lon="1.81294">
        <ele>609.61</ele>
        <time>2026-05-05T08:29:13Z</time>
      </trkpt>
      <trkpt lat="45.93625" lon="1.81293">
        <ele>609.13</ele>
        <time>2026-05-05T08:29:14Z</time>
      </trkpt>
      <trkpt lat="45.93624" lon="1.81292">
        <ele>609.13</ele>
        <time>2026-05-05T08:29:15Z</time>
      </trkpt>
      <trkpt lat="45.93623" lon="1.81292">
        <ele>609.13</ele>
        <time>2026-05-05T08:29:16Z</time>
      </trkpt>
      <trkpt lat="45.93622" lon="1.81291">
        <ele>609.13</ele>
        <time>2026-05-05T08:29:17Z</time>
      </trkpt>
      <trkpt lat="45.93604" lon="1.81275">
        <ele>607.21</ele>
        <time>2026-05-05T08:29:34Z</time>
      </trkpt>
      <trkpt lat="45.93582" lon="1.81255">
        <ele>605.77</ele>
        <time>2026-05-05T08:29:51Z</time>
      </trkpt>
      <trkpt lat="45.93564" lon="1.81247">
        <ele>603.36</ele>
        <time>2026-05-05T08:30:05Z</time>
      </trkpt>
      <trkpt lat="45.93548" lon="1.81244">
        <ele>601.44</ele>
        <time>2026-05-05T08:30:19Z</time>
      </trkpt>
      <trkpt lat="45.93535" lon="1.81243">
        <ele>600</ele>
        <time>2026-05-05T08:30:27Z</time>
      </trkpt>
      <trkpt lat="45.93526" lon="1.81245">
        <ele>599.52</ele>
        <time>2026-05-05T08:30:32Z</time>
      </trkpt>
      <trkpt lat="45.93525" lon="1.81245">
        <ele>599.52</ele>
        <time>2026-05-05T08:30:33Z</time>
      </trkpt>
      <trkpt lat="45.93509" lon="1.81247">
        <ele>598.08</ele>
        <time>2026-05-05T08:30:45Z</time>
      </trkpt>
      <trkpt lat="45.93503" lon="1.81247">
        <ele>598.08</ele>
        <time>2026-05-05T08:30:51Z</time>
      </trkpt>
      <trkpt lat="45.93502" lon="1.81247">
        <ele>598.08</ele>
        <time>2026-05-05T08:30:52Z</time>
      </trkpt>
      <trkpt lat="45.935" lon="1.81247">
        <ele>597.6</ele>
        <time>2026-05-05T08:30:53Z</time>
      </trkpt>
      <trkpt lat="45.93498" lon="1.81246">
        <ele>597.6</ele>
        <time>2026-05-05T08:30:54Z</time>
      </trkpt>
      <trkpt lat="45.93496" lon="1.81245">
        <ele>597.6</ele>
        <time>2026-05-05T08:30:55Z</time>
      </trkpt>
      <trkpt lat="45.93494" lon="1.81244">
        <ele>597.6</ele>
        <time>2026-05-05T08:30:56Z</time>
      </trkpt>
      <trkpt lat="45.93492" lon="1.81243">
        <ele>597.6</ele>
        <time>2026-05-05T08:30:57Z</time>
      </trkpt>
      <trkpt lat="45.9348" lon="1.81236">
        <ele>597.6</ele>
        <time>2026-05-05T08:31:08Z</time>
      </trkpt>
      <trkpt lat="45.93479" lon="1.81235">
        <ele>597.6</ele>
        <time>2026-05-05T08:31:09Z</time>
      </trkpt>
      <trkpt lat="45.93478" lon="1.81215">
        <ele>597.6</ele>
        <time>2026-05-05T08:31:21Z</time>
      </trkpt>
      <trkpt lat="45.93472" lon="1.81196">
        <ele>597.6</ele>
        <time>2026-05-05T08:31:34Z</time>
      </trkpt>
      <trkpt lat="45.93467" lon="1.81179">
        <ele>599.04</ele>
        <time>2026-05-05T08:31:44Z</time>
      </trkpt>
      <trkpt lat="45.93467" lon="1.81177">
        <ele>599.04</ele>
        <time>2026-05-05T08:31:45Z</time>
      </trkpt>
      <trkpt lat="45.93463" lon="1.81155">
        <ele>600</ele>
        <time>2026-05-05T08:31:55Z</time>
      </trkpt>
      <trkpt lat="45.93461" lon="1.81153">
        <ele>600</ele>
        <time>2026-05-05T08:31:56Z</time>
      </trkpt>
      <trkpt lat="45.93461" lon="1.81151">
        <ele>600</ele>
        <time>2026-05-05T08:31:57Z</time>
      </trkpt>
      <trkpt lat="45.9346" lon="1.81149">
        <ele>600</ele>
        <time>2026-05-05T08:31:58Z</time>
      </trkpt>
      <trkpt lat="45.93459" lon="1.81147">
        <ele>600</ele>
        <time>2026-05-05T08:31:59Z</time>
      </trkpt>
      <trkpt lat="45.93456" lon="1.81137">
        <ele>601.44</ele>
        <time>2026-05-05T08:32:08Z</time>
      </trkpt>
      <trkpt lat="45.9345" lon="1.8113">
        <ele>602.88</ele>
        <time>2026-05-05T08:32:17Z</time>
      </trkpt>
      <trkpt lat="45.93447" lon="1.81127">
        <ele>603.85</ele>
        <time>2026-05-05T08:32:21Z</time>
      </trkpt>
      <trkpt lat="45.93446" lon="1.81125">
        <ele>603.85</ele>
        <time>2026-05-05T08:32:22Z</time>
      </trkpt>
      <trkpt lat="45.93436" lon="1.81118">
        <ele>604.81</ele>
        <time>2026-05-05T08:32:29Z</time>
      </trkpt>
      <trkpt lat="45.93433" lon="1.81116">
        <ele>605.77</ele>
        <time>2026-05-05T08:32:31Z</time>
      </trkpt>
      <trkpt lat="45.93431" lon="1.81114">
        <ele>605.77</ele>
        <time>2026-05-05T08:32:32Z</time>
      </trkpt>
      <trkpt lat="45.93422" lon="1.81108">
        <ele>606.73</ele>
        <time>2026-05-05T08:32:39Z</time>
      </trkpt>
      <trkpt lat="45.93404" lon="1.81103">
        <ele>608.17</ele>
        <time>2026-05-05T08:32:52Z</time>
      </trkpt>
      <trkpt lat="45.93388" lon="1.81093">
        <ele>608.65</ele>
        <time>2026-05-05T08:33:03Z</time>
      </trkpt>
      <trkpt lat="45.93387" lon="1.81093">
        <ele>608.65</ele>
        <time>2026-05-05T08:33:04Z</time>
      </trkpt>
      <trkpt lat="45.93383" lon="1.81093">
        <ele>608.65</ele>
        <time>2026-05-05T08:33:07Z</time>
      </trkpt>
      <trkpt lat="45.93379" lon="1.81093">
        <ele>609.13</ele>
        <time>2026-05-05T08:33:20Z</time>
      </trkpt>
      <trkpt lat="45.93368" lon="1.81096">
        <ele>609.13</ele>
        <time>2026-05-05T08:33:41Z</time>
      </trkpt>
      <trkpt lat="45.93362" lon="1.81099">
        <ele>609.61</ele>
        <time>2026-05-05T08:33:47Z</time>
      </trkpt>
      <trkpt lat="45.9336" lon="1.811">
        <ele>609.61</ele>
        <time>2026-05-05T08:33:48Z</time>
      </trkpt>
      <trkpt lat="45.93359" lon="1.811">
        <ele>609.61</ele>
        <time>2026-05-05T08:33:49Z</time>
      </trkpt>
      <trkpt lat="45.93357" lon="1.811">
        <ele>609.61</ele>
        <time>2026-05-05T08:33:50Z</time>
      </trkpt>
      <trkpt lat="45.93355" lon="1.81101">
        <ele>609.61</ele>
        <time>2026-05-05T08:33:51Z</time>
      </trkpt>
      <trkpt lat="45.93337" lon="1.8111">
        <ele>610.57</ele>
        <time>2026-05-05T08:34:03Z</time>
      </trkpt>
      <trkpt lat="45.93319" lon="1.81115">
        <ele>611.06</ele>
        <time>2026-05-05T08:34:17Z</time>
      </trkpt>
      <trkpt lat="45.93302" lon="1.81132">
        <ele>611.06</ele>
        <time>2026-05-05T08:34:32Z</time>
      </trkpt>
      <trkpt lat="45.93284" lon="1.81137">
        <ele>612.98</ele>
        <time>2026-05-05T08:34:46Z</time>
      </trkpt>
      <trkpt lat="45.93266" lon="1.81135">
        <ele>614.42</ele>
        <time>2026-05-05T08:35:00Z</time>
      </trkpt>
      <trkpt lat="45.93256" lon="1.81131">
        <ele>614.42</ele>
        <time>2026-05-05T08:35:07Z</time>
      </trkpt>
      <trkpt lat="45.93255" lon="1.81131">
        <ele>614.42</ele>
        <time>2026-05-05T08:35:08Z</time>
      </trkpt>
      <trkpt lat="45.93239" lon="1.81123">
        <ele>614.9</ele>
        <time>2026-05-05T08:35:20Z</time>
      </trkpt>
      <trkpt lat="45.93225" lon="1.81118">
        <ele>616.34</ele>
        <time>2026-05-05T08:35:33Z</time>
      </trkpt>
      <trkpt lat="45.9323" lon="1.81123">
        <ele>616.34</ele>
        <time>2026-05-05T08:35:45Z</time>
      </trkpt>
      <trkpt lat="45.93229" lon="1.81123">
        <ele>616.34</ele>
        <time>2026-05-05T08:35:46Z</time>
      </trkpt>
      <trkpt lat="45.93228" lon="1.81123">
        <ele>616.34</ele>
        <time>2026-05-05T08:35:47Z</time>
      </trkpt>
      <trkpt lat="45.93227" lon="1.81122">
        <ele>616.34</ele>
        <time>2026-05-05T08:35:48Z</time>
      </trkpt>
      <trkpt lat="45.93226" lon="1.81121">
        <ele>616.34</ele>
        <time>2026-05-05T08:35:49Z</time>
      </trkpt>
      <trkpt lat="45.93218" lon="1.81106">
        <ele>617.3</ele>
        <time>2026-05-05T08:36:01Z</time>
      </trkpt>
      <trkpt lat="45.93217" lon="1.81105">
        <ele>617.3</ele>
        <time>2026-05-05T08:36:02Z</time>
      </trkpt>
      <trkpt lat="45.93215" lon="1.81105">
        <ele>617.78</ele>
        <time>2026-05-05T08:36:03Z</time>
      </trkpt>
      <trkpt lat="45.93215" lon="1.81104">
        <ele>617.78</ele>
        <time>2026-05-05T08:36:07Z</time>
      </trkpt>
      <trkpt lat="45.93214" lon="1.81103">
        <ele>617.78</ele>
        <time>2026-05-05T08:36:08Z</time>
      </trkpt>
      <trkpt lat="45.93208" lon="1.81099">
        <ele>618.26</ele>
        <time>2026-05-05T08:36:14Z</time>
      </trkpt>
      <trkpt lat="45.93207" lon="1.81097">
        <ele>618.75</ele>
        <time>2026-05-05T08:36:15Z</time>
      </trkpt>
      <trkpt lat="45.93205" lon="1.81097">
        <ele>618.75</ele>
        <time>2026-05-05T08:36:16Z</time>
      </trkpt>
      <trkpt lat="45.93202" lon="1.81098">
        <ele>619.23</ele>
        <time>2026-05-05T08:36:19Z</time>
      </trkpt>
      <trkpt lat="45.932" lon="1.81098">
        <ele>619.23</ele>
        <time>2026-05-05T08:36:20Z</time>
      </trkpt>
      <trkpt lat="45.93196" lon="1.811">
        <ele>619.71</ele>
        <time>2026-05-05T08:36:23Z</time>
      </trkpt>
      <trkpt lat="45.93194" lon="1.81108">
        <ele>620.19</ele>
        <time>2026-05-05T08:36:36Z</time>
      </trkpt>
      <trkpt lat="45.93192" lon="1.81112">
        <ele>620.19</ele>
        <time>2026-05-05T08:36:39Z</time>
      </trkpt>
      <trkpt lat="45.93185" lon="1.81133">
        <ele>621.15</ele>
        <time>2026-05-05T08:36:53Z</time>
      </trkpt>
      <trkpt lat="45.93185" lon="1.81134">
        <ele>621.15</ele>
        <time>2026-05-05T08:36:54Z</time>
      </trkpt>
      <trkpt lat="45.93185" lon="1.81136">
        <ele>621.15</ele>
        <time>2026-05-05T08:36:55Z</time>
      </trkpt>
      <trkpt lat="45.93184" lon="1.81138">
        <ele>621.15</ele>
        <time>2026-05-05T08:36:56Z</time>
      </trkpt>
      <trkpt lat="45.93183" lon="1.8114">
        <ele>621.15</ele>
        <time>2026-05-05T08:36:57Z</time>
      </trkpt>
      <trkpt lat="45.93182" lon="1.81141">
        <ele>621.15</ele>
        <time>2026-05-05T08:36:58Z</time>
      </trkpt>
      <trkpt lat="45.93182" lon="1.81143">
        <ele>621.15</ele>
        <time>2026-05-05T08:36:59Z</time>
      </trkpt>
      <trkpt lat="45.93178" lon="1.81151">
        <ele>621.63</ele>
        <time>2026-05-05T08:37:05Z</time>
      </trkpt>
      <trkpt lat="45.93177" lon="1.81152">
        <ele>621.63</ele>
        <time>2026-05-05T08:37:06Z</time>
      </trkpt>
      <trkpt lat="45.93176" lon="1.81154">
        <ele>621.63</ele>
        <time>2026-05-05T08:37:07Z</time>
      </trkpt>
      <trkpt lat="45.93168" lon="1.8117">
        <ele>622.59</ele>
        <time>2026-05-05T08:37:18Z</time>
      </trkpt>
      <trkpt lat="45.93165" lon="1.81175">
        <ele>622.59</ele>
        <time>2026-05-05T08:37:23Z</time>
      </trkpt>
      <trkpt lat="45.93164" lon="1.81177">
        <ele>623.07</ele>
        <time>2026-05-05T08:37:24Z</time>
      </trkpt>
      <trkpt lat="45.93163" lon="1.81178">
        <ele>623.07</ele>
        <time>2026-05-05T08:37:25Z</time>
      </trkpt>
      <trkpt lat="45.93162" lon="1.81179">
        <ele>623.55</ele>
        <time>2026-05-05T08:37:26Z</time>
      </trkpt>
      <trkpt lat="45.93161" lon="1.8118">
        <ele>623.55</ele>
        <time>2026-05-05T08:37:27Z</time>
      </trkpt>
      <trkpt lat="45.93149" lon="1.81192">
        <ele>624.51</ele>
        <time>2026-05-05T08:37:42Z</time>
      </trkpt>
      <trkpt lat="45.93137" lon="1.81205">
        <ele>624.99</ele>
        <time>2026-05-05T08:37:55Z</time>
      </trkpt>
      <trkpt lat="45.93121" lon="1.81222">
        <ele>626.44</ele>
        <time>2026-05-05T08:38:11Z</time>
      </trkpt>
      <trkpt lat="45.93107" lon="1.81238">
        <ele>627.4</ele>
        <time>2026-05-05T08:38:25Z</time>
      </trkpt>
      <trkpt lat="45.93103" lon="1.81243">
        <ele>627.88</ele>
        <time>2026-05-05T08:38:29Z</time>
      </trkpt>
      <trkpt lat="45.93102" lon="1.81244">
        <ele>627.88</ele>
        <time>2026-05-05T08:38:30Z</time>
      </trkpt>
      <trkpt lat="45.93101" lon="1.81245">
        <ele>627.88</ele>
        <time>2026-05-05T08:38:31Z</time>
      </trkpt>
      <trkpt lat="45.93099" lon="1.81246">
        <ele>627.88</ele>
        <time>2026-05-05T08:38:32Z</time>
      </trkpt>
      <trkpt lat="45.93098" lon="1.81247">
        <ele>628.36</ele>
        <time>2026-05-05T08:38:33Z</time>
      </trkpt>
      <trkpt lat="45.93097" lon="1.81248">
        <ele>628.36</ele>
        <time>2026-05-05T08:38:34Z</time>
      </trkpt>
      <trkpt lat="45.9309" lon="1.81252">
        <ele>628.84</ele>
        <time>2026-05-05T08:38:40Z</time>
      </trkpt>
      <trkpt lat="45.93089" lon="1.81253">
        <ele>628.84</ele>
        <time>2026-05-05T08:38:41Z</time>
      </trkpt>
      <trkpt lat="45.93076" lon="1.81258">
        <ele>629.8</ele>
        <time>2026-05-05T08:38:51Z</time>
      </trkpt>
      <trkpt lat="45.93074" lon="1.81257">
        <ele>629.8</ele>
        <time>2026-05-05T08:38:52Z</time>
      </trkpt>
      <trkpt lat="45.93072" lon="1.81258">
        <ele>629.8</ele>
        <time>2026-05-05T08:38:53Z</time>
      </trkpt>
      <trkpt lat="45.93052" lon="1.81255">
        <ele>631.24</ele>
        <time>2026-05-05T08:39:07Z</time>
      </trkpt>
      <trkpt lat="45.93032" lon="1.81258">
        <ele>632.2</ele>
        <time>2026-05-05T08:39:21Z</time>
      </trkpt>
      <trkpt lat="45.93013" lon="1.8127">
        <ele>632.68</ele>
        <time>2026-05-05T08:39:35Z</time>
      </trkpt>
      <trkpt lat="45.92994" lon="1.81284">
        <ele>633.65</ele>
        <time>2026-05-05T08:39:49Z</time>
      </trkpt>
      <trkpt lat="45.92977" lon="1.81304">
        <ele>634.13</ele>
        <time>2026-05-05T08:40:03Z</time>
      </trkpt>
      <trkpt lat="45.92965" lon="1.81333">
        <ele>634.61</ele>
        <time>2026-05-05T08:40:18Z</time>
      </trkpt>
      <trkpt lat="45.92958" lon="1.81357">
        <ele>636.05</ele>
        <time>2026-05-05T08:40:31Z</time>
      </trkpt>
      <trkpt lat="45.92947" lon="1.81377">
        <ele>636.53</ele>
        <time>2026-05-05T08:40:44Z</time>
      </trkpt>
      <trkpt lat="45.9294" lon="1.8139">
        <ele>636.53</ele>
        <time>2026-05-05T08:40:56Z</time>
      </trkpt>
      <trkpt lat="45.9293" lon="1.81398">
        <ele>636.53</ele>
        <time>2026-05-05T08:41:07Z</time>
      </trkpt>
      <trkpt lat="45.92927" lon="1.814">
        <ele>635.09</ele>
        <time>2026-05-05T08:41:17Z</time>
      </trkpt>
      <trkpt lat="45.92926" lon="1.81401">
        <ele>635.09</ele>
        <time>2026-05-05T08:41:18Z</time>
      </trkpt>
      <trkpt lat="45.92924" lon="1.81402">
        <ele>634.61</ele>
        <time>2026-05-05T08:41:20Z</time>
      </trkpt>
      <trkpt lat="45.92909" lon="1.81411">
        <ele>632.2</ele>
        <time>2026-05-05T08:41:32Z</time>
      </trkpt>
      <trkpt lat="45.92892" lon="1.81423">
        <ele>629.8</ele>
        <time>2026-05-05T08:41:45Z</time>
      </trkpt>
      <trkpt lat="45.92877" lon="1.8143">
        <ele>628.36</ele>
        <time>2026-05-05T08:41:56Z</time>
      </trkpt>
      <trkpt lat="45.92859" lon="1.8144">
        <ele>625.47</ele>
        <time>2026-05-05T08:42:09Z</time>
      </trkpt>
      <trkpt lat="45.92845" lon="1.81449">
        <ele>623.55</ele>
        <time>2026-05-05T08:42:21Z</time>
      </trkpt>
      <trkpt lat="45.92828" lon="1.81456">
        <ele>621.15</ele>
        <time>2026-05-05T08:42:35Z</time>
      </trkpt>
      <trkpt lat="45.92808" lon="1.8146">
        <ele>618.26</ele>
        <time>2026-05-05T08:42:50Z</time>
      </trkpt>
      <trkpt lat="45.92795" lon="1.81464">
        <ele>616.82</ele>
        <time>2026-05-05T08:43:01Z</time>
      </trkpt>
      <trkpt lat="45.92794" lon="1.81465">
        <ele>616.82</ele>
        <time>2026-05-05T08:43:02Z</time>
      </trkpt>
      <trkpt lat="45.92773" lon="1.81476">
        <ele>614.42</ele>
        <time>2026-05-05T08:43:18Z</time>
      </trkpt>
      <trkpt lat="45.92755" lon="1.81494">
        <ele>613.46</ele>
        <time>2026-05-05T08:43:34Z</time>
      </trkpt>
      <trkpt lat="45.92741" lon="1.81511">
        <ele>612.98</ele>
        <time>2026-05-05T08:43:48Z</time>
      </trkpt>
      <trkpt lat="45.92726" lon="1.81525">
        <ele>612.5</ele>
        <time>2026-05-05T08:44:02Z</time>
      </trkpt>
      <trkpt lat="45.92705" lon="1.81532">
        <ele>612.02</ele>
        <time>2026-05-05T08:44:21Z</time>
      </trkpt>
      <trkpt lat="45.92682" lon="1.81534">
        <ele>609.61</ele>
        <time>2026-05-05T08:44:41Z</time>
      </trkpt>
      <trkpt lat="45.92661" lon="1.81536">
        <ele>606.25</ele>
        <time>2026-05-05T08:44:55Z</time>
      </trkpt>
      <trkpt lat="45.92642" lon="1.81541">
        <ele>602.88</ele>
        <time>2026-05-05T08:45:11Z</time>
      </trkpt>
      <trkpt lat="45.92629" lon="1.81552">
        <ele>599.52</ele>
        <time>2026-05-05T08:45:25Z</time>
      </trkpt>
      <trkpt lat="45.92624" lon="1.81555">
        <ele>599.04</ele>
        <time>2026-05-05T08:45:28Z</time>
      </trkpt>
      <trkpt lat="45.92599" lon="1.81585">
        <ele>595.67</ele>
        <time>2026-05-05T08:45:49Z</time>
      </trkpt>
      <trkpt lat="45.92583" lon="1.81606">
        <ele>593.27</ele>
        <time>2026-05-05T08:46:05Z</time>
      </trkpt>
      <trkpt lat="45.92563" lon="1.81616">
        <ele>589.91</ele>
        <time>2026-05-05T08:46:20Z</time>
      </trkpt>
      <trkpt lat="45.92556" lon="1.81646">
        <ele>586.54</ele>
        <time>2026-05-05T08:46:37Z</time>
      </trkpt>
      <trkpt lat="45.92558" lon="1.81652">
        <ele>585.58</ele>
        <time>2026-05-05T08:46:41Z</time>
      </trkpt>
      <trkpt lat="45.92566" lon="1.81682">
        <ele>583.66</ele>
        <time>2026-05-05T08:46:55Z</time>
      </trkpt>
      <trkpt lat="45.92567" lon="1.81684">
        <ele>583.18</ele>
        <time>2026-05-05T08:46:56Z</time>
      </trkpt>
      <trkpt lat="45.92576" lon="1.81714">
        <ele>582.7</ele>
        <time>2026-05-05T08:47:12Z</time>
      </trkpt>
      <trkpt lat="45.92578" lon="1.81725">
        <ele>581.73</ele>
        <time>2026-05-05T08:47:19Z</time>
      </trkpt>
      <trkpt lat="45.92578" lon="1.81726">
        <ele>581.73</ele>
        <time>2026-05-05T08:47:20Z</time>
      </trkpt>
      <trkpt lat="45.9258" lon="1.81729">
        <ele>581.25</ele>
        <time>2026-05-05T08:47:39Z</time>
      </trkpt>
      <trkpt lat="45.92572" lon="1.81746">
        <ele>581.25</ele>
        <time>2026-05-05T08:48:09Z</time>
      </trkpt>
      <trkpt lat="45.92571" lon="1.81748">
        <ele>581.25</ele>
        <time>2026-05-05T08:48:11Z</time>
      </trkpt>
      <trkpt lat="45.92571" lon="1.81749">
        <ele>581.25</ele>
        <time>2026-05-05T08:48:12Z</time>
      </trkpt>
      <trkpt lat="45.92555" lon="1.81761">
        <ele>581.25</ele>
        <time>2026-05-05T08:48:28Z</time>
      </trkpt>
      <trkpt lat="45.92546" lon="1.81765">
        <ele>582.7</ele>
        <time>2026-05-05T08:48:36Z</time>
      </trkpt>
      <trkpt lat="45.92529" lon="1.81771">
        <ele>584.14</ele>
        <time>2026-05-05T08:48:52Z</time>
      </trkpt>
      <trkpt lat="45.92518" lon="1.81772">
        <ele>585.58</ele>
        <time>2026-05-05T08:49:08Z</time>
      </trkpt>
      <trkpt lat="45.92501" lon="1.8176">
        <ele>588.95</ele>
        <time>2026-05-05T08:49:31Z</time>
      </trkpt>
      <trkpt lat="45.92466" lon="1.81763">
        <ele>591.35</ele>
        <time>2026-05-05T08:49:53Z</time>
      </trkpt>
      <trkpt lat="45.92447" lon="1.8177">
        <ele>593.27</ele>
        <time>2026-05-05T08:50:14Z</time>
      </trkpt>
      <trkpt lat="45.92434" lon="1.81774">
        <ele>596.15</ele>
        <time>2026-05-05T08:50:32Z</time>
      </trkpt>
      <trkpt lat="45.9241" lon="1.81774">
        <ele>599.04</ele>
        <time>2026-05-05T08:50:52Z</time>
      </trkpt>
      <trkpt lat="45.92395" lon="1.81782">
        <ele>600.48</ele>
        <time>2026-05-05T08:51:05Z</time>
      </trkpt>
      <trkpt lat="45.92393" lon="1.81783">
        <ele>600.96</ele>
        <time>2026-05-05T08:51:06Z</time>
      </trkpt>
      <trkpt lat="45.9238" lon="1.81798">
        <ele>603.85</ele>
        <time>2026-05-05T08:51:27Z</time>
      </trkpt>
      <trkpt lat="45.92359" lon="1.81813">
        <ele>607.21</ele>
        <time>2026-05-05T08:51:46Z</time>
      </trkpt>
      <trkpt lat="45.92344" lon="1.81822">
        <ele>610.57</ele>
        <time>2026-05-05T08:52:08Z</time>
      </trkpt>
      <trkpt lat="45.92328" lon="1.81835">
        <ele>612.98</ele>
        <time>2026-05-05T08:52:28Z</time>
      </trkpt>
      <trkpt lat="45.92313" lon="1.81849">
        <ele>616.34</ele>
        <time>2026-05-05T08:52:49Z</time>
      </trkpt>
      <trkpt lat="45.92292" lon="1.81861">
        <ele>619.71</ele>
        <time>2026-05-05T08:53:09Z</time>
      </trkpt>
      <trkpt lat="45.92273" lon="1.81875">
        <ele>622.59</ele>
        <time>2026-05-05T08:53:30Z</time>
      </trkpt>
      <trkpt lat="45.9227" lon="1.81886">
        <ele>622.59</ele>
        <time>2026-05-05T08:53:54Z</time>
      </trkpt>
      <trkpt lat="45.92262" lon="1.81884">
        <ele>624.03</ele>
        <time>2026-05-05T08:54:05Z</time>
      </trkpt>
      <trkpt lat="45.92246" lon="1.81895">
        <ele>625.47</ele>
        <time>2026-05-05T08:54:22Z</time>
      </trkpt>
      <trkpt lat="45.92233" lon="1.81909">
        <ele>628.36</ele>
        <time>2026-05-05T08:54:39Z</time>
      </trkpt>
      <trkpt lat="45.92214" lon="1.81925">
        <ele>630.76</ele>
        <time>2026-05-05T08:54:58Z</time>
      </trkpt>
      <trkpt lat="45.92196" lon="1.81941">
        <ele>632.68</ele>
        <time>2026-05-05T08:55:15Z</time>
      </trkpt>
      <trkpt lat="45.92196" lon="1.81944">
        <ele>633.65</ele>
        <time>2026-05-05T08:55:39Z</time>
      </trkpt>
      <trkpt lat="45.92194" lon="1.81946">
        <ele>633.65</ele>
        <time>2026-05-05T08:55:45Z</time>
      </trkpt>
      <trkpt lat="45.92191" lon="1.81949">
        <ele>633.65</ele>
        <time>2026-05-05T08:55:49Z</time>
      </trkpt>
      <trkpt lat="45.92185" lon="1.81957">
        <ele>636.05</ele>
        <time>2026-05-05T08:56:02Z</time>
      </trkpt>
      <trkpt lat="45.92178" lon="1.81961">
        <ele>637.49</ele>
        <time>2026-05-05T08:56:10Z</time>
      </trkpt>
      <trkpt lat="45.92177" lon="1.81962">
        <ele>637.97</ele>
        <time>2026-05-05T08:56:13Z</time>
      </trkpt>
      <trkpt lat="45.92176" lon="1.81963">
        <ele>638.45</ele>
        <time>2026-05-05T08:56:14Z</time>
      </trkpt>
      <trkpt lat="45.92172" lon="1.81967">
        <ele>638.93</ele>
        <time>2026-05-05T08:56:20Z</time>
      </trkpt>
      <trkpt lat="45.92168" lon="1.8197">
        <ele>639.41</ele>
        <time>2026-05-05T08:56:24Z</time>
      </trkpt>
      <trkpt lat="45.92167" lon="1.81971">
        <ele>639.89</ele>
        <time>2026-05-05T08:56:25Z</time>
      </trkpt>
      <trkpt lat="45.92157" lon="1.81977">
        <ele>640.86</ele>
        <time>2026-05-05T08:56:35Z</time>
      </trkpt>
      <trkpt lat="45.92145" lon="1.81988">
        <ele>642.3</ele>
        <time>2026-05-05T08:56:48Z</time>
      </trkpt>
      <trkpt lat="45.92127" lon="1.82004">
        <ele>643.26</ele>
        <time>2026-05-05T08:57:04Z</time>
      </trkpt>
      <trkpt lat="45.92123" lon="1.82012">
        <ele>643.74</ele>
        <time>2026-05-05T08:57:12Z</time>
      </trkpt>
      <trkpt lat="45.92123" lon="1.82029">
        <ele>643.74</ele>
        <time>2026-05-05T08:57:24Z</time>
      </trkpt>
      <trkpt lat="45.92123" lon="1.82035">
        <ele>643.74</ele>
        <time>2026-05-05T08:57:28Z</time>
      </trkpt>
      <trkpt lat="45.92123" lon="1.82037">
        <ele>644.22</ele>
        <time>2026-05-05T08:57:29Z</time>
      </trkpt>
      <trkpt lat="45.92119" lon="1.82055">
        <ele>644.7</ele>
        <time>2026-05-05T08:57:40Z</time>
      </trkpt>
      <trkpt lat="45.92115" lon="1.82079">
        <ele>645.18</ele>
        <time>2026-05-05T08:57:53Z</time>
      </trkpt>
      <trkpt lat="45.9211" lon="1.82095">
        <ele>646.14</ele>
        <time>2026-05-05T08:58:04Z</time>
      </trkpt>
      <trkpt lat="45.92107" lon="1.82104">
        <ele>646.62</ele>
        <time>2026-05-05T08:58:09Z</time>
      </trkpt>
      <trkpt lat="45.92106" lon="1.82109">
        <ele>646.14</ele>
        <time>2026-05-05T08:58:11Z</time>
      </trkpt>
      <trkpt lat="45.92106" lon="1.82111">
        <ele>646.14</ele>
        <time>2026-05-05T08:58:12Z</time>
      </trkpt>
      <trkpt lat="45.92105" lon="1.82113">
        <ele>646.14</ele>
        <time>2026-05-05T08:58:13Z</time>
      </trkpt>
      <trkpt lat="45.92104" lon="1.82115">
        <ele>646.14</ele>
        <time>2026-05-05T08:58:14Z</time>
      </trkpt>
      <trkpt lat="45.92092" lon="1.82133">
        <ele>646.14</ele>
        <time>2026-05-05T08:58:25Z</time>
      </trkpt>
      <trkpt lat="45.92091" lon="1.82135">
        <ele>646.14</ele>
        <time>2026-05-05T08:58:26Z</time>
      </trkpt>
      <trkpt lat="45.92089" lon="1.82136">
        <ele>646.14</ele>
        <time>2026-05-05T08:58:27Z</time>
      </trkpt>
      <trkpt lat="45.92088" lon="1.82137">
        <ele>646.14</ele>
        <time>2026-05-05T08:58:28Z</time>
      </trkpt>
      <trkpt lat="45.92086" lon="1.82139">
        <ele>646.14</ele>
        <time>2026-05-05T08:58:29Z</time>
      </trkpt>
      <trkpt lat="45.92085" lon="1.8214">
        <ele>646.14</ele>
        <time>2026-05-05T08:58:30Z</time>
      </trkpt>
      <trkpt lat="45.92077" lon="1.82157">
        <ele>646.14</ele>
        <time>2026-05-05T08:58:42Z</time>
      </trkpt>
      <trkpt lat="45.92073" lon="1.82159">
        <ele>646.14</ele>
        <time>2026-05-05T08:58:45Z</time>
      </trkpt>
      <trkpt lat="45.92068" lon="1.82162">
        <ele>646.14</ele>
        <time>2026-05-05T08:58:50Z</time>
      </trkpt>
      <trkpt lat="45.92065" lon="1.82163">
        <ele>646.14</ele>
        <time>2026-05-05T08:58:52Z</time>
      </trkpt>
      <trkpt lat="45.92055" lon="1.82169">
        <ele>645.18</ele>
        <time>2026-05-05T08:59:01Z</time>
      </trkpt>
      <trkpt lat="45.92054" lon="1.82169">
        <ele>645.18</ele>
        <time>2026-05-05T08:59:02Z</time>
      </trkpt>
      <trkpt lat="45.92052" lon="1.8217">
        <ele>645.18</ele>
        <time>2026-05-05T08:59:03Z</time>
      </trkpt>
      <trkpt lat="45.92034" lon="1.82177">
        <ele>644.22</ele>
        <time>2026-05-05T08:59:16Z</time>
      </trkpt>
      <trkpt lat="45.92026" lon="1.82177">
        <ele>644.22</ele>
        <time>2026-05-05T08:59:21Z</time>
      </trkpt>
      <trkpt lat="45.92012" lon="1.82186">
        <ele>643.26</ele>
        <time>2026-05-05T08:59:32Z</time>
      </trkpt>
      <trkpt lat="45.92008" lon="1.8219">
        <ele>642.3</ele>
        <time>2026-05-05T08:59:36Z</time>
      </trkpt>
      <trkpt lat="45.92007" lon="1.82191">
        <ele>642.3</ele>
        <time>2026-05-05T08:59:37Z</time>
      </trkpt>
      <trkpt lat="45.92006" lon="1.82192">
        <ele>642.3</ele>
        <time>2026-05-05T08:59:38Z</time>
      </trkpt>
      <trkpt lat="45.91991" lon="1.82204">
        <ele>642.3</ele>
        <time>2026-05-05T08:59:51Z</time>
      </trkpt>
      <trkpt lat="45.91982" lon="1.82213">
        <ele>641.82</ele>
        <time>2026-05-05T09:00:02Z</time>
      </trkpt>
      <trkpt lat="45.91971" lon="1.82233">
        <ele>641.82</ele>
        <time>2026-05-05T09:00:14Z</time>
      </trkpt>
      <trkpt lat="45.9196" lon="1.82258">
        <ele>640.38</ele>
        <time>2026-05-05T09:00:29Z</time>
      </trkpt>
      <trkpt lat="45.91953" lon="1.82282">
        <ele>640.86</ele>
        <time>2026-05-05T09:00:45Z</time>
      </trkpt>
      <trkpt lat="45.91953" lon="1.82285">
        <ele>640.86</ele>
        <time>2026-05-05T09:00:47Z</time>
      </trkpt>
      <trkpt lat="45.91953" lon="1.82302">
        <ele>641.82</ele>
        <time>2026-05-05T09:00:56Z</time>
      </trkpt>
      <trkpt lat="45.9195" lon="1.82326">
        <ele>644.22</ele>
        <time>2026-05-05T09:01:09Z</time>
      </trkpt>
      <trkpt lat="45.91946" lon="1.8234">
        <ele>644.22</ele>
        <time>2026-05-05T09:01:20Z</time>
      </trkpt>
      <trkpt lat="45.91944" lon="1.82347">
        <ele>645.18</ele>
        <time>2026-05-05T09:01:23Z</time>
      </trkpt>
      <trkpt lat="45.91943" lon="1.82349">
        <ele>645.18</ele>
        <time>2026-05-05T09:01:24Z</time>
      </trkpt>
      <trkpt lat="45.91942" lon="1.82351">
        <ele>645.18</ele>
        <time>2026-05-05T09:01:25Z</time>
      </trkpt>
      <trkpt lat="45.91935" lon="1.8237">
        <ele>646.62</ele>
        <time>2026-05-05T09:01:38Z</time>
      </trkpt>
      <trkpt lat="45.91926" lon="1.82393">
        <ele>647.1</ele>
        <time>2026-05-05T09:01:53Z</time>
      </trkpt>
      <trkpt lat="45.91922" lon="1.82413">
        <ele>647.59</ele>
        <time>2026-05-05T09:02:04Z</time>
      </trkpt>
      <trkpt lat="45.91919" lon="1.82428">
        <ele>648.55</ele>
        <time>2026-05-05T09:02:15Z</time>
      </trkpt>
      <trkpt lat="45.91915" lon="1.82433">
        <ele>648.55</ele>
        <time>2026-05-05T09:02:45Z</time>
      </trkpt>
      <trkpt lat="45.91904" lon="1.82445">
        <ele>648.55</ele>
        <time>2026-05-05T09:02:57Z</time>
      </trkpt>
      <trkpt lat="45.91894" lon="1.82467">
        <ele>649.03</ele>
        <time>2026-05-05T09:03:11Z</time>
      </trkpt>
      <trkpt lat="45.91888" lon="1.82482">
        <ele>649.03</ele>
        <time>2026-05-05T09:03:19Z</time>
      </trkpt>
      <trkpt lat="45.91883" lon="1.82497">
        <ele>649.03</ele>
        <time>2026-05-05T09:03:28Z</time>
      </trkpt>
      <trkpt lat="45.91885" lon="1.82501">
        <ele>649.03</ele>
        <time>2026-05-05T09:03:30Z</time>
      </trkpt>
      <trkpt lat="45.91884" lon="1.82505">
        <ele>649.51</ele>
        <time>2026-05-05T09:03:31Z</time>
      </trkpt>
      <trkpt lat="45.91883" lon="1.82521">
        <ele>649.99</ele>
        <time>2026-05-05T09:03:44Z</time>
      </trkpt>
      <trkpt lat="45.91881" lon="1.82523">
        <ele>649.99</ele>
        <time>2026-05-05T09:04:08Z</time>
      </trkpt>
      <trkpt lat="45.91882" lon="1.82526">
        <ele>650.47</ele>
        <time>2026-05-05T09:04:12Z</time>
      </trkpt>
      <trkpt lat="45.91883" lon="1.8253">
        <ele>649.99</ele>
        <time>2026-05-05T09:04:15Z</time>
      </trkpt>
      <trkpt lat="45.91882" lon="1.82532">
        <ele>650.47</ele>
        <time>2026-05-05T09:04:17Z</time>
      </trkpt>
      <trkpt lat="45.91889" lon="1.82544">
        <ele>651.91</ele>
        <time>2026-05-05T09:04:31Z</time>
      </trkpt>
      <trkpt lat="45.91889" lon="1.82545">
        <ele>651.91</ele>
        <time>2026-05-05T09:04:34Z</time>
      </trkpt>
      <trkpt lat="45.91887" lon="1.82544">
        <ele>653.83</ele>
        <time>2026-05-05T09:04:48Z</time>
      </trkpt>
      <trkpt lat="45.91885" lon="1.82544">
        <ele>653.83</ele>
        <time>2026-05-05T09:05:14Z</time>
      </trkpt>
      <trkpt lat="45.91887" lon="1.82551">
        <ele>653.83</ele>
        <time>2026-05-05T09:05:30Z</time>
      </trkpt>
      <trkpt lat="45.91888" lon="1.82564">
        <ele>653.83</ele>
        <time>2026-05-05T09:05:42Z</time>
      </trkpt>
      <trkpt lat="45.9189" lon="1.82568">
        <ele>653.83</ele>
        <time>2026-05-05T09:06:01Z</time>
      </trkpt>
      <trkpt lat="45.9189" lon="1.82567">
        <ele>653.83</ele>
        <time>2026-05-05T09:06:30Z</time>
      </trkpt>
      <trkpt lat="45.91892" lon="1.82563">
        <ele>653.83</ele>
        <time>2026-05-05T09:06:54Z</time>
      </trkpt>
      <trkpt lat="45.91893" lon="1.82567">
        <ele>653.83</ele>
        <time>2026-05-05T09:07:17Z</time>
      </trkpt>
      <trkpt lat="45.91895" lon="1.82565">
        <ele>653.83</ele>
        <time>2026-05-05T09:07:41Z</time>
      </trkpt>
      <trkpt lat="45.91895" lon="1.8257">
        <ele>653.83</ele>
        <time>2026-05-05T09:08:02Z</time>
      </trkpt>
      <trkpt lat="45.91896" lon="1.82569">
        <ele>653.83</ele>
        <time>2026-05-05T09:08:03Z</time>
      </trkpt>
      <trkpt lat="45.91898" lon="1.8256">
        <ele>653.83</ele>
        <time>2026-05-05T09:08:09Z</time>
      </trkpt>
      <trkpt lat="45.91903" lon="1.82549">
        <ele>652.87</ele>
        <time>2026-05-05T09:08:16Z</time>
      </trkpt>
      <trkpt lat="45.91901" lon="1.82547">
        <ele>652.39</ele>
        <time>2026-05-05T09:08:42Z</time>
      </trkpt>
      <trkpt lat="45.91898" lon="1.82547">
        <ele>652.39</ele>
        <time>2026-05-05T09:09:09Z</time>
      </trkpt>
      <trkpt lat="45.91901" lon="1.8255">
        <ele>651.91</ele>
        <time>2026-05-05T09:09:34Z</time>
      </trkpt>
      <trkpt lat="45.91902" lon="1.8255">
        <ele>653.35</ele>
        <time>2026-05-05T09:09:35Z</time>
      </trkpt>
      <trkpt lat="45.91903" lon="1.82549">
        <ele>653.35</ele>
        <time>2026-05-05T09:09:36Z</time>
      </trkpt>
      <trkpt lat="45.91907" lon="1.82551">
        <ele>653.83</ele>
        <time>2026-05-05T09:09:49Z</time>
      </trkpt>
      <trkpt lat="45.91906" lon="1.82553">
        <ele>654.8</ele>
        <time>2026-05-05T09:10:04Z</time>
      </trkpt>
      <trkpt lat="45.91906" lon="1.82552">
        <ele>653.35</ele>
        <time>2026-05-05T09:10:06Z</time>
      </trkpt>
      <trkpt lat="45.91913" lon="1.82555">
        <ele>649.03</ele>
        <time>2026-05-05T09:10:37Z</time>
      </trkpt>
      <trkpt lat="45.91913" lon="1.82555">
        <ele>652.39</ele>
        <time>2026-05-05T09:10:38Z</time>
      </trkpt>
      <trkpt lat="45.91912" lon="1.82554">
        <ele>657.2</ele>
        <time>2026-05-05T09:10:39Z</time>
      </trkpt>
      <trkpt lat="45.9191" lon="1.82552">
        <ele>654.8</ele>
        <time>2026-05-05T09:10:40Z</time>
      </trkpt>
      <trkpt lat="45.91908" lon="1.8255">
        <ele>653.35</ele>
        <time>2026-05-05T09:10:42Z</time>
      </trkpt>
      <trkpt lat="45.91904" lon="1.8254">
        <ele>652.87</ele>
        <time>2026-05-05T09:10:51Z</time>
      </trkpt>
      <trkpt lat="45.91905" lon="1.82549">
        <ele>652.87</ele>
        <time>2026-05-05T09:11:02Z</time>
      </trkpt>
      <trkpt lat="45.91906" lon="1.82549">
        <ele>652.87</ele>
        <time>2026-05-05T09:11:03Z</time>
      </trkpt>
      <trkpt lat="45.91907" lon="1.82548">
        <ele>652.87</ele>
        <time>2026-05-05T09:11:04Z</time>
      </trkpt>
      <trkpt lat="45.91908" lon="1.82547">
        <ele>652.87</ele>
        <time>2026-05-05T09:11:05Z</time>
      </trkpt>
      <trkpt lat="45.9191" lon="1.82546">
        <ele>652.87</ele>
        <time>2026-05-05T09:11:06Z</time>
      </trkpt>
      <trkpt lat="45.91924" lon="1.82528">
        <ele>652.87</ele>
        <time>2026-05-05T09:11:20Z</time>
      </trkpt>
      <trkpt lat="45.91936" lon="1.82507">
        <ele>654.31</ele>
        <time>2026-05-05T09:11:34Z</time>
      </trkpt>
      <trkpt lat="45.91945" lon="1.8249">
        <ele>654.31</ele>
        <time>2026-05-05T09:11:45Z</time>
      </trkpt>
      <trkpt lat="45.91958" lon="1.82468">
        <ele>654.8</ele>
        <time>2026-05-05T09:11:59Z</time>
      </trkpt>
      <trkpt lat="45.91968" lon="1.82445">
        <ele>655.28</ele>
        <time>2026-05-05T09:12:15Z</time>
      </trkpt>
      <trkpt lat="45.91983" lon="1.82425">
        <ele>656.24</ele>
        <time>2026-05-05T09:12:30Z</time>
      </trkpt>
      <trkpt lat="45.91997" lon="1.82403">
        <ele>656.24</ele>
        <time>2026-05-05T09:12:44Z</time>
      </trkpt>
      <trkpt lat="45.92009" lon="1.82373">
        <ele>656.24</ele>
        <time>2026-05-05T09:13:00Z</time>
      </trkpt>
      <trkpt lat="45.92012" lon="1.82359">
        <ele>654.8</ele>
        <time>2026-05-05T09:13:08Z</time>
      </trkpt>
      <trkpt lat="45.92024" lon="1.82334">
        <ele>654.31</ele>
        <time>2026-05-05T09:13:23Z</time>
      </trkpt>
      <trkpt lat="45.92032" lon="1.82317">
        <ele>654.31</ele>
        <time>2026-05-05T09:13:35Z</time>
      </trkpt>
      <trkpt lat="45.9205" lon="1.82296">
        <ele>653.83</ele>
        <time>2026-05-05T09:13:51Z</time>
      </trkpt>
      <trkpt lat="45.92056" lon="1.8229">
        <ele>655.28</ele>
        <time>2026-05-05T09:13:57Z</time>
      </trkpt>
      <trkpt lat="45.92071" lon="1.82278">
        <ele>656.24</ele>
        <time>2026-05-05T09:14:16Z</time>
      </trkpt>
      <trkpt lat="45.92072" lon="1.82273">
        <ele>656.24</ele>
        <time>2026-05-05T09:14:51Z</time>
      </trkpt>
      <trkpt lat="45.92078" lon="1.82271">
        <ele>656.24</ele>
        <time>2026-05-05T09:15:02Z</time>
      </trkpt>
      <trkpt lat="45.92082" lon="1.82269">
        <ele>656.24</ele>
        <time>2026-05-05T09:15:06Z</time>
      </trkpt>
      <trkpt lat="45.92097" lon="1.82258">
        <ele>656.72</ele>
        <time>2026-05-05T09:15:21Z</time>
      </trkpt>
      <trkpt lat="45.92104" lon="1.82246">
        <ele>656.72</ele>
        <time>2026-05-05T09:15:35Z</time>
      </trkpt>
      <trkpt lat="45.9211" lon="1.82241">
        <ele>658.16</ele>
        <time>2026-05-05T09:15:58Z</time>
      </trkpt>
      <trkpt lat="45.9213" lon="1.82221">
        <ele>658.16</ele>
        <time>2026-05-05T09:16:15Z</time>
      </trkpt>
      <trkpt lat="45.92142" lon="1.82206">
        <ele>659.12</ele>
        <time>2026-05-05T09:16:30Z</time>
      </trkpt>
      <trkpt lat="45.92155" lon="1.82204">
        <ele>659.12</ele>
        <time>2026-05-05T09:16:40Z</time>
      </trkpt>
      <trkpt lat="45.92158" lon="1.82204">
        <ele>659.12</ele>
        <time>2026-05-05T09:16:41Z</time>
      </trkpt>
      <trkpt lat="45.92159" lon="1.82204">
        <ele>659.12</ele>
        <time>2026-05-05T09:16:42Z</time>
      </trkpt>
      <trkpt lat="45.92162" lon="1.82203">
        <ele>660.08</ele>
        <time>2026-05-05T09:16:47Z</time>
      </trkpt>
      <trkpt lat="45.92163" lon="1.82202">
        <ele>660.08</ele>
        <time>2026-05-05T09:16:48Z</time>
      </trkpt>
      <trkpt lat="45.92164" lon="1.82201">
        <ele>660.08</ele>
        <time>2026-05-05T09:16:49Z</time>
      </trkpt>
      <trkpt lat="45.92166" lon="1.82201">
        <ele>660.08</ele>
        <time>2026-05-05T09:16:50Z</time>
      </trkpt>
      <trkpt lat="45.92168" lon="1.82201">
        <ele>660.08</ele>
        <time>2026-05-05T09:16:51Z</time>
      </trkpt>
      <trkpt lat="45.92174" lon="1.822">
        <ele>660.56</ele>
        <time>2026-05-05T09:16:57Z</time>
      </trkpt>
      <trkpt lat="45.92176" lon="1.822">
        <ele>660.56</ele>
        <time>2026-05-05T09:16:58Z</time>
      </trkpt>
      <trkpt lat="45.92182" lon="1.822">
        <ele>660.56</ele>
        <time>2026-05-05T09:17:03Z</time>
      </trkpt>
      <trkpt lat="45.92188" lon="1.82201">
        <ele>660.56</ele>
        <time>2026-05-05T09:17:08Z</time>
      </trkpt>
      <trkpt lat="45.92189" lon="1.82201">
        <ele>660.56</ele>
        <time>2026-05-05T09:17:09Z</time>
      </trkpt>
      <trkpt lat="45.9219" lon="1.82202">
        <ele>660.56</ele>
        <time>2026-05-05T09:17:10Z</time>
      </trkpt>
      <trkpt lat="45.92192" lon="1.82202">
        <ele>660.56</ele>
        <time>2026-05-05T09:17:11Z</time>
      </trkpt>
      <trkpt lat="45.92194" lon="1.82203">
        <ele>660.56</ele>
        <time>2026-05-05T09:17:12Z</time>
      </trkpt>
      <trkpt lat="45.92198" lon="1.82204">
        <ele>661.04</ele>
        <time>2026-05-05T09:17:17Z</time>
      </trkpt>
      <trkpt lat="45.92207" lon="1.82208">
        <ele>661.52</ele>
        <time>2026-05-05T09:17:26Z</time>
      </trkpt>
      <trkpt lat="45.92211" lon="1.82209">
        <ele>662.01</ele>
        <time>2026-05-05T09:17:29Z</time>
      </trkpt>
      <trkpt lat="45.92212" lon="1.82211">
        <ele>662.01</ele>
        <time>2026-05-05T09:17:30Z</time>
      </trkpt>
      <trkpt lat="45.92221" lon="1.82218">
        <ele>662.97</ele>
        <time>2026-05-05T09:17:38Z</time>
      </trkpt>
      <trkpt lat="45.92223" lon="1.82219">
        <ele>662.97</ele>
        <time>2026-05-05T09:17:39Z</time>
      </trkpt>
      <trkpt lat="45.92224" lon="1.8222">
        <ele>662.97</ele>
        <time>2026-05-05T09:17:40Z</time>
      </trkpt>
      <trkpt lat="45.92225" lon="1.82221">
        <ele>663.93</ele>
        <time>2026-05-05T09:17:41Z</time>
      </trkpt>
      <trkpt lat="45.92226" lon="1.82222">
        <ele>663.93</ele>
        <time>2026-05-05T09:17:42Z</time>
      </trkpt>
      <trkpt lat="45.92239" lon="1.82231">
        <ele>664.41</ele>
        <time>2026-05-05T09:17:53Z</time>
      </trkpt>
      <trkpt lat="45.92255" lon="1.82246">
        <ele>666.33</ele>
        <time>2026-05-05T09:18:07Z</time>
      </trkpt>
      <trkpt lat="45.92263" lon="1.82258">
        <ele>666.81</ele>
        <time>2026-05-05T09:18:16Z</time>
      </trkpt>
      <trkpt lat="45.92264" lon="1.82258">
        <ele>666.81</ele>
        <time>2026-05-05T09:18:17Z</time>
      </trkpt>
      <trkpt lat="45.92278" lon="1.82272">
        <ele>667.29</ele>
        <time>2026-05-05T09:18:32Z</time>
      </trkpt>
      <trkpt lat="45.92281" lon="1.82276">
        <ele>667.29</ele>
        <time>2026-05-05T09:18:35Z</time>
      </trkpt>
      <trkpt lat="45.92283" lon="1.82277">
        <ele>667.29</ele>
        <time>2026-05-05T09:18:36Z</time>
      </trkpt>
      <trkpt lat="45.92284" lon="1.82278">
        <ele>667.29</ele>
        <time>2026-05-05T09:18:37Z</time>
      </trkpt>
      <trkpt lat="45.92285" lon="1.8228">
        <ele>667.29</ele>
        <time>2026-05-05T09:18:38Z</time>
      </trkpt>
      <trkpt lat="45.92286" lon="1.82282">
        <ele>667.29</ele>
        <time>2026-05-05T09:18:39Z</time>
      </trkpt>
      <trkpt lat="45.92299" lon="1.82295">
        <ele>667.29</ele>
        <time>2026-05-05T09:18:51Z</time>
      </trkpt>
      <trkpt lat="45.92313" lon="1.82311">
        <ele>667.29</ele>
        <time>2026-05-05T09:19:04Z</time>
      </trkpt>
      <trkpt lat="45.92324" lon="1.82329">
        <ele>667.29</ele>
        <time>2026-05-05T09:19:16Z</time>
      </trkpt>
      <trkpt lat="45.92333" lon="1.82348">
        <ele>667.29</ele>
        <time>2026-05-05T09:19:26Z</time>
      </trkpt>
      <trkpt lat="45.92334" lon="1.82349">
        <ele>667.29</ele>
        <time>2026-05-05T09:19:27Z</time>
      </trkpt>
      <trkpt lat="45.92334" lon="1.82351">
        <ele>667.29</ele>
        <time>2026-05-05T09:19:28Z</time>
      </trkpt>
      <trkpt lat="45.92335" lon="1.82354">
        <ele>667.29</ele>
        <time>2026-05-05T09:19:29Z</time>
      </trkpt>
      <trkpt lat="45.92336" lon="1.82356">
        <ele>667.29</ele>
        <time>2026-05-05T09:19:30Z</time>
      </trkpt>
      <trkpt lat="45.92337" lon="1.82358">
        <ele>667.29</ele>
        <time>2026-05-05T09:19:31Z</time>
      </trkpt>
      <trkpt lat="45.92338" lon="1.82361">
        <ele>667.29</ele>
        <time>2026-05-05T09:19:32Z</time>
      </trkpt>
      <trkpt lat="45.9234" lon="1.82362">
        <ele>667.29</ele>
        <time>2026-05-05T09:19:33Z</time>
      </trkpt>
      <trkpt lat="45.9234" lon="1.82364">
        <ele>667.29</ele>
        <time>2026-05-05T09:19:34Z</time>
      </trkpt>
      <trkpt lat="45.92341" lon="1.82367">
        <ele>667.29</ele>
        <time>2026-05-05T09:19:35Z</time>
      </trkpt>
      <trkpt lat="45.92351" lon="1.8239">
        <ele>667.77</ele>
        <time>2026-05-05T09:19:48Z</time>
      </trkpt>
      <trkpt lat="45.92358" lon="1.82411">
        <ele>667.77</ele>
        <time>2026-05-05T09:20:00Z</time>
      </trkpt>
      <trkpt lat="45.92363" lon="1.82431">
        <ele>667.77</ele>
        <time>2026-05-05T09:20:12Z</time>
      </trkpt>
      <trkpt lat="45.92371" lon="1.82455">
        <ele>668.25</ele>
        <time>2026-05-05T09:20:25Z</time>
      </trkpt>
      <trkpt lat="45.92382" lon="1.82479">
        <ele>668.25</ele>
        <time>2026-05-05T09:20:38Z</time>
      </trkpt>
      <trkpt lat="45.92395" lon="1.82503">
        <ele>667.29</ele>
        <time>2026-05-05T09:20:53Z</time>
      </trkpt>
      <trkpt lat="45.92408" lon="1.82523">
        <ele>666.81</ele>
        <time>2026-05-05T09:21:06Z</time>
      </trkpt>
      <trkpt lat="45.92417" lon="1.82542">
        <ele>666.33</ele>
        <time>2026-05-05T09:21:19Z</time>
      </trkpt>
      <trkpt lat="45.92418" lon="1.82545">
        <ele>666.33</ele>
        <time>2026-05-05T09:21:20Z</time>
      </trkpt>
      <trkpt lat="45.92418" lon="1.82547">
        <ele>666.33</ele>
        <time>2026-05-05T09:21:21Z</time>
      </trkpt>
      <trkpt lat="45.92419" lon="1.8255">
        <ele>666.33</ele>
        <time>2026-05-05T09:21:22Z</time>
      </trkpt>
      <trkpt lat="45.92419" lon="1.82552">
        <ele>666.33</ele>
        <time>2026-05-05T09:21:23Z</time>
      </trkpt>
      <trkpt lat="45.92425" lon="1.82572">
        <ele>664.89</ele>
        <time>2026-05-05T09:21:36Z</time>
      </trkpt>
      <trkpt lat="45.92431" lon="1.82587">
        <ele>663.45</ele>
        <time>2026-05-05T09:21:47Z</time>
      </trkpt>
      <trkpt lat="45.92433" lon="1.82592">
        <ele>662.49</ele>
        <time>2026-05-05T09:22:07Z</time>
      </trkpt>
      <trkpt lat="45.92434" lon="1.82594">
        <ele>662.49</ele>
        <time>2026-05-05T09:22:08Z</time>
      </trkpt>
      <trkpt lat="45.92445" lon="1.82611">
        <ele>661.52</ele>
        <time>2026-05-05T09:22:20Z</time>
      </trkpt>
      <trkpt lat="45.92461" lon="1.82632">
        <ele>661.04</ele>
        <time>2026-05-05T09:22:34Z</time>
      </trkpt>
      <trkpt lat="45.92477" lon="1.82646">
        <ele>659.12</ele>
        <time>2026-05-05T09:22:47Z</time>
      </trkpt>
      <trkpt lat="45.92484" lon="1.82652">
        <ele>658.64</ele>
        <time>2026-05-05T09:22:58Z</time>
      </trkpt>
      <trkpt lat="45.92481" lon="1.82646">
        <ele>658.64</ele>
        <time>2026-05-05T09:23:18Z</time>
      </trkpt>
      <trkpt lat="45.9248" lon="1.82646">
        <ele>658.64</ele>
        <time>2026-05-05T09:23:23Z</time>
      </trkpt>
      <trkpt lat="45.92491" lon="1.82657">
        <ele>658.16</ele>
        <time>2026-05-05T09:23:33Z</time>
      </trkpt>
      <trkpt lat="45.92512" lon="1.82665">
        <ele>656.24</ele>
        <time>2026-05-05T09:23:48Z</time>
      </trkpt>
      <trkpt lat="45.92516" lon="1.82665">
        <ele>655.76</ele>
        <time>2026-05-05T09:23:52Z</time>
      </trkpt>
      <trkpt lat="45.92525" lon="1.82666">
        <ele>655.28</ele>
        <time>2026-05-05T09:23:58Z</time>
      </trkpt>
      <trkpt lat="45.92539" lon="1.82669">
        <ele>654.31</ele>
        <time>2026-05-05T09:24:08Z</time>
      </trkpt>
      <trkpt lat="45.92554" lon="1.82672">
        <ele>653.35</ele>
        <time>2026-05-05T09:24:20Z</time>
      </trkpt>
      <trkpt lat="45.92562" lon="1.82673">
        <ele>652.87</ele>
        <time>2026-05-05T09:24:31Z</time>
      </trkpt>
      <trkpt lat="45.92559" lon="1.82678">
        <ele>652.87</ele>
        <time>2026-05-05T09:24:37Z</time>
      </trkpt>
      <trkpt lat="45.9255" lon="1.82691">
        <ele>652.87</ele>
        <time>2026-05-05T09:24:51Z</time>
      </trkpt>
      <trkpt lat="45.9253" lon="1.827">
        <ele>651.43</ele>
        <time>2026-05-05T09:25:06Z</time>
      </trkpt>
      <trkpt lat="45.9252" lon="1.82718">
        <ele>652.87</ele>
        <time>2026-05-05T09:25:18Z</time>
      </trkpt>
      <trkpt lat="45.92517" lon="1.82724">
        <ele>652.87</ele>
        <time>2026-05-05T09:25:22Z</time>
      </trkpt>
      <trkpt lat="45.92512" lon="1.82731">
        <ele>651.91</ele>
        <time>2026-05-05T09:25:27Z</time>
      </trkpt>
      <trkpt lat="45.92511" lon="1.82742">
        <ele>651.91</ele>
        <time>2026-05-05T09:25:31Z</time>
      </trkpt>
      <trkpt lat="45.92507" lon="1.82771">
        <ele>650.95</ele>
        <time>2026-05-05T09:25:44Z</time>
      </trkpt>
      <trkpt lat="45.92505" lon="1.82778">
        <ele>650.95</ele>
        <time>2026-05-05T09:25:49Z</time>
      </trkpt>
      <trkpt lat="45.92503" lon="1.82784">
        <ele>650.95</ele>
        <time>2026-05-05T09:25:52Z</time>
      </trkpt>
      <trkpt lat="45.92503" lon="1.82786">
        <ele>650.95</ele>
        <time>2026-05-05T09:25:53Z</time>
      </trkpt>
      <trkpt lat="45.92502" lon="1.82788">
        <ele>650.95</ele>
        <time>2026-05-05T09:25:54Z</time>
      </trkpt>
      <trkpt lat="45.92502" lon="1.8279">
        <ele>650.47</ele>
        <time>2026-05-05T09:25:55Z</time>
      </trkpt>
      <trkpt lat="45.92501" lon="1.82792">
        <ele>650.47</ele>
        <time>2026-05-05T09:25:56Z</time>
      </trkpt>
      <trkpt lat="45.925" lon="1.82794">
        <ele>650.47</ele>
        <time>2026-05-05T09:25:57Z</time>
      </trkpt>
      <trkpt lat="45.92492" lon="1.82812">
        <ele>649.99</ele>
        <time>2026-05-05T09:26:10Z</time>
      </trkpt>
      <trkpt lat="45.92486" lon="1.8282">
        <ele>650.47</ele>
        <time>2026-05-05T09:26:17Z</time>
      </trkpt>
      <trkpt lat="45.92486" lon="1.82822">
        <ele>650.47</ele>
        <time>2026-05-05T09:26:18Z</time>
      </trkpt>
      <trkpt lat="45.92479" lon="1.82828">
        <ele>649.99</ele>
        <time>2026-05-05T09:26:27Z</time>
      </trkpt>
      <trkpt lat="45.92478" lon="1.82836">
        <ele>649.99</ele>
        <time>2026-05-05T09:26:32Z</time>
      </trkpt>
      <trkpt lat="45.9247" lon="1.8286">
        <ele>649.99</ele>
        <time>2026-05-05T09:26:46Z</time>
      </trkpt>
      <trkpt lat="45.92466" lon="1.82869">
        <ele>649.99</ele>
        <time>2026-05-05T09:26:52Z</time>
      </trkpt>
      <trkpt lat="45.92465" lon="1.82871">
        <ele>651.43</ele>
        <time>2026-05-05T09:26:53Z</time>
      </trkpt>
      <trkpt lat="45.92465" lon="1.82873">
        <ele>651.43</ele>
        <time>2026-05-05T09:26:54Z</time>
      </trkpt>
      <trkpt lat="45.92457" lon="1.82894">
        <ele>651.43</ele>
        <time>2026-05-05T09:27:08Z</time>
      </trkpt>
      <trkpt lat="45.92446" lon="1.82913">
        <ele>651.43</ele>
        <time>2026-05-05T09:27:18Z</time>
      </trkpt>
      <trkpt lat="45.92445" lon="1.82915">
        <ele>651.43</ele>
        <time>2026-05-05T09:27:19Z</time>
      </trkpt>
      <trkpt lat="45.92429" lon="1.82935">
        <ele>649.99</ele>
        <time>2026-05-05T09:27:34Z</time>
      </trkpt>
      <trkpt lat="45.92412" lon="1.82963">
        <ele>649.03</ele>
        <time>2026-05-05T09:27:49Z</time>
      </trkpt>
      <trkpt lat="45.92409" lon="1.82964">
        <ele>649.03</ele>
        <time>2026-05-05T09:28:07Z</time>
      </trkpt>
      <trkpt lat="45.92402" lon="1.82974">
        <ele>649.03</ele>
        <time>2026-05-05T09:28:26Z</time>
      </trkpt>
      <trkpt lat="45.92388" lon="1.82991">
        <ele>648.07</ele>
        <time>2026-05-05T09:28:39Z</time>
      </trkpt>
      <trkpt lat="45.92376" lon="1.83004">
        <ele>648.07</ele>
        <time>2026-05-05T09:28:52Z</time>
      </trkpt>
      <trkpt lat="45.9237" lon="1.83009">
        <ele>648.07</ele>
        <time>2026-05-05T09:28:59Z</time>
      </trkpt>
      <trkpt lat="45.9237" lon="1.8301">
        <ele>648.07</ele>
        <time>2026-05-05T09:29:00Z</time>
      </trkpt>
      <trkpt lat="45.92368" lon="1.83012">
        <ele>648.07</ele>
        <time>2026-05-05T09:29:01Z</time>
      </trkpt>
      <trkpt lat="45.92356" lon="1.83022">
        <ele>648.07</ele>
        <time>2026-05-05T09:29:13Z</time>
      </trkpt>
      <trkpt lat="45.92341" lon="1.83029">
        <ele>648.07</ele>
        <time>2026-05-05T09:29:26Z</time>
      </trkpt>
      <trkpt lat="45.92332" lon="1.83034">
        <ele>648.07</ele>
        <time>2026-05-05T09:29:34Z</time>
      </trkpt>
      <trkpt lat="45.92329" lon="1.83034">
        <ele>648.07</ele>
        <time>2026-05-05T09:29:35Z</time>
      </trkpt>
      <trkpt lat="45.92327" lon="1.83034">
        <ele>648.07</ele>
        <time>2026-05-05T09:29:36Z</time>
      </trkpt>
      <trkpt lat="45.92316" lon="1.83039">
        <ele>649.03</ele>
        <time>2026-05-05T09:29:44Z</time>
      </trkpt>
      <trkpt lat="45.92313" lon="1.83043">
        <ele>649.03</ele>
        <time>2026-05-05T09:29:46Z</time>
      </trkpt>
      <trkpt lat="45.92311" lon="1.83044">
        <ele>649.03</ele>
        <time>2026-05-05T09:29:47Z</time>
      </trkpt>
      <trkpt lat="45.92309" lon="1.83045">
        <ele>649.03</ele>
        <time>2026-05-05T09:29:48Z</time>
      </trkpt>
      <trkpt lat="45.92308" lon="1.83046">
        <ele>649.03</ele>
        <time>2026-05-05T09:29:49Z</time>
      </trkpt>
      <trkpt lat="45.92307" lon="1.83047">
        <ele>649.03</ele>
        <time>2026-05-05T09:29:50Z</time>
      </trkpt>
      <trkpt lat="45.92305" lon="1.83048">
        <ele>649.03</ele>
        <time>2026-05-05T09:29:51Z</time>
      </trkpt>
      <trkpt lat="45.92302" lon="1.83051">
        <ele>649.03</ele>
        <time>2026-05-05T09:29:56Z</time>
      </trkpt>
      <trkpt lat="45.92298" lon="1.83054">
        <ele>649.03</ele>
        <time>2026-05-05T09:29:59Z</time>
      </trkpt>
      <trkpt lat="45.92297" lon="1.83054">
        <ele>649.03</ele>
        <time>2026-05-05T09:30:00Z</time>
      </trkpt>
      <trkpt lat="45.92282" lon="1.83062">
        <ele>649.03</ele>
        <time>2026-05-05T09:30:12Z</time>
      </trkpt>
      <trkpt lat="45.92271" lon="1.83072">
        <ele>649.51</ele>
        <time>2026-05-05T09:30:22Z</time>
      </trkpt>
      <trkpt lat="45.92269" lon="1.83073">
        <ele>649.51</ele>
        <time>2026-05-05T09:30:23Z</time>
      </trkpt>
      <trkpt lat="45.92252" lon="1.83086">
        <ele>649.51</ele>
        <time>2026-05-05T09:30:38Z</time>
      </trkpt>
      <trkpt lat="45.92244" lon="1.83112">
        <ele>650.47</ele>
        <time>2026-05-05T09:30:54Z</time>
      </trkpt>
      <trkpt lat="45.92235" lon="1.83135">
        <ele>650.95</ele>
        <time>2026-05-05T09:31:05Z</time>
      </trkpt>
      <trkpt lat="45.92231" lon="1.83156">
        <ele>651.91</ele>
        <time>2026-05-05T09:31:19Z</time>
      </trkpt>
      <trkpt lat="45.92231" lon="1.83165">
        <ele>651.91</ele>
        <time>2026-05-05T09:31:23Z</time>
      </trkpt>
      <trkpt lat="45.92228" lon="1.83188">
        <ele>652.87</ele>
        <time>2026-05-05T09:31:33Z</time>
      </trkpt>
      <trkpt lat="45.92227" lon="1.83189">
        <ele>652.87</ele>
        <time>2026-05-05T09:31:34Z</time>
      </trkpt>
      <trkpt lat="45.92221" lon="1.83195">
        <ele>653.35</ele>
        <time>2026-05-05T09:31:40Z</time>
      </trkpt>
      <trkpt lat="45.9222" lon="1.83197">
        <ele>653.35</ele>
        <time>2026-05-05T09:31:41Z</time>
      </trkpt>
      <trkpt lat="45.92218" lon="1.83198">
        <ele>653.35</ele>
        <time>2026-05-05T09:31:42Z</time>
      </trkpt>
      <trkpt lat="45.92217" lon="1.83199">
        <ele>653.35</ele>
        <time>2026-05-05T09:31:43Z</time>
      </trkpt>
      <trkpt lat="45.92215" lon="1.832">
        <ele>653.35</ele>
        <time>2026-05-05T09:31:44Z</time>
      </trkpt>
      <trkpt lat="45.92213" lon="1.83201">
        <ele>653.35</ele>
        <time>2026-05-05T09:31:45Z</time>
      </trkpt>
      <trkpt lat="45.92205" lon="1.8321">
        <ele>653.83</ele>
        <time>2026-05-05T09:31:54Z</time>
      </trkpt>
      <trkpt lat="45.92203" lon="1.83211">
        <ele>653.83</ele>
        <time>2026-05-05T09:31:55Z</time>
      </trkpt>
      <trkpt lat="45.92202" lon="1.83212">
        <ele>653.83</ele>
        <time>2026-05-05T09:31:56Z</time>
      </trkpt>
      <trkpt lat="45.92193" lon="1.83226">
        <ele>654.31</ele>
        <time>2026-05-05T09:32:07Z</time>
      </trkpt>
      <trkpt lat="45.92192" lon="1.83228">
        <ele>654.31</ele>
        <time>2026-05-05T09:32:08Z</time>
      </trkpt>
      <trkpt lat="45.92191" lon="1.8323">
        <ele>654.31</ele>
        <time>2026-05-05T09:32:09Z</time>
      </trkpt>
      <trkpt lat="45.9219" lon="1.83231">
        <ele>654.31</ele>
        <time>2026-05-05T09:32:10Z</time>
      </trkpt>
      <trkpt lat="45.92188" lon="1.83233">
        <ele>654.31</ele>
        <time>2026-05-05T09:32:11Z</time>
      </trkpt>
      <trkpt lat="45.92187" lon="1.83236">
        <ele>654.31</ele>
        <time>2026-05-05T09:32:12Z</time>
      </trkpt>
      <trkpt lat="45.92185" lon="1.83237">
        <ele>654.31</ele>
        <time>2026-05-05T09:32:13Z</time>
      </trkpt>
      <trkpt lat="45.92174" lon="1.83259">
        <ele>655.28</ele>
        <time>2026-05-05T09:32:26Z</time>
      </trkpt>
      <trkpt lat="45.92168" lon="1.83276">
        <ele>655.76</ele>
        <time>2026-05-05T09:32:37Z</time>
      </trkpt>
      <trkpt lat="45.92165" lon="1.83286">
        <ele>655.76</ele>
        <time>2026-05-05T09:32:42Z</time>
      </trkpt>
      <trkpt lat="45.9216" lon="1.83314">
        <ele>656.72</ele>
        <time>2026-05-05T09:32:56Z</time>
      </trkpt>
      <trkpt lat="45.92159" lon="1.83329">
        <ele>657.2</ele>
        <time>2026-05-05T09:33:05Z</time>
      </trkpt>
      <trkpt lat="45.92158" lon="1.83331">
        <ele>657.2</ele>
        <time>2026-05-05T09:33:06Z</time>
      </trkpt>
      <trkpt lat="45.92158" lon="1.83334">
        <ele>657.68</ele>
        <time>2026-05-05T09:33:07Z</time>
      </trkpt>
      <trkpt lat="45.92154" lon="1.83354">
        <ele>658.64</ele>
        <time>2026-05-05T09:33:18Z</time>
      </trkpt>
      <trkpt lat="45.92145" lon="1.8337">
        <ele>659.12</ele>
        <time>2026-05-05T09:33:31Z</time>
      </trkpt>
      <trkpt lat="45.92145" lon="1.83371">
        <ele>659.12</ele>
        <time>2026-05-05T09:33:32Z</time>
      </trkpt>
      <trkpt lat="45.92144" lon="1.83372">
        <ele>659.12</ele>
        <time>2026-05-05T09:33:33Z</time>
      </trkpt>
      <trkpt lat="45.92138" lon="1.8338">
        <ele>660.08</ele>
        <time>2026-05-05T09:33:39Z</time>
      </trkpt>
      <trkpt lat="45.92138" lon="1.83382">
        <ele>660.08</ele>
        <time>2026-05-05T09:33:40Z</time>
      </trkpt>
      <trkpt lat="45.92137" lon="1.83383">
        <ele>660.08</ele>
        <time>2026-05-05T09:33:41Z</time>
      </trkpt>
      <trkpt lat="45.92136" lon="1.83385">
        <ele>660.08</ele>
        <time>2026-05-05T09:33:42Z</time>
      </trkpt>
      <trkpt lat="45.92134" lon="1.83386">
        <ele>660.08</ele>
        <time>2026-05-05T09:33:43Z</time>
      </trkpt>
      <trkpt lat="45.92132" lon="1.8339">
        <ele>660.56</ele>
        <time>2026-05-05T09:33:47Z</time>
      </trkpt>
      <trkpt lat="45.92131" lon="1.8339">
        <ele>660.56</ele>
        <time>2026-05-05T09:33:48Z</time>
      </trkpt>
      <trkpt lat="45.92129" lon="1.83391">
        <ele>660.56</ele>
        <time>2026-05-05T09:33:49Z</time>
      </trkpt>
      <trkpt lat="45.92115" lon="1.83393">
        <ele>662.01</ele>
        <time>2026-05-05T09:34:00Z</time>
      </trkpt>
      <trkpt lat="45.921" lon="1.83397">
        <ele>662.49</ele>
        <time>2026-05-05T09:34:13Z</time>
      </trkpt>
      <trkpt lat="45.9208" lon="1.83403">
        <ele>662.01</ele>
        <time>2026-05-05T09:34:28Z</time>
      </trkpt>
      <trkpt lat="45.92063" lon="1.8341">
        <ele>662.97</ele>
        <time>2026-05-05T09:34:41Z</time>
      </trkpt>
      <trkpt lat="45.9205" lon="1.83416">
        <ele>663.45</ele>
        <time>2026-05-05T09:34:53Z</time>
      </trkpt>
      <trkpt lat="45.92049" lon="1.83418">
        <ele>663.45</ele>
        <time>2026-05-05T09:34:54Z</time>
      </trkpt>
      <trkpt lat="45.92048" lon="1.83419">
        <ele>663.45</ele>
        <time>2026-05-05T09:34:55Z</time>
      </trkpt>
      <trkpt lat="45.92047" lon="1.8342">
        <ele>663.45</ele>
        <time>2026-05-05T09:34:56Z</time>
      </trkpt>
      <trkpt lat="45.92045" lon="1.8342">
        <ele>663.45</ele>
        <time>2026-05-05T09:34:57Z</time>
      </trkpt>
      <trkpt lat="45.92031" lon="1.8343">
        <ele>663.45</ele>
        <time>2026-05-05T09:35:09Z</time>
      </trkpt>
      <trkpt lat="45.92029" lon="1.83432">
        <ele>663.45</ele>
        <time>2026-05-05T09:35:12Z</time>
      </trkpt>
      <trkpt lat="45.92027" lon="1.83433">
        <ele>663.45</ele>
        <time>2026-05-05T09:35:13Z</time>
      </trkpt>
      <trkpt lat="45.92026" lon="1.83434">
        <ele>663.45</ele>
        <time>2026-05-05T09:35:14Z</time>
      </trkpt>
      <trkpt lat="45.92024" lon="1.83436">
        <ele>664.41</ele>
        <time>2026-05-05T09:35:15Z</time>
      </trkpt>
      <trkpt lat="45.92023" lon="1.83437">
        <ele>664.41</ele>
        <time>2026-05-05T09:35:16Z</time>
      </trkpt>
      <trkpt lat="45.92021" lon="1.83438">
        <ele>664.41</ele>
        <time>2026-05-05T09:35:17Z</time>
      </trkpt>
      <trkpt lat="45.9202" lon="1.83439">
        <ele>664.41</ele>
        <time>2026-05-05T09:35:18Z</time>
      </trkpt>
      <trkpt lat="45.92005" lon="1.83452">
        <ele>665.37</ele>
        <time>2026-05-05T09:35:31Z</time>
      </trkpt>
      <trkpt lat="45.91992" lon="1.83467">
        <ele>666.81</ele>
        <time>2026-05-05T09:35:45Z</time>
      </trkpt>
      <trkpt lat="45.9198" lon="1.83477">
        <ele>668.25</ele>
        <time>2026-05-05T09:35:56Z</time>
      </trkpt>
      <trkpt lat="45.91965" lon="1.83483">
        <ele>668.73</ele>
        <time>2026-05-05T09:36:08Z</time>
      </trkpt>
      <trkpt lat="45.91953" lon="1.8349">
        <ele>668.73</ele>
        <time>2026-05-05T09:36:20Z</time>
      </trkpt>
      <trkpt lat="45.91951" lon="1.8349">
        <ele>668.73</ele>
        <time>2026-05-05T09:36:36Z</time>
      </trkpt>
      <trkpt lat="45.9195" lon="1.8349">
        <ele>668.73</ele>
        <time>2026-05-05T09:36:37Z</time>
      </trkpt>
      <trkpt lat="45.91948" lon="1.8349">
        <ele>668.73</ele>
        <time>2026-05-05T09:36:38Z</time>
      </trkpt>
      <trkpt lat="45.91947" lon="1.8349">
        <ele>668.73</ele>
        <time>2026-05-05T09:36:39Z</time>
      </trkpt>
      <trkpt lat="45.91935" lon="1.83482">
        <ele>668.73</ele>
        <time>2026-05-05T09:36:53Z</time>
      </trkpt>
      <trkpt lat="45.91935" lon="1.83489">
        <ele>668.25</ele>
        <time>2026-05-05T09:37:05Z</time>
      </trkpt>
      <trkpt lat="45.91932" lon="1.83492">
        <ele>667.29</ele>
        <time>2026-05-05T09:37:18Z</time>
      </trkpt>
      <trkpt lat="45.91938" lon="1.83495">
        <ele>667.29</ele>
        <time>2026-05-05T09:37:36Z</time>
      </trkpt>
      <trkpt lat="45.91936" lon="1.83497">
        <ele>667.77</ele>
        <time>2026-05-05T09:37:54Z</time>
      </trkpt>
      <trkpt lat="45.91935" lon="1.83498">
        <ele>667.77</ele>
        <time>2026-05-05T09:37:55Z</time>
      </trkpt>
      <trkpt lat="45.9193" lon="1.83501">
        <ele>667.77</ele>
        <time>2026-05-05T09:37:59Z</time>
      </trkpt>
      <trkpt lat="45.91929" lon="1.83502">
        <ele>667.77</ele>
        <time>2026-05-05T09:38:00Z</time>
      </trkpt>
      <trkpt lat="45.91918" lon="1.83516">
        <ele>666.33</ele>
        <time>2026-05-05T09:38:13Z</time>
      </trkpt>
      <trkpt lat="45.91917" lon="1.83518">
        <ele>665.85</ele>
        <time>2026-05-05T09:38:14Z</time>
      </trkpt>
      <trkpt lat="45.91916" lon="1.83519">
        <ele>665.85</ele>
        <time>2026-05-05T09:38:15Z</time>
      </trkpt>
      <trkpt lat="45.91898" lon="1.83533">
        <ele>662.49</ele>
        <time>2026-05-05T09:38:29Z</time>
      </trkpt>
      <trkpt lat="45.91874" lon="1.83539">
        <ele>659.6</ele>
        <time>2026-05-05T09:38:46Z</time>
      </trkpt>
      <trkpt lat="45.91856" lon="1.83543">
        <ele>656.24</ele>
        <time>2026-05-05T09:39:04Z</time>
      </trkpt>
      <trkpt lat="45.91847" lon="1.83546">
        <ele>654.8</ele>
        <time>2026-05-05T09:39:14Z</time>
      </trkpt>
      <trkpt lat="45.91846" lon="1.83546">
        <ele>654.8</ele>
        <time>2026-05-05T09:39:15Z</time>
      </trkpt>
      <trkpt lat="45.91837" lon="1.83545">
        <ele>653.83</ele>
        <time>2026-05-05T09:39:23Z</time>
      </trkpt>
      <trkpt lat="45.91832" lon="1.83545">
        <ele>652.87</ele>
        <time>2026-05-05T09:39:25Z</time>
      </trkpt>
      <trkpt lat="45.9183" lon="1.83546">
        <ele>652.87</ele>
        <time>2026-05-05T09:39:26Z</time>
      </trkpt>
      <trkpt lat="45.91804" lon="1.83549">
        <ele>650.95</ele>
        <time>2026-05-05T09:39:41Z</time>
      </trkpt>
      <trkpt lat="45.9178" lon="1.83552">
        <ele>649.99</ele>
        <time>2026-05-05T09:40:02Z</time>
      </trkpt>
      <trkpt lat="45.91771" lon="1.83556">
        <ele>649.51</ele>
        <time>2026-05-05T09:40:09Z</time>
      </trkpt>
      <trkpt lat="45.9177" lon="1.83557">
        <ele>649.51</ele>
        <time>2026-05-05T09:40:10Z</time>
      </trkpt>
      <trkpt lat="45.91768" lon="1.83559">
        <ele>649.51</ele>
        <time>2026-05-05T09:40:11Z</time>
      </trkpt>
      <trkpt lat="45.91748" lon="1.83572">
        <ele>649.51</ele>
        <time>2026-05-05T09:40:26Z</time>
      </trkpt>
      <trkpt lat="45.91731" lon="1.83581">
        <ele>649.03</ele>
        <time>2026-05-05T09:40:42Z</time>
      </trkpt>
      <trkpt lat="45.91709" lon="1.83589">
        <ele>649.03</ele>
        <time>2026-05-05T09:40:59Z</time>
      </trkpt>
      <trkpt lat="45.91688" lon="1.83584">
        <ele>649.03</ele>
        <time>2026-05-05T09:41:17Z</time>
      </trkpt>
      <trkpt lat="45.9166" lon="1.83591">
        <ele>650.95</ele>
        <time>2026-05-05T09:41:38Z</time>
      </trkpt>
      <trkpt lat="45.91637" lon="1.83603">
        <ele>652.87</ele>
        <time>2026-05-05T09:41:58Z</time>
      </trkpt>
      <trkpt lat="45.91626" lon="1.83635">
        <ele>655.28</ele>
        <time>2026-05-05T09:42:18Z</time>
      </trkpt>
      <trkpt lat="45.91624" lon="1.8364">
        <ele>655.28</ele>
        <time>2026-05-05T09:42:21Z</time>
      </trkpt>
      <trkpt lat="45.91615" lon="1.83663">
        <ele>657.2</ele>
        <time>2026-05-05T09:42:38Z</time>
      </trkpt>
      <trkpt lat="45.91612" lon="1.83667">
        <ele>657.68</ele>
        <time>2026-05-05T09:42:41Z</time>
      </trkpt>
      <trkpt lat="45.91611" lon="1.83669">
        <ele>657.68</ele>
        <time>2026-05-05T09:42:42Z</time>
      </trkpt>
      <trkpt lat="45.91609" lon="1.83672">
        <ele>658.16</ele>
        <time>2026-05-05T09:42:45Z</time>
      </trkpt>
      <trkpt lat="45.91608" lon="1.83674">
        <ele>658.16</ele>
        <time>2026-05-05T09:42:46Z</time>
      </trkpt>
      <trkpt lat="45.91594" lon="1.837">
        <ele>660.08</ele>
        <time>2026-05-05T09:43:03Z</time>
      </trkpt>
      <trkpt lat="45.91581" lon="1.83717">
        <ele>662.49</ele>
        <time>2026-05-05T09:43:19Z</time>
      </trkpt>
      <trkpt lat="45.91576" lon="1.83737">
        <ele>664.89</ele>
        <time>2026-05-05T09:43:35Z</time>
      </trkpt>
      <trkpt lat="45.91576" lon="1.83738">
        <ele>664.89</ele>
        <time>2026-05-05T09:43:36Z</time>
      </trkpt>
      <trkpt lat="45.91576" lon="1.8374">
        <ele>664.89</ele>
        <time>2026-05-05T09:43:37Z</time>
      </trkpt>
      <trkpt lat="45.91576" lon="1.8375">
        <ele>666.33</ele>
        <time>2026-05-05T09:43:43Z</time>
      </trkpt>
      <trkpt lat="45.91576" lon="1.83752">
        <ele>666.33</ele>
        <time>2026-05-05T09:43:44Z</time>
      </trkpt>
      <trkpt lat="45.91576" lon="1.83754">
        <ele>666.33</ele>
        <time>2026-05-05T09:43:45Z</time>
      </trkpt>
      <trkpt lat="45.91576" lon="1.83756">
        <ele>666.33</ele>
        <time>2026-05-05T09:43:46Z</time>
      </trkpt>
      <trkpt lat="45.91574" lon="1.83761">
        <ele>666.81</ele>
        <time>2026-05-05T09:43:50Z</time>
      </trkpt>
      <trkpt lat="45.91573" lon="1.83763">
        <ele>667.29</ele>
        <time>2026-05-05T09:43:51Z</time>
      </trkpt>
      <trkpt lat="45.91573" lon="1.83772">
        <ele>668.25</ele>
        <time>2026-05-05T09:44:05Z</time>
      </trkpt>
      <trkpt lat="45.91571" lon="1.83779">
        <ele>669.22</ele>
        <time>2026-05-05T09:44:19Z</time>
      </trkpt>
      <trkpt lat="45.91569" lon="1.83789">
        <ele>669.7</ele>
        <time>2026-05-05T09:44:30Z</time>
      </trkpt>
      <trkpt lat="45.91565" lon="1.83794">
        <ele>670.18</ele>
        <time>2026-05-05T09:44:34Z</time>
      </trkpt>
      <trkpt lat="45.91557" lon="1.83816">
        <ele>672.1</ele>
        <time>2026-05-05T09:44:50Z</time>
      </trkpt>
      <trkpt lat="45.91555" lon="1.83822">
        <ele>673.06</ele>
        <time>2026-05-05T09:44:56Z</time>
      </trkpt>
      <trkpt lat="45.9155" lon="1.83853">
        <ele>674.98</ele>
        <time>2026-05-05T09:45:13Z</time>
      </trkpt>
      <trkpt lat="45.91543" lon="1.83883">
        <ele>675.94</ele>
        <time>2026-05-05T09:45:31Z</time>
      </trkpt>
      <trkpt lat="45.91531" lon="1.8391">
        <ele>678.35</ele>
        <time>2026-05-05T09:45:48Z</time>
      </trkpt>
      <trkpt lat="45.91516" lon="1.83936">
        <ele>679.31</ele>
        <time>2026-05-05T09:46:06Z</time>
      </trkpt>
      <trkpt lat="45.91502" lon="1.83966">
        <ele>679.79</ele>
        <time>2026-05-05T09:46:24Z</time>
      </trkpt>
      <trkpt lat="45.91501" lon="1.83969">
        <ele>679.79</ele>
        <time>2026-05-05T09:46:25Z</time>
      </trkpt>
      <trkpt lat="45.91488" lon="1.83988">
        <ele>679.79</ele>
        <time>2026-05-05T09:46:38Z</time>
      </trkpt>
      <trkpt lat="45.91477" lon="1.84009">
        <ele>679.79</ele>
        <time>2026-05-05T09:46:52Z</time>
      </trkpt>
      <trkpt lat="45.91475" lon="1.84011">
        <ele>679.79</ele>
        <time>2026-05-05T09:46:54Z</time>
      </trkpt>
      <trkpt lat="45.91473" lon="1.84012">
        <ele>679.79</ele>
        <time>2026-05-05T09:46:55Z</time>
      </trkpt>
      <trkpt lat="45.91472" lon="1.84014">
        <ele>679.79</ele>
        <time>2026-05-05T09:46:56Z</time>
      </trkpt>
      <trkpt lat="45.91471" lon="1.84015">
        <ele>679.79</ele>
        <time>2026-05-05T09:46:57Z</time>
      </trkpt>
      <trkpt lat="45.9147" lon="1.84015">
        <ele>679.79</ele>
        <time>2026-05-05T09:46:58Z</time>
      </trkpt>
      <trkpt lat="45.91453" lon="1.8403">
        <ele>678.83</ele>
        <time>2026-05-05T09:47:14Z</time>
      </trkpt>
      <trkpt lat="45.91444" lon="1.84052">
        <ele>678.83</ele>
        <time>2026-05-05T09:47:27Z</time>
      </trkpt>
      <trkpt lat="45.91436" lon="1.84054">
        <ele>678.83</ele>
        <time>2026-05-05T09:47:32Z</time>
      </trkpt>
      <trkpt lat="45.91435" lon="1.84055">
        <ele>679.31</ele>
        <time>2026-05-05T09:47:33Z</time>
      </trkpt>
      <trkpt lat="45.91429" lon="1.84059">
        <ele>679.31</ele>
        <time>2026-05-05T09:47:38Z</time>
      </trkpt>
      <trkpt lat="45.91428" lon="1.8406">
        <ele>679.31</ele>
        <time>2026-05-05T09:47:39Z</time>
      </trkpt>
      <trkpt lat="45.91427" lon="1.84062">
        <ele>679.31</ele>
        <time>2026-05-05T09:47:40Z</time>
      </trkpt>
      <trkpt lat="45.91412" lon="1.84083">
        <ele>679.31</ele>
        <time>2026-05-05T09:47:53Z</time>
      </trkpt>
      <trkpt lat="45.91407" lon="1.84093">
        <ele>679.31</ele>
        <time>2026-05-05T09:48:00Z</time>
      </trkpt>
      <trkpt lat="45.91406" lon="1.84094">
        <ele>679.31</ele>
        <time>2026-05-05T09:48:01Z</time>
      </trkpt>
      <trkpt lat="45.91405" lon="1.84095">
        <ele>679.31</ele>
        <time>2026-05-05T09:48:02Z</time>
      </trkpt>
      <trkpt lat="45.91396" lon="1.84103">
        <ele>680.27</ele>
        <time>2026-05-05T09:48:11Z</time>
      </trkpt>
      <trkpt lat="45.91395" lon="1.84105">
        <ele>680.27</ele>
        <time>2026-05-05T09:48:12Z</time>
      </trkpt>
      <trkpt lat="45.91387" lon="1.84117">
        <ele>680.75</ele>
        <time>2026-05-05T09:48:21Z</time>
      </trkpt>
      <trkpt lat="45.91386" lon="1.84119">
        <ele>680.75</ele>
        <time>2026-05-05T09:48:22Z</time>
      </trkpt>
      <trkpt lat="45.91385" lon="1.84121">
        <ele>680.75</ele>
        <time>2026-05-05T09:48:23Z</time>
      </trkpt>
      <trkpt lat="45.91384" lon="1.84123">
        <ele>680.75</ele>
        <time>2026-05-05T09:48:24Z</time>
      </trkpt>
      <trkpt lat="45.91384" lon="1.84125">
        <ele>680.75</ele>
        <time>2026-05-05T09:48:25Z</time>
      </trkpt>
      <trkpt lat="45.91375" lon="1.84136">
        <ele>681.23</ele>
        <time>2026-05-05T09:48:34Z</time>
      </trkpt>
      <trkpt lat="45.9136" lon="1.84146">
        <ele>679.79</ele>
        <time>2026-05-05T09:48:45Z</time>
      </trkpt>
      <trkpt lat="45.91358" lon="1.84147">
        <ele>679.79</ele>
        <time>2026-05-05T09:48:46Z</time>
      </trkpt>
      <trkpt lat="45.91345" lon="1.84157">
        <ele>679.31</ele>
        <time>2026-05-05T09:48:57Z</time>
      </trkpt>
      <trkpt lat="45.9133" lon="1.84171">
        <ele>677.87</ele>
        <time>2026-05-05T09:49:11Z</time>
      </trkpt>
      <trkpt lat="45.91316" lon="1.84195">
        <ele>675.46</ele>
        <time>2026-05-05T09:49:28Z</time>
      </trkpt>
      <trkpt lat="45.91314" lon="1.84198">
        <ele>675.46</ele>
        <time>2026-05-05T09:49:30Z</time>
      </trkpt>
      <trkpt lat="45.91313" lon="1.84199">
        <ele>675.46</ele>
        <time>2026-05-05T09:49:31Z</time>
      </trkpt>
      <trkpt lat="45.91305" lon="1.84216">
        <ele>672.58</ele>
        <time>2026-05-05T09:49:44Z</time>
      </trkpt>
      <trkpt lat="45.91291" lon="1.84231">
        <ele>669.7</ele>
        <time>2026-05-05T09:49:57Z</time>
      </trkpt>
      <trkpt lat="45.91289" lon="1.84232">
        <ele>669.7</ele>
        <time>2026-05-05T09:49:58Z</time>
      </trkpt>
      <trkpt lat="45.91286" lon="1.84234">
        <ele>669.7</ele>
        <time>2026-05-05T09:50:00Z</time>
      </trkpt>
      <trkpt lat="45.91285" lon="1.84236">
        <ele>669.7</ele>
        <time>2026-05-05T09:50:01Z</time>
      </trkpt>
      <trkpt lat="45.91282" lon="1.8424">
        <ele>669.7</ele>
        <time>2026-05-05T09:50:16Z</time>
      </trkpt>
      <trkpt lat="45.91286" lon="1.84239">
        <ele>668.73</ele>
        <time>2026-05-05T09:50:31Z</time>
      </trkpt>
      <trkpt lat="45.91287" lon="1.84247">
        <ele>668.73</ele>
        <time>2026-05-05T09:51:02Z</time>
      </trkpt>
      <trkpt lat="45.91287" lon="1.84246">
        <ele>668.73</ele>
        <time>2026-05-05T09:51:45Z</time>
      </trkpt>
      <trkpt lat="45.91288" lon="1.84243">
        <ele>668.73</ele>
        <time>2026-05-05T09:52:19Z</time>
      </trkpt>
      <trkpt lat="45.91282" lon="1.84245">
        <ele>668.73</ele>
        <time>2026-05-05T09:52:33Z</time>
      </trkpt>
      <trkpt lat="45.91285" lon="1.84246">
        <ele>668.73</ele>
        <time>2026-05-05T09:52:57Z</time>
      </trkpt>
      <trkpt lat="45.91284" lon="1.84254">
        <ele>668.73</ele>
        <time>2026-05-05T09:53:32Z</time>
      </trkpt>
      <trkpt lat="45.91283" lon="1.8424">
        <ele>668.25</ele>
        <time>2026-05-05T09:53:52Z</time>
      </trkpt>
      <trkpt lat="45.91281" lon="1.84237">
        <ele>668.25</ele>
        <time>2026-05-05T09:54:18Z</time>
      </trkpt>
      <trkpt lat="45.91282" lon="1.84235">
        <ele>667.77</ele>
        <time>2026-05-05T09:54:25Z</time>
      </trkpt>
      <trkpt lat="45.91283" lon="1.84234">
        <ele>668.73</ele>
        <time>2026-05-05T09:54:30Z</time>
      </trkpt>
      <trkpt lat="45.91282" lon="1.84249">
        <ele>668.73</ele>
        <time>2026-05-05T09:54:52Z</time>
      </trkpt>
      <trkpt lat="45.91285" lon="1.84242">
        <ele>668.73</ele>
        <time>2026-05-05T09:55:22Z</time>
      </trkpt>
      <trkpt lat="45.91279" lon="1.84256">
        <ele>668.73</ele>
        <time>2026-05-05T09:55:45Z</time>
      </trkpt>
      <trkpt lat="45.91281" lon="1.84258">
        <ele>667.29</ele>
        <time>2026-05-05T09:55:55Z</time>
      </trkpt>
      <trkpt lat="45.91282" lon="1.84257">
        <ele>668.73</ele>
        <time>2026-05-05T09:55:57Z</time>
      </trkpt>
      <trkpt lat="45.91278" lon="1.84255">
        <ele>667.29</ele>
        <time>2026-05-05T09:56:03Z</time>
      </trkpt>
      <trkpt lat="45.91278" lon="1.84258">
        <ele>667.29</ele>
        <time>2026-05-05T09:56:05Z</time>
      </trkpt>
      <trkpt lat="45.91277" lon="1.84277">
        <ele>665.37</ele>
        <time>2026-05-05T09:56:18Z</time>
      </trkpt>
      <trkpt lat="45.91267" lon="1.84294">
        <ele>663.93</ele>
        <time>2026-05-05T09:56:34Z</time>
      </trkpt>
      <trkpt lat="45.91258" lon="1.84312">
        <ele>663.45</ele>
        <time>2026-05-05T09:56:46Z</time>
      </trkpt>
      <trkpt lat="45.9125" lon="1.84324">
        <ele>663.45</ele>
        <time>2026-05-05T09:56:56Z</time>
      </trkpt>
      <trkpt lat="45.9124" lon="1.84333">
        <ele>662.49</ele>
        <time>2026-05-05T09:57:06Z</time>
      </trkpt>
      <trkpt lat="45.91239" lon="1.84334">
        <ele>662.49</ele>
        <time>2026-05-05T09:57:07Z</time>
      </trkpt>
      <trkpt lat="45.91238" lon="1.84336">
        <ele>662.49</ele>
        <time>2026-05-05T09:57:08Z</time>
      </trkpt>
      <trkpt lat="45.91227" lon="1.84359">
        <ele>662.49</ele>
        <time>2026-05-05T09:57:23Z</time>
      </trkpt>
      <trkpt lat="45.91217" lon="1.84378">
        <ele>661.52</ele>
        <time>2026-05-05T09:57:37Z</time>
      </trkpt>
      <trkpt lat="45.91208" lon="1.84398">
        <ele>660.56</ele>
        <time>2026-05-05T09:57:49Z</time>
      </trkpt>
      <trkpt lat="45.91194" lon="1.84419">
        <ele>660.56</ele>
        <time>2026-05-05T09:58:03Z</time>
      </trkpt>
      <trkpt lat="45.91192" lon="1.8442">
        <ele>660.08</ele>
        <time>2026-05-05T09:58:05Z</time>
      </trkpt>
      <trkpt lat="45.9119" lon="1.84422">
        <ele>660.08</ele>
        <time>2026-05-05T09:58:06Z</time>
      </trkpt>
      <trkpt lat="45.91189" lon="1.84423">
        <ele>660.08</ele>
        <time>2026-05-05T09:58:07Z</time>
      </trkpt>
      <trkpt lat="45.91184" lon="1.84429">
        <ele>660.08</ele>
        <time>2026-05-05T09:58:11Z</time>
      </trkpt>
      <trkpt lat="45.91177" lon="1.84435">
        <ele>659.6</ele>
        <time>2026-05-05T09:58:17Z</time>
      </trkpt>
      <trkpt lat="45.91176" lon="1.84436">
        <ele>659.6</ele>
        <time>2026-05-05T09:58:18Z</time>
      </trkpt>
      <trkpt lat="45.91174" lon="1.84438">
        <ele>659.6</ele>
        <time>2026-05-05T09:58:20Z</time>
      </trkpt>
      <trkpt lat="45.91173" lon="1.84439">
        <ele>659.6</ele>
        <time>2026-05-05T09:58:21Z</time>
      </trkpt>
      <trkpt lat="45.91172" lon="1.8444">
        <ele>659.6</ele>
        <time>2026-05-05T09:58:22Z</time>
      </trkpt>
      <trkpt lat="45.9117" lon="1.84441">
        <ele>659.6</ele>
        <time>2026-05-05T09:58:23Z</time>
      </trkpt>
      <trkpt lat="45.91158" lon="1.84451">
        <ele>659.6</ele>
        <time>2026-05-05T09:58:34Z</time>
      </trkpt>
      <trkpt lat="45.91143" lon="1.84462">
        <ele>658.64</ele>
        <time>2026-05-05T09:58:47Z</time>
      </trkpt>
      <trkpt lat="45.91129" lon="1.84469">
        <ele>658.16</ele>
        <time>2026-05-05T09:58:59Z</time>
      </trkpt>
      <trkpt lat="45.91109" lon="1.84474">
        <ele>658.16</ele>
        <time>2026-05-05T09:59:13Z</time>
      </trkpt>
      <trkpt lat="45.91104" lon="1.84477">
        <ele>658.16</ele>
        <time>2026-05-05T09:59:17Z</time>
      </trkpt>
      <trkpt lat="45.91103" lon="1.84477">
        <ele>658.16</ele>
        <time>2026-05-05T09:59:18Z</time>
      </trkpt>
      <trkpt lat="45.91102" lon="1.84477">
        <ele>658.16</ele>
        <time>2026-05-05T09:59:19Z</time>
      </trkpt>
      <trkpt lat="45.911" lon="1.84477">
        <ele>658.16</ele>
        <time>2026-05-05T09:59:20Z</time>
      </trkpt>
      <trkpt lat="45.91098" lon="1.84477">
        <ele>658.16</ele>
        <time>2026-05-05T09:59:22Z</time>
      </trkpt>
      <trkpt lat="45.91095" lon="1.84478">
        <ele>657.68</ele>
        <time>2026-05-05T09:59:24Z</time>
      </trkpt>
      <trkpt lat="45.91094" lon="1.84478">
        <ele>657.68</ele>
        <time>2026-05-05T09:59:25Z</time>
      </trkpt>
      <trkpt lat="45.91089" lon="1.8448">
        <ele>657.68</ele>
        <time>2026-05-05T09:59:28Z</time>
      </trkpt>
      <trkpt lat="45.91073" lon="1.84483">
        <ele>657.68</ele>
        <time>2026-05-05T09:59:42Z</time>
      </trkpt>
      <trkpt lat="45.9107" lon="1.84484">
        <ele>657.68</ele>
        <time>2026-05-05T09:59:44Z</time>
      </trkpt>
      <trkpt lat="45.91068" lon="1.84486">
        <ele>657.68</ele>
        <time>2026-05-05T09:59:45Z</time>
      </trkpt>
      <trkpt lat="45.9106" lon="1.8449">
        <ele>657.68</ele>
        <time>2026-05-05T09:59:52Z</time>
      </trkpt>
      <trkpt lat="45.91059" lon="1.8449">
        <ele>657.68</ele>
        <time>2026-05-05T09:59:53Z</time>
      </trkpt>
      <trkpt lat="45.91046" lon="1.84493">
        <ele>657.68</ele>
        <time>2026-05-05T10:00:02Z</time>
      </trkpt>
      <trkpt lat="45.91041" lon="1.84494">
        <ele>657.2</ele>
        <time>2026-05-05T10:00:07Z</time>
      </trkpt>
      <trkpt lat="45.91039" lon="1.84494">
        <ele>657.2</ele>
        <time>2026-05-05T10:00:08Z</time>
      </trkpt>
      <trkpt lat="45.91038" lon="1.84494">
        <ele>657.2</ele>
        <time>2026-05-05T10:00:09Z</time>
      </trkpt>
      <trkpt lat="45.91037" lon="1.84495">
        <ele>657.2</ele>
        <time>2026-05-05T10:00:10Z</time>
      </trkpt>
      <trkpt lat="45.91035" lon="1.84495">
        <ele>657.2</ele>
        <time>2026-05-05T10:00:11Z</time>
      </trkpt>
      <trkpt lat="45.91034" lon="1.84495">
        <ele>657.2</ele>
        <time>2026-05-05T10:00:12Z</time>
      </trkpt>
      <trkpt lat="45.91032" lon="1.84495">
        <ele>657.2</ele>
        <time>2026-05-05T10:00:13Z</time>
      </trkpt>
      <trkpt lat="45.91015" lon="1.84501">
        <ele>656.24</ele>
        <time>2026-05-05T10:00:27Z</time>
      </trkpt>
      <trkpt lat="45.91013" lon="1.84501">
        <ele>656.24</ele>
        <time>2026-05-05T10:00:28Z</time>
      </trkpt>
      <trkpt lat="45.91012" lon="1.84502">
        <ele>656.24</ele>
        <time>2026-05-05T10:00:29Z</time>
      </trkpt>
      <trkpt lat="45.9101" lon="1.84503">
        <ele>656.24</ele>
        <time>2026-05-05T10:00:30Z</time>
      </trkpt>
      <trkpt lat="45.91009" lon="1.84503">
        <ele>656.24</ele>
        <time>2026-05-05T10:00:31Z</time>
      </trkpt>
      <trkpt lat="45.91008" lon="1.84505">
        <ele>654.8</ele>
        <time>2026-05-05T10:00:33Z</time>
      </trkpt>
      <trkpt lat="45.91006" lon="1.84506">
        <ele>659.12</ele>
        <time>2026-05-05T10:00:34Z</time>
      </trkpt>
      <trkpt lat="45.91005" lon="1.84507">
        <ele>657.68</ele>
        <time>2026-05-05T10:00:35Z</time>
      </trkpt>
      <trkpt lat="45.90991" lon="1.84524">
        <ele>657.2</ele>
        <time>2026-05-05T10:00:50Z</time>
      </trkpt>
      <trkpt lat="45.90975" lon="1.8454">
        <ele>657.2</ele>
        <time>2026-05-05T10:01:07Z</time>
      </trkpt>
      <trkpt lat="45.90964" lon="1.84561">
        <ele>655.76</ele>
        <time>2026-05-05T10:01:33Z</time>
      </trkpt>
      <trkpt lat="45.90952" lon="1.84591">
        <ele>652.39</ele>
        <time>2026-05-05T10:01:56Z</time>
      </trkpt>
      <trkpt lat="45.90944" lon="1.84607">
        <ele>650.95</ele>
        <time>2026-05-05T10:02:07Z</time>
      </trkpt>
      <trkpt lat="45.90927" lon="1.84636">
        <ele>648.55</ele>
        <time>2026-05-05T10:02:24Z</time>
      </trkpt>
      <trkpt lat="45.90907" lon="1.84658">
        <ele>647.59</ele>
        <time>2026-05-05T10:02:38Z</time>
      </trkpt>
      <trkpt lat="45.90888" lon="1.8467">
        <ele>646.14</ele>
        <time>2026-05-05T10:02:57Z</time>
      </trkpt>
      <trkpt lat="45.90883" lon="1.84679">
        <ele>645.18</ele>
        <time>2026-05-05T10:03:04Z</time>
      </trkpt>
      <trkpt lat="45.90867" lon="1.84696">
        <ele>644.22</ele>
        <time>2026-05-05T10:03:21Z</time>
      </trkpt>
      <trkpt lat="45.90846" lon="1.84725">
        <ele>642.78</ele>
        <time>2026-05-05T10:03:42Z</time>
      </trkpt>
      <trkpt lat="45.90846" lon="1.84722">
        <ele>641.34</ele>
        <time>2026-05-05T10:03:54Z</time>
      </trkpt>
      <trkpt lat="45.90847" lon="1.84692">
        <ele>640.38</ele>
        <time>2026-05-05T10:04:14Z</time>
      </trkpt>
      <trkpt lat="45.90841" lon="1.84677">
        <ele>641.34</ele>
        <time>2026-05-05T10:04:33Z</time>
      </trkpt>
      <trkpt lat="45.90842" lon="1.84683">
        <ele>639.89</ele>
        <time>2026-05-05T10:05:04Z</time>
      </trkpt>
      <trkpt lat="45.9084" lon="1.84688">
        <ele>639.41</ele>
        <time>2026-05-05T10:05:27Z</time>
      </trkpt>
      <trkpt lat="45.90834" lon="1.84688">
        <ele>639.41</ele>
        <time>2026-05-05T10:05:49Z</time>
      </trkpt>
      <trkpt lat="45.90833" lon="1.8469">
        <ele>638.93</ele>
        <time>2026-05-05T10:06:08Z</time>
      </trkpt>
      <trkpt lat="45.90829" lon="1.84695">
        <ele>638.93</ele>
        <time>2026-05-05T10:06:28Z</time>
      </trkpt>
      <trkpt lat="45.90816" lon="1.84715">
        <ele>637.97</ele>
        <time>2026-05-05T10:08:35Z</time>
      </trkpt>
      <trkpt lat="45.90817" lon="1.84715">
        <ele>637.97</ele>
        <time>2026-05-05T10:08:36Z</time>
      </trkpt>
      <trkpt lat="45.90818" lon="1.84716">
        <ele>639.41</ele>
        <time>2026-05-05T10:08:38Z</time>
      </trkpt>
      <trkpt lat="45.90819" lon="1.84715">
        <ele>638.45</ele>
        <time>2026-05-05T10:08:40Z</time>
      </trkpt>
      <trkpt lat="45.90821" lon="1.84683">
        <ele>638.45</ele>
        <time>2026-05-05T10:09:02Z</time>
      </trkpt>
      <trkpt lat="45.90825" lon="1.84686">
        <ele>639.41</ele>
        <time>2026-05-05T10:09:19Z</time>
      </trkpt>
      <trkpt lat="45.90829" lon="1.84681">
        <ele>639.41</ele>
        <time>2026-05-05T10:09:38Z</time>
      </trkpt>
      <trkpt lat="45.90832" lon="1.84674">
        <ele>639.41</ele>
        <time>2026-05-05T10:10:05Z</time>
      </trkpt>
      <trkpt lat="45.90836" lon="1.84679">
        <ele>639.89</ele>
        <time>2026-05-05T10:10:36Z</time>
      </trkpt>
      <trkpt lat="45.90839" lon="1.84695">
        <ele>639.89</ele>
        <time>2026-05-05T10:11:10Z</time>
      </trkpt>
      <trkpt lat="45.90837" lon="1.84682">
        <ele>639.89</ele>
        <time>2026-05-05T10:11:39Z</time>
      </trkpt>
      <trkpt lat="45.9083" lon="1.84677">
        <ele>639.89</ele>
        <time>2026-05-05T10:12:07Z</time>
      </trkpt>
      <trkpt lat="45.90829" lon="1.84684">
        <ele>640.38</ele>
        <time>2026-05-05T10:12:35Z</time>
      </trkpt>
      <trkpt lat="45.90833" lon="1.84675">
        <ele>640.38</ele>
        <time>2026-05-05T10:13:05Z</time>
      </trkpt>
      <trkpt lat="45.90837" lon="1.84681">
        <ele>640.86</ele>
        <time>2026-05-05T10:13:34Z</time>
      </trkpt>
      <trkpt lat="45.90838" lon="1.8467">
        <ele>640.86</ele>
        <time>2026-05-05T10:13:59Z</time>
      </trkpt>
      <trkpt lat="45.90832" lon="1.84665">
        <ele>641.34</ele>
        <time>2026-05-05T10:14:21Z</time>
      </trkpt>
      <trkpt lat="45.90825" lon="1.84665">
        <ele>641.34</ele>
        <time>2026-05-05T10:14:51Z</time>
      </trkpt>
      <trkpt lat="45.90828" lon="1.84686">
        <ele>641.34</ele>
        <time>2026-05-05T10:15:17Z</time>
      </trkpt>
      <trkpt lat="45.90828" lon="1.84676">
        <ele>641.34</ele>
        <time>2026-05-05T10:15:45Z</time>
      </trkpt>
      <trkpt lat="45.90834" lon="1.84677">
        <ele>642.3</ele>
        <time>2026-05-05T10:16:07Z</time>
      </trkpt>
      <trkpt lat="45.90832" lon="1.84686">
        <ele>642.3</ele>
        <time>2026-05-05T10:16:26Z</time>
      </trkpt>
      <trkpt lat="45.90831" lon="1.84689">
        <ele>643.26</ele>
        <time>2026-05-05T10:16:45Z</time>
      </trkpt>
      <trkpt lat="45.90832" lon="1.8469">
        <ele>641.82</ele>
        <time>2026-05-05T10:16:53Z</time>
      </trkpt>
      <trkpt lat="45.90836" lon="1.84687">
        <ele>641.82</ele>
        <time>2026-05-05T10:17:14Z</time>
      </trkpt>
      <trkpt lat="45.90837" lon="1.84683">
        <ele>641.82</ele>
        <time>2026-05-05T10:17:38Z</time>
      </trkpt>
      <trkpt lat="45.90838" lon="1.84689">
        <ele>642.3</ele>
        <time>2026-05-05T10:17:48Z</time>
      </trkpt>
      <trkpt lat="45.90839" lon="1.84693">
        <ele>642.3</ele>
        <time>2026-05-05T10:17:51Z</time>
      </trkpt>
      <trkpt lat="45.90846" lon="1.84699">
        <ele>642.3</ele>
        <time>2026-05-05T10:18:02Z</time>
      </trkpt>
      <trkpt lat="45.90846" lon="1.84698">
        <ele>642.3</ele>
        <time>2026-05-05T10:18:03Z</time>
      </trkpt>
      <trkpt lat="45.90844" lon="1.84694">
        <ele>642.3</ele>
        <time>2026-05-05T10:18:06Z</time>
      </trkpt>
      <trkpt lat="45.90839" lon="1.8469">
        <ele>641.34</ele>
        <time>2026-05-05T10:18:18Z</time>
      </trkpt>
      <trkpt lat="45.90839" lon="1.8469">
        <ele>642.78</ele>
        <time>2026-05-05T10:18:20Z</time>
      </trkpt>
      <trkpt lat="45.90837" lon="1.84687">
        <ele>641.82</ele>
        <time>2026-05-05T10:18:38Z</time>
      </trkpt>
      <trkpt lat="45.90835" lon="1.84688">
        <ele>643.26</ele>
        <time>2026-05-05T10:18:42Z</time>
      </trkpt>
      <trkpt lat="45.90834" lon="1.84685">
        <ele>641.82</ele>
        <time>2026-05-05T10:19:01Z</time>
      </trkpt>
      <trkpt lat="45.90835" lon="1.84683">
        <ele>642.3</ele>
        <time>2026-05-05T10:19:21Z</time>
      </trkpt>
      <trkpt lat="45.90829" lon="1.84693">
        <ele>643.26</ele>
        <time>2026-05-05T10:19:46Z</time>
      </trkpt>
      <trkpt lat="45.90834" lon="1.84689">
        <ele>643.26</ele>
        <time>2026-05-05T10:19:58Z</time>
      </trkpt>
      <trkpt lat="45.90838" lon="1.84687">
        <ele>643.74</ele>
        <time>2026-05-05T10:20:18Z</time>
      </trkpt>
      <trkpt lat="45.90836" lon="1.84689">
        <ele>644.22</ele>
        <time>2026-05-05T10:20:34Z</time>
      </trkpt>
      <trkpt lat="45.90834" lon="1.84693">
        <ele>644.22</ele>
        <time>2026-05-05T10:20:39Z</time>
      </trkpt>
      <trkpt lat="45.90846" lon="1.84704">
        <ele>644.22</ele>
        <time>2026-05-05T10:20:52Z</time>
      </trkpt>
      <trkpt lat="45.90837" lon="1.84698">
        <ele>642.78</ele>
        <time>2026-05-05T10:21:02Z</time>
      </trkpt>
      <trkpt lat="45.9082" lon="1.84664">
        <ele>641.82</ele>
        <time>2026-05-05T10:21:24Z</time>
      </trkpt>
      <trkpt lat="45.90821" lon="1.84661">
        <ele>641.82</ele>
        <time>2026-05-05T10:21:43Z</time>
      </trkpt>
      <trkpt lat="45.90821" lon="1.84659">
        <ele>643.26</ele>
        <time>2026-05-05T10:22:07Z</time>
      </trkpt>
      <trkpt lat="45.90819" lon="1.84658">
        <ele>641.34</ele>
        <time>2026-05-05T10:22:27Z</time>
      </trkpt>
      <trkpt lat="45.9082" lon="1.84656">
        <ele>642.78</ele>
        <time>2026-05-05T10:22:57Z</time>
      </trkpt>
      <trkpt lat="45.9082" lon="1.84659">
        <ele>641.34</ele>
        <time>2026-05-05T10:23:07Z</time>
      </trkpt>
      <trkpt lat="45.9082" lon="1.84659">
        <ele>642.3</ele>
        <time>2026-05-05T10:23:09Z</time>
      </trkpt>
      <trkpt lat="45.90822" lon="1.84661">
        <ele>641.82</ele>
        <time>2026-05-05T10:23:35Z</time>
      </trkpt>
      <trkpt lat="45.90809" lon="1.84638">
        <ele>641.82</ele>
        <time>2026-05-05T10:23:57Z</time>
      </trkpt>
      <trkpt lat="45.90804" lon="1.84627">
        <ele>640.86</ele>
        <time>2026-05-05T10:24:15Z</time>
      </trkpt>
      <trkpt lat="45.90806" lon="1.84632">
        <ele>640.86</ele>
        <time>2026-05-05T10:24:32Z</time>
      </trkpt>
      <trkpt lat="45.90802" lon="1.84615">
        <ele>642.78</ele>
        <time>2026-05-05T10:24:54Z</time>
      </trkpt>
      <trkpt lat="45.90795" lon="1.84617">
        <ele>641.34</ele>
        <time>2026-05-05T10:25:01Z</time>
      </trkpt>
      <trkpt lat="45.90791" lon="1.84618">
        <ele>642.78</ele>
        <time>2026-05-05T10:25:25Z</time>
      </trkpt>
      <trkpt lat="45.9079" lon="1.84617">
        <ele>642.78</ele>
        <time>2026-05-05T10:25:59Z</time>
      </trkpt>
      <trkpt lat="45.90789" lon="1.84616">
        <ele>642.78</ele>
        <time>2026-05-05T10:26:21Z</time>
      </trkpt>
      <trkpt lat="45.90786" lon="1.84617">
        <ele>642.78</ele>
        <time>2026-05-05T10:26:26Z</time>
      </trkpt>
      <trkpt lat="45.90775" lon="1.8462">
        <ele>640.86</ele>
        <time>2026-05-05T10:26:36Z</time>
      </trkpt>
      <trkpt lat="45.90763" lon="1.84625">
        <ele>640.86</ele>
        <time>2026-05-05T10:26:49Z</time>
      </trkpt>
      <trkpt lat="45.90748" lon="1.84631">
        <ele>640.38</ele>
        <time>2026-05-05T10:27:01Z</time>
      </trkpt>
      <trkpt lat="45.90745" lon="1.84632">
        <ele>640.38</ele>
        <time>2026-05-05T10:27:04Z</time>
      </trkpt>
      <trkpt lat="45.90726" lon="1.84638">
        <ele>639.89</ele>
        <time>2026-05-05T10:27:17Z</time>
      </trkpt>
      <trkpt lat="45.90722" lon="1.8464">
        <ele>639.89</ele>
        <time>2026-05-05T10:27:20Z</time>
      </trkpt>
      <trkpt lat="45.90703" lon="1.84653">
        <ele>639.89</ele>
        <time>2026-05-05T10:27:34Z</time>
      </trkpt>
      <trkpt lat="45.90682" lon="1.8467">
        <ele>639.89</ele>
        <time>2026-05-05T10:27:48Z</time>
      </trkpt>
      <trkpt lat="45.90659" lon="1.84679">
        <ele>639.89</ele>
        <time>2026-05-05T10:28:03Z</time>
      </trkpt>
      <trkpt lat="45.90641" lon="1.84683">
        <ele>639.89</ele>
        <time>2026-05-05T10:28:17Z</time>
      </trkpt>
      <trkpt lat="45.90629" lon="1.84682">
        <ele>640.86</ele>
        <time>2026-05-05T10:28:25Z</time>
      </trkpt>
      <trkpt lat="45.90609" lon="1.84684">
        <ele>642.78</ele>
        <time>2026-05-05T10:28:40Z</time>
      </trkpt>
      <trkpt lat="45.906" lon="1.84684">
        <ele>642.78</ele>
        <time>2026-05-05T10:28:46Z</time>
      </trkpt>
      <trkpt lat="45.90596" lon="1.84683">
        <ele>642.78</ele>
        <time>2026-05-05T10:28:49Z</time>
      </trkpt>
      <trkpt lat="45.90591" lon="1.8468">
        <ele>642.78</ele>
        <time>2026-05-05T10:28:53Z</time>
      </trkpt>
      <trkpt lat="45.90577" lon="1.84677">
        <ele>642.78</ele>
        <time>2026-05-05T10:29:05Z</time>
      </trkpt>
      <trkpt lat="45.90564" lon="1.84673">
        <ele>644.7</ele>
        <time>2026-05-05T10:29:15Z</time>
      </trkpt>
      <trkpt lat="45.9056" lon="1.84674">
        <ele>644.7</ele>
        <time>2026-05-05T10:29:19Z</time>
      </trkpt>
      <trkpt lat="45.90559" lon="1.84675">
        <ele>644.7</ele>
        <time>2026-05-05T10:29:21Z</time>
      </trkpt>
      <trkpt lat="45.90544" lon="1.84691">
        <ele>643.26</ele>
        <time>2026-05-05T10:29:36Z</time>
      </trkpt>
      <trkpt lat="45.90514" lon="1.84717">
        <ele>642.3</ele>
        <time>2026-05-05T10:29:57Z</time>
      </trkpt>
      <trkpt lat="45.90494" lon="1.84732">
        <ele>640.38</ele>
        <time>2026-05-05T10:30:14Z</time>
      </trkpt>
      <trkpt lat="45.90476" lon="1.84749">
        <ele>639.89</ele>
        <time>2026-05-05T10:30:30Z</time>
      </trkpt>
      <trkpt lat="45.90475" lon="1.8475">
        <ele>639.89</ele>
        <time>2026-05-05T10:30:31Z</time>
      </trkpt>
      <trkpt lat="45.90462" lon="1.84768">
        <ele>638.93</ele>
        <time>2026-05-05T10:30:46Z</time>
      </trkpt>
      <trkpt lat="45.90462" lon="1.84793">
        <ele>637.97</ele>
        <time>2026-05-05T10:31:05Z</time>
      </trkpt>
      <trkpt lat="45.90462" lon="1.84801">
        <ele>637.49</ele>
        <time>2026-05-05T10:31:30Z</time>
      </trkpt>
      <trkpt lat="45.90461" lon="1.8482">
        <ele>637.49</ele>
        <time>2026-05-05T10:31:40Z</time>
      </trkpt>
      <trkpt lat="45.90459" lon="1.84857">
        <ele>636.53</ele>
        <time>2026-05-05T10:31:59Z</time>
      </trkpt>
      <trkpt lat="45.90457" lon="1.84887">
        <ele>635.57</ele>
        <time>2026-05-05T10:32:15Z</time>
      </trkpt>
      <trkpt lat="45.9045" lon="1.84917">
        <ele>633.65</ele>
        <time>2026-05-05T10:32:33Z</time>
      </trkpt>
      <trkpt lat="45.90447" lon="1.84923">
        <ele>630.28</ele>
        <time>2026-05-05T10:32:40Z</time>
      </trkpt>
      <trkpt lat="45.90437" lon="1.84937">
        <ele>626.92</ele>
        <time>2026-05-05T10:32:52Z</time>
      </trkpt>
      <trkpt lat="45.90416" lon="1.84965">
        <ele>625.47</ele>
        <time>2026-05-05T10:33:08Z</time>
      </trkpt>
      <trkpt lat="45.904" lon="1.84982">
        <ele>625.47</ele>
        <time>2026-05-05T10:33:23Z</time>
      </trkpt>
      <trkpt lat="45.90392" lon="1.84986">
        <ele>625.47</ele>
        <time>2026-05-05T10:33:29Z</time>
      </trkpt>
      <trkpt lat="45.90364" lon="1.8498">
        <ele>625.47</ele>
        <time>2026-05-05T10:33:49Z</time>
      </trkpt>
      <trkpt lat="45.90347" lon="1.84981">
        <ele>627.4</ele>
        <time>2026-05-05T10:34:03Z</time>
      </trkpt>
      <trkpt lat="45.90319" lon="1.84992">
        <ele>627.4</ele>
        <time>2026-05-05T10:34:25Z</time>
      </trkpt>
      <trkpt lat="45.9031" lon="1.84999">
        <ele>629.32</ele>
        <time>2026-05-05T10:34:33Z</time>
      </trkpt>
      <trkpt lat="45.90286" lon="1.85014">
        <ele>629.32</ele>
        <time>2026-05-05T10:34:51Z</time>
      </trkpt>
      <trkpt lat="45.90261" lon="1.85034">
        <ele>628.84</ele>
        <time>2026-05-05T10:35:11Z</time>
      </trkpt>
      <trkpt lat="45.90239" lon="1.85055">
        <ele>630.28</ele>
        <time>2026-05-05T10:35:32Z</time>
      </trkpt>
      <trkpt lat="45.90236" lon="1.85058">
        <ele>628.84</ele>
        <time>2026-05-05T10:35:34Z</time>
      </trkpt>
      <trkpt lat="45.90219" lon="1.85072">
        <ele>630.76</ele>
        <time>2026-05-05T10:35:52Z</time>
      </trkpt>
      <trkpt lat="45.90214" lon="1.85076">
        <ele>630.28</ele>
        <time>2026-05-05T10:35:56Z</time>
      </trkpt>
      <trkpt lat="45.90185" lon="1.85094">
        <ele>632.2</ele>
        <time>2026-05-05T10:36:19Z</time>
      </trkpt>
      <trkpt lat="45.90156" lon="1.85123">
        <ele>631.24</ele>
        <time>2026-05-05T10:36:41Z</time>
      </trkpt>
      <trkpt lat="45.90144" lon="1.85137">
        <ele>631.24</ele>
        <time>2026-05-05T10:36:53Z</time>
      </trkpt>
      <trkpt lat="45.90144" lon="1.8514">
        <ele>632.2</ele>
        <time>2026-05-05T10:36:55Z</time>
      </trkpt>
      <trkpt lat="45.90143" lon="1.85141">
        <ele>633.17</ele>
        <time>2026-05-05T10:36:57Z</time>
      </trkpt>
      <trkpt lat="45.90139" lon="1.85144">
        <ele>630.76</ele>
        <time>2026-05-05T10:37:01Z</time>
      </trkpt>
      <trkpt lat="45.9013" lon="1.85151">
        <ele>630.76</ele>
        <time>2026-05-05T10:37:14Z</time>
      </trkpt>
      <trkpt lat="45.9011" lon="1.85156">
        <ele>630.76</ele>
        <time>2026-05-05T10:37:34Z</time>
      </trkpt>
      <trkpt lat="45.90082" lon="1.85168">
        <ele>631.72</ele>
        <time>2026-05-05T10:37:51Z</time>
      </trkpt>
      <trkpt lat="45.90055" lon="1.85177">
        <ele>632.2</ele>
        <time>2026-05-05T10:38:10Z</time>
      </trkpt>
      <trkpt lat="45.90033" lon="1.85187">
        <ele>631.72</ele>
        <time>2026-05-05T10:38:31Z</time>
      </trkpt>
      <trkpt lat="45.90014" lon="1.85212">
        <ele>629.32</ele>
        <time>2026-05-05T10:38:49Z</time>
      </trkpt>
      <trkpt lat="45.89996" lon="1.85242">
        <ele>626.44</ele>
        <time>2026-05-05T10:39:06Z</time>
      </trkpt>
      <trkpt lat="45.89975" lon="1.85268">
        <ele>624.99</ele>
        <time>2026-05-05T10:39:27Z</time>
      </trkpt>
      <trkpt lat="45.8996" lon="1.85286">
        <ele>621.63</ele>
        <time>2026-05-05T10:39:41Z</time>
      </trkpt>
      <trkpt lat="45.8995" lon="1.85314">
        <ele>618.26</ele>
        <time>2026-05-05T10:39:56Z</time>
      </trkpt>
      <trkpt lat="45.89936" lon="1.8535">
        <ele>616.34</ele>
        <time>2026-05-05T10:40:14Z</time>
      </trkpt>
      <trkpt lat="45.89923" lon="1.85375">
        <ele>615.86</ele>
        <time>2026-05-05T10:40:30Z</time>
      </trkpt>
      <trkpt lat="45.89912" lon="1.85405">
        <ele>614.9</ele>
        <time>2026-05-05T10:40:48Z</time>
      </trkpt>
      <trkpt lat="45.89897" lon="1.85435">
        <ele>614.42</ele>
        <time>2026-05-05T10:41:08Z</time>
      </trkpt>
      <trkpt lat="45.89887" lon="1.85459">
        <ele>612.98</ele>
        <time>2026-05-05T10:41:22Z</time>
      </trkpt>
      <trkpt lat="45.89885" lon="1.85461">
        <ele>616.82</ele>
        <time>2026-05-05T10:41:24Z</time>
      </trkpt>
      <trkpt lat="45.89884" lon="1.85462">
        <ele>615.38</ele>
        <time>2026-05-05T10:41:25Z</time>
      </trkpt>
      <trkpt lat="45.89879" lon="1.8547">
        <ele>614.42</ele>
        <time>2026-05-05T10:41:41Z</time>
      </trkpt>
      <trkpt lat="45.89883" lon="1.85469">
        <ele>613.94</ele>
        <time>2026-05-05T10:42:02Z</time>
      </trkpt>
      <trkpt lat="45.89871" lon="1.85463">
        <ele>613.94</ele>
        <time>2026-05-05T10:42:26Z</time>
      </trkpt>
      <trkpt lat="45.89872" lon="1.85466">
        <ele>613.46</ele>
        <time>2026-05-05T10:42:41Z</time>
      </trkpt>
      <trkpt lat="45.89866" lon="1.85475">
        <ele>613.46</ele>
        <time>2026-05-05T10:42:55Z</time>
      </trkpt>
      <trkpt lat="45.89865" lon="1.85477">
        <ele>612.02</ele>
        <time>2026-05-05T10:42:58Z</time>
      </trkpt>
      <trkpt lat="45.89851" lon="1.85485">
        <ele>611.06</ele>
        <time>2026-05-05T10:43:10Z</time>
      </trkpt>
      <trkpt lat="45.89834" lon="1.8548">
        <ele>609.61</ele>
        <time>2026-05-05T10:43:22Z</time>
      </trkpt>
      <trkpt lat="45.89821" lon="1.85482">
        <ele>608.17</ele>
        <time>2026-05-05T10:43:34Z</time>
      </trkpt>
      <trkpt lat="45.89807" lon="1.85484">
        <ele>607.21</ele>
        <time>2026-05-05T10:43:46Z</time>
      </trkpt>
      <trkpt lat="45.89799" lon="1.85486">
        <ele>606.25</ele>
        <time>2026-05-05T10:43:50Z</time>
      </trkpt>
      <trkpt lat="45.89777" lon="1.85493">
        <ele>604.81</ele>
        <time>2026-05-05T10:44:04Z</time>
      </trkpt>
      <trkpt lat="45.89767" lon="1.85501">
        <ele>604.81</ele>
        <time>2026-05-05T10:44:10Z</time>
      </trkpt>
      <trkpt lat="45.89746" lon="1.85508">
        <ele>604.33</ele>
        <time>2026-05-05T10:44:26Z</time>
      </trkpt>
      <trkpt lat="45.89733" lon="1.85509">
        <ele>604.33</ele>
        <time>2026-05-05T10:44:39Z</time>
      </trkpt>
      <trkpt lat="45.89721" lon="1.8551">
        <ele>606.25</ele>
        <time>2026-05-05T10:44:49Z</time>
      </trkpt>
      <trkpt lat="45.89703" lon="1.85501">
        <ele>606.25</ele>
        <time>2026-05-05T10:45:05Z</time>
      </trkpt>
      <trkpt lat="45.897" lon="1.85495">
        <ele>606.73</ele>
        <time>2026-05-05T10:45:10Z</time>
      </trkpt>
      <trkpt lat="45.89688" lon="1.85471">
        <ele>607.21</ele>
        <time>2026-05-05T10:45:27Z</time>
      </trkpt>
      <trkpt lat="45.89685" lon="1.85464">
        <ele>603.85</ele>
        <time>2026-05-05T10:45:33Z</time>
      </trkpt>
      <trkpt lat="45.89684" lon="1.85463">
        <ele>608.65</ele>
        <time>2026-05-05T10:45:34Z</time>
      </trkpt>
      <trkpt lat="45.89677" lon="1.85449">
        <ele>605.29</ele>
        <time>2026-05-05T10:45:46Z</time>
      </trkpt>
      <trkpt lat="45.89663" lon="1.85414">
        <ele>603.36</ele>
        <time>2026-05-05T10:46:05Z</time>
      </trkpt>
      <trkpt lat="45.89658" lon="1.85383">
        <ele>601.44</ele>
        <time>2026-05-05T10:46:20Z</time>
      </trkpt>
      <trkpt lat="45.89658" lon="1.85347">
        <ele>600.48</ele>
        <time>2026-05-05T10:46:36Z</time>
      </trkpt>
      <trkpt lat="45.89662" lon="1.85307">
        <ele>598.56</ele>
        <time>2026-05-05T10:46:55Z</time>
      </trkpt>
      <trkpt lat="45.89665" lon="1.85271">
        <ele>596.64</ele>
        <time>2026-05-05T10:47:12Z</time>
      </trkpt>
      <trkpt lat="45.8967" lon="1.85236">
        <ele>596.15</ele>
        <time>2026-05-05T10:47:31Z</time>
      </trkpt>
      <trkpt lat="45.8967" lon="1.85206">
        <ele>596.15</ele>
        <time>2026-05-05T10:47:47Z</time>
      </trkpt>
      <trkpt lat="45.89672" lon="1.85171">
        <ele>595.67</ele>
        <time>2026-05-05T10:48:04Z</time>
      </trkpt>
      <trkpt lat="45.89669" lon="1.85159">
        <ele>595.67</ele>
        <time>2026-05-05T10:48:12Z</time>
      </trkpt>
      <trkpt lat="45.89669" lon="1.85123">
        <ele>595.67</ele>
        <time>2026-05-05T10:48:28Z</time>
      </trkpt>
      <trkpt lat="45.89669" lon="1.85088">
        <ele>595.67</ele>
        <time>2026-05-05T10:48:47Z</time>
      </trkpt>
      <trkpt lat="45.89662" lon="1.85069">
        <ele>597.12</ele>
        <time>2026-05-05T10:48:59Z</time>
      </trkpt>
      <trkpt lat="45.89657" lon="1.85064">
        <ele>597.6</ele>
        <time>2026-05-05T10:49:03Z</time>
      </trkpt>
      <trkpt lat="45.89637" lon="1.85044">
        <ele>599.04</ele>
        <time>2026-05-05T10:49:22Z</time>
      </trkpt>
      <trkpt lat="45.89618" lon="1.85013">
        <ele>600</ele>
        <time>2026-05-05T10:49:42Z</time>
      </trkpt>
      <trkpt lat="45.89595" lon="1.84983">
        <ele>599.04</ele>
        <time>2026-05-05T10:50:05Z</time>
      </trkpt>
      <trkpt lat="45.89574" lon="1.84956">
        <ele>597.6</ele>
        <time>2026-05-05T10:50:26Z</time>
      </trkpt>
      <trkpt lat="45.89558" lon="1.84926">
        <ele>596.64</ele>
        <time>2026-05-05T10:50:45Z</time>
      </trkpt>
      <trkpt lat="45.89551" lon="1.8491">
        <ele>594.71</ele>
        <time>2026-05-05T10:50:59Z</time>
      </trkpt>
      <trkpt lat="45.89549" lon="1.84906">
        <ele>592.31</ele>
        <time>2026-05-05T10:51:02Z</time>
      </trkpt>
      <trkpt lat="45.89548" lon="1.84899">
        <ele>593.75</ele>
        <time>2026-05-05T10:51:06Z</time>
      </trkpt>
      <trkpt lat="45.89547" lon="1.84879">
        <ele>591.35</ele>
        <time>2026-05-05T10:51:17Z</time>
      </trkpt>
      <trkpt lat="45.8955" lon="1.84857">
        <ele>589.43</ele>
        <time>2026-05-05T10:51:29Z</time>
      </trkpt>
      <trkpt lat="45.89546" lon="1.84842">
        <ele>587.98</ele>
        <time>2026-05-05T10:51:44Z</time>
      </trkpt>
      <trkpt lat="45.89544" lon="1.84839">
        <ele>588.46</ele>
        <time>2026-05-05T10:52:13Z</time>
      </trkpt>
      <trkpt lat="45.89544" lon="1.84839">
        <ele>583.18</ele>
        <time>2026-05-05T10:52:16Z</time>
      </trkpt>
      <trkpt lat="45.89544" lon="1.8484">
        <ele>586.54</ele>
        <time>2026-05-05T10:52:17Z</time>
      </trkpt>
      <trkpt lat="45.89544" lon="1.8484">
        <ele>590.39</ele>
        <time>2026-05-05T10:52:18Z</time>
      </trkpt>
      <trkpt lat="45.89544" lon="1.84839">
        <ele>587.98</ele>
        <time>2026-05-05T10:52:23Z</time>
      </trkpt>
      <trkpt lat="45.89535" lon="1.84843">
        <ele>586.54</ele>
        <time>2026-05-05T10:52:37Z</time>
      </trkpt>
      <trkpt lat="45.89533" lon="1.84847">
        <ele>582.7</ele>
        <time>2026-05-05T10:52:40Z</time>
      </trkpt>
      <trkpt lat="45.89529" lon="1.84855">
        <ele>586.06</ele>
        <time>2026-05-05T10:52:44Z</time>
      </trkpt>
      <trkpt lat="45.89526" lon="1.84859">
        <ele>586.06</ele>
        <time>2026-05-05T10:52:48Z</time>
      </trkpt>
      <trkpt lat="45.89506" lon="1.84885">
        <ele>586.06</ele>
        <time>2026-05-05T10:53:09Z</time>
      </trkpt>
      <trkpt lat="45.89486" lon="1.84901">
        <ele>586.06</ele>
        <time>2026-05-05T10:53:28Z</time>
      </trkpt>
      <trkpt lat="45.89473" lon="1.84913">
        <ele>588.95</ele>
        <time>2026-05-05T10:53:40Z</time>
      </trkpt>
      <trkpt lat="45.89452" lon="1.84929">
        <ele>589.43</ele>
        <time>2026-05-05T10:53:58Z</time>
      </trkpt>
      <trkpt lat="45.89437" lon="1.8495">
        <ele>590.87</ele>
        <time>2026-05-05T10:54:16Z</time>
      </trkpt>
      <trkpt lat="45.89435" lon="1.84951">
        <ele>592.31</ele>
        <time>2026-05-05T10:54:18Z</time>
      </trkpt>
      <trkpt lat="45.89417" lon="1.84968">
        <ele>593.75</ele>
        <time>2026-05-05T10:54:36Z</time>
      </trkpt>
      <trkpt lat="45.89407" lon="1.84994">
        <ele>592.79</ele>
        <time>2026-05-05T10:54:53Z</time>
      </trkpt>
      <trkpt lat="45.89395" lon="1.85023">
        <ele>589.43</ele>
        <time>2026-05-05T10:55:13Z</time>
      </trkpt>
      <trkpt lat="45.89376" lon="1.85027">
        <ele>588.95</ele>
        <time>2026-05-05T10:55:32Z</time>
      </trkpt>
      <trkpt lat="45.89377" lon="1.85016">
        <ele>588.95</ele>
        <time>2026-05-05T10:55:56Z</time>
      </trkpt>
      <trkpt lat="45.89361" lon="1.85032">
        <ele>588.46</ele>
        <time>2026-05-05T10:56:18Z</time>
      </trkpt>
      <trkpt lat="45.89357" lon="1.85037">
        <ele>588.46</ele>
        <time>2026-05-05T10:56:49Z</time>
      </trkpt>
      <trkpt lat="45.89341" lon="1.85027">
        <ele>588.46</ele>
        <time>2026-05-05T10:57:10Z</time>
      </trkpt>
      <trkpt lat="45.89336" lon="1.85021">
        <ele>589.43</ele>
        <time>2026-05-05T10:57:16Z</time>
      </trkpt>
      <trkpt lat="45.89322" lon="1.85003">
        <ele>589.43</ele>
        <time>2026-05-05T10:57:33Z</time>
      </trkpt>
      <trkpt lat="45.89309" lon="1.84981">
        <ele>591.83</ele>
        <time>2026-05-05T10:57:52Z</time>
      </trkpt>
      <trkpt lat="45.89305" lon="1.84974">
        <ele>592.31</ele>
        <time>2026-05-05T10:58:15Z</time>
      </trkpt>
      <trkpt lat="45.89311" lon="1.84962">
        <ele>593.75</ele>
        <time>2026-05-05T10:58:28Z</time>
      </trkpt>
      <trkpt lat="45.89317" lon="1.84932">
        <ele>595.19</ele>
        <time>2026-05-05T10:58:46Z</time>
      </trkpt>
      <trkpt lat="45.89317" lon="1.84922">
        <ele>595.67</ele>
        <time>2026-05-05T10:58:54Z</time>
      </trkpt>
      <trkpt lat="45.89324" lon="1.84905">
        <ele>597.12</ele>
        <time>2026-05-05T10:59:05Z</time>
      </trkpt>
      <trkpt lat="45.89335" lon="1.84893">
        <ele>599.04</ele>
        <time>2026-05-05T10:59:22Z</time>
      </trkpt>
      <trkpt lat="45.89349" lon="1.84866">
        <ele>600</ele>
        <time>2026-05-05T10:59:39Z</time>
      </trkpt>
      <trkpt lat="45.89361" lon="1.84843">
        <ele>601.92</ele>
        <time>2026-05-05T10:59:56Z</time>
      </trkpt>
      <trkpt lat="45.89359" lon="1.84847">
        <ele>602.4</ele>
        <time>2026-05-05T11:00:16Z</time>
      </trkpt>
      <trkpt lat="45.89358" lon="1.8483">
        <ele>602.4</ele>
        <time>2026-05-05T11:00:34Z</time>
      </trkpt>
      <trkpt lat="45.89355" lon="1.84808">
        <ele>603.85</ele>
        <time>2026-05-05T11:00:47Z</time>
      </trkpt>
      <trkpt lat="45.89352" lon="1.84793">
        <ele>604.81</ele>
        <time>2026-05-05T11:00:59Z</time>
      </trkpt>
      <trkpt lat="45.89342" lon="1.84776">
        <ele>606.73</ele>
        <time>2026-05-05T11:01:16Z</time>
      </trkpt>
      <trkpt lat="45.89333" lon="1.84746">
        <ele>608.17</ele>
        <time>2026-05-05T11:01:31Z</time>
      </trkpt>
      <trkpt lat="45.89318" lon="1.84733">
        <ele>608.17</ele>
        <time>2026-05-05T11:01:46Z</time>
      </trkpt>
      <trkpt lat="45.89296" lon="1.84713">
        <ele>610.09</ele>
        <time>2026-05-05T11:02:05Z</time>
      </trkpt>
      <trkpt lat="45.89286" lon="1.84731">
        <ele>612.5</ele>
        <time>2026-05-05T11:02:21Z</time>
      </trkpt>
      <trkpt lat="45.89281" lon="1.84749">
        <ele>614.9</ele>
        <time>2026-05-05T11:02:33Z</time>
      </trkpt>
      <trkpt lat="45.89275" lon="1.84765">
        <ele>616.34</ele>
        <time>2026-05-05T11:02:47Z</time>
      </trkpt>
      <trkpt lat="45.89269" lon="1.84781">
        <ele>617.78</ele>
        <time>2026-05-05T11:03:01Z</time>
      </trkpt>
      <trkpt lat="45.89264" lon="1.84789">
        <ele>616.82</ele>
        <time>2026-05-05T11:03:14Z</time>
      </trkpt>
      <trkpt lat="45.89264" lon="1.84789">
        <ele>619.71</ele>
        <time>2026-05-05T11:03:15Z</time>
      </trkpt>
      <trkpt lat="45.89264" lon="1.84789">
        <ele>618.26</ele>
        <time>2026-05-05T11:03:18Z</time>
      </trkpt>
      <trkpt lat="45.89261" lon="1.84778">
        <ele>619.23</ele>
        <time>2026-05-05T11:03:35Z</time>
      </trkpt>
      <trkpt lat="45.89258" lon="1.84762">
        <ele>620.19</ele>
        <time>2026-05-05T11:03:46Z</time>
      </trkpt>
      <trkpt lat="45.89249" lon="1.84749">
        <ele>622.59</ele>
        <time>2026-05-05T11:04:02Z</time>
      </trkpt>
      <trkpt lat="45.89231" lon="1.84746">
        <ele>624.99</ele>
        <time>2026-05-05T11:04:18Z</time>
      </trkpt>
      <trkpt lat="45.8922" lon="1.84757">
        <ele>626.44</ele>
        <time>2026-05-05T11:04:30Z</time>
      </trkpt>
      <trkpt lat="45.89206" lon="1.84758">
        <ele>627.4</ele>
        <time>2026-05-05T11:04:42Z</time>
      </trkpt>
      <trkpt lat="45.89196" lon="1.84752">
        <ele>629.32</ele>
        <time>2026-05-05T11:04:57Z</time>
      </trkpt>
      <trkpt lat="45.89178" lon="1.84738">
        <ele>630.28</ele>
        <time>2026-05-05T11:05:13Z</time>
      </trkpt>
      <trkpt lat="45.8916" lon="1.84726">
        <ele>630.28</ele>
        <time>2026-05-05T11:05:27Z</time>
      </trkpt>
      <trkpt lat="45.89137" lon="1.84715">
        <ele>631.72</ele>
        <time>2026-05-05T11:05:45Z</time>
      </trkpt>
      <trkpt lat="45.8912" lon="1.84718">
        <ele>634.13</ele>
        <time>2026-05-05T11:06:02Z</time>
      </trkpt>
      <trkpt lat="45.89105" lon="1.84719">
        <ele>635.57</ele>
        <time>2026-05-05T11:06:17Z</time>
      </trkpt>
      <trkpt lat="45.89088" lon="1.84723">
        <ele>637.49</ele>
        <time>2026-05-05T11:06:32Z</time>
      </trkpt>
      <trkpt lat="45.89074" lon="1.84728">
        <ele>637.97</ele>
        <time>2026-05-05T11:06:46Z</time>
      </trkpt>
      <trkpt lat="45.89056" lon="1.84731">
        <ele>639.41</ele>
        <time>2026-05-05T11:07:01Z</time>
      </trkpt>
      <trkpt lat="45.89039" lon="1.84733">
        <ele>639.89</ele>
        <time>2026-05-05T11:07:14Z</time>
      </trkpt>
      <trkpt lat="45.89023" lon="1.84731">
        <ele>640.86</ele>
        <time>2026-05-05T11:07:27Z</time>
      </trkpt>
      <trkpt lat="45.89011" lon="1.84742">
        <ele>641.82</ele>
        <time>2026-05-05T11:07:43Z</time>
      </trkpt>
      <trkpt lat="45.89006" lon="1.84758">
        <ele>644.22</ele>
        <time>2026-05-05T11:07:57Z</time>
      </trkpt>
      <trkpt lat="45.89001" lon="1.84773">
        <ele>646.14</ele>
        <time>2026-05-05T11:08:12Z</time>
      </trkpt>
      <trkpt lat="45.88997" lon="1.8479">
        <ele>649.03</ele>
        <time>2026-05-05T11:08:27Z</time>
      </trkpt>
      <trkpt lat="45.88997" lon="1.848">
        <ele>651.43</ele>
        <time>2026-05-05T11:08:40Z</time>
      </trkpt>
      <trkpt lat="45.88991" lon="1.8481">
        <ele>653.35</ele>
        <time>2026-05-05T11:08:53Z</time>
      </trkpt>
      <trkpt lat="45.88987" lon="1.84808">
        <ele>654.31</ele>
        <time>2026-05-05T11:09:08Z</time>
      </trkpt>
      <trkpt lat="45.88981" lon="1.84805">
        <ele>653.83</ele>
        <time>2026-05-05T11:09:35Z</time>
      </trkpt>
      <trkpt lat="45.88969" lon="1.84796">
        <ele>653.83</ele>
        <time>2026-05-05T11:09:46Z</time>
      </trkpt>
      <trkpt lat="45.88955" lon="1.84783">
        <ele>653.83</ele>
        <time>2026-05-05T11:10:00Z</time>
      </trkpt>
      <trkpt lat="45.88943" lon="1.84771">
        <ele>653.83</ele>
        <time>2026-05-05T11:10:11Z</time>
      </trkpt>
      <trkpt lat="45.88933" lon="1.84759">
        <ele>653.83</ele>
        <time>2026-05-05T11:10:21Z</time>
      </trkpt>
      <trkpt lat="45.88913" lon="1.8475">
        <ele>655.76</ele>
        <time>2026-05-05T11:10:36Z</time>
      </trkpt>
      <trkpt lat="45.889" lon="1.84754">
        <ele>658.64</ele>
        <time>2026-05-05T11:10:52Z</time>
      </trkpt>
      <trkpt lat="45.88892" lon="1.84762">
        <ele>660.08</ele>
        <time>2026-05-05T11:11:06Z</time>
      </trkpt>
      <trkpt lat="45.88887" lon="1.84765">
        <ele>660.56</ele>
        <time>2026-05-05T11:11:19Z</time>
      </trkpt>
      <trkpt lat="45.88887" lon="1.84766">
        <ele>663.93</ele>
        <time>2026-05-05T11:11:25Z</time>
      </trkpt>
      <trkpt lat="45.88887" lon="1.84766">
        <ele>660.56</ele>
        <time>2026-05-05T11:11:27Z</time>
      </trkpt>
      <trkpt lat="45.88888" lon="1.84762">
        <ele>660.56</ele>
        <time>2026-05-05T11:11:40Z</time>
      </trkpt>
      <trkpt lat="45.88888" lon="1.84761">
        <ele>660.56</ele>
        <time>2026-05-05T11:11:41Z</time>
      </trkpt>
      <trkpt lat="45.88889" lon="1.84762">
        <ele>660.56</ele>
        <time>2026-05-05T11:11:43Z</time>
      </trkpt>
      <trkpt lat="45.8888" lon="1.84774">
        <ele>661.52</ele>
        <time>2026-05-05T11:11:56Z</time>
      </trkpt>
      <trkpt lat="45.88864" lon="1.84773">
        <ele>663.93</ele>
        <time>2026-05-05T11:12:13Z</time>
      </trkpt>
      <trkpt lat="45.88866" lon="1.84771">
        <ele>663.93</ele>
        <time>2026-05-05T11:12:40Z</time>
      </trkpt>
      <trkpt lat="45.8887" lon="1.84771">
        <ele>663.93</ele>
        <time>2026-05-05T11:13:01Z</time>
      </trkpt>
      <trkpt lat="45.8887" lon="1.84772">
        <ele>663.93</ele>
        <time>2026-05-05T11:13:23Z</time>
      </trkpt>
      <trkpt lat="45.88865" lon="1.84767">
        <ele>665.85</ele>
        <time>2026-05-05T11:13:48Z</time>
      </trkpt>
      <trkpt lat="45.88865" lon="1.84769">
        <ele>664.41</ele>
        <time>2026-05-05T11:13:50Z</time>
      </trkpt>
      <trkpt lat="45.88866" lon="1.84772">
        <ele>663.93</ele>
        <time>2026-05-05T11:14:11Z</time>
      </trkpt>
      <trkpt lat="45.88869" lon="1.84765">
        <ele>663.45</ele>
        <time>2026-05-05T11:14:34Z</time>
      </trkpt>
      <trkpt lat="45.88868" lon="1.84761">
        <ele>663.45</ele>
        <time>2026-05-05T11:15:02Z</time>
      </trkpt>
      <trkpt lat="45.88867" lon="1.84762">
        <ele>663.45</ele>
        <time>2026-05-05T11:15:31Z</time>
      </trkpt>
      <trkpt lat="45.88869" lon="1.84759">
        <ele>664.89</ele>
        <time>2026-05-05T11:16:09Z</time>
      </trkpt>
      <trkpt lat="45.88869" lon="1.8476">
        <ele>665.37</ele>
        <time>2026-05-05T11:16:36Z</time>
      </trkpt>
      <trkpt lat="45.88872" lon="1.84761">
        <ele>665.37</ele>
        <time>2026-05-05T11:16:57Z</time>
      </trkpt>
      <trkpt lat="45.88871" lon="1.84762">
        <ele>661.52</ele>
        <time>2026-05-05T11:17:25Z</time>
      </trkpt>
      <trkpt lat="45.88871" lon="1.84763">
        <ele>666.33</ele>
        <time>2026-05-05T11:17:26Z</time>
      </trkpt>
      <trkpt lat="45.88872" lon="1.84764">
        <ele>665.37</ele>
        <time>2026-05-05T11:17:30Z</time>
      </trkpt>
      <trkpt lat="45.88866" lon="1.84759">
        <ele>666.33</ele>
        <time>2026-05-05T11:17:39Z</time>
      </trkpt>
      <trkpt lat="45.88863" lon="1.84753">
        <ele>668.25</ele>
        <time>2026-05-05T11:17:53Z</time>
      </trkpt>
      <trkpt lat="45.88868" lon="1.84734">
        <ele>670.18</ele>
        <time>2026-05-05T11:18:09Z</time>
      </trkpt>
      <trkpt lat="45.88872" lon="1.84706">
        <ele>672.58</ele>
        <time>2026-05-05T11:18:27Z</time>
      </trkpt>
      <trkpt lat="45.88855" lon="1.84686">
        <ele>675.46</ele>
        <time>2026-05-05T11:18:44Z</time>
      </trkpt>
      <trkpt lat="45.88835" lon="1.84681">
        <ele>676.91</ele>
        <time>2026-05-05T11:19:02Z</time>
      </trkpt>
      <trkpt lat="45.88813" lon="1.84702">
        <ele>679.31</ele>
        <time>2026-05-05T11:19:20Z</time>
      </trkpt>
      <trkpt lat="45.88805" lon="1.84728">
        <ele>681.23</ele>
        <time>2026-05-05T11:19:38Z</time>
      </trkpt>
      <trkpt lat="45.88801" lon="1.8474">
        <ele>682.19</ele>
        <time>2026-05-05T11:19:59Z</time>
      </trkpt>
      <trkpt lat="45.88788" lon="1.84772">
        <ele>685.08</ele>
        <time>2026-05-05T11:20:21Z</time>
      </trkpt>
      <trkpt lat="45.88781" lon="1.84789">
        <ele>687</ele>
        <time>2026-05-05T11:20:32Z</time>
      </trkpt>
      <trkpt lat="45.88779" lon="1.84802">
        <ele>687.96</ele>
        <time>2026-05-05T11:20:39Z</time>
      </trkpt>
      <trkpt lat="45.88771" lon="1.84819">
        <ele>691.33</ele>
        <time>2026-05-05T11:20:54Z</time>
      </trkpt>
      <trkpt lat="45.88763" lon="1.84839">
        <ele>693.25</ele>
        <time>2026-05-05T11:21:12Z</time>
      </trkpt>
      <trkpt lat="45.88766" lon="1.84852">
        <ele>694.69</ele>
        <time>2026-05-05T11:21:31Z</time>
      </trkpt>
      <trkpt lat="45.88763" lon="1.84858">
        <ele>695.17</ele>
        <time>2026-05-05T11:22:00Z</time>
      </trkpt>
      <trkpt lat="45.88759" lon="1.84865">
        <ele>697.09</ele>
        <time>2026-05-05T11:22:08Z</time>
      </trkpt>
      <trkpt lat="45.88755" lon="1.84879">
        <ele>696.61</ele>
        <time>2026-05-05T11:22:21Z</time>
      </trkpt>
      <trkpt lat="45.88755" lon="1.84879">
        <ele>700.94</ele>
        <time>2026-05-05T11:22:23Z</time>
      </trkpt>
      <trkpt lat="45.88755" lon="1.8488">
        <ele>696.61</ele>
        <time>2026-05-05T11:22:26Z</time>
      </trkpt>
      <trkpt lat="45.88755" lon="1.8488">
        <ele>700.46</ele>
        <time>2026-05-05T11:22:27Z</time>
      </trkpt>
      <trkpt lat="45.88754" lon="1.8488">
        <ele>700.46</ele>
        <time>2026-05-05T11:22:28Z</time>
      </trkpt>
      <trkpt lat="45.88749" lon="1.84892">
        <ele>702.38</ele>
        <time>2026-05-05T11:22:43Z</time>
      </trkpt>
      <trkpt lat="45.88742" lon="1.84894">
        <ele>704.78</ele>
        <time>2026-05-05T11:22:53Z</time>
      </trkpt>
      <trkpt lat="45.88731" lon="1.84901">
        <ele>706.71</ele>
        <time>2026-05-05T11:23:11Z</time>
      </trkpt>
      <trkpt lat="45.88722" lon="1.84914">
        <ele>709.59</ele>
        <time>2026-05-05T11:23:28Z</time>
      </trkpt>
      <trkpt lat="45.8871" lon="1.84916">
        <ele>712.95</ele>
        <time>2026-05-05T11:23:43Z</time>
      </trkpt>
      <trkpt lat="45.88696" lon="1.84911">
        <ele>715.84</ele>
        <time>2026-05-05T11:24:02Z</time>
      </trkpt>
      <trkpt lat="45.88686" lon="1.84902">
        <ele>717.28</ele>
        <time>2026-05-05T11:24:17Z</time>
      </trkpt>
      <trkpt lat="45.88666" lon="1.84897">
        <ele>720.65</ele>
        <time>2026-05-05T11:24:37Z</time>
      </trkpt>
      <trkpt lat="45.88651" lon="1.84893">
        <ele>723.53</ele>
        <time>2026-05-05T11:24:56Z</time>
      </trkpt>
      <trkpt lat="45.88645" lon="1.84886">
        <ele>724.97</ele>
        <time>2026-05-05T11:25:04Z</time>
      </trkpt>
      <trkpt lat="45.88641" lon="1.8488">
        <ele>725.45</ele>
        <time>2026-05-05T11:25:09Z</time>
      </trkpt>
      <trkpt lat="45.88625" lon="1.84874">
        <ele>727.37</ele>
        <time>2026-05-05T11:25:25Z</time>
      </trkpt>
      <trkpt lat="45.88607" lon="1.84863">
        <ele>728.82</ele>
        <time>2026-05-05T11:25:44Z</time>
      </trkpt>
      <trkpt lat="45.88597" lon="1.84859">
        <ele>730.26</ele>
        <time>2026-05-05T11:26:00Z</time>
      </trkpt>
      <trkpt lat="45.88576" lon="1.84851">
        <ele>733.14</ele>
        <time>2026-05-05T11:26:19Z</time>
      </trkpt>
      <trkpt lat="45.88555" lon="1.84843">
        <ele>735.07</ele>
        <time>2026-05-05T11:26:38Z</time>
      </trkpt>
      <trkpt lat="45.88537" lon="1.84851">
        <ele>737.47</ele>
        <time>2026-05-05T11:26:56Z</time>
      </trkpt>
      <trkpt lat="45.88512" lon="1.84849">
        <ele>739.39</ele>
        <time>2026-05-05T11:27:18Z</time>
      </trkpt>
      <trkpt lat="45.88504" lon="1.84854">
        <ele>740.35</ele>
        <time>2026-05-05T11:27:27Z</time>
      </trkpt>
      <trkpt lat="45.88498" lon="1.84854">
        <ele>741.31</ele>
        <time>2026-05-05T11:27:33Z</time>
      </trkpt>
      <trkpt lat="45.88472" lon="1.84848">
        <ele>741.31</ele>
        <time>2026-05-05T11:27:52Z</time>
      </trkpt>
      <trkpt lat="45.88443" lon="1.84848">
        <ele>741.31</ele>
        <time>2026-05-05T11:28:13Z</time>
      </trkpt>
      <trkpt lat="45.88416" lon="1.84841">
        <ele>741.79</ele>
        <time>2026-05-05T11:28:34Z</time>
      </trkpt>
      <trkpt lat="45.88397" lon="1.84841">
        <ele>741.79</ele>
        <time>2026-05-05T11:28:50Z</time>
      </trkpt>
      <trkpt lat="45.88383" lon="1.8483">
        <ele>741.79</ele>
        <time>2026-05-05T11:29:02Z</time>
      </trkpt>
      <trkpt lat="45.8838" lon="1.8483">
        <ele>741.79</ele>
        <time>2026-05-05T11:29:04Z</time>
      </trkpt>
      <trkpt lat="45.88373" lon="1.8483">
        <ele>741.31</ele>
        <time>2026-05-05T11:29:10Z</time>
      </trkpt>
      <trkpt lat="45.88362" lon="1.84835">
        <ele>741.79</ele>
        <time>2026-05-05T11:29:26Z</time>
      </trkpt>
      <trkpt lat="45.88346" lon="1.84833">
        <ele>741.79</ele>
        <time>2026-05-05T11:29:39Z</time>
      </trkpt>
      <trkpt lat="45.88327" lon="1.8482">
        <ele>741.79</ele>
        <time>2026-05-05T11:29:55Z</time>
      </trkpt>
      <trkpt lat="45.88323" lon="1.84818">
        <ele>740.83</ele>
        <time>2026-05-05T11:30:14Z</time>
      </trkpt>
      <trkpt lat="45.88317" lon="1.8482">
        <ele>740.35</ele>
        <time>2026-05-05T11:30:33Z</time>
      </trkpt>
      <trkpt lat="45.88318" lon="1.84819">
        <ele>740.35</ele>
        <time>2026-05-05T11:30:57Z</time>
      </trkpt>
      <trkpt lat="45.8832" lon="1.84825">
        <ele>740.35</ele>
        <time>2026-05-05T11:31:26Z</time>
      </trkpt>
      <trkpt lat="45.88318" lon="1.84836">
        <ele>741.31</ele>
        <time>2026-05-05T11:31:39Z</time>
      </trkpt>
      <trkpt lat="45.88318" lon="1.8484">
        <ele>739.87</ele>
        <time>2026-05-05T11:31:44Z</time>
      </trkpt>
      <trkpt lat="45.88317" lon="1.8482">
        <ele>740.83</ele>
        <time>2026-05-05T11:32:14Z</time>
      </trkpt>
      <trkpt lat="45.88318" lon="1.84809">
        <ele>741.31</ele>
        <time>2026-05-05T11:32:40Z</time>
      </trkpt>
      <trkpt lat="45.88321" lon="1.84808">
        <ele>741.31</ele>
        <time>2026-05-05T11:33:17Z</time>
      </trkpt>
      <trkpt lat="45.88315" lon="1.84812">
        <ele>741.31</ele>
        <time>2026-05-05T11:33:46Z</time>
      </trkpt>
      <trkpt lat="45.88313" lon="1.84814">
        <ele>737.47</ele>
        <time>2026-05-05T11:33:52Z</time>
      </trkpt>
      <trkpt lat="45.88312" lon="1.84815">
        <ele>748.52</ele>
        <time>2026-05-05T11:33:55Z</time>
      </trkpt>
      <trkpt lat="45.88311" lon="1.84816">
        <ele>742.76</ele>
        <time>2026-05-05T11:33:56Z</time>
      </trkpt>
      <trkpt lat="45.88311" lon="1.84816">
        <ele>741.79</ele>
        <time>2026-05-05T11:33:58Z</time>
      </trkpt>
      <trkpt lat="45.88312" lon="1.84822">
        <ele>739.87</ele>
        <time>2026-05-05T11:34:21Z</time>
      </trkpt>
      <trkpt lat="45.88312" lon="1.84824">
        <ele>742.76</ele>
        <time>2026-05-05T11:34:26Z</time>
      </trkpt>
      <trkpt lat="45.88312" lon="1.84825">
        <ele>741.31</ele>
        <time>2026-05-05T11:34:29Z</time>
      </trkpt>
      <trkpt lat="45.88303" lon="1.84822">
        <ele>740.35</ele>
        <time>2026-05-05T11:34:42Z</time>
      </trkpt>
      <trkpt lat="45.88295" lon="1.84802">
        <ele>740.35</ele>
        <time>2026-05-05T11:34:57Z</time>
      </trkpt>
      <trkpt lat="45.88281" lon="1.84791">
        <ele>740.83</ele>
        <time>2026-05-05T11:35:12Z</time>
      </trkpt>
      <trkpt lat="45.88265" lon="1.84785">
        <ele>740.83</ele>
        <time>2026-05-05T11:35:25Z</time>
      </trkpt>
      <trkpt lat="45.8825" lon="1.84771">
        <ele>739.39</ele>
        <time>2026-05-05T11:35:40Z</time>
      </trkpt>
      <trkpt lat="45.88234" lon="1.84761">
        <ele>738.43</ele>
        <time>2026-05-05T11:35:55Z</time>
      </trkpt>
      <trkpt lat="45.88221" lon="1.84748">
        <ele>737.47</ele>
        <time>2026-05-05T11:36:08Z</time>
      </trkpt>
      <trkpt lat="45.88208" lon="1.84737">
        <ele>736.51</ele>
        <time>2026-05-05T11:36:21Z</time>
      </trkpt>
      <trkpt lat="45.88206" lon="1.84734">
        <ele>733.14</ele>
        <time>2026-05-05T11:36:23Z</time>
      </trkpt>
      <trkpt lat="45.88205" lon="1.84733">
        <ele>733.14</ele>
        <time>2026-05-05T11:36:24Z</time>
      </trkpt>
      <trkpt lat="45.88202" lon="1.84728">
        <ele>736.51</ele>
        <time>2026-05-05T11:36:27Z</time>
      </trkpt>
      <trkpt lat="45.88187" lon="1.84715">
        <ele>736.03</ele>
        <time>2026-05-05T11:36:45Z</time>
      </trkpt>
      <trkpt lat="45.88174" lon="1.84703">
        <ele>736.99</ele>
        <time>2026-05-05T11:36:55Z</time>
      </trkpt>
      <trkpt lat="45.8814" lon="1.84676">
        <ele>736.99</ele>
        <time>2026-05-05T11:37:19Z</time>
      </trkpt>
      <trkpt lat="45.88133" lon="1.84665">
        <ele>738.91</ele>
        <time>2026-05-05T11:37:26Z</time>
      </trkpt>
      <trkpt lat="45.88131" lon="1.84663">
        <ele>737.47</ele>
        <time>2026-05-05T11:37:28Z</time>
      </trkpt>
      <trkpt lat="45.88127" lon="1.84659">
        <ele>738.91</ele>
        <time>2026-05-05T11:37:31Z</time>
      </trkpt>
      <trkpt lat="45.88124" lon="1.84657">
        <ele>736.99</ele>
        <time>2026-05-05T11:37:33Z</time>
      </trkpt>
      <trkpt lat="45.88088" lon="1.84641">
        <ele>738.91</ele>
        <time>2026-05-05T11:37:57Z</time>
      </trkpt>
      <trkpt lat="45.88067" lon="1.84611">
        <ele>738.43</ele>
        <time>2026-05-05T11:38:19Z</time>
      </trkpt>
      <trkpt lat="45.88046" lon="1.84596">
        <ele>738.91</ele>
        <time>2026-05-05T11:38:39Z</time>
      </trkpt>
      <trkpt lat="45.88041" lon="1.84591">
        <ele>740.83</ele>
        <time>2026-05-05T11:38:43Z</time>
      </trkpt>
      <trkpt lat="45.88034" lon="1.84585">
        <ele>738.91</ele>
        <time>2026-05-05T11:38:49Z</time>
      </trkpt>
      <trkpt lat="45.88019" lon="1.84572">
        <ele>740.83</ele>
        <time>2026-05-05T11:39:03Z</time>
      </trkpt>
      <trkpt lat="45.88007" lon="1.84562">
        <ele>741.79</ele>
        <time>2026-05-05T11:39:12Z</time>
      </trkpt>
      <trkpt lat="45.87991" lon="1.8455">
        <ele>739.39</ele>
        <time>2026-05-05T11:39:27Z</time>
      </trkpt>
      <trkpt lat="45.87982" lon="1.84544">
        <ele>740.35</ele>
        <time>2026-05-05T11:39:35Z</time>
      </trkpt>
      <trkpt lat="45.87976" lon="1.84538">
        <ele>738.91</ele>
        <time>2026-05-05T11:39:40Z</time>
      </trkpt>
      <trkpt lat="45.87955" lon="1.84522">
        <ele>738.43</ele>
        <time>2026-05-05T11:39:57Z</time>
      </trkpt>
      <trkpt lat="45.87939" lon="1.84506">
        <ele>737.47</ele>
        <time>2026-05-05T11:40:11Z</time>
      </trkpt>
      <trkpt lat="45.87921" lon="1.84494">
        <ele>737.47</ele>
        <time>2026-05-05T11:40:25Z</time>
      </trkpt>
      <trkpt lat="45.87918" lon="1.8449">
        <ele>736.03</ele>
        <time>2026-05-05T11:40:28Z</time>
      </trkpt>
      <trkpt lat="45.87895" lon="1.84476">
        <ele>736.03</ele>
        <time>2026-05-05T11:40:46Z</time>
      </trkpt>
      <trkpt lat="45.87887" lon="1.84471">
        <ele>736.03</ele>
        <time>2026-05-05T11:40:59Z</time>
      </trkpt>
      <trkpt lat="45.87887" lon="1.8447">
        <ele>736.03</ele>
        <time>2026-05-05T11:41:01Z</time>
      </trkpt>
      <trkpt lat="45.87867" lon="1.84456">
        <ele>735.55</ele>
        <time>2026-05-05T11:41:20Z</time>
      </trkpt>
      <trkpt lat="45.87847" lon="1.84448">
        <ele>734.58</ele>
        <time>2026-05-05T11:41:34Z</time>
      </trkpt>
      <trkpt lat="45.87824" lon="1.84439">
        <ele>733.62</ele>
        <time>2026-05-05T11:41:52Z</time>
      </trkpt>
      <trkpt lat="45.878" lon="1.84429">
        <ele>733.14</ele>
        <time>2026-05-05T11:42:09Z</time>
      </trkpt>
      <trkpt lat="45.87777" lon="1.84418">
        <ele>732.18</ele>
        <time>2026-05-05T11:42:26Z</time>
      </trkpt>
      <trkpt lat="45.8777" lon="1.84418">
        <ele>732.18</ele>
        <time>2026-05-05T11:42:39Z</time>
      </trkpt>
      <trkpt lat="45.87768" lon="1.84417">
        <ele>727.37</ele>
        <time>2026-05-05T11:42:42Z</time>
      </trkpt>
      <trkpt lat="45.87767" lon="1.84416">
        <ele>734.1</ele>
        <time>2026-05-05T11:42:43Z</time>
      </trkpt>
      <trkpt lat="45.87767" lon="1.84416">
        <ele>734.1</ele>
        <time>2026-05-05T11:42:44Z</time>
      </trkpt>
      <trkpt lat="45.87767" lon="1.84416">
        <ele>731.7</ele>
        <time>2026-05-05T11:42:47Z</time>
      </trkpt>
      <trkpt lat="45.87766" lon="1.84416">
        <ele>731.7</ele>
        <time>2026-05-05T11:42:49Z</time>
      </trkpt>
      <trkpt lat="45.87747" lon="1.84425">
        <ele>731.7</ele>
        <time>2026-05-05T11:43:06Z</time>
      </trkpt>
      <trkpt lat="45.8775" lon="1.84409">
        <ele>732.18</ele>
        <time>2026-05-05T11:43:19Z</time>
      </trkpt>
      <trkpt lat="45.87751" lon="1.84407">
        <ele>732.66</ele>
        <time>2026-05-05T11:43:23Z</time>
      </trkpt>
      <trkpt lat="45.87752" lon="1.84403">
        <ele>733.62</ele>
        <time>2026-05-05T11:43:43Z</time>
      </trkpt>
      <trkpt lat="45.87751" lon="1.84404">
        <ele>732.66</ele>
        <time>2026-05-05T11:43:54Z</time>
      </trkpt>
      <trkpt lat="45.87752" lon="1.84405">
        <ele>732.66</ele>
        <time>2026-05-05T11:44:30Z</time>
      </trkpt>
      <trkpt lat="45.87748" lon="1.84412">
        <ele>728.82</ele>
        <time>2026-05-05T11:44:35Z</time>
      </trkpt>
      <trkpt lat="45.87747" lon="1.84416">
        <ele>735.07</ele>
        <time>2026-05-05T11:44:37Z</time>
      </trkpt>
      <trkpt lat="45.87747" lon="1.84418">
        <ele>731.22</ele>
        <time>2026-05-05T11:44:38Z</time>
      </trkpt>
      <trkpt lat="45.87745" lon="1.84424">
        <ele>731.22</ele>
        <time>2026-05-05T11:44:42Z</time>
      </trkpt>
      <trkpt lat="45.87722" lon="1.84431">
        <ele>729.78</ele>
        <time>2026-05-05T11:45:00Z</time>
      </trkpt>
      <trkpt lat="45.87694" lon="1.84434">
        <ele>727.86</ele>
        <time>2026-05-05T11:45:22Z</time>
      </trkpt>
      <trkpt lat="45.87668" lon="1.84441">
        <ele>726.41</ele>
        <time>2026-05-05T11:45:41Z</time>
      </trkpt>
      <trkpt lat="45.87637" lon="1.84453">
        <ele>723.05</ele>
        <time>2026-05-05T11:46:04Z</time>
      </trkpt>
      <trkpt lat="45.87618" lon="1.84464">
        <ele>720.65</ele>
        <time>2026-05-05T11:46:21Z</time>
      </trkpt>
      <trkpt lat="45.87593" lon="1.84476">
        <ele>717.28</ele>
        <time>2026-05-05T11:46:42Z</time>
      </trkpt>
      <trkpt lat="45.87591" lon="1.84477">
        <ele>717.28</ele>
        <time>2026-05-05T11:46:43Z</time>
      </trkpt>
      <trkpt lat="45.87568" lon="1.84486">
        <ele>714.4</ele>
        <time>2026-05-05T11:47:02Z</time>
      </trkpt>
      <trkpt lat="45.87538" lon="1.84486">
        <ele>711.03</ele>
        <time>2026-05-05T11:47:20Z</time>
      </trkpt>
      <trkpt lat="45.87519" lon="1.84473">
        <ele>708.15</ele>
        <time>2026-05-05T11:47:35Z</time>
      </trkpt>
      <trkpt lat="45.87484" lon="1.84463">
        <ele>704.78</ele>
        <time>2026-05-05T11:47:57Z</time>
      </trkpt>
      <trkpt lat="45.87452" lon="1.84459">
        <ele>701.9</ele>
        <time>2026-05-05T11:48:15Z</time>
      </trkpt>
      <trkpt lat="45.87419" lon="1.84466">
        <ele>699.02</ele>
        <time>2026-05-05T11:48:39Z</time>
      </trkpt>
      <trkpt lat="45.874" lon="1.84473">
        <ele>696.61</ele>
        <time>2026-05-05T11:48:54Z</time>
      </trkpt>
      <trkpt lat="45.87371" lon="1.84478">
        <ele>696.13</ele>
        <time>2026-05-05T11:49:14Z</time>
      </trkpt>
      <trkpt lat="45.87344" lon="1.84497">
        <ele>697.57</ele>
        <time>2026-05-05T11:49:36Z</time>
      </trkpt>
      <trkpt lat="45.87321" lon="1.84515">
        <ele>699.02</ele>
        <time>2026-05-05T11:49:57Z</time>
      </trkpt>
      <trkpt lat="45.87296" lon="1.84527">
        <ele>698.53</ele>
        <time>2026-05-05T11:50:17Z</time>
      </trkpt>
      <trkpt lat="45.87282" lon="1.84533">
        <ele>699.02</ele>
        <time>2026-05-05T11:50:28Z</time>
      </trkpt>
      <trkpt lat="45.87258" lon="1.84551">
        <ele>700.94</ele>
        <time>2026-05-05T11:50:48Z</time>
      </trkpt>
      <trkpt lat="45.87245" lon="1.84557">
        <ele>699.98</ele>
        <time>2026-05-05T11:50:57Z</time>
      </trkpt>
      <trkpt lat="45.87219" lon="1.84577">
        <ele>698.53</ele>
        <time>2026-05-05T11:51:18Z</time>
      </trkpt>
      <trkpt lat="45.87208" lon="1.84584">
        <ele>699.5</ele>
        <time>2026-05-05T11:51:27Z</time>
      </trkpt>
      <trkpt lat="45.87201" lon="1.84594">
        <ele>698.05</ele>
        <time>2026-05-05T11:51:34Z</time>
      </trkpt>
      <trkpt lat="45.87197" lon="1.84596">
        <ele>693.25</ele>
        <time>2026-05-05T11:51:37Z</time>
      </trkpt>
      <trkpt lat="45.87196" lon="1.84598">
        <ele>696.13</ele>
        <time>2026-05-05T11:51:38Z</time>
      </trkpt>
      <trkpt lat="45.87194" lon="1.846">
        <ele>703.34</ele>
        <time>2026-05-05T11:51:39Z</time>
      </trkpt>
      <trkpt lat="45.87193" lon="1.84601">
        <ele>699.98</ele>
        <time>2026-05-05T11:51:40Z</time>
      </trkpt>
      <trkpt lat="45.87191" lon="1.84603">
        <ele>698.05</ele>
        <time>2026-05-05T11:51:42Z</time>
      </trkpt>
      <trkpt lat="45.87169" lon="1.84614">
        <ele>697.09</ele>
        <time>2026-05-05T11:51:59Z</time>
      </trkpt>
      <trkpt lat="45.87159" lon="1.84619">
        <ele>698.05</ele>
        <time>2026-05-05T11:52:07Z</time>
      </trkpt>
      <trkpt lat="45.87153" lon="1.84625">
        <ele>696.61</ele>
        <time>2026-05-05T11:52:12Z</time>
      </trkpt>
      <trkpt lat="45.87151" lon="1.84627">
        <ele>698.05</ele>
        <time>2026-05-05T11:52:14Z</time>
      </trkpt>
      <trkpt lat="45.87139" lon="1.84641">
        <ele>696.61</ele>
        <time>2026-05-05T11:52:26Z</time>
      </trkpt>
      <trkpt lat="45.87133" lon="1.84657">
        <ele>696.61</ele>
        <time>2026-05-05T11:52:35Z</time>
      </trkpt>
      <trkpt lat="45.8713" lon="1.84699">
        <ele>697.09</ele>
        <time>2026-05-05T11:52:55Z</time>
      </trkpt>
      <trkpt lat="45.87122" lon="1.8474">
        <ele>697.09</ele>
        <time>2026-05-05T11:53:16Z</time>
      </trkpt>
      <trkpt lat="45.87114" lon="1.84783">
        <ele>695.65</ele>
        <time>2026-05-05T11:53:39Z</time>
      </trkpt>
      <trkpt lat="45.87106" lon="1.84828">
        <ele>697.57</ele>
        <time>2026-05-05T11:54:01Z</time>
      </trkpt>
      <trkpt lat="45.87098" lon="1.84863">
        <ele>697.57</ele>
        <time>2026-05-05T11:54:22Z</time>
      </trkpt>
      <trkpt lat="45.87114" lon="1.84897">
        <ele>697.57</ele>
        <time>2026-05-05T11:54:44Z</time>
      </trkpt>
      <trkpt lat="45.87143" lon="1.84905">
        <ele>701.9</ele>
        <time>2026-05-05T11:55:02Z</time>
      </trkpt>
      <trkpt lat="45.87144" lon="1.84906">
        <ele>699.02</ele>
        <time>2026-05-05T11:55:03Z</time>
      </trkpt>
      <trkpt lat="45.87148" lon="1.84906">
        <ele>697.09</ele>
        <time>2026-05-05T11:55:06Z</time>
      </trkpt>
      <trkpt lat="45.87159" lon="1.84905">
        <ele>696.13</ele>
        <time>2026-05-05T11:55:20Z</time>
      </trkpt>
      <trkpt lat="45.87184" lon="1.84906">
        <ele>693.25</ele>
        <time>2026-05-05T11:55:41Z</time>
      </trkpt>
      <trkpt lat="45.87207" lon="1.84899">
        <ele>689.4</ele>
        <time>2026-05-05T11:55:58Z</time>
      </trkpt>
      <trkpt lat="45.87221" lon="1.84896">
        <ele>688.92</ele>
        <time>2026-05-05T11:56:07Z</time>
      </trkpt>
      <trkpt lat="45.8726" lon="1.84897">
        <ele>687</ele>
        <time>2026-05-05T11:56:34Z</time>
      </trkpt>
      <trkpt lat="45.87295" lon="1.84879">
        <ele>684.6</ele>
        <time>2026-05-05T11:56:59Z</time>
      </trkpt>
      <trkpt lat="45.87301" lon="1.84865">
        <ele>684.12</ele>
        <time>2026-05-05T11:57:05Z</time>
      </trkpt>
      <trkpt lat="45.87323" lon="1.84857">
        <ele>683.15</ele>
        <time>2026-05-05T11:57:27Z</time>
      </trkpt>
      <trkpt lat="45.87357" lon="1.84849">
        <ele>682.67</ele>
        <time>2026-05-05T11:57:49Z</time>
      </trkpt>
      <trkpt lat="45.87391" lon="1.8483">
        <ele>679.79</ele>
        <time>2026-05-05T11:58:12Z</time>
      </trkpt>
      <trkpt lat="45.8742" lon="1.84827">
        <ele>677.87</ele>
        <time>2026-05-05T11:58:35Z</time>
      </trkpt>
      <trkpt lat="45.87453" lon="1.84832">
        <ele>675.46</ele>
        <time>2026-05-05T11:58:57Z</time>
      </trkpt>
      <trkpt lat="45.87488" lon="1.8486">
        <ele>672.1</ele>
        <time>2026-05-05T11:59:20Z</time>
      </trkpt>
      <trkpt lat="45.87487" lon="1.84862">
        <ele>671.14</ele>
        <time>2026-05-05T11:59:22Z</time>
      </trkpt>
      <trkpt lat="45.87487" lon="1.84863">
        <ele>673.06</ele>
        <time>2026-05-05T11:59:24Z</time>
      </trkpt>
      <trkpt lat="45.87496" lon="1.84865">
        <ele>669.7</ele>
        <time>2026-05-05T11:59:38Z</time>
      </trkpt>
      <trkpt lat="45.87526" lon="1.84876">
        <ele>667.29</ele>
        <time>2026-05-05T11:59:58Z</time>
      </trkpt>
      <trkpt lat="45.87537" lon="1.84872">
        <ele>665.85</ele>
        <time>2026-05-05T12:00:04Z</time>
      </trkpt>
      <trkpt lat="45.87542" lon="1.84865">
        <ele>664.41</ele>
        <time>2026-05-05T12:00:14Z</time>
      </trkpt>
      <trkpt lat="45.87539" lon="1.84865">
        <ele>663.93</ele>
        <time>2026-05-05T12:00:18Z</time>
      </trkpt>
      <trkpt lat="45.87558" lon="1.84867">
        <ele>663.93</ele>
        <time>2026-05-05T12:00:39Z</time>
      </trkpt>
      <trkpt lat="45.87565" lon="1.84868">
        <ele>662.49</ele>
        <time>2026-05-05T12:00:42Z</time>
      </trkpt>
      <trkpt lat="45.87592" lon="1.84851">
        <ele>662.97</ele>
        <time>2026-05-05T12:01:00Z</time>
      </trkpt>
      <trkpt lat="45.87598" lon="1.84849">
        <ele>663.93</ele>
        <time>2026-05-05T12:01:08Z</time>
      </trkpt>
      <trkpt lat="45.87616" lon="1.84837">
        <ele>662.49</ele>
        <time>2026-05-05T12:01:23Z</time>
      </trkpt>
      <trkpt lat="45.87618" lon="1.84836">
        <ele>662.49</ele>
        <time>2026-05-05T12:01:45Z</time>
      </trkpt>
      <trkpt lat="45.87626" lon="1.84841">
        <ele>662.49</ele>
        <time>2026-05-05T12:02:09Z</time>
      </trkpt>
      <trkpt lat="45.87636" lon="1.84839">
        <ele>663.93</ele>
        <time>2026-05-05T12:02:15Z</time>
      </trkpt>
      <trkpt lat="45.87672" lon="1.84853">
        <ele>662.49</ele>
        <time>2026-05-05T12:02:38Z</time>
      </trkpt>
      <trkpt lat="45.87673" lon="1.84853">
        <ele>662.49</ele>
        <time>2026-05-05T12:02:39Z</time>
      </trkpt>
      <trkpt lat="45.87685" lon="1.84866">
        <ele>662.01</ele>
        <time>2026-05-05T12:02:55Z</time>
      </trkpt>
      <trkpt lat="45.87685" lon="1.8487">
        <ele>655.76</ele>
        <time>2026-05-05T12:02:56Z</time>
      </trkpt>
      <trkpt lat="45.87684" lon="1.84872">
        <ele>660.56</ele>
        <time>2026-05-05T12:02:57Z</time>
      </trkpt>
      <trkpt lat="45.87683" lon="1.84877">
        <ele>667.77</ele>
        <time>2026-05-05T12:02:59Z</time>
      </trkpt>
      <trkpt lat="45.87683" lon="1.84878">
        <ele>663.93</ele>
        <time>2026-05-05T12:03:00Z</time>
      </trkpt>
      <trkpt lat="45.87684" lon="1.8488">
        <ele>662.49</ele>
        <time>2026-05-05T12:03:01Z</time>
      </trkpt>
      <trkpt lat="45.87685" lon="1.84884">
        <ele>661.52</ele>
        <time>2026-05-05T12:03:03Z</time>
      </trkpt>
      <trkpt lat="45.87691" lon="1.84898">
        <ele>660.56</ele>
        <time>2026-05-05T12:03:13Z</time>
      </trkpt>
      <trkpt lat="45.87699" lon="1.84922">
        <ele>659.6</ele>
        <time>2026-05-05T12:03:26Z</time>
      </trkpt>
      <trkpt lat="45.87702" lon="1.84928">
        <ele>659.12</ele>
        <time>2026-05-05T12:03:30Z</time>
      </trkpt>
      <trkpt lat="45.87713" lon="1.84948">
        <ele>658.16</ele>
        <time>2026-05-05T12:03:45Z</time>
      </trkpt>
      <trkpt lat="45.87729" lon="1.84961">
        <ele>658.16</ele>
        <time>2026-05-05T12:04:02Z</time>
      </trkpt>
      <trkpt lat="45.87748" lon="1.84973">
        <ele>657.68</ele>
        <time>2026-05-05T12:04:16Z</time>
      </trkpt>
      <trkpt lat="45.87768" lon="1.84986">
        <ele>657.2</ele>
        <time>2026-05-05T12:04:31Z</time>
      </trkpt>
      <trkpt lat="45.87788" lon="1.8498">
        <ele>656.24</ele>
        <time>2026-05-05T12:04:44Z</time>
      </trkpt>
      <trkpt lat="45.87805" lon="1.8498">
        <ele>654.31</ele>
        <time>2026-05-05T12:04:58Z</time>
      </trkpt>
      <trkpt lat="45.87821" lon="1.84984">
        <ele>653.35</ele>
        <time>2026-05-05T12:05:09Z</time>
      </trkpt>
      <trkpt lat="45.87835" lon="1.84993">
        <ele>650.47</ele>
        <time>2026-05-05T12:05:21Z</time>
      </trkpt>
      <trkpt lat="45.87847" lon="1.8501">
        <ele>649.51</ele>
        <time>2026-05-05T12:05:36Z</time>
      </trkpt>
      <trkpt lat="45.87855" lon="1.85032">
        <ele>647.1</ele>
        <time>2026-05-05T12:05:51Z</time>
      </trkpt>
      <trkpt lat="45.87864" lon="1.85049">
        <ele>645.18</ele>
        <time>2026-05-05T12:06:04Z</time>
      </trkpt>
      <trkpt lat="45.87873" lon="1.85073">
        <ele>642.78</ele>
        <time>2026-05-05T12:06:19Z</time>
      </trkpt>
      <trkpt lat="45.87884" lon="1.85098">
        <ele>641.34</ele>
        <time>2026-05-05T12:06:33Z</time>
      </trkpt>
      <trkpt lat="45.87888" lon="1.85106">
        <ele>640.86</ele>
        <time>2026-05-05T12:06:38Z</time>
      </trkpt>
      <trkpt lat="45.87897" lon="1.85127">
        <ele>638.93</ele>
        <time>2026-05-05T12:06:49Z</time>
      </trkpt>
      <trkpt lat="45.87904" lon="1.85147">
        <ele>637.97</ele>
        <time>2026-05-05T12:07:02Z</time>
      </trkpt>
      <trkpt lat="45.87911" lon="1.85159">
        <ele>637.49</ele>
        <time>2026-05-05T12:07:26Z</time>
      </trkpt>
      <trkpt lat="45.87918" lon="1.85184">
        <ele>635.57</ele>
        <time>2026-05-05T12:07:41Z</time>
      </trkpt>
      <trkpt lat="45.8792" lon="1.85192">
        <ele>635.09</ele>
        <time>2026-05-05T12:07:53Z</time>
      </trkpt>
      <trkpt lat="45.87921" lon="1.85195">
        <ele>636.53</ele>
        <time>2026-05-05T12:07:56Z</time>
      </trkpt>
      <trkpt lat="45.8792" lon="1.85195">
        <ele>635.09</ele>
        <time>2026-05-05T12:07:59Z</time>
      </trkpt>
      <trkpt lat="45.87919" lon="1.85193">
        <ele>635.09</ele>
        <time>2026-05-05T12:08:14Z</time>
      </trkpt>
      <trkpt lat="45.87915" lon="1.85189">
        <ele>636.05</ele>
        <time>2026-05-05T12:08:28Z</time>
      </trkpt>
      <trkpt lat="45.87912" lon="1.85183">
        <ele>634.61</ele>
        <time>2026-05-05T12:08:58Z</time>
      </trkpt>
      <trkpt lat="45.87912" lon="1.85183">
        <ele>636.05</ele>
        <time>2026-05-05T12:09:03Z</time>
      </trkpt>
      <trkpt lat="45.87917" lon="1.85184">
        <ele>635.09</ele>
        <time>2026-05-05T12:09:25Z</time>
      </trkpt>
      <trkpt lat="45.87915" lon="1.85186">
        <ele>635.09</ele>
        <time>2026-05-05T12:09:45Z</time>
      </trkpt>
      <trkpt lat="45.87915" lon="1.85189">
        <ele>636.53</ele>
        <time>2026-05-05T12:10:22Z</time>
      </trkpt>
      <trkpt lat="45.87917" lon="1.85194">
        <ele>637.01</ele>
        <time>2026-05-05T12:10:40Z</time>
      </trkpt>
      <trkpt lat="45.87917" lon="1.85196">
        <ele>635.57</ele>
        <time>2026-05-05T12:10:43Z</time>
      </trkpt>
      <trkpt lat="45.87916" lon="1.85194">
        <ele>636.53</ele>
        <time>2026-05-05T12:11:05Z</time>
      </trkpt>
      <trkpt lat="45.87925" lon="1.85185">
        <ele>636.53</ele>
        <time>2026-05-05T12:11:22Z</time>
      </trkpt>
      <trkpt lat="45.87925" lon="1.85183">
        <ele>635.57</ele>
        <time>2026-05-05T12:11:46Z</time>
      </trkpt>
      <trkpt lat="45.87925" lon="1.85186">
        <ele>636.05</ele>
        <time>2026-05-05T12:11:55Z</time>
      </trkpt>
      <trkpt lat="45.87929" lon="1.85182">
        <ele>637.49</ele>
        <time>2026-05-05T12:12:18Z</time>
      </trkpt>
      <trkpt lat="45.87924" lon="1.85184">
        <ele>636.05</ele>
        <time>2026-05-05T12:12:49Z</time>
      </trkpt>
      <trkpt lat="45.87913" lon="1.85181">
        <ele>636.05</ele>
        <time>2026-05-05T12:13:17Z</time>
      </trkpt>
      <trkpt lat="45.8792" lon="1.85187">
        <ele>636.05</ele>
        <time>2026-05-05T12:13:45Z</time>
      </trkpt>
      <trkpt lat="45.87917" lon="1.85188">
        <ele>636.05</ele>
        <time>2026-05-05T12:14:11Z</time>
      </trkpt>
      <trkpt lat="45.87914" lon="1.85191">
        <ele>636.05</ele>
        <time>2026-05-05T12:14:37Z</time>
      </trkpt>
      <trkpt lat="45.87915" lon="1.85189">
        <ele>636.05</ele>
        <time>2026-05-05T12:14:51Z</time>
      </trkpt>
      <trkpt lat="45.87907" lon="1.85216">
        <ele>634.13</ele>
        <time>2026-05-05T12:15:06Z</time>
      </trkpt>
      <trkpt lat="45.87902" lon="1.85224">
        <ele>634.13</ele>
        <time>2026-05-05T12:15:22Z</time>
      </trkpt>
      <trkpt lat="45.87905" lon="1.85225">
        <ele>634.61</ele>
        <time>2026-05-05T12:15:40Z</time>
      </trkpt>
      <trkpt lat="45.87906" lon="1.8522">
        <ele>633.65</ele>
        <time>2026-05-05T12:16:00Z</time>
      </trkpt>
      <trkpt lat="45.87906" lon="1.85223">
        <ele>633.65</ele>
        <time>2026-05-05T12:16:03Z</time>
      </trkpt>
      <trkpt lat="45.87908" lon="1.85225">
        <ele>635.09</ele>
        <time>2026-05-05T12:16:09Z</time>
      </trkpt>
      <trkpt lat="45.87908" lon="1.85219">
        <ele>633.17</ele>
        <time>2026-05-05T12:16:31Z</time>
      </trkpt>
      <trkpt lat="45.87909" lon="1.85217">
        <ele>635.09</ele>
        <time>2026-05-05T12:16:46Z</time>
      </trkpt>
      <trkpt lat="45.87906" lon="1.85228">
        <ele>635.09</ele>
        <time>2026-05-05T12:17:00Z</time>
      </trkpt>
      <trkpt lat="45.87907" lon="1.85222">
        <ele>635.09</ele>
        <time>2026-05-05T12:17:10Z</time>
      </trkpt>
      <trkpt lat="45.87908" lon="1.85222">
        <ele>632.2</ele>
        <time>2026-05-05T12:17:15Z</time>
      </trkpt>
      <trkpt lat="45.87911" lon="1.85219">
        <ele>635.09</ele>
        <time>2026-05-05T12:17:29Z</time>
      </trkpt>
      <trkpt lat="45.87909" lon="1.85222">
        <ele>635.09</ele>
        <time>2026-05-05T12:17:47Z</time>
      </trkpt>
      <trkpt lat="45.87908" lon="1.85219">
        <ele>634.13</ele>
        <time>2026-05-05T12:18:12Z</time>
      </trkpt>
      <trkpt lat="45.87911" lon="1.85222">
        <ele>634.13</ele>
        <time>2026-05-05T12:18:29Z</time>
      </trkpt>
      <trkpt lat="45.87909" lon="1.85221">
        <ele>634.13</ele>
        <time>2026-05-05T12:18:35Z</time>
      </trkpt>
      <trkpt lat="45.87904" lon="1.85222">
        <ele>634.13</ele>
        <time>2026-05-05T12:18:47Z</time>
      </trkpt>
      <trkpt lat="45.87904" lon="1.85228">
        <ele>634.13</ele>
        <time>2026-05-05T12:19:02Z</time>
      </trkpt>
      <trkpt lat="45.87906" lon="1.85231">
        <ele>634.13</ele>
        <time>2026-05-05T12:19:18Z</time>
      </trkpt>
      <trkpt lat="45.87908" lon="1.85236">
        <ele>633.65</ele>
        <time>2026-05-05T12:19:32Z</time>
      </trkpt>
      <trkpt lat="45.87913" lon="1.85241">
        <ele>633.65</ele>
        <time>2026-05-05T12:19:38Z</time>
      </trkpt>
      <trkpt lat="45.87915" lon="1.85243">
        <ele>633.65</ele>
        <time>2026-05-05T12:19:41Z</time>
      </trkpt>
      <trkpt lat="45.87924" lon="1.85269">
        <ele>633.17</ele>
        <time>2026-05-05T12:20:00Z</time>
      </trkpt>
      <trkpt lat="45.87927" lon="1.85285">
        <ele>635.09</ele>
        <time>2026-05-05T12:20:12Z</time>
      </trkpt>
      <trkpt lat="45.87926" lon="1.85286">
        <ele>633.65</ele>
        <time>2026-05-05T12:20:14Z</time>
      </trkpt>
      <trkpt lat="45.87929" lon="1.85291">
        <ele>633.17</ele>
        <time>2026-05-05T12:20:39Z</time>
      </trkpt>
      <trkpt lat="45.87932" lon="1.85299">
        <ele>634.13</ele>
        <time>2026-05-05T12:20:58Z</time>
      </trkpt>
      <trkpt lat="45.87933" lon="1.85302">
        <ele>634.13</ele>
        <time>2026-05-05T12:21:01Z</time>
      </trkpt>
      <trkpt lat="45.87939" lon="1.85309">
        <ele>634.13</ele>
        <time>2026-05-05T12:21:07Z</time>
      </trkpt>
      <trkpt lat="45.87953" lon="1.85326">
        <ele>634.61</ele>
        <time>2026-05-05T12:21:21Z</time>
      </trkpt>
      <trkpt lat="45.8796" lon="1.85334">
        <ele>634.61</ele>
        <time>2026-05-05T12:21:28Z</time>
      </trkpt>
      <trkpt lat="45.87963" lon="1.85338">
        <ele>633.17</ele>
        <time>2026-05-05T12:21:31Z</time>
      </trkpt>
      <trkpt lat="45.87964" lon="1.85338">
        <ele>633.17</ele>
        <time>2026-05-05T12:21:32Z</time>
      </trkpt>
      <trkpt lat="45.87977" lon="1.85349">
        <ele>632.2</ele>
        <time>2026-05-05T12:21:45Z</time>
      </trkpt>
      <trkpt lat="45.87976" lon="1.8535">
        <ele>632.2</ele>
        <time>2026-05-05T12:21:46Z</time>
      </trkpt>
      <trkpt lat="45.87978" lon="1.85363">
        <ele>631.24</ele>
        <time>2026-05-05T12:21:54Z</time>
      </trkpt>
      <trkpt lat="45.87977" lon="1.85367">
        <ele>631.24</ele>
        <time>2026-05-05T12:21:57Z</time>
      </trkpt>
      <trkpt lat="45.87973" lon="1.85383">
        <ele>631.24</ele>
        <time>2026-05-05T12:22:11Z</time>
      </trkpt>
      <trkpt lat="45.87973" lon="1.85384">
        <ele>631.24</ele>
        <time>2026-05-05T12:22:12Z</time>
      </trkpt>
      <trkpt lat="45.87972" lon="1.85398">
        <ele>630.76</ele>
        <time>2026-05-05T12:22:20Z</time>
      </trkpt>
      <trkpt lat="45.87977" lon="1.85416">
        <ele>628.84</ele>
        <time>2026-05-05T12:22:30Z</time>
      </trkpt>
      <trkpt lat="45.87979" lon="1.85442">
        <ele>628.36</ele>
        <time>2026-05-05T12:22:46Z</time>
      </trkpt>
      <trkpt lat="45.87981" lon="1.85449">
        <ele>628.36</ele>
        <time>2026-05-05T12:23:07Z</time>
      </trkpt>
      <trkpt lat="45.87982" lon="1.85459">
        <ele>627.88</ele>
        <time>2026-05-05T12:23:14Z</time>
      </trkpt>
      <trkpt lat="45.87986" lon="1.85483">
        <ele>626.92</ele>
        <time>2026-05-05T12:23:28Z</time>
      </trkpt>
      <trkpt lat="45.8799" lon="1.85508">
        <ele>626.44</ele>
        <time>2026-05-05T12:23:41Z</time>
      </trkpt>
      <trkpt lat="45.87994" lon="1.85517">
        <ele>625.96</ele>
        <time>2026-05-05T12:23:47Z</time>
      </trkpt>
      <trkpt lat="45.88001" lon="1.85534">
        <ele>624.99</ele>
        <time>2026-05-05T12:23:56Z</time>
      </trkpt>
      <trkpt lat="45.88003" lon="1.85538">
        <ele>624.51</ele>
        <time>2026-05-05T12:23:59Z</time>
      </trkpt>
      <trkpt lat="45.88012" lon="1.85547">
        <ele>624.03</ele>
        <time>2026-05-05T12:24:08Z</time>
      </trkpt>
      <trkpt lat="45.88015" lon="1.8555">
        <ele>623.55</ele>
        <time>2026-05-05T12:24:11Z</time>
      </trkpt>
      <trkpt lat="45.88034" lon="1.85561">
        <ele>622.11</ele>
        <time>2026-05-05T12:24:28Z</time>
      </trkpt>
      <trkpt lat="45.88047" lon="1.85564">
        <ele>621.15</ele>
        <time>2026-05-05T12:24:46Z</time>
      </trkpt>
      <trkpt lat="45.88046" lon="1.85564">
        <ele>621.15</ele>
        <time>2026-05-05T12:25:17Z</time>
      </trkpt>
      <trkpt lat="45.88068" lon="1.85584">
        <ele>619.23</ele>
        <time>2026-05-05T12:25:36Z</time>
      </trkpt>
      <trkpt lat="45.88086" lon="1.85595">
        <ele>617.3</ele>
        <time>2026-05-05T12:25:49Z</time>
      </trkpt>
      <trkpt lat="45.88099" lon="1.85597">
        <ele>615.86</ele>
        <time>2026-05-05T12:26:04Z</time>
      </trkpt>
      <trkpt lat="45.88099" lon="1.85602">
        <ele>615.38</ele>
        <time>2026-05-05T12:26:10Z</time>
      </trkpt>
      <trkpt lat="45.88101" lon="1.85607">
        <ele>614.9</ele>
        <time>2026-05-05T12:26:13Z</time>
      </trkpt>
      <trkpt lat="45.8809" lon="1.85622">
        <ele>612.98</ele>
        <time>2026-05-05T12:26:29Z</time>
      </trkpt>
      <trkpt lat="45.88087" lon="1.85624">
        <ele>612.5</ele>
        <time>2026-05-05T12:26:34Z</time>
      </trkpt>
      <trkpt lat="45.88076" lon="1.85633">
        <ele>611.54</ele>
        <time>2026-05-05T12:26:50Z</time>
      </trkpt>
      <trkpt lat="45.88062" lon="1.85653">
        <ele>609.61</ele>
        <time>2026-05-05T12:27:05Z</time>
      </trkpt>
      <trkpt lat="45.88061" lon="1.85653">
        <ele>609.13</ele>
        <time>2026-05-05T12:27:06Z</time>
      </trkpt>
      <trkpt lat="45.88053" lon="1.85663">
        <ele>607.69</ele>
        <time>2026-05-05T12:27:13Z</time>
      </trkpt>
      <trkpt lat="45.88049" lon="1.85673">
        <ele>606.73</ele>
        <time>2026-05-05T12:27:20Z</time>
      </trkpt>
      <trkpt lat="45.8805" lon="1.8568">
        <ele>606.25</ele>
        <time>2026-05-05T12:27:24Z</time>
      </trkpt>
      <trkpt lat="45.88053" lon="1.85681">
        <ele>605.29</ele>
        <time>2026-05-05T12:27:27Z</time>
      </trkpt>
      <trkpt lat="45.88061" lon="1.85682">
        <ele>603.36</ele>
        <time>2026-05-05T12:27:37Z</time>
      </trkpt>
      <trkpt lat="45.88071" lon="1.85704">
        <ele>601.44</ele>
        <time>2026-05-05T12:27:51Z</time>
      </trkpt>
      <trkpt lat="45.88072" lon="1.85705">
        <ele>601.44</ele>
        <time>2026-05-05T12:27:52Z</time>
      </trkpt>
      <trkpt lat="45.88077" lon="1.85736">
        <ele>600.48</ele>
        <time>2026-05-05T12:28:06Z</time>
      </trkpt>
      <trkpt lat="45.88076" lon="1.85743">
        <ele>600</ele>
        <time>2026-05-05T12:28:11Z</time>
      </trkpt>
      <trkpt lat="45.88077" lon="1.85747">
        <ele>600</ele>
        <time>2026-05-05T12:28:13Z</time>
      </trkpt>
      <trkpt lat="45.88079" lon="1.8576">
        <ele>600</ele>
        <time>2026-05-05T12:28:22Z</time>
      </trkpt>
      <trkpt lat="45.88081" lon="1.85771">
        <ele>600</ele>
        <time>2026-05-05T12:28:26Z</time>
      </trkpt>
      <trkpt lat="45.88082" lon="1.85779">
        <ele>600</ele>
        <time>2026-05-05T12:28:31Z</time>
      </trkpt>
      <trkpt lat="45.88081" lon="1.85801">
        <ele>599.52</ele>
        <time>2026-05-05T12:28:45Z</time>
      </trkpt>
      <trkpt lat="45.88078" lon="1.85813">
        <ele>599.04</ele>
        <time>2026-05-05T12:28:55Z</time>
      </trkpt>
      <trkpt lat="45.88082" lon="1.85824">
        <ele>600</ele>
        <time>2026-05-05T12:29:08Z</time>
      </trkpt>
      <trkpt lat="45.88083" lon="1.8583">
        <ele>600</ele>
        <time>2026-05-05T12:29:12Z</time>
      </trkpt>
      <trkpt lat="45.88082" lon="1.85842">
        <ele>600.96</ele>
        <time>2026-05-05T12:29:24Z</time>
      </trkpt>
      <trkpt lat="45.88092" lon="1.85851">
        <ele>600.96</ele>
        <time>2026-05-05T12:29:53Z</time>
      </trkpt>
      <trkpt lat="45.88093" lon="1.85852">
        <ele>601.44</ele>
        <time>2026-05-05T12:30:26Z</time>
      </trkpt>
      <trkpt lat="45.88093" lon="1.85854">
        <ele>601.44</ele>
        <time>2026-05-05T12:30:46Z</time>
      </trkpt>
      <trkpt lat="45.8809" lon="1.85858">
        <ele>600</ele>
        <time>2026-05-05T12:31:08Z</time>
      </trkpt>
      <trkpt lat="45.8809" lon="1.85863">
        <ele>600</ele>
        <time>2026-05-05T12:31:17Z</time>
      </trkpt>
      <trkpt lat="45.88094" lon="1.8587">
        <ele>600</ele>
        <time>2026-05-05T12:31:32Z</time>
      </trkpt>
      <trkpt lat="45.88091" lon="1.85879">
        <ele>601.44</ele>
        <time>2026-05-05T12:31:42Z</time>
      </trkpt>
      <trkpt lat="45.88102" lon="1.85895">
        <ele>601.44</ele>
        <time>2026-05-05T12:31:59Z</time>
      </trkpt>
      <trkpt lat="45.88108" lon="1.85907">
        <ele>601.92</ele>
        <time>2026-05-05T12:32:16Z</time>
      </trkpt>
      <trkpt lat="45.88115" lon="1.85936">
        <ele>602.88</ele>
        <time>2026-05-05T12:32:37Z</time>
      </trkpt>
      <trkpt lat="45.88119" lon="1.85942">
        <ele>602.88</ele>
        <time>2026-05-05T12:32:43Z</time>
      </trkpt>
      <trkpt lat="45.88124" lon="1.85955">
        <ele>604.81</ele>
        <time>2026-05-05T12:32:52Z</time>
      </trkpt>
      <trkpt lat="45.88145" lon="1.85953">
        <ele>605.29</ele>
        <time>2026-05-05T12:33:11Z</time>
      </trkpt>
      <trkpt lat="45.8817" lon="1.85948">
        <ele>605.77</ele>
        <time>2026-05-05T12:33:33Z</time>
      </trkpt>
      <trkpt lat="45.88203" lon="1.85949">
        <ele>607.21</ele>
        <time>2026-05-05T12:33:56Z</time>
      </trkpt>
      <trkpt lat="45.88217" lon="1.85945">
        <ele>609.13</ele>
        <time>2026-05-05T12:34:17Z</time>
      </trkpt>
      <trkpt lat="45.88227" lon="1.8595">
        <ele>609.61</ele>
        <time>2026-05-05T12:34:24Z</time>
      </trkpt>
      <trkpt lat="45.88244" lon="1.85951">
        <ele>611.06</ele>
        <time>2026-05-05T12:34:45Z</time>
      </trkpt>
      <trkpt lat="45.88269" lon="1.85966">
        <ele>612.02</ele>
        <time>2026-05-05T12:34:58Z</time>
      </trkpt>
      <trkpt lat="45.88273" lon="1.85974">
        <ele>614.9</ele>
        <time>2026-05-05T12:35:14Z</time>
      </trkpt>
      <trkpt lat="45.88266" lon="1.8597">
        <ele>616.82</ele>
        <time>2026-05-05T12:35:33Z</time>
      </trkpt>
      <trkpt lat="45.88254" lon="1.8598">
        <ele>619.23</ele>
        <time>2026-05-05T12:35:50Z</time>
      </trkpt>
      <trkpt lat="45.88239" lon="1.85985">
        <ele>619.71</ele>
        <time>2026-05-05T12:36:06Z</time>
      </trkpt>
      <trkpt lat="45.88227" lon="1.85995">
        <ele>620.67</ele>
        <time>2026-05-05T12:36:22Z</time>
      </trkpt>
      <trkpt lat="45.88194" lon="1.86014">
        <ele>622.11</ele>
        <time>2026-05-05T12:36:44Z</time>
      </trkpt>
      <trkpt lat="45.8818" lon="1.86032">
        <ele>624.51</ele>
        <time>2026-05-05T12:37:04Z</time>
      </trkpt>
      <trkpt lat="45.8816" lon="1.86045">
        <ele>625.96</ele>
        <time>2026-05-05T12:37:24Z</time>
      </trkpt>
      <trkpt lat="45.88137" lon="1.86041">
        <ele>627.4</ele>
        <time>2026-05-05T12:37:42Z</time>
      </trkpt>
      <trkpt lat="45.88121" lon="1.86041">
        <ele>629.32</ele>
        <time>2026-05-05T12:38:01Z</time>
      </trkpt>
      <trkpt lat="45.88106" lon="1.86044">
        <ele>632.2</ele>
        <time>2026-05-05T12:38:20Z</time>
      </trkpt>
      <trkpt lat="45.88088" lon="1.86043">
        <ele>632.68</ele>
        <time>2026-05-05T12:38:34Z</time>
      </trkpt>
      <trkpt lat="45.88069" lon="1.86036">
        <ele>635.09</ele>
        <time>2026-05-05T12:38:52Z</time>
      </trkpt>
      <trkpt lat="45.88052" lon="1.8603">
        <ele>635.57</ele>
        <time>2026-05-05T12:39:07Z</time>
      </trkpt>
      <trkpt lat="45.88033" lon="1.86027">
        <ele>636.05</ele>
        <time>2026-05-05T12:39:23Z</time>
      </trkpt>
      <trkpt lat="45.88017" lon="1.86029">
        <ele>637.01</ele>
        <time>2026-05-05T12:39:37Z</time>
      </trkpt>
      <trkpt lat="45.88002" lon="1.86027">
        <ele>637.97</ele>
        <time>2026-05-05T12:39:52Z</time>
      </trkpt>
      <trkpt lat="45.87991" lon="1.86031">
        <ele>640.38</ele>
        <time>2026-05-05T12:40:00Z</time>
      </trkpt>
      <trkpt lat="45.8799" lon="1.86032">
        <ele>640.38</ele>
        <time>2026-05-05T12:40:01Z</time>
      </trkpt>
      <trkpt lat="45.87967" lon="1.8604">
        <ele>643.26</ele>
        <time>2026-05-05T12:40:19Z</time>
      </trkpt>
      <trkpt lat="45.87949" lon="1.86054">
        <ele>644.22</ele>
        <time>2026-05-05T12:40:35Z</time>
      </trkpt>
      <trkpt lat="45.87925" lon="1.86068">
        <ele>645.66</ele>
        <time>2026-05-05T12:40:51Z</time>
      </trkpt>
      <trkpt lat="45.87916" lon="1.86089">
        <ele>648.07</ele>
        <time>2026-05-05T12:41:05Z</time>
      </trkpt>
      <trkpt lat="45.87915" lon="1.86093">
        <ele>649.03</ele>
        <time>2026-05-05T12:41:07Z</time>
      </trkpt>
      <trkpt lat="45.87913" lon="1.86104">
        <ele>650.47</ele>
        <time>2026-05-05T12:41:13Z</time>
      </trkpt>
      <trkpt lat="45.87908" lon="1.86111">
        <ele>650.47</ele>
        <time>2026-05-05T12:41:20Z</time>
      </trkpt>
      <trkpt lat="45.87903" lon="1.86114">
        <ele>649.51</ele>
        <time>2026-05-05T12:41:27Z</time>
      </trkpt>
      <trkpt lat="45.87895" lon="1.86123">
        <ele>648.07</ele>
        <time>2026-05-05T12:41:39Z</time>
      </trkpt>
      <trkpt lat="45.87884" lon="1.86126">
        <ele>648.07</ele>
        <time>2026-05-05T12:41:51Z</time>
      </trkpt>
      <trkpt lat="45.87874" lon="1.86131">
        <ele>647.1</ele>
        <time>2026-05-05T12:42:00Z</time>
      </trkpt>
      <trkpt lat="45.87871" lon="1.86133">
        <ele>647.1</ele>
        <time>2026-05-05T12:42:04Z</time>
      </trkpt>
      <trkpt lat="45.87849" lon="1.86139">
        <ele>645.18</ele>
        <time>2026-05-05T12:42:18Z</time>
      </trkpt>
      <trkpt lat="45.87842" lon="1.86143">
        <ele>645.18</ele>
        <time>2026-05-05T12:42:24Z</time>
      </trkpt>
      <trkpt lat="45.87837" lon="1.86148">
        <ele>645.18</ele>
        <time>2026-05-05T12:42:31Z</time>
      </trkpt>
      <trkpt lat="45.87839" lon="1.86153">
        <ele>646.62</ele>
        <time>2026-05-05T12:42:36Z</time>
      </trkpt>
      <trkpt lat="45.87836" lon="1.86167">
        <ele>647.1</ele>
        <time>2026-05-05T12:42:51Z</time>
      </trkpt>
      <trkpt lat="45.87829" lon="1.86175">
        <ele>648.55</ele>
        <time>2026-05-05T12:43:03Z</time>
      </trkpt>
      <trkpt lat="45.87815" lon="1.86175">
        <ele>650.47</ele>
        <time>2026-05-05T12:43:19Z</time>
      </trkpt>
      <trkpt lat="45.87814" lon="1.86175">
        <ele>650.47</ele>
        <time>2026-05-05T12:43:20Z</time>
      </trkpt>
      <trkpt lat="45.87807" lon="1.8618">
        <ele>651.43</ele>
        <time>2026-05-05T12:43:29Z</time>
      </trkpt>
      <trkpt lat="45.87792" lon="1.86191">
        <ele>652.87</ele>
        <time>2026-05-05T12:43:44Z</time>
      </trkpt>
      <trkpt lat="45.87789" lon="1.86198">
        <ele>653.35</ele>
        <time>2026-05-05T12:43:58Z</time>
      </trkpt>
      <trkpt lat="45.87788" lon="1.86202">
        <ele>653.35</ele>
        <time>2026-05-05T12:44:14Z</time>
      </trkpt>
      <trkpt lat="45.87782" lon="1.86205">
        <ele>649.51</ele>
        <time>2026-05-05T12:44:30Z</time>
      </trkpt>
      <trkpt lat="45.87782" lon="1.86205">
        <ele>655.28</ele>
        <time>2026-05-05T12:44:32Z</time>
      </trkpt>
      <trkpt lat="45.87782" lon="1.86205">
        <ele>653.83</ele>
        <time>2026-05-05T12:44:33Z</time>
      </trkpt>
      <trkpt lat="45.87782" lon="1.86204">
        <ele>653.35</ele>
        <time>2026-05-05T12:44:35Z</time>
      </trkpt>
      <trkpt lat="45.87774" lon="1.86204">
        <ele>652.87</ele>
        <time>2026-05-05T12:44:48Z</time>
      </trkpt>
      <trkpt lat="45.87769" lon="1.86206">
        <ele>652.87</ele>
        <time>2026-05-05T12:44:53Z</time>
      </trkpt>
      <trkpt lat="45.87757" lon="1.86206">
        <ele>651.91</ele>
        <time>2026-05-05T12:45:03Z</time>
      </trkpt>
      <trkpt lat="45.87743" lon="1.86215">
        <ele>650.95</ele>
        <time>2026-05-05T12:45:18Z</time>
      </trkpt>
      <trkpt lat="45.8773" lon="1.86225">
        <ele>649.03</ele>
        <time>2026-05-05T12:45:31Z</time>
      </trkpt>
      <trkpt lat="45.87713" lon="1.86242">
        <ele>648.55</ele>
        <time>2026-05-05T12:45:47Z</time>
      </trkpt>
      <trkpt lat="45.87696" lon="1.86252">
        <ele>646.14</ele>
        <time>2026-05-05T12:46:01Z</time>
      </trkpt>
      <trkpt lat="45.87682" lon="1.86264">
        <ele>643.74</ele>
        <time>2026-05-05T12:46:11Z</time>
      </trkpt>
      <trkpt lat="45.87666" lon="1.86281">
        <ele>641.82</ele>
        <time>2026-05-05T12:46:25Z</time>
      </trkpt>
      <trkpt lat="45.87645" lon="1.86287">
        <ele>640.38</ele>
        <time>2026-05-05T12:46:40Z</time>
      </trkpt>
      <trkpt lat="45.87634" lon="1.86283">
        <ele>639.41</ele>
        <time>2026-05-05T12:46:54Z</time>
      </trkpt>
      <trkpt lat="45.87628" lon="1.86278">
        <ele>640.86</ele>
        <time>2026-05-05T12:47:06Z</time>
      </trkpt>
      <trkpt lat="45.8762" lon="1.86285">
        <ele>642.3</ele>
        <time>2026-05-05T12:47:16Z</time>
      </trkpt>
      <trkpt lat="45.87613" lon="1.86281">
        <ele>644.7</ele>
        <time>2026-05-05T12:47:29Z</time>
      </trkpt>
      <trkpt lat="45.87611" lon="1.86281">
        <ele>646.14</ele>
        <time>2026-05-05T12:47:33Z</time>
      </trkpt>
      <trkpt lat="45.87605" lon="1.86293">
        <ele>647.1</ele>
        <time>2026-05-05T12:47:43Z</time>
      </trkpt>
      <trkpt lat="45.87599" lon="1.86302">
        <ele>649.03</ele>
        <time>2026-05-05T12:47:58Z</time>
      </trkpt>
      <trkpt lat="45.87594" lon="1.86302">
        <ele>650.95</ele>
        <time>2026-05-05T12:48:11Z</time>
      </trkpt>
      <trkpt lat="45.87587" lon="1.86302">
        <ele>652.87</ele>
        <time>2026-05-05T12:48:25Z</time>
      </trkpt>
      <trkpt lat="45.8758" lon="1.86298">
        <ele>654.8</ele>
        <time>2026-05-05T12:48:36Z</time>
      </trkpt>
      <trkpt lat="45.87573" lon="1.86295">
        <ele>656.72</ele>
        <time>2026-05-05T12:48:46Z</time>
      </trkpt>
      <trkpt lat="45.87565" lon="1.86295">
        <ele>658.64</ele>
        <time>2026-05-05T12:48:58Z</time>
      </trkpt>
      <trkpt lat="45.87561" lon="1.86293">
        <ele>659.6</ele>
        <time>2026-05-05T12:49:07Z</time>
      </trkpt>
      <trkpt lat="45.8755" lon="1.86287">
        <ele>660.56</ele>
        <time>2026-05-05T12:49:18Z</time>
      </trkpt>
      <trkpt lat="45.87536" lon="1.86278">
        <ele>661.04</ele>
        <time>2026-05-05T12:49:30Z</time>
      </trkpt>
      <trkpt lat="45.87532" lon="1.86277">
        <ele>661.04</ele>
        <time>2026-05-05T12:49:34Z</time>
      </trkpt>
      <trkpt lat="45.87523" lon="1.86277">
        <ele>662.97</ele>
        <time>2026-05-05T12:49:43Z</time>
      </trkpt>
      <trkpt lat="45.87521" lon="1.86277">
        <ele>662.97</ele>
        <time>2026-05-05T12:49:45Z</time>
      </trkpt>
      <trkpt lat="45.8751" lon="1.86272">
        <ele>663.45</ele>
        <time>2026-05-05T12:49:55Z</time>
      </trkpt>
      <trkpt lat="45.87498" lon="1.86266">
        <ele>663.93</ele>
        <time>2026-05-05T12:50:07Z</time>
      </trkpt>
      <trkpt lat="45.87497" lon="1.86266">
        <ele>664.89</ele>
        <time>2026-05-05T12:50:09Z</time>
      </trkpt>
      <trkpt lat="45.87487" lon="1.86261">
        <ele>664.89</ele>
        <time>2026-05-05T12:50:18Z</time>
      </trkpt>
      <trkpt lat="45.87478" lon="1.86266">
        <ele>666.81</ele>
        <time>2026-05-05T12:50:30Z</time>
      </trkpt>
      <trkpt lat="45.87473" lon="1.86273">
        <ele>667.29</ele>
        <time>2026-05-05T12:50:45Z</time>
      </trkpt>
      <trkpt lat="45.87471" lon="1.86278">
        <ele>668.25</ele>
        <time>2026-05-05T12:50:50Z</time>
      </trkpt>
      <trkpt lat="45.87469" lon="1.86281">
        <ele>668.25</ele>
        <time>2026-05-05T12:50:53Z</time>
      </trkpt>
      <trkpt lat="45.87468" lon="1.86284">
        <ele>668.73</ele>
        <time>2026-05-05T12:50:55Z</time>
      </trkpt>
      <trkpt lat="45.87461" lon="1.86294">
        <ele>670.66</ele>
        <time>2026-05-05T12:51:08Z</time>
      </trkpt>
      <trkpt lat="45.87451" lon="1.86304">
        <ele>672.58</ele>
        <time>2026-05-05T12:51:23Z</time>
      </trkpt>
      <trkpt lat="45.87439" lon="1.86315">
        <ele>674.5</ele>
        <time>2026-05-05T12:51:39Z</time>
      </trkpt>
      <trkpt lat="45.87434" lon="1.86319">
        <ele>675.46</ele>
        <time>2026-05-05T12:51:46Z</time>
      </trkpt>
      <trkpt lat="45.87422" lon="1.86333">
        <ele>676.42</ele>
        <time>2026-05-05T12:52:00Z</time>
      </trkpt>
      <trkpt lat="45.8742" lon="1.86337">
        <ele>676.91</ele>
        <time>2026-05-05T12:52:03Z</time>
      </trkpt>
      <trkpt lat="45.87415" lon="1.86355">
        <ele>677.39</ele>
        <time>2026-05-05T12:52:15Z</time>
      </trkpt>
      <trkpt lat="45.87412" lon="1.8636">
        <ele>677.39</ele>
        <time>2026-05-05T12:52:19Z</time>
      </trkpt>
      <trkpt lat="45.87406" lon="1.86371">
        <ele>678.35</ele>
        <time>2026-05-05T12:52:26Z</time>
      </trkpt>
      <trkpt lat="45.87399" lon="1.8638">
        <ele>679.31</ele>
        <time>2026-05-05T12:52:34Z</time>
      </trkpt>
      <trkpt lat="45.87397" lon="1.86386">
        <ele>678.83</ele>
        <time>2026-05-05T12:52:38Z</time>
      </trkpt>
      <trkpt lat="45.87395" lon="1.86389">
        <ele>679.31</ele>
        <time>2026-05-05T12:52:40Z</time>
      </trkpt>
      <trkpt lat="45.87389" lon="1.86405">
        <ele>681.23</ele>
        <time>2026-05-05T12:52:54Z</time>
      </trkpt>
      <trkpt lat="45.87387" lon="1.86407">
        <ele>681.23</ele>
        <time>2026-05-05T12:52:56Z</time>
      </trkpt>
      <trkpt lat="45.87373" lon="1.86425">
        <ele>680.75</ele>
        <time>2026-05-05T12:53:10Z</time>
      </trkpt>
      <trkpt lat="45.87361" lon="1.86438">
        <ele>681.23</ele>
        <time>2026-05-05T12:53:22Z</time>
      </trkpt>
      <trkpt lat="45.87352" lon="1.86441">
        <ele>681.23</ele>
        <time>2026-05-05T12:53:31Z</time>
      </trkpt>
      <trkpt lat="45.87336" lon="1.86435">
        <ele>681.71</ele>
        <time>2026-05-05T12:53:44Z</time>
      </trkpt>
      <trkpt lat="45.87329" lon="1.86417">
        <ele>682.19</ele>
        <time>2026-05-05T12:53:55Z</time>
      </trkpt>
      <trkpt lat="45.87324" lon="1.86399">
        <ele>683.15</ele>
        <time>2026-05-05T12:54:06Z</time>
      </trkpt>
      <trkpt lat="45.87324" lon="1.86398">
        <ele>683.15</ele>
        <time>2026-05-05T12:54:07Z</time>
      </trkpt>
      <trkpt lat="45.8732" lon="1.86382">
        <ele>684.12</ele>
        <time>2026-05-05T12:54:16Z</time>
      </trkpt>
      <trkpt lat="45.87313" lon="1.86361">
        <ele>685.08</ele>
        <time>2026-05-05T12:54:29Z</time>
      </trkpt>
      <trkpt lat="45.87303" lon="1.86346">
        <ele>686.04</ele>
        <time>2026-05-05T12:54:41Z</time>
      </trkpt>
      <trkpt lat="45.87301" lon="1.86345">
        <ele>686.52</ele>
        <time>2026-05-05T12:54:58Z</time>
      </trkpt>
      <trkpt lat="45.87298" lon="1.86343">
        <ele>686.52</ele>
        <time>2026-05-05T12:55:02Z</time>
      </trkpt>
      <trkpt lat="45.87291" lon="1.86341">
        <ele>687.48</ele>
        <time>2026-05-05T12:55:11Z</time>
      </trkpt>
      <trkpt lat="45.87281" lon="1.86336">
        <ele>689.88</ele>
        <time>2026-05-05T12:55:24Z</time>
      </trkpt>
      <trkpt lat="45.87277" lon="1.86336">
        <ele>689.88</ele>
        <time>2026-05-05T12:55:27Z</time>
      </trkpt>
      <trkpt lat="45.87262" lon="1.86332">
        <ele>691.33</ele>
        <time>2026-05-05T12:55:39Z</time>
      </trkpt>
      <trkpt lat="45.87253" lon="1.86333">
        <ele>692.77</ele>
        <time>2026-05-05T12:55:49Z</time>
      </trkpt>
      <trkpt lat="45.87237" lon="1.86336">
        <ele>695.17</ele>
        <time>2026-05-05T12:56:02Z</time>
      </trkpt>
      <trkpt lat="45.8723" lon="1.86339">
        <ele>696.61</ele>
        <time>2026-05-05T12:56:15Z</time>
      </trkpt>
      <trkpt lat="45.87229" lon="1.86339">
        <ele>696.61</ele>
        <time>2026-05-05T12:56:16Z</time>
      </trkpt>
      <trkpt lat="45.8722" lon="1.8634">
        <ele>698.05</ele>
        <time>2026-05-05T12:56:24Z</time>
      </trkpt>
      <trkpt lat="45.87212" lon="1.86337">
        <ele>699.5</ele>
        <time>2026-05-05T12:56:31Z</time>
      </trkpt>
      <trkpt lat="45.87206" lon="1.86336">
        <ele>699.98</ele>
        <time>2026-05-05T12:56:36Z</time>
      </trkpt>
      <trkpt lat="45.872" lon="1.86339">
        <ele>700.46</ele>
        <time>2026-05-05T12:56:41Z</time>
      </trkpt>
      <trkpt lat="45.87188" lon="1.86347">
        <ele>700.94</ele>
        <time>2026-05-05T12:56:52Z</time>
      </trkpt>
      <trkpt lat="45.87182" lon="1.8635">
        <ele>701.42</ele>
        <time>2026-05-05T12:56:58Z</time>
      </trkpt>
      <trkpt lat="45.87168" lon="1.86357">
        <ele>703.82</ele>
        <time>2026-05-05T12:57:13Z</time>
      </trkpt>
      <trkpt lat="45.87158" lon="1.8636">
        <ele>704.3</ele>
        <time>2026-05-05T12:57:22Z</time>
      </trkpt>
      <trkpt lat="45.87146" lon="1.86371">
        <ele>706.71</ele>
        <time>2026-05-05T12:57:36Z</time>
      </trkpt>
      <trkpt lat="45.87145" lon="1.86381">
        <ele>707.19</ele>
        <time>2026-05-05T12:57:53Z</time>
      </trkpt>
      <trkpt lat="45.87143" lon="1.86382">
        <ele>707.67</ele>
        <time>2026-05-05T12:58:10Z</time>
      </trkpt>
      <trkpt lat="45.87134" lon="1.86377">
        <ele>708.15</ele>
        <time>2026-05-05T12:58:22Z</time>
      </trkpt>
      <trkpt lat="45.87131" lon="1.86382">
        <ele>708.15</ele>
        <time>2026-05-05T12:58:38Z</time>
      </trkpt>
      <trkpt lat="45.87129" lon="1.86384">
        <ele>708.63</ele>
        <time>2026-05-05T12:58:41Z</time>
      </trkpt>
      <trkpt lat="45.87126" lon="1.86387">
        <ele>709.11</ele>
        <time>2026-05-05T12:58:45Z</time>
      </trkpt>
      <trkpt lat="45.87121" lon="1.8639">
        <ele>710.07</ele>
        <time>2026-05-05T12:58:50Z</time>
      </trkpt>
      <trkpt lat="45.87118" lon="1.86387">
        <ele>710.07</ele>
        <time>2026-05-05T12:59:05Z</time>
      </trkpt>
      <trkpt lat="45.87117" lon="1.8639">
        <ele>706.71</ele>
        <time>2026-05-05T12:59:25Z</time>
      </trkpt>
      <trkpt lat="45.87117" lon="1.8639">
        <ele>712.47</ele>
        <time>2026-05-05T12:59:26Z</time>
      </trkpt>
      <trkpt lat="45.87116" lon="1.86393">
        <ele>710.55</ele>
        <time>2026-05-05T12:59:43Z</time>
      </trkpt>
      <trkpt lat="45.87116" lon="1.86394">
        <ele>710.55</ele>
        <time>2026-05-05T12:59:45Z</time>
      </trkpt>
      <trkpt lat="45.87114" lon="1.86397">
        <ele>710.55</ele>
        <time>2026-05-05T12:59:48Z</time>
      </trkpt>
      <trkpt lat="45.871" lon="1.86402">
        <ele>711.99</ele>
        <time>2026-05-05T13:00:01Z</time>
      </trkpt>
      <trkpt lat="45.87086" lon="1.86404">
        <ele>712.95</ele>
        <time>2026-05-05T13:00:14Z</time>
      </trkpt>
      <trkpt lat="45.8707" lon="1.86406">
        <ele>713.92</ele>
        <time>2026-05-05T13:00:27Z</time>
      </trkpt>
      <trkpt lat="45.87063" lon="1.8641">
        <ele>714.4</ele>
        <time>2026-05-05T13:00:34Z</time>
      </trkpt>
      <trkpt lat="45.8706" lon="1.86412">
        <ele>714.4</ele>
        <time>2026-05-05T13:00:36Z</time>
      </trkpt>
      <trkpt lat="45.87046" lon="1.86415">
        <ele>712.95</ele>
        <time>2026-05-05T13:00:47Z</time>
      </trkpt>
      <trkpt lat="45.87031" lon="1.86423">
        <ele>711.03</ele>
        <time>2026-05-05T13:00:59Z</time>
      </trkpt>
      <trkpt lat="45.87025" lon="1.86424">
        <ele>710.55</ele>
        <time>2026-05-05T13:01:04Z</time>
      </trkpt>
      <trkpt lat="45.87024" lon="1.86426">
        <ele>710.55</ele>
        <time>2026-05-05T13:01:05Z</time>
      </trkpt>
      <trkpt lat="45.87023" lon="1.86427">
        <ele>710.55</ele>
        <time>2026-05-05T13:01:06Z</time>
      </trkpt>
      <trkpt lat="45.87021" lon="1.86428">
        <ele>710.55</ele>
        <time>2026-05-05T13:01:07Z</time>
      </trkpt>
      <trkpt lat="45.8702" lon="1.86429">
        <ele>710.55</ele>
        <time>2026-05-05T13:01:08Z</time>
      </trkpt>
      <trkpt lat="45.87017" lon="1.8643">
        <ele>710.07</ele>
        <time>2026-05-05T13:01:12Z</time>
      </trkpt>
      <trkpt lat="45.87015" lon="1.86431">
        <ele>710.07</ele>
        <time>2026-05-05T13:01:13Z</time>
      </trkpt>
      <trkpt lat="45.87014" lon="1.86431">
        <ele>710.07</ele>
        <time>2026-05-05T13:01:14Z</time>
      </trkpt>
      <trkpt lat="45.87012" lon="1.86432">
        <ele>710.07</ele>
        <time>2026-05-05T13:01:15Z</time>
      </trkpt>
      <trkpt lat="45.8701" lon="1.86432">
        <ele>710.07</ele>
        <time>2026-05-05T13:01:16Z</time>
      </trkpt>
      <trkpt lat="45.87008" lon="1.86433">
        <ele>710.07</ele>
        <time>2026-05-05T13:01:17Z</time>
      </trkpt>
      <trkpt lat="45.86993" lon="1.86437">
        <ele>709.11</ele>
        <time>2026-05-05T13:01:29Z</time>
      </trkpt>
      <trkpt lat="45.8698" lon="1.86442">
        <ele>707.67</ele>
        <time>2026-05-05T13:01:39Z</time>
      </trkpt>
      <trkpt lat="45.86971" lon="1.86443">
        <ele>706.71</ele>
        <time>2026-05-05T13:01:46Z</time>
      </trkpt>
      <trkpt lat="45.8697" lon="1.86444">
        <ele>706.71</ele>
        <time>2026-05-05T13:01:47Z</time>
      </trkpt>
      <trkpt lat="45.86955" lon="1.86449">
        <ele>706.23</ele>
        <time>2026-05-05T13:01:58Z</time>
      </trkpt>
      <trkpt lat="45.86947" lon="1.86454">
        <ele>705.26</ele>
        <time>2026-05-05T13:02:05Z</time>
      </trkpt>
      <trkpt lat="45.86945" lon="1.86454">
        <ele>705.26</ele>
        <time>2026-05-05T13:02:06Z</time>
      </trkpt>
      <trkpt lat="45.86944" lon="1.86454">
        <ele>704.78</ele>
        <time>2026-05-05T13:02:07Z</time>
      </trkpt>
      <trkpt lat="45.86927" lon="1.86454">
        <ele>704.3</ele>
        <time>2026-05-05T13:02:20Z</time>
      </trkpt>
      <trkpt lat="45.86911" lon="1.86454">
        <ele>703.82</ele>
        <time>2026-05-05T13:02:31Z</time>
      </trkpt>
      <trkpt lat="45.869" lon="1.86459">
        <ele>703.34</ele>
        <time>2026-05-05T13:02:40Z</time>
      </trkpt>
      <trkpt lat="45.86882" lon="1.86467">
        <ele>702.38</ele>
        <time>2026-05-05T13:02:55Z</time>
      </trkpt>
      <trkpt lat="45.86865" lon="1.8647">
        <ele>701.9</ele>
        <time>2026-05-05T13:03:09Z</time>
      </trkpt>
      <trkpt lat="45.86855" lon="1.86474">
        <ele>701.42</ele>
        <time>2026-05-05T13:03:16Z</time>
      </trkpt>
      <trkpt lat="45.8685" lon="1.86478">
        <ele>701.42</ele>
        <time>2026-05-05T13:03:20Z</time>
      </trkpt>
      <trkpt lat="45.86846" lon="1.86481">
        <ele>700.46</ele>
        <time>2026-05-05T13:03:25Z</time>
      </trkpt>
      <trkpt lat="45.86842" lon="1.86483">
        <ele>699.5</ele>
        <time>2026-05-05T13:03:29Z</time>
      </trkpt>
      <trkpt lat="45.86838" lon="1.86485">
        <ele>699.02</ele>
        <time>2026-05-05T13:03:32Z</time>
      </trkpt>
      <trkpt lat="45.86837" lon="1.86486">
        <ele>699.02</ele>
        <time>2026-05-05T13:03:33Z</time>
      </trkpt>
      <trkpt lat="45.86825" lon="1.86491">
        <ele>698.53</ele>
        <time>2026-05-05T13:03:41Z</time>
      </trkpt>
      <trkpt lat="45.86824" lon="1.86493">
        <ele>698.53</ele>
        <time>2026-05-05T13:03:42Z</time>
      </trkpt>
      <trkpt lat="45.86817" lon="1.86509">
        <ele>698.05</ele>
        <time>2026-05-05T13:03:52Z</time>
      </trkpt>
      <trkpt lat="45.86817" lon="1.86512">
        <ele>697.57</ele>
        <time>2026-05-05T13:03:53Z</time>
      </trkpt>
      <trkpt lat="45.86816" lon="1.86519">
        <ele>697.09</ele>
        <time>2026-05-05T13:03:57Z</time>
      </trkpt>
      <trkpt lat="45.86811" lon="1.86538">
        <ele>696.61</ele>
        <time>2026-05-05T13:04:08Z</time>
      </trkpt>
      <trkpt lat="45.86813" lon="1.86546">
        <ele>696.61</ele>
        <time>2026-05-05T13:04:19Z</time>
      </trkpt>
      <trkpt lat="45.86815" lon="1.8655">
        <ele>696.61</ele>
        <time>2026-05-05T13:04:23Z</time>
      </trkpt>
      <trkpt lat="45.86818" lon="1.86559">
        <ele>696.61</ele>
        <time>2026-05-05T13:04:41Z</time>
      </trkpt>
      <trkpt lat="45.8682" lon="1.86561">
        <ele>698.05</ele>
        <time>2026-05-05T13:04:47Z</time>
      </trkpt>
      <trkpt lat="45.86821" lon="1.86569">
        <ele>699.98</ele>
        <time>2026-05-05T13:04:56Z</time>
      </trkpt>
      <trkpt lat="45.86821" lon="1.86573">
        <ele>700.46</ele>
        <time>2026-05-05T13:05:00Z</time>
      </trkpt>
      <trkpt lat="45.86821" lon="1.86576">
        <ele>700.94</ele>
        <time>2026-05-05T13:05:03Z</time>
      </trkpt>
      <trkpt lat="45.86821" lon="1.86582">
        <ele>701.42</ele>
        <time>2026-05-05T13:05:08Z</time>
      </trkpt>
      <trkpt lat="45.86818" lon="1.86593">
        <ele>703.34</ele>
        <time>2026-05-05T13:05:20Z</time>
      </trkpt>
      <trkpt lat="45.86814" lon="1.86606">
        <ele>705.26</ele>
        <time>2026-05-05T13:05:33Z</time>
      </trkpt>
      <trkpt lat="45.86814" lon="1.86611">
        <ele>705.75</ele>
        <time>2026-05-05T13:05:38Z</time>
      </trkpt>
      <trkpt lat="45.86811" lon="1.86628">
        <ele>706.71</ele>
        <time>2026-05-05T13:05:50Z</time>
      </trkpt>
      <trkpt lat="45.86817" lon="1.86648">
        <ele>709.59</ele>
        <time>2026-05-05T13:06:04Z</time>
      </trkpt>
      <trkpt lat="45.86818" lon="1.86663">
        <ele>711.51</ele>
        <time>2026-05-05T13:06:17Z</time>
      </trkpt>
      <trkpt lat="45.86821" lon="1.86681">
        <ele>712.95</ele>
        <time>2026-05-05T13:06:30Z</time>
      </trkpt>
      <trkpt lat="45.86824" lon="1.86697">
        <ele>715.36</ele>
        <time>2026-05-05T13:06:45Z</time>
      </trkpt>
      <trkpt lat="45.86827" lon="1.86716">
        <ele>717.28</ele>
        <time>2026-05-05T13:06:59Z</time>
      </trkpt>
      <trkpt lat="45.86824" lon="1.86734">
        <ele>719.2</ele>
        <time>2026-05-05T13:07:15Z</time>
      </trkpt>
      <trkpt lat="45.86818" lon="1.86751">
        <ele>720.65</ele>
        <time>2026-05-05T13:07:31Z</time>
      </trkpt>
      <trkpt lat="45.86815" lon="1.86764">
        <ele>721.61</ele>
        <time>2026-05-05T13:07:39Z</time>
      </trkpt>
      <trkpt lat="45.86811" lon="1.86777">
        <ele>723.53</ele>
        <time>2026-05-05T13:07:50Z</time>
      </trkpt>
      <trkpt lat="45.86805" lon="1.86793">
        <ele>724.97</ele>
        <time>2026-05-05T13:08:02Z</time>
      </trkpt>
      <trkpt lat="45.86806" lon="1.8681">
        <ele>726.89</ele>
        <time>2026-05-05T13:08:15Z</time>
      </trkpt>
      <trkpt lat="45.86806" lon="1.8683">
        <ele>728.34</ele>
        <time>2026-05-05T13:08:26Z</time>
      </trkpt>
      <trkpt lat="45.86806" lon="1.86833">
        <ele>728.34</ele>
        <time>2026-05-05T13:08:27Z</time>
      </trkpt>
      <trkpt lat="45.86806" lon="1.86841">
        <ele>729.78</ele>
        <time>2026-05-05T13:08:32Z</time>
      </trkpt>
      <trkpt lat="45.86806" lon="1.86843">
        <ele>729.78</ele>
        <time>2026-05-05T13:08:33Z</time>
      </trkpt>
      <trkpt lat="45.86806" lon="1.86868">
        <ele>730.74</ele>
        <time>2026-05-05T13:08:47Z</time>
      </trkpt>
      <trkpt lat="45.86806" lon="1.86873">
        <ele>731.22</ele>
        <time>2026-05-05T13:08:51Z</time>
      </trkpt>
      <trkpt lat="45.86806" lon="1.86876">
        <ele>731.7</ele>
        <time>2026-05-05T13:08:52Z</time>
      </trkpt>
      <trkpt lat="45.86806" lon="1.86878">
        <ele>731.7</ele>
        <time>2026-05-05T13:08:53Z</time>
      </trkpt>
      <trkpt lat="45.86812" lon="1.86897">
        <ele>733.62</ele>
        <time>2026-05-05T13:09:09Z</time>
      </trkpt>
      <trkpt lat="45.86818" lon="1.86918">
        <ele>733.62</ele>
        <time>2026-05-05T13:09:24Z</time>
      </trkpt>
      <trkpt lat="45.86814" lon="1.8694">
        <ele>732.66</ele>
        <time>2026-05-05T13:09:37Z</time>
      </trkpt>
      <trkpt lat="45.86813" lon="1.86944">
        <ele>732.18</ele>
        <time>2026-05-05T13:09:40Z</time>
      </trkpt>
      <trkpt lat="45.86813" lon="1.8695">
        <ele>731.22</ele>
        <time>2026-05-05T13:09:45Z</time>
      </trkpt>
      <trkpt lat="45.86815" lon="1.86957">
        <ele>730.74</ele>
        <time>2026-05-05T13:09:50Z</time>
      </trkpt>
      <trkpt lat="45.86816" lon="1.86958">
        <ele>730.74</ele>
        <time>2026-05-05T13:09:51Z</time>
      </trkpt>
      <trkpt lat="45.86816" lon="1.8696">
        <ele>730.26</ele>
        <time>2026-05-05T13:09:52Z</time>
      </trkpt>
      <trkpt lat="45.86817" lon="1.86962">
        <ele>730.74</ele>
        <time>2026-05-05T13:09:53Z</time>
      </trkpt>
      <trkpt lat="45.86818" lon="1.86964">
        <ele>730.74</ele>
        <time>2026-05-05T13:09:54Z</time>
      </trkpt>
      <trkpt lat="45.86821" lon="1.86971">
        <ele>730.74</ele>
        <time>2026-05-05T13:10:00Z</time>
      </trkpt>
      <trkpt lat="45.86822" lon="1.86973">
        <ele>730.74</ele>
        <time>2026-05-05T13:10:01Z</time>
      </trkpt>
      <trkpt lat="45.86825" lon="1.86977">
        <ele>730.74</ele>
        <time>2026-05-05T13:10:03Z</time>
      </trkpt>
      <trkpt lat="45.86826" lon="1.86978">
        <ele>730.74</ele>
        <time>2026-05-05T13:10:04Z</time>
      </trkpt>
      <trkpt lat="45.86828" lon="1.8698">
        <ele>731.7</ele>
        <time>2026-05-05T13:10:05Z</time>
      </trkpt>
      <trkpt lat="45.86835" lon="1.86988">
        <ele>731.7</ele>
        <time>2026-05-05T13:10:12Z</time>
      </trkpt>
      <trkpt lat="45.86837" lon="1.86989">
        <ele>731.7</ele>
        <time>2026-05-05T13:10:13Z</time>
      </trkpt>
      <trkpt lat="45.86838" lon="1.8699">
        <ele>731.7</ele>
        <time>2026-05-05T13:10:14Z</time>
      </trkpt>
      <trkpt lat="45.8684" lon="1.86991">
        <ele>731.7</ele>
        <time>2026-05-05T13:10:15Z</time>
      </trkpt>
      <trkpt lat="45.86843" lon="1.86993">
        <ele>730.26</ele>
        <time>2026-05-05T13:10:19Z</time>
      </trkpt>
      <trkpt lat="45.8686" lon="1.86995">
        <ele>730.26</ele>
        <time>2026-05-05T13:10:33Z</time>
      </trkpt>
      <trkpt lat="45.86868" lon="1.86998">
        <ele>730.26</ele>
        <time>2026-05-05T13:10:37Z</time>
      </trkpt>
      <trkpt lat="45.86875" lon="1.87">
        <ele>730.26</ele>
        <time>2026-05-05T13:10:42Z</time>
      </trkpt>
      <trkpt lat="45.8688" lon="1.87002">
        <ele>729.78</ele>
        <time>2026-05-05T13:10:45Z</time>
      </trkpt>
      <trkpt lat="45.8688" lon="1.87003">
        <ele>729.78</ele>
        <time>2026-05-05T13:10:46Z</time>
      </trkpt>
      <trkpt lat="45.86886" lon="1.87016">
        <ele>731.22</ele>
        <time>2026-05-05T13:10:55Z</time>
      </trkpt>
      <trkpt lat="45.86886" lon="1.87018">
        <ele>731.22</ele>
        <time>2026-05-05T13:10:56Z</time>
      </trkpt>
      <trkpt lat="45.86886" lon="1.87026">
        <ele>731.22</ele>
        <time>2026-05-05T13:11:03Z</time>
      </trkpt>
      <trkpt lat="45.86886" lon="1.87029">
        <ele>731.22</ele>
        <time>2026-05-05T13:11:05Z</time>
      </trkpt>
      <trkpt lat="45.86885" lon="1.87035">
        <ele>731.22</ele>
        <time>2026-05-05T13:11:11Z</time>
      </trkpt>
      <trkpt lat="45.86884" lon="1.87037">
        <ele>731.22</ele>
        <time>2026-05-05T13:11:12Z</time>
      </trkpt>
      <trkpt lat="45.86883" lon="1.87046">
        <ele>729.78</ele>
        <time>2026-05-05T13:11:21Z</time>
      </trkpt>
      <trkpt lat="45.86883" lon="1.87048">
        <ele>729.78</ele>
        <time>2026-05-05T13:11:22Z</time>
      </trkpt>
      <trkpt lat="45.86882" lon="1.8705">
        <ele>729.78</ele>
        <time>2026-05-05T13:11:23Z</time>
      </trkpt>
      <trkpt lat="45.86883" lon="1.87073">
        <ele>729.78</ele>
        <time>2026-05-05T13:11:35Z</time>
      </trkpt>
      <trkpt lat="45.86884" lon="1.87088">
        <ele>729.78</ele>
        <time>2026-05-05T13:11:42Z</time>
      </trkpt>
      <trkpt lat="45.86885" lon="1.8709">
        <ele>729.78</ele>
        <time>2026-05-05T13:11:43Z</time>
      </trkpt>
      <trkpt lat="45.86888" lon="1.87114">
        <ele>731.7</ele>
        <time>2026-05-05T13:11:57Z</time>
      </trkpt>
      <trkpt lat="45.86888" lon="1.8713">
        <ele>731.7</ele>
        <time>2026-05-05T13:12:07Z</time>
      </trkpt>
      <trkpt lat="45.86888" lon="1.87142">
        <ele>731.7</ele>
        <time>2026-05-05T13:12:14Z</time>
      </trkpt>
      <trkpt lat="45.86888" lon="1.87145">
        <ele>732.18</ele>
        <time>2026-05-05T13:12:15Z</time>
      </trkpt>
      <trkpt lat="45.86888" lon="1.87147">
        <ele>732.18</ele>
        <time>2026-05-05T13:12:16Z</time>
      </trkpt>
      <trkpt lat="45.86888" lon="1.8715">
        <ele>732.18</ele>
        <time>2026-05-05T13:12:17Z</time>
      </trkpt>
      <trkpt lat="45.86888" lon="1.87153">
        <ele>732.18</ele>
        <time>2026-05-05T13:12:18Z</time>
      </trkpt>
      <trkpt lat="45.86888" lon="1.87156">
        <ele>732.18</ele>
        <time>2026-05-05T13:12:19Z</time>
      </trkpt>
      <trkpt lat="45.86888" lon="1.87167">
        <ele>732.18</ele>
        <time>2026-05-05T13:12:25Z</time>
      </trkpt>
      <trkpt lat="45.86889" lon="1.8717">
        <ele>732.18</ele>
        <time>2026-05-05T13:12:26Z</time>
      </trkpt>
      <trkpt lat="45.86891" lon="1.87192">
        <ele>732.66</ele>
        <time>2026-05-05T13:12:37Z</time>
      </trkpt>
      <trkpt lat="45.86886" lon="1.87214">
        <ele>734.1</ele>
        <time>2026-05-05T13:12:50Z</time>
      </trkpt>
      <trkpt lat="45.86884" lon="1.8722">
        <ele>734.58</ele>
        <time>2026-05-05T13:12:55Z</time>
      </trkpt>
      <trkpt lat="45.86884" lon="1.87222">
        <ele>734.58</ele>
        <time>2026-05-05T13:12:56Z</time>
      </trkpt>
      <trkpt lat="45.86881" lon="1.87237">
        <ele>736.51</ele>
        <time>2026-05-05T13:13:08Z</time>
      </trkpt>
      <trkpt lat="45.86881" lon="1.87238">
        <ele>736.51</ele>
        <time>2026-05-05T13:13:09Z</time>
      </trkpt>
      <trkpt lat="45.8688" lon="1.8724">
        <ele>736.51</ele>
        <time>2026-05-05T13:13:10Z</time>
      </trkpt>
      <trkpt lat="45.8688" lon="1.87242">
        <ele>736.51</ele>
        <time>2026-05-05T13:13:11Z</time>
      </trkpt>
      <trkpt lat="45.86876" lon="1.87259">
        <ele>738.43</ele>
        <time>2026-05-05T13:13:23Z</time>
      </trkpt>
      <trkpt lat="45.86871" lon="1.87277">
        <ele>739.87</ele>
        <time>2026-05-05T13:13:36Z</time>
      </trkpt>
      <trkpt lat="45.86871" lon="1.87279">
        <ele>739.87</ele>
        <time>2026-05-05T13:13:37Z</time>
      </trkpt>
      <trkpt lat="45.86871" lon="1.87281">
        <ele>739.87</ele>
        <time>2026-05-05T13:13:38Z</time>
      </trkpt>
      <trkpt lat="45.86869" lon="1.8729">
        <ele>740.35</ele>
        <time>2026-05-05T13:13:44Z</time>
      </trkpt>
      <trkpt lat="45.86864" lon="1.87309">
        <ele>742.28</ele>
        <time>2026-05-05T13:13:57Z</time>
      </trkpt>
      <trkpt lat="45.8686" lon="1.8732">
        <ele>742.76</ele>
        <time>2026-05-05T13:14:03Z</time>
      </trkpt>
      <trkpt lat="45.86857" lon="1.87335">
        <ele>743.72</ele>
        <time>2026-05-05T13:14:14Z</time>
      </trkpt>
      <trkpt lat="45.86853" lon="1.87351">
        <ele>745.16</ele>
        <time>2026-05-05T13:14:26Z</time>
      </trkpt>
      <trkpt lat="45.86852" lon="1.87355">
        <ele>746.12</ele>
        <time>2026-05-05T13:14:29Z</time>
      </trkpt>
      <trkpt lat="45.86852" lon="1.87357">
        <ele>746.12</ele>
        <time>2026-05-05T13:14:30Z</time>
      </trkpt>
      <trkpt lat="45.86851" lon="1.87359">
        <ele>746.12</ele>
        <time>2026-05-05T13:14:31Z</time>
      </trkpt>
      <trkpt lat="45.8685" lon="1.87365">
        <ele>746.6</ele>
        <time>2026-05-05T13:14:35Z</time>
      </trkpt>
      <trkpt lat="45.86849" lon="1.87366">
        <ele>747.08</ele>
        <time>2026-05-05T13:14:36Z</time>
      </trkpt>
      <trkpt lat="45.86849" lon="1.87367">
        <ele>747.08</ele>
        <time>2026-05-05T13:14:37Z</time>
      </trkpt>
      <trkpt lat="45.86846" lon="1.87371">
        <ele>747.56</ele>
        <time>2026-05-05T13:14:42Z</time>
      </trkpt>
      <trkpt lat="45.86845" lon="1.87372">
        <ele>747.56</ele>
        <time>2026-05-05T13:14:43Z</time>
      </trkpt>
      <trkpt lat="45.86833" lon="1.87382">
        <ele>748.52</ele>
        <time>2026-05-05T13:14:56Z</time>
      </trkpt>
      <trkpt lat="45.86827" lon="1.87392">
        <ele>749</ele>
        <time>2026-05-05T13:15:10Z</time>
      </trkpt>
      <trkpt lat="45.86817" lon="1.87393">
        <ele>749</ele>
        <time>2026-05-05T13:15:19Z</time>
      </trkpt>
      <trkpt lat="45.86816" lon="1.87394">
        <ele>749</ele>
        <time>2026-05-05T13:15:20Z</time>
      </trkpt>
      <trkpt lat="45.86804" lon="1.87397">
        <ele>749</ele>
        <time>2026-05-05T13:15:35Z</time>
      </trkpt>
      <trkpt lat="45.86801" lon="1.87395">
        <ele>749</ele>
        <time>2026-05-05T13:15:37Z</time>
      </trkpt>
      <trkpt lat="45.86791" lon="1.87399">
        <ele>748.04</ele>
        <time>2026-05-05T13:15:47Z</time>
      </trkpt>
      <trkpt lat="45.86761" lon="1.8741">
        <ele>747.56</ele>
        <time>2026-05-05T13:16:08Z</time>
      </trkpt>
      <trkpt lat="45.86749" lon="1.87411">
        <ele>746.6</ele>
        <time>2026-05-05T13:16:17Z</time>
      </trkpt>
      <trkpt lat="45.86748" lon="1.8741">
        <ele>746.6</ele>
        <time>2026-05-05T13:16:18Z</time>
      </trkpt>
      <trkpt lat="45.86729" lon="1.87415">
        <ele>745.64</ele>
        <time>2026-05-05T13:16:31Z</time>
      </trkpt>
      <trkpt lat="45.86713" lon="1.87421">
        <ele>744.2</ele>
        <time>2026-05-05T13:16:44Z</time>
      </trkpt>
      <trkpt lat="45.86697" lon="1.87425">
        <ele>743.24</ele>
        <time>2026-05-05T13:16:57Z</time>
      </trkpt>
      <trkpt lat="45.86673" lon="1.87428">
        <ele>741.79</ele>
        <time>2026-05-05T13:17:13Z</time>
      </trkpt>
      <trkpt lat="45.86653" lon="1.87428">
        <ele>741.31</ele>
        <time>2026-05-05T13:17:27Z</time>
      </trkpt>
      <trkpt lat="45.86649" lon="1.87429">
        <ele>741.31</ele>
        <time>2026-05-05T13:17:31Z</time>
      </trkpt>
      <trkpt lat="45.86648" lon="1.8743">
        <ele>740.83</ele>
        <time>2026-05-05T13:17:32Z</time>
      </trkpt>
      <trkpt lat="45.86633" lon="1.87439">
        <ele>741.79</ele>
        <time>2026-05-05T13:17:47Z</time>
      </trkpt>
      <trkpt lat="45.86613" lon="1.87442">
        <ele>741.79</ele>
        <time>2026-05-05T13:18:02Z</time>
      </trkpt>
      <trkpt lat="45.86592" lon="1.87446">
        <ele>743.24</ele>
        <time>2026-05-05T13:18:18Z</time>
      </trkpt>
      <trkpt lat="45.86586" lon="1.87445">
        <ele>744.2</ele>
        <time>2026-05-05T13:18:24Z</time>
      </trkpt>
      <trkpt lat="45.86585" lon="1.87446">
        <ele>744.2</ele>
        <time>2026-05-05T13:18:25Z</time>
      </trkpt>
      <trkpt lat="45.86584" lon="1.87446">
        <ele>744.2</ele>
        <time>2026-05-05T13:18:26Z</time>
      </trkpt>
      <trkpt lat="45.86582" lon="1.87446">
        <ele>744.2</ele>
        <time>2026-05-05T13:18:27Z</time>
      </trkpt>
      <trkpt lat="45.8658" lon="1.87445">
        <ele>744.2</ele>
        <time>2026-05-05T13:18:28Z</time>
      </trkpt>
      <trkpt lat="45.86579" lon="1.87445">
        <ele>744.2</ele>
        <time>2026-05-05T13:18:29Z</time>
      </trkpt>
      <trkpt lat="45.86577" lon="1.87446">
        <ele>744.2</ele>
        <time>2026-05-05T13:18:30Z</time>
      </trkpt>
      <trkpt lat="45.86576" lon="1.87446">
        <ele>744.68</ele>
        <time>2026-05-05T13:18:31Z</time>
      </trkpt>
      <trkpt lat="45.86572" lon="1.87449">
        <ele>744.68</ele>
        <time>2026-05-05T13:18:37Z</time>
      </trkpt>
      <trkpt lat="45.8657" lon="1.8745">
        <ele>745.16</ele>
        <time>2026-05-05T13:18:38Z</time>
      </trkpt>
      <trkpt lat="45.86555" lon="1.8746">
        <ele>746.6</ele>
        <time>2026-05-05T13:18:50Z</time>
      </trkpt>
      <trkpt lat="45.86554" lon="1.8746">
        <ele>746.6</ele>
        <time>2026-05-05T13:18:51Z</time>
      </trkpt>
      <trkpt lat="45.86552" lon="1.87461">
        <ele>746.6</ele>
        <time>2026-05-05T13:18:52Z</time>
      </trkpt>
      <trkpt lat="45.86538" lon="1.87471">
        <ele>747.56</ele>
        <time>2026-05-05T13:19:05Z</time>
      </trkpt>
      <trkpt lat="45.86537" lon="1.87472">
        <ele>748.04</ele>
        <time>2026-05-05T13:19:06Z</time>
      </trkpt>
      <trkpt lat="45.86536" lon="1.87473">
        <ele>748.04</ele>
        <time>2026-05-05T13:19:07Z</time>
      </trkpt>
      <trkpt lat="45.86527" lon="1.87479">
        <ele>749</ele>
        <time>2026-05-05T13:19:15Z</time>
      </trkpt>
      <trkpt lat="45.86525" lon="1.8748">
        <ele>749</ele>
        <time>2026-05-05T13:19:16Z</time>
      </trkpt>
      <trkpt lat="45.86523" lon="1.87481">
        <ele>749.49</ele>
        <time>2026-05-05T13:19:17Z</time>
      </trkpt>
      <trkpt lat="45.86522" lon="1.87483">
        <ele>749.49</ele>
        <time>2026-05-05T13:19:18Z</time>
      </trkpt>
      <trkpt lat="45.8652" lon="1.87483">
        <ele>749.97</ele>
        <time>2026-05-05T13:19:19Z</time>
      </trkpt>
      <trkpt lat="45.86506" lon="1.87493">
        <ele>750.93</ele>
        <time>2026-05-05T13:19:31Z</time>
      </trkpt>
      <trkpt lat="45.86492" lon="1.87504">
        <ele>751.89</ele>
        <time>2026-05-05T13:19:44Z</time>
      </trkpt>
      <trkpt lat="45.86478" lon="1.87516">
        <ele>752.37</ele>
        <time>2026-05-05T13:19:57Z</time>
      </trkpt>
      <trkpt lat="45.86465" lon="1.87526">
        <ele>753.33</ele>
        <time>2026-05-05T13:20:09Z</time>
      </trkpt>
      <trkpt lat="45.86449" lon="1.87539">
        <ele>754.29</ele>
        <time>2026-05-05T13:20:24Z</time>
      </trkpt>
      <trkpt lat="45.86434" lon="1.87551">
        <ele>755.25</ele>
        <time>2026-05-05T13:20:37Z</time>
      </trkpt>
      <trkpt lat="45.86421" lon="1.87561">
        <ele>756.21</ele>
        <time>2026-05-05T13:20:50Z</time>
      </trkpt>
      <trkpt lat="45.8642" lon="1.87561">
        <ele>756.21</ele>
        <time>2026-05-05T13:20:51Z</time>
      </trkpt>
      <trkpt lat="45.86419" lon="1.87562">
        <ele>756.21</ele>
        <time>2026-05-05T13:20:52Z</time>
      </trkpt>
      <trkpt lat="45.86413" lon="1.87565">
        <ele>756.69</ele>
        <time>2026-05-05T13:20:58Z</time>
      </trkpt>
      <trkpt lat="45.86412" lon="1.87566">
        <ele>757.18</ele>
        <time>2026-05-05T13:20:59Z</time>
      </trkpt>
      <trkpt lat="45.86406" lon="1.87572">
        <ele>757.66</ele>
        <time>2026-05-05T13:21:05Z</time>
      </trkpt>
      <trkpt lat="45.86405" lon="1.87573">
        <ele>757.66</ele>
        <time>2026-05-05T13:21:06Z</time>
      </trkpt>
      <trkpt lat="45.86403" lon="1.87574">
        <ele>757.66</ele>
        <time>2026-05-05T13:21:07Z</time>
      </trkpt>
      <trkpt lat="45.864" lon="1.87574">
        <ele>758.62</ele>
        <time>2026-05-05T13:21:10Z</time>
      </trkpt>
      <trkpt lat="45.86399" lon="1.87575">
        <ele>758.14</ele>
        <time>2026-05-05T13:21:11Z</time>
      </trkpt>
      <trkpt lat="45.86398" lon="1.87576">
        <ele>758.62</ele>
        <time>2026-05-05T13:21:12Z</time>
      </trkpt>
      <trkpt lat="45.8639" lon="1.87583">
        <ele>760.06</ele>
        <time>2026-05-05T13:21:21Z</time>
      </trkpt>
      <trkpt lat="45.86389" lon="1.87584">
        <ele>760.06</ele>
        <time>2026-05-05T13:21:22Z</time>
      </trkpt>
      <trkpt lat="45.86388" lon="1.87585">
        <ele>760.06</ele>
        <time>2026-05-05T13:21:23Z</time>
      </trkpt>
      <trkpt lat="45.86385" lon="1.8759">
        <ele>760.54</ele>
        <time>2026-05-05T13:21:28Z</time>
      </trkpt>
      <trkpt lat="45.86384" lon="1.87591">
        <ele>760.54</ele>
        <time>2026-05-05T13:21:29Z</time>
      </trkpt>
      <trkpt lat="45.86373" lon="1.876">
        <ele>762.46</ele>
        <time>2026-05-05T13:21:42Z</time>
      </trkpt>
      <trkpt lat="45.86366" lon="1.87607">
        <ele>762.94</ele>
        <time>2026-05-05T13:21:50Z</time>
      </trkpt>
      <trkpt lat="45.86365" lon="1.87608">
        <ele>762.94</ele>
        <time>2026-05-05T13:21:51Z</time>
      </trkpt>
      <trkpt lat="45.86364" lon="1.87609">
        <ele>762.94</ele>
        <time>2026-05-05T13:21:52Z</time>
      </trkpt>
      <trkpt lat="45.86355" lon="1.87619">
        <ele>763.9</ele>
        <time>2026-05-05T13:22:03Z</time>
      </trkpt>
      <trkpt lat="45.86347" lon="1.87632">
        <ele>765.35</ele>
        <time>2026-05-05T13:22:16Z</time>
      </trkpt>
      <trkpt lat="45.86346" lon="1.87634">
        <ele>765.35</ele>
        <time>2026-05-05T13:22:18Z</time>
      </trkpt>
      <trkpt lat="45.86345" lon="1.87635">
        <ele>765.83</ele>
        <time>2026-05-05T13:22:19Z</time>
      </trkpt>
      <trkpt lat="45.8634" lon="1.87643">
        <ele>766.79</ele>
        <time>2026-05-05T13:22:26Z</time>
      </trkpt>
      <trkpt lat="45.86339" lon="1.87644">
        <ele>766.79</ele>
        <time>2026-05-05T13:22:27Z</time>
      </trkpt>
      <trkpt lat="45.86338" lon="1.87645">
        <ele>766.79</ele>
        <time>2026-05-05T13:22:28Z</time>
      </trkpt>
      <trkpt lat="45.86333" lon="1.87653">
        <ele>767.75</ele>
        <time>2026-05-05T13:22:36Z</time>
      </trkpt>
      <trkpt lat="45.86333" lon="1.87654">
        <ele>767.75</ele>
        <time>2026-05-05T13:22:37Z</time>
      </trkpt>
      <trkpt lat="45.86331" lon="1.87658">
        <ele>767.75</ele>
        <time>2026-05-05T13:22:40Z</time>
      </trkpt>
      <trkpt lat="45.8633" lon="1.87659">
        <ele>768.71</ele>
        <time>2026-05-05T13:22:41Z</time>
      </trkpt>
      <trkpt lat="45.8633" lon="1.87661">
        <ele>768.71</ele>
        <time>2026-05-05T13:22:42Z</time>
      </trkpt>
      <trkpt lat="45.86323" lon="1.87674">
        <ele>770.15</ele>
        <time>2026-05-05T13:22:54Z</time>
      </trkpt>
      <trkpt lat="45.86319" lon="1.87682">
        <ele>771.11</ele>
        <time>2026-05-05T13:23:10Z</time>
      </trkpt>
      <trkpt lat="45.86314" lon="1.8769">
        <ele>773.04</ele>
        <time>2026-05-05T13:23:20Z</time>
      </trkpt>
      <trkpt lat="45.86306" lon="1.87701">
        <ele>774.48</ele>
        <time>2026-05-05T13:23:32Z</time>
      </trkpt>
      <trkpt lat="45.86304" lon="1.87713">
        <ele>775.44</ele>
        <time>2026-05-05T13:23:39Z</time>
      </trkpt>
      <trkpt lat="45.86301" lon="1.8772">
        <ele>776.4</ele>
        <time>2026-05-05T13:23:44Z</time>
      </trkpt>
      <trkpt lat="45.86301" lon="1.87722">
        <ele>776.4</ele>
        <time>2026-05-05T13:23:45Z</time>
      </trkpt>
      <trkpt lat="45.86296" lon="1.87733">
        <ele>778.81</ele>
        <time>2026-05-05T13:23:56Z</time>
      </trkpt>
      <trkpt lat="45.8629" lon="1.87741">
        <ele>780.25</ele>
        <time>2026-05-05T13:24:07Z</time>
      </trkpt>
      <trkpt lat="45.8629" lon="1.87742">
        <ele>780.25</ele>
        <time>2026-05-05T13:24:08Z</time>
      </trkpt>
      <trkpt lat="45.86288" lon="1.87751">
        <ele>781.69</ele>
        <time>2026-05-05T13:24:16Z</time>
      </trkpt>
      <trkpt lat="45.86283" lon="1.87767">
        <ele>783.61</ele>
        <time>2026-05-05T13:24:29Z</time>
      </trkpt>
      <trkpt lat="45.86277" lon="1.87781">
        <ele>785.05</ele>
        <time>2026-05-05T13:24:39Z</time>
      </trkpt>
      <trkpt lat="45.86276" lon="1.87782">
        <ele>785.05</ele>
        <time>2026-05-05T13:24:40Z</time>
      </trkpt>
      <trkpt lat="45.86268" lon="1.87796">
        <ele>786.02</ele>
        <time>2026-05-05T13:24:52Z</time>
      </trkpt>
      <trkpt lat="45.86267" lon="1.87797">
        <ele>786.5</ele>
        <time>2026-05-05T13:24:53Z</time>
      </trkpt>
      <trkpt lat="45.86264" lon="1.87803">
        <ele>786.5</ele>
        <time>2026-05-05T13:24:58Z</time>
      </trkpt>
      <trkpt lat="45.86263" lon="1.87804">
        <ele>786.5</ele>
        <time>2026-05-05T13:24:59Z</time>
      </trkpt>
      <trkpt lat="45.86259" lon="1.87821">
        <ele>788.42</ele>
        <time>2026-05-05T13:25:11Z</time>
      </trkpt>
      <trkpt lat="45.86259" lon="1.87823">
        <ele>788.42</ele>
        <time>2026-05-05T13:25:12Z</time>
      </trkpt>
      <trkpt lat="45.8626" lon="1.8783">
        <ele>788.9</ele>
        <time>2026-05-05T13:25:13Z</time>
      </trkpt>
      <trkpt lat="45.86261" lon="1.87837">
        <ele>788.9</ele>
        <time>2026-05-05T13:25:14Z</time>
      </trkpt>
      <trkpt lat="45.86263" lon="1.87851">
        <ele>789.38</ele>
        <time>2026-05-05T13:25:19Z</time>
      </trkpt>
      <trkpt lat="45.86262" lon="1.87854">
        <ele>789.38</ele>
        <time>2026-05-05T13:25:20Z</time>
      </trkpt>
      <trkpt lat="45.86262" lon="1.87857">
        <ele>789.38</ele>
        <time>2026-05-05T13:25:21Z</time>
      </trkpt>
      <trkpt lat="45.86253" lon="1.8788">
        <ele>790.34</ele>
        <time>2026-05-05T13:25:34Z</time>
      </trkpt>
      <trkpt lat="45.86242" lon="1.87901">
        <ele>791.78</ele>
        <time>2026-05-05T13:25:47Z</time>
      </trkpt>
      <trkpt lat="45.86233" lon="1.87922">
        <ele>791.78</ele>
        <time>2026-05-05T13:25:59Z</time>
      </trkpt>
      <trkpt lat="45.86223" lon="1.87937">
        <ele>791.78</ele>
        <time>2026-05-05T13:26:10Z</time>
      </trkpt>
      <trkpt lat="45.86222" lon="1.87943">
        <ele>792.74</ele>
        <time>2026-05-05T13:26:15Z</time>
      </trkpt>
      <trkpt lat="45.86221" lon="1.87945">
        <ele>792.74</ele>
        <time>2026-05-05T13:26:16Z</time>
      </trkpt>
      <trkpt lat="45.8622" lon="1.87946">
        <ele>792.74</ele>
        <time>2026-05-05T13:26:17Z</time>
      </trkpt>
      <trkpt lat="45.8622" lon="1.87948">
        <ele>793.22</ele>
        <time>2026-05-05T13:26:18Z</time>
      </trkpt>
      <trkpt lat="45.86218" lon="1.8795">
        <ele>793.22</ele>
        <time>2026-05-05T13:26:19Z</time>
      </trkpt>
      <trkpt lat="45.86212" lon="1.87967">
        <ele>794.19</ele>
        <time>2026-05-05T13:26:31Z</time>
      </trkpt>
      <trkpt lat="45.86204" lon="1.87983">
        <ele>795.63</ele>
        <time>2026-05-05T13:26:43Z</time>
      </trkpt>
      <trkpt lat="45.86195" lon="1.87998">
        <ele>797.55</ele>
        <time>2026-05-05T13:26:55Z</time>
      </trkpt>
      <trkpt lat="45.86185" lon="1.88014">
        <ele>798.99</ele>
        <time>2026-05-05T13:27:08Z</time>
      </trkpt>
      <trkpt lat="45.86176" lon="1.88028">
        <ele>799.47</ele>
        <time>2026-05-05T13:27:20Z</time>
      </trkpt>
      <trkpt lat="45.86167" lon="1.88042">
        <ele>800.92</ele>
        <time>2026-05-05T13:27:32Z</time>
      </trkpt>
      <trkpt lat="45.86156" lon="1.88056">
        <ele>802.36</ele>
        <time>2026-05-05T13:27:45Z</time>
      </trkpt>
      <trkpt lat="45.86151" lon="1.88065">
        <ele>803.32</ele>
        <time>2026-05-05T13:27:52Z</time>
      </trkpt>
      <trkpt lat="45.8615" lon="1.88065">
        <ele>803.32</ele>
        <time>2026-05-05T13:27:53Z</time>
      </trkpt>
      <trkpt lat="45.86149" lon="1.88066">
        <ele>803.32</ele>
        <time>2026-05-05T13:27:54Z</time>
      </trkpt>
      <trkpt lat="45.86139" lon="1.88073">
        <ele>803.8</ele>
        <time>2026-05-05T13:28:06Z</time>
      </trkpt>
      <trkpt lat="45.86134" lon="1.88077">
        <ele>803.8</ele>
        <time>2026-05-05T13:28:11Z</time>
      </trkpt>
      <trkpt lat="45.86133" lon="1.88078">
        <ele>804.76</ele>
        <time>2026-05-05T13:28:12Z</time>
      </trkpt>
      <trkpt lat="45.86119" lon="1.8809">
        <ele>805.24</ele>
        <time>2026-05-05T13:28:28Z</time>
      </trkpt>
      <trkpt lat="45.86115" lon="1.8811">
        <ele>806.2</ele>
        <time>2026-05-05T13:28:42Z</time>
      </trkpt>
      <trkpt lat="45.86103" lon="1.88138">
        <ele>806.2</ele>
        <time>2026-05-05T13:28:59Z</time>
      </trkpt>
      <trkpt lat="45.861" lon="1.88143">
        <ele>805.24</ele>
        <time>2026-05-05T13:29:02Z</time>
      </trkpt>
      <trkpt lat="45.86096" lon="1.88151">
        <ele>805.72</ele>
        <time>2026-05-05T13:29:12Z</time>
      </trkpt>
      <trkpt lat="45.86095" lon="1.88154">
        <ele>804.28</ele>
        <time>2026-05-05T13:29:25Z</time>
      </trkpt>
      <trkpt lat="45.86089" lon="1.8818">
        <ele>804.28</ele>
        <time>2026-05-05T13:29:40Z</time>
      </trkpt>
      <trkpt lat="45.86088" lon="1.88185">
        <ele>804.76</ele>
        <time>2026-05-05T13:29:42Z</time>
      </trkpt>
      <trkpt lat="45.86084" lon="1.88198">
        <ele>803.8</ele>
        <time>2026-05-05T13:29:49Z</time>
      </trkpt>
      <trkpt lat="45.86083" lon="1.882">
        <ele>803.8</ele>
        <time>2026-05-05T13:29:50Z</time>
      </trkpt>
      <trkpt lat="45.86082" lon="1.88203">
        <ele>803.8</ele>
        <time>2026-05-05T13:29:51Z</time>
      </trkpt>
      <trkpt lat="45.86084" lon="1.88212">
        <ele>803.32</ele>
        <time>2026-05-05T13:30:03Z</time>
      </trkpt>
      <trkpt lat="45.86086" lon="1.88221">
        <ele>803.32</ele>
        <time>2026-05-05T13:30:12Z</time>
      </trkpt>
      <trkpt lat="45.86086" lon="1.88222">
        <ele>803.32</ele>
        <time>2026-05-05T13:30:13Z</time>
      </trkpt>
      <trkpt lat="45.86085" lon="1.88226">
        <ele>803.32</ele>
        <time>2026-05-05T13:30:16Z</time>
      </trkpt>
      <trkpt lat="45.86085" lon="1.88228">
        <ele>803.32</ele>
        <time>2026-05-05T13:30:17Z</time>
      </trkpt>
      <trkpt lat="45.86085" lon="1.88228">
        <ele>802.36</ele>
        <time>2026-05-05T13:30:30Z</time>
      </trkpt>
      <trkpt lat="45.86082" lon="1.88242">
        <ele>802.36</ele>
        <time>2026-05-05T13:30:39Z</time>
      </trkpt>
      <trkpt lat="45.86081" lon="1.88244">
        <ele>802.36</ele>
        <time>2026-05-05T13:30:40Z</time>
      </trkpt>
      <trkpt lat="45.8608" lon="1.88246">
        <ele>802.36</ele>
        <time>2026-05-05T13:30:41Z</time>
      </trkpt>
      <trkpt lat="45.86075" lon="1.88271">
        <ele>801.88</ele>
        <time>2026-05-05T13:30:56Z</time>
      </trkpt>
      <trkpt lat="45.86074" lon="1.88273">
        <ele>801.88</ele>
        <time>2026-05-05T13:30:57Z</time>
      </trkpt>
      <trkpt lat="45.86067" lon="1.88301">
        <ele>801.4</ele>
        <time>2026-05-05T13:31:12Z</time>
      </trkpt>
      <trkpt lat="45.86059" lon="1.88326">
        <ele>800.92</ele>
        <time>2026-05-05T13:31:26Z</time>
      </trkpt>
      <trkpt lat="45.86053" lon="1.88335">
        <ele>800.44</ele>
        <time>2026-05-05T13:31:35Z</time>
      </trkpt>
      <trkpt lat="45.86052" lon="1.88337">
        <ele>800.44</ele>
        <time>2026-05-05T13:31:36Z</time>
      </trkpt>
      <trkpt lat="45.86051" lon="1.88339">
        <ele>800.44</ele>
        <time>2026-05-05T13:31:37Z</time>
      </trkpt>
      <trkpt lat="45.86042" lon="1.88357">
        <ele>798.99</ele>
        <time>2026-05-05T13:31:49Z</time>
      </trkpt>
      <trkpt lat="45.86031" lon="1.88375">
        <ele>798.51</ele>
        <time>2026-05-05T13:32:03Z</time>
      </trkpt>
      <trkpt lat="45.86029" lon="1.88378">
        <ele>798.51</ele>
        <time>2026-05-05T13:32:05Z</time>
      </trkpt>
      <trkpt lat="45.86021" lon="1.88399">
        <ele>796.59</ele>
        <time>2026-05-05T13:32:17Z</time>
      </trkpt>
      <trkpt lat="45.8602" lon="1.88405">
        <ele>796.11</ele>
        <time>2026-05-05T13:32:20Z</time>
      </trkpt>
      <trkpt lat="45.86014" lon="1.88423">
        <ele>794.67</ele>
        <time>2026-05-05T13:32:32Z</time>
      </trkpt>
      <trkpt lat="45.86011" lon="1.88438">
        <ele>794.19</ele>
        <time>2026-05-05T13:32:46Z</time>
      </trkpt>
      <trkpt lat="45.86011" lon="1.88443">
        <ele>793.71</ele>
        <time>2026-05-05T13:32:49Z</time>
      </trkpt>
      <trkpt lat="45.86011" lon="1.88446">
        <ele>793.22</ele>
        <time>2026-05-05T13:32:50Z</time>
      </trkpt>
      <trkpt lat="45.86011" lon="1.88448">
        <ele>792.74</ele>
        <time>2026-05-05T13:32:51Z</time>
      </trkpt>
      <trkpt lat="45.86017" lon="1.88479">
        <ele>790.82</ele>
        <time>2026-05-05T13:33:04Z</time>
      </trkpt>
      <trkpt lat="45.86021" lon="1.88488">
        <ele>790.82</ele>
        <time>2026-05-05T13:33:16Z</time>
      </trkpt>
      <trkpt lat="45.86024" lon="1.885">
        <ele>789.86</ele>
        <time>2026-05-05T13:33:23Z</time>
      </trkpt>
      <trkpt lat="45.86026" lon="1.8852">
        <ele>789.86</ele>
        <time>2026-05-05T13:33:31Z</time>
      </trkpt>
      <trkpt lat="45.86026" lon="1.88524">
        <ele>789.86</ele>
        <time>2026-05-05T13:33:33Z</time>
      </trkpt>
      <trkpt lat="45.86028" lon="1.88526">
        <ele>789.86</ele>
        <time>2026-05-05T13:33:34Z</time>
      </trkpt>
      <trkpt lat="45.86028" lon="1.88528">
        <ele>789.86</ele>
        <time>2026-05-05T13:33:35Z</time>
      </trkpt>
      <trkpt lat="45.86029" lon="1.88529">
        <ele>788.9</ele>
        <time>2026-05-05T13:33:36Z</time>
      </trkpt>
      <trkpt lat="45.8603" lon="1.88531">
        <ele>788.9</ele>
        <time>2026-05-05T13:33:37Z</time>
      </trkpt>
      <trkpt lat="45.8603" lon="1.88533">
        <ele>788.9</ele>
        <time>2026-05-05T13:33:38Z</time>
      </trkpt>
      <trkpt lat="45.86033" lon="1.8855">
        <ele>787.94</ele>
        <time>2026-05-05T13:33:53Z</time>
      </trkpt>
      <trkpt lat="45.86036" lon="1.88553">
        <ele>787.94</ele>
        <time>2026-05-05T13:34:10Z</time>
      </trkpt>
      <trkpt lat="45.86036" lon="1.88555">
        <ele>787.94</ele>
        <time>2026-05-05T13:34:11Z</time>
      </trkpt>
      <trkpt lat="45.86037" lon="1.8856">
        <ele>787.94</ele>
        <time>2026-05-05T13:34:15Z</time>
      </trkpt>
      <trkpt lat="45.86037" lon="1.88563">
        <ele>787.94</ele>
        <time>2026-05-05T13:34:16Z</time>
      </trkpt>
      <trkpt lat="45.86037" lon="1.88565">
        <ele>787.94</ele>
        <time>2026-05-05T13:34:17Z</time>
      </trkpt>
      <trkpt lat="45.86038" lon="1.88567">
        <ele>787.94</ele>
        <time>2026-05-05T13:34:18Z</time>
      </trkpt>
      <trkpt lat="45.86039" lon="1.88569">
        <ele>787.94</ele>
        <time>2026-05-05T13:34:19Z</time>
      </trkpt>
      <trkpt lat="45.86039" lon="1.88571">
        <ele>787.94</ele>
        <time>2026-05-05T13:34:20Z</time>
      </trkpt>
      <trkpt lat="45.8604" lon="1.88573">
        <ele>787.94</ele>
        <time>2026-05-05T13:34:21Z</time>
      </trkpt>
      <trkpt lat="45.86043" lon="1.88592">
        <ele>786.5</ele>
        <time>2026-05-05T13:34:34Z</time>
      </trkpt>
      <trkpt lat="45.86043" lon="1.88594">
        <ele>786.5</ele>
        <time>2026-05-05T13:34:35Z</time>
      </trkpt>
      <trkpt lat="45.86043" lon="1.88596">
        <ele>786.5</ele>
        <time>2026-05-05T13:34:36Z</time>
      </trkpt>
      <trkpt lat="45.86044" lon="1.88598">
        <ele>786.5</ele>
        <time>2026-05-05T13:34:37Z</time>
      </trkpt>
      <trkpt lat="45.86044" lon="1.886">
        <ele>786.02</ele>
        <time>2026-05-05T13:34:38Z</time>
      </trkpt>
      <trkpt lat="45.86044" lon="1.88603">
        <ele>786.02</ele>
        <time>2026-05-05T13:34:39Z</time>
      </trkpt>
      <trkpt lat="45.86044" lon="1.88605">
        <ele>786.02</ele>
        <time>2026-05-05T13:34:40Z</time>
      </trkpt>
      <trkpt lat="45.86044" lon="1.88607">
        <ele>786.02</ele>
        <time>2026-05-05T13:34:41Z</time>
      </trkpt>
      <trkpt lat="45.86046" lon="1.88629">
        <ele>785.53</ele>
        <time>2026-05-05T13:34:56Z</time>
      </trkpt>
      <trkpt lat="45.86044" lon="1.88658">
        <ele>784.57</ele>
        <time>2026-05-05T13:35:09Z</time>
      </trkpt>
      <trkpt lat="45.86045" lon="1.8866">
        <ele>784.09</ele>
        <time>2026-05-05T13:35:10Z</time>
      </trkpt>
      <trkpt lat="45.86045" lon="1.88662">
        <ele>784.09</ele>
        <time>2026-05-05T13:35:11Z</time>
      </trkpt>
      <trkpt lat="45.86049" lon="1.88683">
        <ele>782.65</ele>
        <time>2026-05-05T13:35:23Z</time>
      </trkpt>
      <trkpt lat="45.86058" lon="1.88707">
        <ele>781.21</ele>
        <time>2026-05-05T13:35:38Z</time>
      </trkpt>
      <trkpt lat="45.86068" lon="1.88731">
        <ele>779.29</ele>
        <time>2026-05-05T13:35:50Z</time>
      </trkpt>
      <trkpt lat="45.86075" lon="1.88752">
        <ele>776.4</ele>
        <time>2026-05-05T13:36:04Z</time>
      </trkpt>
      <trkpt lat="45.86083" lon="1.88785">
        <ele>774</ele>
        <time>2026-05-05T13:36:19Z</time>
      </trkpt>
      <trkpt lat="45.86093" lon="1.88815">
        <ele>772.08</ele>
        <time>2026-05-05T13:36:34Z</time>
      </trkpt>
      <trkpt lat="45.86095" lon="1.88818">
        <ele>772.08</ele>
        <time>2026-05-05T13:36:36Z</time>
      </trkpt>
      <trkpt lat="45.86096" lon="1.8882">
        <ele>771.6</ele>
        <time>2026-05-05T13:36:37Z</time>
      </trkpt>
      <trkpt lat="45.86104" lon="1.88843">
        <ele>768.71</ele>
        <time>2026-05-05T13:36:51Z</time>
      </trkpt>
      <trkpt lat="45.86106" lon="1.88857">
        <ele>766.31</ele>
        <time>2026-05-05T13:37:00Z</time>
      </trkpt>
      <trkpt lat="45.86105" lon="1.88868">
        <ele>763.42</ele>
        <time>2026-05-05T13:37:10Z</time>
      </trkpt>
      <trkpt lat="45.86118" lon="1.88882">
        <ele>760.54</ele>
        <time>2026-05-05T13:37:27Z</time>
      </trkpt>
      <trkpt lat="45.8613" lon="1.88915">
        <ele>758.14</ele>
        <time>2026-05-05T13:37:47Z</time>
      </trkpt>
      <trkpt lat="45.8616" lon="1.88957">
        <ele>755.73</ele>
        <time>2026-05-05T13:38:09Z</time>
      </trkpt>
      <trkpt lat="45.86165" lon="1.88971">
        <ele>755.73</ele>
        <time>2026-05-05T13:38:15Z</time>
      </trkpt>
      <trkpt lat="45.86166" lon="1.88973">
        <ele>755.73</ele>
        <time>2026-05-05T13:38:16Z</time>
      </trkpt>
      <trkpt lat="45.86171" lon="1.89">
        <ele>755.25</ele>
        <time>2026-05-05T13:38:31Z</time>
      </trkpt>
      <trkpt lat="45.86171" lon="1.89001">
        <ele>755.25</ele>
        <time>2026-05-05T13:38:32Z</time>
      </trkpt>
      <trkpt lat="45.86172" lon="1.89002">
        <ele>755.25</ele>
        <time>2026-05-05T13:38:33Z</time>
      </trkpt>
      <trkpt lat="45.86172" lon="1.89004">
        <ele>755.25</ele>
        <time>2026-05-05T13:38:34Z</time>
      </trkpt>
      <trkpt lat="45.8618" lon="1.89033">
        <ele>755.25</ele>
        <time>2026-05-05T13:38:49Z</time>
      </trkpt>
      <trkpt lat="45.86193" lon="1.89057">
        <ele>753.81</ele>
        <time>2026-05-05T13:39:06Z</time>
      </trkpt>
      <trkpt lat="45.862" lon="1.89075">
        <ele>751.89</ele>
        <time>2026-05-05T13:39:18Z</time>
      </trkpt>
      <trkpt lat="45.86201" lon="1.89077">
        <ele>751.89</ele>
        <time>2026-05-05T13:39:19Z</time>
      </trkpt>
      <trkpt lat="45.86213" lon="1.89096">
        <ele>753.33</ele>
        <time>2026-05-05T13:39:33Z</time>
      </trkpt>
      <trkpt lat="45.86217" lon="1.89104">
        <ele>751.41</ele>
        <time>2026-05-05T13:39:37Z</time>
      </trkpt>
      <trkpt lat="45.86222" lon="1.89112">
        <ele>750.93</ele>
        <time>2026-05-05T13:39:42Z</time>
      </trkpt>
      <trkpt lat="45.86223" lon="1.89113">
        <ele>750.93</ele>
        <time>2026-05-05T13:39:43Z</time>
      </trkpt>
      <trkpt lat="45.86224" lon="1.89115">
        <ele>750.93</ele>
        <time>2026-05-05T13:39:44Z</time>
      </trkpt>
      <trkpt lat="45.86237" lon="1.89136">
        <ele>750.45</ele>
        <time>2026-05-05T13:39:59Z</time>
      </trkpt>
      <trkpt lat="45.86255" lon="1.89163">
        <ele>749</ele>
        <time>2026-05-05T13:40:18Z</time>
      </trkpt>
      <trkpt lat="45.86269" lon="1.89185">
        <ele>747.08</ele>
        <time>2026-05-05T13:40:33Z</time>
      </trkpt>
      <trkpt lat="45.86283" lon="1.89208">
        <ele>745.16</ele>
        <time>2026-05-05T13:40:48Z</time>
      </trkpt>
      <trkpt lat="45.86297" lon="1.89229">
        <ele>744.2</ele>
        <time>2026-05-05T13:41:03Z</time>
      </trkpt>
      <trkpt lat="45.86314" lon="1.89251">
        <ele>742.76</ele>
        <time>2026-05-05T13:41:21Z</time>
      </trkpt>
      <trkpt lat="45.86316" lon="1.89253">
        <ele>742.76</ele>
        <time>2026-05-05T13:41:22Z</time>
      </trkpt>
      <trkpt lat="45.86328" lon="1.89273">
        <ele>740.35</ele>
        <time>2026-05-05T13:41:36Z</time>
      </trkpt>
      <trkpt lat="45.86336" lon="1.89298">
        <ele>739.39</ele>
        <time>2026-05-05T13:41:52Z</time>
      </trkpt>
      <trkpt lat="45.86344" lon="1.89331">
        <ele>736.99</ele>
        <time>2026-05-05T13:42:10Z</time>
      </trkpt>
      <trkpt lat="45.86347" lon="1.89368">
        <ele>734.1</ele>
        <time>2026-05-05T13:42:29Z</time>
      </trkpt>
      <trkpt lat="45.86346" lon="1.89398">
        <ele>731.7</ele>
        <time>2026-05-05T13:42:45Z</time>
      </trkpt>
      <trkpt lat="45.86336" lon="1.89426">
        <ele>729.3</ele>
        <time>2026-05-05T13:43:02Z</time>
      </trkpt>
      <trkpt lat="45.86332" lon="1.89439">
        <ele>727.86</ele>
        <time>2026-05-05T13:43:17Z</time>
      </trkpt>
      <trkpt lat="45.8633" lon="1.89444">
        <ele>727.86</ele>
        <time>2026-05-05T13:43:47Z</time>
      </trkpt>
      <trkpt lat="45.8633" lon="1.89451">
        <ele>726.89</ele>
        <time>2026-05-05T13:43:59Z</time>
      </trkpt>
      <trkpt lat="45.86328" lon="1.89452">
        <ele>726.89</ele>
        <time>2026-05-05T13:44:01Z</time>
      </trkpt>
      <trkpt lat="45.86326" lon="1.89453">
        <ele>726.89</ele>
        <time>2026-05-05T13:44:02Z</time>
      </trkpt>
      <trkpt lat="45.86325" lon="1.89455">
        <ele>726.89</ele>
        <time>2026-05-05T13:44:03Z</time>
      </trkpt>
      <trkpt lat="45.86324" lon="1.89461">
        <ele>726.41</ele>
        <time>2026-05-05T13:44:07Z</time>
      </trkpt>
      <trkpt lat="45.86321" lon="1.89468">
        <ele>725.45</ele>
        <time>2026-05-05T13:44:12Z</time>
      </trkpt>
      <trkpt lat="45.86319" lon="1.89478">
        <ele>724.49</ele>
        <time>2026-05-05T13:44:22Z</time>
      </trkpt>
      <trkpt lat="45.86317" lon="1.89478">
        <ele>724.49</ele>
        <time>2026-05-05T13:44:23Z</time>
      </trkpt>
      <trkpt lat="45.86307" lon="1.89476">
        <ele>724.49</ele>
        <time>2026-05-05T13:44:39Z</time>
      </trkpt>
      <trkpt lat="45.86306" lon="1.89477">
        <ele>724.49</ele>
        <time>2026-05-05T13:45:04Z</time>
      </trkpt>
      <trkpt lat="45.86299" lon="1.8948">
        <ele>723.05</ele>
        <time>2026-05-05T13:45:22Z</time>
      </trkpt>
      <trkpt lat="45.86287" lon="1.89481">
        <ele>724.49</ele>
        <time>2026-05-05T13:45:36Z</time>
      </trkpt>
      <trkpt lat="45.86267" lon="1.89483">
        <ele>721.13</ele>
        <time>2026-05-05T13:45:48Z</time>
      </trkpt>
      <trkpt lat="45.86252" lon="1.89489">
        <ele>720.16</ele>
        <time>2026-05-05T13:45:59Z</time>
      </trkpt>
      <trkpt lat="45.86234" lon="1.89496">
        <ele>717.76</ele>
        <time>2026-05-05T13:46:15Z</time>
      </trkpt>
      <trkpt lat="45.86237" lon="1.89492">
        <ele>718.72</ele>
        <time>2026-05-05T13:46:30Z</time>
      </trkpt>
      <trkpt lat="45.86244" lon="1.89492">
        <ele>718.72</ele>
        <time>2026-05-05T13:46:47Z</time>
      </trkpt>
      <trkpt lat="45.86243" lon="1.89487">
        <ele>719.68</ele>
        <time>2026-05-05T13:47:15Z</time>
      </trkpt>
      <trkpt lat="45.86237" lon="1.89489">
        <ele>719.68</ele>
        <time>2026-05-05T13:47:39Z</time>
      </trkpt>
      <trkpt lat="45.86234" lon="1.89488">
        <ele>719.68</ele>
        <time>2026-05-05T13:47:45Z</time>
      </trkpt>
      <trkpt lat="45.86233" lon="1.89488">
        <ele>719.68</ele>
        <time>2026-05-05T13:47:46Z</time>
      </trkpt>
      <trkpt lat="45.86226" lon="1.89492">
        <ele>718.72</ele>
        <time>2026-05-05T13:47:53Z</time>
      </trkpt>
      <trkpt lat="45.86218" lon="1.89502">
        <ele>716.32</ele>
        <time>2026-05-05T13:48:09Z</time>
      </trkpt>
      <trkpt lat="45.86221" lon="1.89512">
        <ele>716.32</ele>
        <time>2026-05-05T13:48:25Z</time>
      </trkpt>
      <trkpt lat="45.86221" lon="1.89509">
        <ele>716.8</ele>
        <time>2026-05-05T13:48:54Z</time>
      </trkpt>
      <trkpt lat="45.86221" lon="1.8951">
        <ele>716.8</ele>
        <time>2026-05-05T13:49:15Z</time>
      </trkpt>
      <trkpt lat="45.86226" lon="1.89509">
        <ele>716.8</ele>
        <time>2026-05-05T13:49:34Z</time>
      </trkpt>
      <trkpt lat="45.8622" lon="1.8951">
        <ele>715.84</ele>
        <time>2026-05-05T13:49:51Z</time>
      </trkpt>
      <trkpt lat="45.86223" lon="1.89507">
        <ele>716.8</ele>
        <time>2026-05-05T13:50:10Z</time>
      </trkpt>
      <trkpt lat="45.86223" lon="1.89514">
        <ele>716.8</ele>
        <time>2026-05-05T13:50:29Z</time>
      </trkpt>
      <trkpt lat="45.86225" lon="1.89508">
        <ele>716.8</ele>
        <time>2026-05-05T13:50:47Z</time>
      </trkpt>
      <trkpt lat="45.86224" lon="1.89506">
        <ele>716.8</ele>
        <time>2026-05-05T13:50:49Z</time>
      </trkpt>
      <trkpt lat="45.86221" lon="1.89504">
        <ele>716.8</ele>
        <time>2026-05-05T13:51:05Z</time>
      </trkpt>
      <trkpt lat="45.8622" lon="1.89505">
        <ele>715.84</ele>
        <time>2026-05-05T13:51:20Z</time>
      </trkpt>
      <trkpt lat="45.86221" lon="1.89508">
        <ele>717.76</ele>
        <time>2026-05-05T13:51:27Z</time>
      </trkpt>
      <trkpt lat="45.86221" lon="1.89508">
        <ele>716.32</ele>
        <time>2026-05-05T13:51:30Z</time>
      </trkpt>
      <trkpt lat="45.86221" lon="1.89512">
        <ele>716.8</ele>
        <time>2026-05-05T13:51:43Z</time>
      </trkpt>
      <trkpt lat="45.86221" lon="1.89509">
        <ele>716.8</ele>
        <time>2026-05-05T13:52:14Z</time>
      </trkpt>
      <trkpt lat="45.86228" lon="1.89508">
        <ele>716.8</ele>
        <time>2026-05-05T13:52:49Z</time>
      </trkpt>
      <trkpt lat="45.86227" lon="1.89509">
        <ele>716.8</ele>
        <time>2026-05-05T13:53:06Z</time>
      </trkpt>
      <trkpt lat="45.86229" lon="1.89508">
        <ele>716.8</ele>
        <time>2026-05-05T13:53:29Z</time>
      </trkpt>
      <trkpt lat="45.8623" lon="1.89508">
        <ele>717.28</ele>
        <time>2026-05-05T13:53:45Z</time>
      </trkpt>
      <trkpt lat="45.8623" lon="1.89509">
        <ele>716.32</ele>
        <time>2026-05-05T13:53:47Z</time>
      </trkpt>
      <trkpt lat="45.86224" lon="1.89509">
        <ele>718.24</ele>
        <time>2026-05-05T13:53:58Z</time>
      </trkpt>
      <trkpt lat="45.86225" lon="1.89509">
        <ele>716.32</ele>
        <time>2026-05-05T13:54:00Z</time>
      </trkpt>
      <trkpt lat="45.86224" lon="1.89504">
        <ele>716.32</ele>
        <time>2026-05-05T13:54:15Z</time>
      </trkpt>
      <trkpt lat="45.86223" lon="1.89506">
        <ele>715.84</ele>
        <time>2026-05-05T13:54:33Z</time>
      </trkpt>
      <trkpt lat="45.86224" lon="1.89508">
        <ele>715.84</ele>
        <time>2026-05-05T13:54:57Z</time>
      </trkpt>
      <trkpt lat="45.86223" lon="1.89511">
        <ele>715.84</ele>
        <time>2026-05-05T13:55:16Z</time>
      </trkpt>
      <trkpt lat="45.86222" lon="1.89509">
        <ele>715.84</ele>
        <time>2026-05-05T13:55:32Z</time>
      </trkpt>
      <trkpt lat="45.8622" lon="1.89511">
        <ele>716.8</ele>
        <time>2026-05-05T13:55:45Z</time>
      </trkpt>
      <trkpt lat="45.86223" lon="1.89507">
        <ele>713.44</ele>
        <time>2026-05-05T13:55:58Z</time>
      </trkpt>
      <trkpt lat="45.86222" lon="1.89508">
        <ele>719.68</ele>
        <time>2026-05-05T13:56:04Z</time>
      </trkpt>
      <trkpt lat="45.86222" lon="1.89508">
        <ele>717.76</ele>
        <time>2026-05-05T13:56:05Z</time>
      </trkpt>
      <trkpt lat="45.86225" lon="1.89506">
        <ele>715.84</ele>
        <time>2026-05-05T13:56:26Z</time>
      </trkpt>
      <trkpt lat="45.86226" lon="1.89506">
        <ele>715.84</ele>
        <time>2026-05-05T13:56:44Z</time>
      </trkpt>
      <trkpt lat="45.86223" lon="1.8951">
        <ele>716.32</ele>
        <time>2026-05-05T13:57:04Z</time>
      </trkpt>
      <trkpt lat="45.86225" lon="1.89511">
        <ele>716.32</ele>
        <time>2026-05-05T13:57:28Z</time>
      </trkpt>
      <trkpt lat="45.86228" lon="1.89506">
        <ele>713.44</ele>
        <time>2026-05-05T13:57:42Z</time>
      </trkpt>
      <trkpt lat="45.86227" lon="1.89506">
        <ele>714.88</ele>
        <time>2026-05-05T13:57:46Z</time>
      </trkpt>
      <trkpt lat="45.86226" lon="1.89506">
        <ele>718.24</ele>
        <time>2026-05-05T13:57:52Z</time>
      </trkpt>
      <trkpt lat="45.86221" lon="1.89507">
        <ele>713.44</ele>
        <time>2026-05-05T13:58:03Z</time>
      </trkpt>
      <trkpt lat="45.86221" lon="1.89509">
        <ele>715.36</ele>
        <time>2026-05-05T13:58:07Z</time>
      </trkpt>
      <trkpt lat="45.86221" lon="1.89508">
        <ele>718.72</ele>
        <time>2026-05-05T13:58:12Z</time>
      </trkpt>
      <trkpt lat="45.86221" lon="1.89508">
        <ele>716.32</ele>
        <time>2026-05-05T13:58:13Z</time>
      </trkpt>
      <trkpt lat="45.8622" lon="1.89508">
        <ele>714.88</ele>
        <time>2026-05-05T13:58:15Z</time>
      </trkpt>
      <trkpt lat="45.8622" lon="1.8951">
        <ele>716.32</ele>
        <time>2026-05-05T13:58:20Z</time>
      </trkpt>
      <trkpt lat="45.86221" lon="1.89511">
        <ele>716.32</ele>
        <time>2026-05-05T13:58:21Z</time>
      </trkpt>
      <trkpt lat="45.86223" lon="1.89509">
        <ele>712.95</ele>
        <time>2026-05-05T13:58:24Z</time>
      </trkpt>
      <trkpt lat="45.86224" lon="1.89508">
        <ele>717.76</ele>
        <time>2026-05-05T13:58:26Z</time>
      </trkpt>
      <trkpt lat="45.86224" lon="1.89508">
        <ele>717.76</ele>
        <time>2026-05-05T13:58:27Z</time>
      </trkpt>
      <trkpt lat="45.86223" lon="1.89508">
        <ele>715.36</ele>
        <time>2026-05-05T13:58:30Z</time>
      </trkpt>
      <trkpt lat="45.86221" lon="1.89505">
        <ele>715.84</ele>
        <time>2026-05-05T13:58:48Z</time>
      </trkpt>
      <trkpt lat="45.86224" lon="1.8951">
        <ele>715.84</ele>
        <time>2026-05-05T13:59:00Z</time>
      </trkpt>
      <trkpt lat="45.86228" lon="1.89505">
        <ele>716.32</ele>
        <time>2026-05-05T13:59:13Z</time>
      </trkpt>
      <trkpt lat="45.86224" lon="1.89505">
        <ele>716.32</ele>
        <time>2026-05-05T13:59:17Z</time>
      </trkpt>
      <trkpt lat="45.86223" lon="1.89507">
        <ele>709.59</ele>
        <time>2026-05-05T13:59:21Z</time>
      </trkpt>
      <trkpt lat="45.86223" lon="1.89508">
        <ele>711.51</ele>
        <time>2026-05-05T13:59:22Z</time>
      </trkpt>
      <trkpt lat="45.86223" lon="1.89508">
        <ele>715.36</ele>
        <time>2026-05-05T13:59:24Z</time>
      </trkpt>
      <trkpt lat="45.86223" lon="1.89508">
        <ele>715.36</ele>
        <time>2026-05-05T13:59:25Z</time>
      </trkpt>
      <trkpt lat="45.86225" lon="1.89509">
        <ele>719.68</ele>
        <time>2026-05-05T13:59:35Z</time>
      </trkpt>
      <trkpt lat="45.86225" lon="1.89507">
        <ele>719.68</ele>
        <time>2026-05-05T13:59:36Z</time>
      </trkpt>
      <trkpt lat="45.86225" lon="1.89506">
        <ele>716.32</ele>
        <time>2026-05-05T13:59:37Z</time>
      </trkpt>
      <trkpt lat="45.86221" lon="1.89503">
        <ele>711.99</ele>
        <time>2026-05-05T13:59:51Z</time>
      </trkpt>
      <trkpt lat="45.8622" lon="1.89503">
        <ele>713.92</ele>
        <time>2026-05-05T13:59:52Z</time>
      </trkpt>
      <trkpt lat="45.86221" lon="1.89503">
        <ele>715.84</ele>
        <time>2026-05-05T13:59:54Z</time>
      </trkpt>
      <trkpt lat="45.86221" lon="1.895">
        <ele>713.92</ele>
        <time>2026-05-05T14:00:03Z</time>
      </trkpt>
      <trkpt lat="45.86222" lon="1.89499">
        <ele>717.28</ele>
        <time>2026-05-05T14:00:06Z</time>
      </trkpt>
      <trkpt lat="45.86222" lon="1.895">
        <ele>717.28</ele>
        <time>2026-05-05T14:00:07Z</time>
      </trkpt>
      <trkpt lat="45.86221" lon="1.895">
        <ele>715.84</ele>
        <time>2026-05-05T14:00:09Z</time>
      </trkpt>
      <trkpt lat="45.8622" lon="1.89505">
        <ele>714.88</ele>
        <time>2026-05-05T14:00:28Z</time>
      </trkpt>
      <trkpt lat="45.8622" lon="1.89506">
        <ele>714.88</ele>
        <time>2026-05-05T14:00:43Z</time>
      </trkpt>
      <trkpt lat="45.8622" lon="1.89505">
        <ele>714.4</ele>
        <time>2026-05-05T14:00:51Z</time>
      </trkpt>
      <trkpt lat="45.8622" lon="1.89504">
        <ele>718.24</ele>
        <time>2026-05-05T14:00:56Z</time>
      </trkpt>
      <trkpt lat="45.8622" lon="1.89505">
        <ele>718.24</ele>
        <time>2026-05-05T14:00:57Z</time>
      </trkpt>
      <trkpt lat="45.86221" lon="1.89506">
        <ele>714.88</ele>
        <time>2026-05-05T14:01:12Z</time>
      </trkpt>
      <trkpt lat="45.86219" lon="1.89507">
        <ele>714.88</ele>
        <time>2026-05-05T14:01:40Z</time>
      </trkpt>
      <trkpt lat="45.86219" lon="1.89508">
        <ele>714.88</ele>
        <time>2026-05-05T14:01:54Z</time>
      </trkpt>
      <trkpt lat="45.86221" lon="1.89507">
        <ele>714.88</ele>
        <time>2026-05-05T14:02:27Z</time>
      </trkpt>
      <trkpt lat="45.86218" lon="1.89504">
        <ele>715.36</ele>
        <time>2026-05-05T14:02:51Z</time>
      </trkpt>
      <trkpt lat="45.86221" lon="1.89503">
        <ele>715.36</ele>
        <time>2026-05-05T14:03:14Z</time>
      </trkpt>
      <trkpt lat="45.86222" lon="1.89503">
        <ele>710.07</ele>
        <time>2026-05-05T14:03:18Z</time>
      </trkpt>
      <trkpt lat="45.86221" lon="1.89503">
        <ele>713.92</ele>
        <time>2026-05-05T14:03:19Z</time>
      </trkpt>
      <trkpt lat="45.86221" lon="1.89502">
        <ele>715.36</ele>
        <time>2026-05-05T14:03:21Z</time>
      </trkpt>
      <trkpt lat="45.86224" lon="1.89502">
        <ele>715.36</ele>
        <time>2026-05-05T14:03:38Z</time>
      </trkpt>
      <trkpt lat="45.86226" lon="1.89505">
        <ele>715.36</ele>
        <time>2026-05-05T14:03:42Z</time>
      </trkpt>
      <trkpt lat="45.86228" lon="1.89509">
        <ele>714.4</ele>
        <time>2026-05-05T14:03:48Z</time>
      </trkpt>
      <trkpt lat="45.86228" lon="1.89506">
        <ele>719.2</ele>
        <time>2026-05-05T14:03:50Z</time>
      </trkpt>
      <trkpt lat="45.86228" lon="1.89506">
        <ele>717.28</ele>
        <time>2026-05-05T14:03:51Z</time>
      </trkpt>
      <trkpt lat="45.86229" lon="1.89506">
        <ele>715.84</ele>
        <time>2026-05-05T14:03:54Z</time>
      </trkpt>
      <trkpt lat="45.86228" lon="1.89504">
        <ele>716.8</ele>
        <time>2026-05-05T14:04:12Z</time>
      </trkpt>
    </trkseg>
  </trk>
</gpx>